<?xml version='1.0' encoding='UTF-8'?><gpx version="1.1" creator="JPX - https://github.com/jenetics/jpx" xmlns="http://www.topografix.com/GPX/1/1"><trk><trkseg><trkpt lat="47.81434607172588" lon="7.242884197230135"><ele>251.00000000000003</ele><time>2026-03-29T13:15:37Z</time></trkpt><trkpt lat="47.814324041830425" lon="7.243004972548739"><ele>251.0</ele><time>2026-03-29T13:15:39Z</time></trkpt><trkpt lat="47.814241287760254" lon="7.243016737199468"><ele>251.0</ele><time>2026-03-29T13:15:41Z</time></trkpt><trkpt lat="47.81416931583902" lon="7.242862978341116"><ele>251.0</ele><time>2026-03-29T13:15:43Z</time></trkpt><trkpt lat="47.81415442102502" lon="7.242760685644507"><ele>251.00000000000003</ele><time>2026-03-29T13:15:44Z</time></trkpt><trkpt lat="47.81413417811889" lon="7.242659037806117"><ele>251.0</ele><time>2026-03-29T13:15:45Z</time></trkpt><trkpt lat="47.814107938695265" lon="7.242512956351965"><ele>251.0</ele><time>2026-03-29T13:15:47Z</time></trkpt><trkpt lat="47.8143080415239" lon="7.242380537412373"><ele>251.0</ele><time>2026-03-29T13:15:49Z</time></trkpt><trkpt lat="47.81438933338716" lon="7.242335085280377"><ele>251.0</ele><time>2026-03-29T13:15:50Z</time></trkpt><trkpt lat="47.81456410272765" lon="7.242239896960011"><ele>251.0</ele><time>2026-03-29T13:15:52Z</time></trkpt><trkpt lat="47.81465930372798" lon="7.242183606908978"><ele>251.00000000000003</ele><time>2026-03-29T13:15:53Z</time></trkpt><trkpt lat="47.81474385056384" lon="7.242122328257047"><ele>251.00000000000003</ele><time>2026-03-29T13:15:54Z</time></trkpt><trkpt lat="47.814807781588975" lon="7.2420337488200675"><ele>251.0</ele><time>2026-03-29T13:15:55Z</time></trkpt><trkpt lat="47.81487709180617" lon="7.241932816187536"><ele>251.0</ele><time>2026-03-29T13:15:56Z</time></trkpt><trkpt lat="47.814936453155774" lon="7.241856210775379"><ele>251.0</ele><time>2026-03-29T13:15:57Z</time></trkpt><trkpt lat="47.8149948417824" lon="7.241803710052431"><ele>251.00000000000003</ele><time>2026-03-29T13:15:58Z</time></trkpt><trkpt lat="47.81507143262928" lon="7.241781186971628"><ele>251.00000000000003</ele><time>2026-03-29T13:15:59Z</time></trkpt><trkpt lat="47.81516430172626" lon="7.241819905699469"><ele>251.0</ele><time>2026-03-29T13:16:00Z</time></trkpt><trkpt lat="47.815265034690796" lon="7.241864925750122"><ele>251.0</ele><time>2026-03-29T13:16:01Z</time></trkpt><trkpt lat="47.8153751827763" lon="7.241821413987391"><ele>251.0</ele><time>2026-03-29T13:16:02Z</time></trkpt><trkpt lat="47.81545754560229" lon="7.2416905165128655"><ele>251.0</ele><time>2026-03-29T13:16:03Z</time></trkpt><trkpt lat="47.81548341566546" lon="7.241526218079197"><ele>251.0</ele><time>2026-03-29T13:16:04Z</time></trkpt><trkpt lat="47.81545623578347" lon="7.241345404795008"><ele>251.0</ele><time>2026-03-29T13:16:05Z</time></trkpt><trkpt lat="47.81538205189796" lon="7.241179892112074"><ele>251.0</ele><time>2026-03-29T13:16:06Z</time></trkpt><trkpt lat="47.8152432117644" lon="7.241125455456706"><ele>251.0</ele><time>2026-03-29T13:16:07Z</time></trkpt><trkpt lat="47.81517722568419" lon="7.240940935631916"><ele>251.0</ele><time>2026-03-29T13:16:08Z</time></trkpt><trkpt lat="47.81515508784452" lon="7.240761028699232"><ele>251.0</ele><time>2026-03-29T13:16:09Z</time></trkpt><trkpt lat="47.81514206232601" lon="7.240559056481315"><ele>251.25</ele><time>2026-03-29T13:16:10Z</time></trkpt><trkpt lat="47.81512608989481" lon="7.240346796936542"><ele>251.5</ele><time>2026-03-29T13:16:11Z</time></trkpt><trkpt lat="47.8151121959433" lon="7.240125317484924"><ele>251.75</ele><time>2026-03-29T13:16:12Z</time></trkpt><trkpt lat="47.81509127448001" lon="7.239898508757868"><ele>252.0</ele><time>2026-03-29T13:16:13Z</time></trkpt><trkpt lat="47.81507148117996" lon="7.239682055509667"><ele>252.66666666666669</ele><time>2026-03-29T13:16:14Z</time></trkpt><trkpt lat="47.81505227179808" lon="7.239451703349207"><ele>253.33333333333334</ele><time>2026-03-29T13:16:15Z</time></trkpt><trkpt lat="47.81503302570517" lon="7.239216253780705"><ele>254.0</ele><time>2026-03-29T13:16:16Z</time></trkpt><trkpt lat="47.815007776861634" lon="7.238980419178928"><ele>253.66666666666669</ele><time>2026-03-29T13:16:17Z</time></trkpt><trkpt lat="47.81498707715119" lon="7.238753659973051"><ele>253.33333333333331</ele><time>2026-03-29T13:16:18Z</time></trkpt><trkpt lat="47.81496149462495" lon="7.238534151070562"><ele>253.0</ele><time>2026-03-29T13:16:19Z</time></trkpt><trkpt lat="47.81492436093753" lon="7.238290499049073"><ele>253.0</ele><time>2026-03-29T13:16:20Z</time></trkpt><trkpt lat="47.814889307777726" lon="7.2380357696798026"><ele>253.0</ele><time>2026-03-29T13:16:21Z</time></trkpt><trkpt lat="47.814842241253636" lon="7.237771584239872"><ele>253.0</ele><time>2026-03-29T13:16:22Z</time></trkpt><trkpt lat="47.8147747636945" lon="7.237474613200331"><ele>253.33333333333331</ele><time>2026-03-29T13:16:23Z</time></trkpt><trkpt lat="47.81470749719635" lon="7.2371712562896064"><ele>253.66666666666669</ele><time>2026-03-29T13:16:24Z</time></trkpt><trkpt lat="47.814630296158384" lon="7.236865965749024"><ele>254.0</ele><time>2026-03-29T13:16:25Z</time></trkpt><trkpt lat="47.81454958330748" lon="7.236584781466794"><ele>254.0</ele><time>2026-03-29T13:16:26Z</time></trkpt><trkpt lat="47.81445668841751" lon="7.23631147268874"><ele>254.0</ele><time>2026-03-29T13:16:27Z</time></trkpt><trkpt lat="47.814363330413144" lon="7.236039561390096"><ele>254.0</ele><time>2026-03-29T13:16:28Z</time></trkpt><trkpt lat="47.81426541622481" lon="7.235779348750539"><ele>254.33333333333334</ele><time>2026-03-29T13:16:29Z</time></trkpt><trkpt lat="47.81416319486355" lon="7.235523443694793"><ele>254.66666666666669</ele><time>2026-03-29T13:16:30Z</time></trkpt><trkpt lat="47.81404409700865" lon="7.235265211057281"><ele>255.0</ele><time>2026-03-29T13:16:31Z</time></trkpt><trkpt lat="47.81391693911047" lon="7.235009024468038"><ele>255.33333333333331</ele><time>2026-03-29T13:16:32Z</time></trkpt><trkpt lat="47.813776699598705" lon="7.2347715332149285"><ele>255.66666666666666</ele><time>2026-03-29T13:16:33Z</time></trkpt><trkpt lat="47.81364553942622" lon="7.234534550096059"><ele>256.0</ele><time>2026-03-29T13:16:34Z</time></trkpt><trkpt lat="47.81351937544513" lon="7.234294235356574"><ele>256.0</ele><time>2026-03-29T13:16:35Z</time></trkpt><trkpt lat="47.813386425501456" lon="7.2340544661606625"><ele>256.0</ele><time>2026-03-29T13:16:36Z</time></trkpt><trkpt lat="47.81324161299714" lon="7.233793553365712"><ele>256.0</ele><time>2026-03-29T13:16:37Z</time></trkpt><trkpt lat="47.813068434782785" lon="7.233499442214215"><ele>256.0</ele><time>2026-03-29T13:16:38Z</time></trkpt><trkpt lat="47.81289002293575" lon="7.233198922696259"><ele>256.0</ele><time>2026-03-29T13:16:39Z</time></trkpt><trkpt lat="47.81273712007764" lon="7.232895350930567"><ele>257.0</ele><time>2026-03-29T13:16:40Z</time></trkpt><trkpt lat="47.81256962255927" lon="7.232587034639024"><ele>258.0</ele><time>2026-03-29T13:16:41Z</time></trkpt><trkpt lat="47.81239498737914" lon="7.232268584258532"><ele>258.0</ele><time>2026-03-29T13:16:42Z</time></trkpt><trkpt lat="47.81220396468574" lon="7.231909220438311"><ele>258.0</ele><time>2026-03-29T13:16:43Z</time></trkpt><trkpt lat="47.8119921845098" lon="7.2315215739086565"><ele>258.5</ele><time>2026-03-29T13:16:44Z</time></trkpt><trkpt lat="47.81176007043714" lon="7.231096707816087"><ele>259.0</ele><time>2026-03-29T13:16:45Z</time></trkpt><trkpt lat="47.81154207902492" lon="7.230700620032312"><ele>259.0</ele><time>2026-03-29T13:16:46Z</time></trkpt><trkpt lat="47.811288101583074" lon="7.230275468219285"><ele>259.0</ele><time>2026-03-29T13:16:47Z</time></trkpt><trkpt lat="47.81106881994309" lon="7.2298119619888235"><ele>260.0</ele><time>2026-03-29T13:16:48Z</time></trkpt><trkpt lat="47.81089125004707" lon="7.2293541571529145"><ele>261.0</ele><time>2026-03-29T13:16:49Z</time></trkpt><trkpt lat="47.81066311826448" lon="7.2289657700657655"><ele>261.5</ele><time>2026-03-29T13:16:50Z</time></trkpt><trkpt lat="47.810470545081365" lon="7.228725969880221"><ele>262.0</ele><time>2026-03-29T13:16:51Z</time></trkpt><trkpt lat="47.81029069472617" lon="7.2283952476532205"><ele>261.5</ele><time>2026-03-29T13:16:52Z</time></trkpt><trkpt lat="47.810105343152514" lon="7.228055824233553"><ele>261.0</ele><time>2026-03-29T13:16:53Z</time></trkpt><trkpt lat="47.80992430997671" lon="7.227729650127001"><ele>261.0</ele><time>2026-03-29T13:16:54Z</time></trkpt><trkpt lat="47.809751627010684" lon="7.227418003239814"><ele>261.0</ele><time>2026-03-29T13:16:55Z</time></trkpt><trkpt lat="47.80958219104734" lon="7.227110755445553"><ele>261.5</ele><time>2026-03-29T13:16:56Z</time></trkpt><trkpt lat="47.80941209039871" lon="7.226809088505521"><ele>262.0</ele><time>2026-03-29T13:16:57Z</time></trkpt><trkpt lat="47.809249684354135" lon="7.226513620770199"><ele>262.5</ele><time>2026-03-29T13:16:58Z</time></trkpt><trkpt lat="47.80908800354861" lon="7.2262230612319245"><ele>263.0</ele><time>2026-03-29T13:16:59Z</time></trkpt><trkpt lat="47.80893706735918" lon="7.225944609545287"><ele>263.0</ele><time>2026-03-29T13:17:00Z</time></trkpt><trkpt lat="47.808789309494735" lon="7.225673237480221"><ele>263.0</ele><time>2026-03-29T13:17:01Z</time></trkpt><trkpt lat="47.8086476777959" lon="7.225418003562678"><ele>263.33333333333337</ele><time>2026-03-29T13:17:02Z</time></trkpt><trkpt lat="47.80851939372604" lon="7.225183292333455"><ele>263.6666666666667</ele><time>2026-03-29T13:17:03Z</time></trkpt><trkpt lat="47.808407818250686" lon="7.224970424453045"><ele>264.0</ele><time>2026-03-29T13:17:04Z</time></trkpt><trkpt lat="47.808305175869904" lon="7.224775780983551"><ele>264.75</ele><time>2026-03-29T13:17:05Z</time></trkpt><trkpt lat="47.80821690044772" lon="7.224602798030516"><ele>265.5</ele><time>2026-03-29T13:17:06Z</time></trkpt><trkpt lat="47.808137268138736" lon="7.224443009059647"><ele>266.25</ele><time>2026-03-29T13:17:07Z</time></trkpt><trkpt lat="47.80810438903512" lon="7.224277956606419"><ele>267.0</ele><time>2026-03-29T13:17:08Z</time></trkpt><trkpt lat="47.808111902149186" lon="7.224120647201488"><ele>267.0</ele><time>2026-03-29T13:17:09Z</time></trkpt><trkpt lat="47.8080567980417" lon="7.224000325546565"><ele>267.0</ele><time>2026-03-29T13:17:10Z</time></trkpt><trkpt lat="47.80797178200746" lon="7.223842362899562"><ele>267.0</ele><time>2026-03-29T13:17:11Z</time></trkpt><trkpt lat="47.80793801020731" lon="7.223598314640453"><ele>267.0</ele><time>2026-03-29T13:17:12Z</time></trkpt><trkpt lat="47.80791251780796" lon="7.223290190043469"><ele>266.3333333333333</ele><time>2026-03-29T13:17:13Z</time></trkpt><trkpt lat="47.80788121667197" lon="7.222972015485412"><ele>265.66666666666663</ele><time>2026-03-29T13:17:14Z</time></trkpt><trkpt lat="47.80784472290801" lon="7.222646181258839"><ele>265.0</ele><time>2026-03-29T13:17:15Z</time></trkpt><trkpt lat="47.8078108699923" lon="7.222313774897783"><ele>264.66666666666663</ele><time>2026-03-29T13:17:16Z</time></trkpt><trkpt lat="47.807773478859126" lon="7.221997815114199"><ele>264.3333333333333</ele><time>2026-03-29T13:17:17Z</time></trkpt><trkpt lat="47.807740414235354" lon="7.221670213042493"><ele>264.0</ele><time>2026-03-29T13:17:18Z</time></trkpt><trkpt lat="47.80770525944348" lon="7.2213488673210335"><ele>264.0</ele><time>2026-03-29T13:17:19Z</time></trkpt><trkpt lat="47.80767247334117" lon="7.22103216015268"><ele>264.0</ele><time>2026-03-29T13:17:20Z</time></trkpt><trkpt lat="47.807635034189644" lon="7.220712354922277"><ele>264.0</ele><time>2026-03-29T13:17:21Z</time></trkpt><trkpt lat="47.807596134647646" lon="7.220386552223374"><ele>265.0</ele><time>2026-03-29T13:17:22Z</time></trkpt><trkpt lat="47.807558407387496" lon="7.220062782738756"><ele>266.0</ele><time>2026-03-29T13:17:23Z</time></trkpt><trkpt lat="47.80751817316414" lon="7.219729117609263"><ele>267.0</ele><time>2026-03-29T13:17:24Z</time></trkpt><trkpt lat="47.80746992937055" lon="7.219405511354484"><ele>267.0</ele><time>2026-03-29T13:17:25Z</time></trkpt><trkpt lat="47.80740778105162" lon="7.219085796307721"><ele>267.0</ele><time>2026-03-29T13:17:26Z</time></trkpt><trkpt lat="47.80734174262316" lon="7.2187614316980895"><ele>267.5</ele><time>2026-03-29T13:17:27Z</time></trkpt><trkpt lat="47.80726921127484" lon="7.218431566033375"><ele>268.0</ele><time>2026-03-29T13:17:28Z</time></trkpt><trkpt lat="47.80719841987699" lon="7.218107298163995"><ele>268.0</ele><time>2026-03-29T13:17:29Z</time></trkpt><trkpt lat="47.807132470994254" lon="7.217784271190084"><ele>268.0</ele><time>2026-03-29T13:17:30Z</time></trkpt><trkpt lat="47.80706687260363" lon="7.217456106693595"><ele>268.0</ele><time>2026-03-29T13:17:31Z</time></trkpt><trkpt lat="47.80700376087293" lon="7.217126631955747"><ele>268.0</ele><time>2026-03-29T13:17:32Z</time></trkpt><trkpt lat="47.80694286559795" lon="7.216792987902421"><ele>268.5</ele><time>2026-03-29T13:17:33Z</time></trkpt><trkpt lat="47.80687809321875" lon="7.21646339612278"><ele>269.0</ele><time>2026-03-29T13:17:34Z</time></trkpt><trkpt lat="47.806813449845954" lon="7.216123576463416"><ele>269.0</ele><time>2026-03-29T13:17:35Z</time></trkpt><trkpt lat="47.8067468990064" lon="7.215785192390247"><ele>269.0</ele><time>2026-03-29T13:17:36Z</time></trkpt><trkpt lat="47.8066850347172" lon="7.215459368791689"><ele>269.0</ele><time>2026-03-29T13:17:37Z</time></trkpt><trkpt lat="47.80662492817391" lon="7.215125515761073"><ele>269.0</ele><time>2026-03-29T13:17:38Z</time></trkpt><trkpt lat="47.80656166276281" lon="7.214795667151388"><ele>270.0</ele><time>2026-03-29T13:17:39Z</time></trkpt><trkpt lat="47.806501316956435" lon="7.214467187151831"><ele>271.0</ele><time>2026-03-29T13:17:40Z</time></trkpt><trkpt lat="47.806439892753026" lon="7.214135640190655"><ele>273.0</ele><time>2026-03-29T13:17:41Z</time></trkpt><trkpt lat="47.80637509147455" lon="7.213797673464672"><ele>275.0</ele><time>2026-03-29T13:17:42Z</time></trkpt><trkpt lat="47.80630804927724" lon="7.213451014409734"><ele>274.5</ele><time>2026-03-29T13:17:43Z</time></trkpt><trkpt lat="47.806243813108175" lon="7.213113094344213"><ele>274.0</ele><time>2026-03-29T13:17:44Z</time></trkpt><trkpt lat="47.806184064116906" lon="7.212766301913813"><ele>274.0</ele><time>2026-03-29T13:17:45Z</time></trkpt><trkpt lat="47.80611817649186" lon="7.212432030682209"><ele>274.0</ele><time>2026-03-29T13:17:46Z</time></trkpt><trkpt lat="47.806056321187896" lon="7.212092025652477"><ele>275.0</ele><time>2026-03-29T13:17:47Z</time></trkpt><trkpt lat="47.80600083968024" lon="7.21175515776949"><ele>276.0</ele><time>2026-03-29T13:17:48Z</time></trkpt><trkpt lat="47.80594197246973" lon="7.211424264366796"><ele>276.0</ele><time>2026-03-29T13:17:49Z</time></trkpt><trkpt lat="47.805883980238534" lon="7.211080946214936"><ele>276.0</ele><time>2026-03-29T13:17:50Z</time></trkpt><trkpt lat="47.805823633752595" lon="7.210745477833594"><ele>276.5</ele><time>2026-03-29T13:17:51Z</time></trkpt><trkpt lat="47.80575783303255" lon="7.210407187749506"><ele>277.0</ele><time>2026-03-29T13:17:51.999Z</time></trkpt><trkpt lat="47.80568555899244" lon="7.210085570475408"><ele>277.5</ele><time>2026-03-29T13:17:52.999Z</time></trkpt><trkpt lat="47.805606581298655" lon="7.2097401350132735"><ele>278.0</ele><time>2026-03-29T13:17:53.999Z</time></trkpt><trkpt lat="47.8055290976434" lon="7.20939640414302"><ele>278.0</ele><time>2026-03-29T13:17:54.999Z</time></trkpt><trkpt lat="47.80545355453627" lon="7.209069781000318"><ele>278.0</ele><time>2026-03-29T13:17:55.999Z</time></trkpt><trkpt lat="47.8053793764557" lon="7.208736044967775"><ele>277.0</ele><time>2026-03-29T13:17:56.999Z</time></trkpt><trkpt lat="47.805306006295936" lon="7.208398138239009"><ele>276.0</ele><time>2026-03-29T13:17:57.999Z</time></trkpt><trkpt lat="47.80523208580121" lon="7.208056196577268"><ele>275.5</ele><time>2026-03-29T13:17:58.999Z</time></trkpt><trkpt lat="47.805170546045666" lon="7.207722969099387"><ele>275.0</ele><time>2026-03-29T13:17:59.999Z</time></trkpt><trkpt lat="47.80510989456169" lon="7.207382940043615"><ele>277.0</ele><time>2026-03-29T13:18:00.999Z</time></trkpt><trkpt lat="47.805059179644296" lon="7.207051686931087"><ele>279.0</ele><time>2026-03-29T13:18:01.999Z</time></trkpt><trkpt lat="47.805007936142054" lon="7.206718844504711"><ele>280.0</ele><time>2026-03-29T13:18:02.999Z</time></trkpt><trkpt lat="47.804960908334415" lon="7.206385858687178"><ele>281.0</ele><time>2026-03-29T13:18:03.999Z</time></trkpt><trkpt lat="47.80491927239694" lon="7.206051389582061"><ele>281.0</ele><time>2026-03-29T13:18:04.999Z</time></trkpt><trkpt lat="47.80487957556851" lon="7.2057188852271175"><ele>281.0</ele><time>2026-03-29T13:18:05.999Z</time></trkpt><trkpt lat="47.804832323215706" lon="7.205393892207713"><ele>281.5</ele><time>2026-03-29T13:18:06.999Z</time></trkpt><trkpt lat="47.80477117140109" lon="7.205059213079052"><ele>282.0</ele><time>2026-03-29T13:18:07.999Z</time></trkpt><trkpt lat="47.80471265862357" lon="7.204735160190493"><ele>282.0</ele><time>2026-03-29T13:18:08.999Z</time></trkpt><trkpt lat="47.804640544226864" lon="7.2044105546687"><ele>282.0</ele><time>2026-03-29T13:18:09.999Z</time></trkpt><trkpt lat="47.8045633201273" lon="7.204074244385919"><ele>283.5</ele><time>2026-03-29T13:18:10.999Z</time></trkpt><trkpt lat="47.804511545262706" lon="7.203743948670557"><ele>285.0</ele><time>2026-03-29T13:18:11.999Z</time></trkpt><trkpt lat="47.804453125246866" lon="7.203397937149272"><ele>285.0</ele><time>2026-03-29T13:18:12.999Z</time></trkpt><trkpt lat="47.80439581722454" lon="7.203063768024715"><ele>285.0</ele><time>2026-03-29T13:18:13.999Z</time></trkpt><trkpt lat="47.804337698795884" lon="7.202722129171065"><ele>284.5</ele><time>2026-03-29T13:18:14.999Z</time></trkpt><trkpt lat="47.804281888408546" lon="7.202392495516146"><ele>284.0</ele><time>2026-03-29T13:18:15.999Z</time></trkpt><trkpt lat="47.80422960670348" lon="7.202063853631796"><ele>284.0</ele><time>2026-03-29T13:18:16.999Z</time></trkpt><trkpt lat="47.80417805654003" lon="7.201738515268173"><ele>284.0</ele><time>2026-03-29T13:18:17.999Z</time></trkpt><trkpt lat="47.80412797159815" lon="7.20143169315841"><ele>284.0</ele><time>2026-03-29T13:18:18.999Z</time></trkpt><trkpt lat="47.80407919709686" lon="7.201122114088705"><ele>284.6666666666667</ele><time>2026-03-29T13:18:19.999Z</time></trkpt><trkpt lat="47.804028550627194" lon="7.20082020040042"><ele>285.3333333333333</ele><time>2026-03-29T13:18:20.999Z</time></trkpt><trkpt lat="47.803981063570546" lon="7.200518647036708"><ele>286.0</ele><time>2026-03-29T13:18:21.999Z</time></trkpt><trkpt lat="47.80393335867889" lon="7.2002388148408905"><ele>286.0</ele><time>2026-03-29T13:18:22.999Z</time></trkpt><trkpt lat="47.80389027662346" lon="7.199976522987529"><ele>286.0</ele><time>2026-03-29T13:18:23.999Z</time></trkpt><trkpt lat="47.80385160033419" lon="7.199734414853567"><ele>286.0</ele><time>2026-03-29T13:18:24.999Z</time></trkpt><trkpt lat="47.80381514153075" lon="7.1995145835995205"><ele>286.0</ele><time>2026-03-29T13:18:25.999Z</time></trkpt><trkpt lat="47.80378232393715" lon="7.199309615640061"><ele>286.0</ele><time>2026-03-29T13:18:26.999Z</time></trkpt><trkpt lat="47.80375653296608" lon="7.199142987291425"><ele>286.0</ele><time>2026-03-29T13:18:27.999Z</time></trkpt><trkpt lat="47.803738443418744" lon="7.198995233588149"><ele>286.0</ele><time>2026-03-29T13:18:28.999Z</time></trkpt><trkpt lat="47.8037339669973" lon="7.198854965001792"><ele>286.0</ele><time>2026-03-29T13:18:29.999Z</time></trkpt><trkpt lat="47.80375066327212" lon="7.198721798810591"><ele>286.0</ele><time>2026-03-29T13:18:30.999Z</time></trkpt><trkpt lat="47.80379581281014" lon="7.19861176677772"><ele>286.0</ele><time>2026-03-29T13:18:31.999Z</time></trkpt><trkpt lat="47.803810434040926" lon="7.198494792977573"><ele>286.0</ele><time>2026-03-29T13:18:32.999Z</time></trkpt><trkpt lat="47.80376096091612" lon="7.198384519060076"><ele>286.0</ele><time>2026-03-29T13:18:33.999Z</time></trkpt><trkpt lat="47.80367330774815" lon="7.198312748074186"><ele>286.0</ele><time>2026-03-29T13:18:34.999Z</time></trkpt><trkpt lat="47.80360334841817" lon="7.198179183592764"><ele>286.25</ele><time>2026-03-29T13:18:35.999Z</time></trkpt><trkpt lat="47.80356457616796" lon="7.198011424042171"><ele>286.5</ele><time>2026-03-29T13:18:36.999Z</time></trkpt><trkpt lat="47.80353836513237" lon="7.19783167153664"><ele>286.75</ele><time>2026-03-29T13:18:37.999Z</time></trkpt><trkpt lat="47.80351550335308" lon="7.19766093396619"><ele>287.0</ele><time>2026-03-29T13:18:38.999Z</time></trkpt><trkpt lat="47.803488113018965" lon="7.197505494604984"><ele>287.25</ele><time>2026-03-29T13:18:39.999Z</time></trkpt><trkpt lat="47.80346203220956" lon="7.197349400958409"><ele>287.5</ele><time>2026-03-29T13:18:40.999Z</time></trkpt><trkpt lat="47.80343613920432" lon="7.197188777838412"><ele>287.75</ele><time>2026-03-29T13:18:41.999Z</time></trkpt><trkpt lat="47.80340812705024" lon="7.197024435498175"><ele>288.0</ele><time>2026-03-29T13:18:42.999Z</time></trkpt><trkpt lat="47.80338228134371" lon="7.196853673968077"><ele>288.0</ele><time>2026-03-29T13:18:43.999Z</time></trkpt><trkpt lat="47.803357140644025" lon="7.1966765082237165"><ele>288.0</ele><time>2026-03-29T13:18:44.999Z</time></trkpt><trkpt lat="47.803335489269095" lon="7.1964921366710115"><ele>288.0</ele><time>2026-03-29T13:18:45.999Z</time></trkpt><trkpt lat="47.80331880803224" lon="7.19631878458488"><ele>288.0</ele><time>2026-03-29T13:18:46.999Z</time></trkpt><trkpt lat="47.80329979562585" lon="7.196150013367561"><ele>288.0</ele><time>2026-03-29T13:18:47.999Z</time></trkpt><trkpt lat="47.803275258153185" lon="7.195990174249842"><ele>288.0</ele><time>2026-03-29T13:18:48.999Z</time></trkpt><trkpt lat="47.80324836404005" lon="7.195821533941943"><ele>288.0</ele><time>2026-03-29T13:18:49.999Z</time></trkpt><trkpt lat="47.80322075652195" lon="7.1956544852454405"><ele>288.0</ele><time>2026-03-29T13:18:50.999Z</time></trkpt><trkpt lat="47.80319549225431" lon="7.195481456027799"><ele>288.25</ele><time>2026-03-29T13:18:51.999Z</time></trkpt><trkpt lat="47.80317255786849" lon="7.195317372559032"><ele>288.5</ele><time>2026-03-29T13:18:52.999Z</time></trkpt><trkpt lat="47.803139215273156" lon="7.195146887525431"><ele>288.75</ele><time>2026-03-29T13:18:53.999Z</time></trkpt><trkpt lat="47.80311200799738" lon="7.194982483254487"><ele>289.0</ele><time>2026-03-29T13:18:54.999Z</time></trkpt><trkpt lat="47.80304080291919" lon="7.194660799516227"><ele>289.0</ele><time>2026-03-29T13:18:56.999Z</time></trkpt><trkpt lat="47.80299837831065" lon="7.1944856618410515"><ele>289.0</ele><time>2026-03-29T13:18:57.999Z</time></trkpt><trkpt lat="47.80296489584887" lon="7.194295180644728"><ele>289.0</ele><time>2026-03-29T13:18:58.999Z</time></trkpt><trkpt lat="47.80293327175319" lon="7.194098984743942"><ele>289.0</ele><time>2026-03-29T13:18:59.999Z</time></trkpt><trkpt lat="47.80289836537277" lon="7.193888009132358"><ele>288.3333333333333</ele><time>2026-03-29T13:19:00.999Z</time></trkpt><trkpt lat="47.80285830487352" lon="7.193638389867595"><ele>287.6666666666667</ele><time>2026-03-29T13:19:01.999Z</time></trkpt><trkpt lat="47.80282017857447" lon="7.193395468325341"><ele>287.0</ele><time>2026-03-29T13:19:02.999Z</time></trkpt><trkpt lat="47.802787783524536" lon="7.193190414614876"><ele>286.75</ele><time>2026-03-29T13:19:03.999Z</time></trkpt><trkpt lat="47.80275714089582" lon="7.192999753682774"><ele>286.5</ele><time>2026-03-29T13:19:04.999Z</time></trkpt><trkpt lat="47.80272646805832" lon="7.192798899580264"><ele>286.25</ele><time>2026-03-29T13:19:05.999Z</time></trkpt><trkpt lat="47.802694734187774" lon="7.192613753089036"><ele>286.0</ele><time>2026-03-29T13:19:06.999Z</time></trkpt><trkpt lat="47.80266799986144" lon="7.192443081215065"><ele>286.75</ele><time>2026-03-29T13:19:07.999Z</time></trkpt><trkpt lat="47.80264237205086" lon="7.192284430031181"><ele>287.5</ele><time>2026-03-29T13:19:08.999Z</time></trkpt><trkpt lat="47.802618818363705" lon="7.192115263398166"><ele>288.25</ele><time>2026-03-29T13:19:09.999Z</time></trkpt><trkpt lat="47.80259312760541" lon="7.1919450520451065"><ele>289.0</ele><time>2026-03-29T13:19:10.999Z</time></trkpt><trkpt lat="47.80256813818301" lon="7.19176894283348"><ele>289.0</ele><time>2026-03-29T13:19:11.999Z</time></trkpt><trkpt lat="47.80254644423951" lon="7.1915903650740995"><ele>289.0</ele><time>2026-03-29T13:19:12.999Z</time></trkpt><trkpt lat="47.80252406438749" lon="7.191410006790455"><ele>289.0</ele><time>2026-03-29T13:19:13.999Z</time></trkpt><trkpt lat="47.80250134753493" lon="7.19121972718575"><ele>289.0</ele><time>2026-03-29T13:19:14.999Z</time></trkpt><trkpt lat="47.802482680547165" lon="7.191016887112965"><ele>289.0</ele><time>2026-03-29T13:19:15.999Z</time></trkpt><trkpt lat="47.80246456308374" lon="7.190813211511595"><ele>289.0</ele><time>2026-03-29T13:19:16.999Z</time></trkpt><trkpt lat="47.802450116045826" lon="7.190609075493858"><ele>289.0</ele><time>2026-03-29T13:19:17.999Z</time></trkpt><trkpt lat="47.802438948354286" lon="7.190407773319176"><ele>289.0</ele><time>2026-03-29T13:19:18.999Z</time></trkpt><trkpt lat="47.802426813838665" lon="7.190204479504269"><ele>289.0</ele><time>2026-03-29T13:19:19.999Z</time></trkpt><trkpt lat="47.80241902510541" lon="7.189998743535707"><ele>289.0</ele><time>2026-03-29T13:19:20.999Z</time></trkpt><trkpt lat="47.802414276782784" lon="7.189791378702899"><ele>289.0</ele><time>2026-03-29T13:19:21.999Z</time></trkpt><trkpt lat="47.80241960609888" lon="7.189576630743474"><ele>289.0</ele><time>2026-03-29T13:19:22.999Z</time></trkpt><trkpt lat="47.802424082386" lon="7.189365031380665"><ele>289.0</ele><time>2026-03-29T13:19:23.999Z</time></trkpt><trkpt lat="47.80243004779804" lon="7.1891489643518485"><ele>289.0</ele><time>2026-03-29T13:19:24.999Z</time></trkpt><trkpt lat="47.80243439350364" lon="7.188946849347744"><ele>289.0</ele><time>2026-03-29T13:19:25.999Z</time></trkpt><trkpt lat="47.80244116461789" lon="7.188746672654277"><ele>289.0</ele><time>2026-03-29T13:19:26.999Z</time></trkpt><trkpt lat="47.80245107111357" lon="7.188524648608998"><ele>289.0</ele><time>2026-03-29T13:19:27.999Z</time></trkpt><trkpt lat="47.802456645698705" lon="7.188308433342374"><ele>289.0</ele><time>2026-03-29T13:19:29Z</time></trkpt><trkpt lat="47.80246320799123" lon="7.188102000461477"><ele>289.0</ele><time>2026-03-29T13:19:30Z</time></trkpt><trkpt lat="47.80246898767208" lon="7.187898013276453"><ele>289.0</ele><time>2026-03-29T13:19:31Z</time></trkpt><trkpt lat="47.80248040320703" lon="7.187689153232113"><ele>289.25</ele><time>2026-03-29T13:19:32Z</time></trkpt><trkpt lat="47.80248260907358" lon="7.187495060253749"><ele>289.5</ele><time>2026-03-29T13:19:33Z</time></trkpt><trkpt lat="47.80248830065422" lon="7.1872963653239905"><ele>289.75</ele><time>2026-03-29T13:19:34Z</time></trkpt><trkpt lat="47.80249676517918" lon="7.187095997881247"><ele>290.0</ele><time>2026-03-29T13:19:35Z</time></trkpt><trkpt lat="47.802502203971834" lon="7.186903799972143"><ele>290.0</ele><time>2026-03-29T13:19:36Z</time></trkpt><trkpt lat="47.80250699558751" lon="7.186715913324901"><ele>290.0</ele><time>2026-03-29T13:19:37Z</time></trkpt><trkpt lat="47.80251536640792" lon="7.186528685091778"><ele>290.0</ele><time>2026-03-29T13:19:38Z</time></trkpt><trkpt lat="47.802518671825275" lon="7.18634269268505"><ele>290.0</ele><time>2026-03-29T13:19:39Z</time></trkpt><trkpt lat="47.8025251573331" lon="7.186161720975488"><ele>290.75</ele><time>2026-03-29T13:19:40Z</time></trkpt><trkpt lat="47.80253240206397" lon="7.185984996576117"><ele>291.5</ele><time>2026-03-29T13:19:41Z</time></trkpt><trkpt lat="47.802539502707475" lon="7.185814479008583"><ele>292.25</ele><time>2026-03-29T13:19:42Z</time></trkpt><trkpt lat="47.80254532575281" lon="7.185649647909844"><ele>293.0</ele><time>2026-03-29T13:19:43Z</time></trkpt><trkpt lat="47.80254639652079" lon="7.18548784043792"><ele>293.4</ele><time>2026-03-29T13:19:44Z</time></trkpt><trkpt lat="47.8025585180172" lon="7.185324655468725"><ele>293.8</ele><time>2026-03-29T13:19:45Z</time></trkpt><trkpt lat="47.80256074125603" lon="7.185163016751748"><ele>294.2</ele><time>2026-03-29T13:19:46Z</time></trkpt><trkpt lat="47.80256326401692" lon="7.184999926802745"><ele>294.6</ele><time>2026-03-29T13:19:47Z</time></trkpt><trkpt lat="47.80256897999946" lon="7.184834727203149"><ele>295.0</ele><time>2026-03-29T13:19:48Z</time></trkpt><trkpt lat="47.802574679203225" lon="7.184671597436167"><ele>295.0</ele><time>2026-03-29T13:19:49Z</time></trkpt><trkpt lat="47.80258171985708" lon="7.184511809710434"><ele>295.0</ele><time>2026-03-29T13:19:50Z</time></trkpt><trkpt lat="47.80258514519739" lon="7.184349729133545"><ele>295.0</ele><time>2026-03-29T13:19:51Z</time></trkpt><trkpt lat="47.802585968452625" lon="7.184192921559345"><ele>295.0</ele><time>2026-03-29T13:19:52Z</time></trkpt><trkpt lat="47.80258909543186" lon="7.184030514748848"><ele>295.0</ele><time>2026-03-29T13:19:53Z</time></trkpt><trkpt lat="47.802589470253714" lon="7.183866013799963"><ele>294.8</ele><time>2026-03-29T13:19:54Z</time></trkpt><trkpt lat="47.80258873037058" lon="7.183702176174657"><ele>294.6</ele><time>2026-03-29T13:19:55Z</time></trkpt><trkpt lat="47.80258737071946" lon="7.183539667344246"><ele>294.4</ele><time>2026-03-29T13:19:56Z</time></trkpt><trkpt lat="47.80258594668847" lon="7.183373623703689"><ele>294.2</ele><time>2026-03-29T13:19:57Z</time></trkpt><trkpt lat="47.802583026276956" lon="7.183213300730773"><ele>294.0</ele><time>2026-03-29T13:19:58Z</time></trkpt><trkpt lat="47.802583997317896" lon="7.1830573199889285"><ele>294.0</ele><time>2026-03-29T13:19:59Z</time></trkpt><trkpt lat="47.802586410330385" lon="7.1829066096029495"><ele>294.0</ele><time>2026-03-29T13:20:00Z</time></trkpt><trkpt lat="47.80259222098124" lon="7.182755217524445"><ele>294.0</ele><time>2026-03-29T13:20:01Z</time></trkpt><trkpt lat="47.80260214091236" lon="7.182601996561586"><ele>294.0</ele><time>2026-03-29T13:20:02Z</time></trkpt><trkpt lat="47.80261271689514" lon="7.18240573785405"><ele>294.0</ele><time>2026-03-29T13:20:04Z</time></trkpt><trkpt lat="47.80263845750241" lon="7.182291108708359"><ele>294.0</ele><time>2026-03-29T13:20:05Z</time></trkpt><trkpt lat="47.802662853418575" lon="7.182187851524792"><ele>294.0</ele><time>2026-03-29T13:20:06Z</time></trkpt><trkpt lat="47.80274798289555" lon="7.182052153404538"><ele>294.0</ele><time>2026-03-29T13:20:08Z</time></trkpt><trkpt lat="47.80278427683327" lon="7.181957827622367"><ele>294.0</ele><time>2026-03-29T13:20:09Z</time></trkpt><trkpt lat="47.80275825418537" lon="7.1818459121791935"><ele>294.0</ele><time>2026-03-29T13:20:10Z</time></trkpt><trkpt lat="47.80270612691006" lon="7.181728822598373"><ele>294.0</ele><time>2026-03-29T13:20:11Z</time></trkpt><trkpt lat="47.80266393198575" lon="7.181594717728751"><ele>294.0</ele><time>2026-03-29T13:20:12Z</time></trkpt><trkpt lat="47.80265679322149" lon="7.181455442511273"><ele>294.0</ele><time>2026-03-29T13:20:13Z</time></trkpt><trkpt lat="47.802651743459705" lon="7.181308511612539"><ele>294.0</ele><time>2026-03-29T13:20:14Z</time></trkpt><trkpt lat="47.802659704904805" lon="7.181176209162811"><ele>294.0</ele><time>2026-03-29T13:20:15Z</time></trkpt><trkpt lat="47.80267813434954" lon="7.181054793505943"><ele>294.0</ele><time>2026-03-29T13:20:16Z</time></trkpt><trkpt lat="47.802699978347505" lon="7.180924413512523"><ele>294.0</ele><time>2026-03-29T13:20:17Z</time></trkpt><trkpt lat="47.80272711654952" lon="7.180780336615619"><ele>294.0</ele><time>2026-03-29T13:20:18Z</time></trkpt><trkpt lat="47.80274782405696" lon="7.180635730523064"><ele>294.0</ele><time>2026-03-29T13:20:19Z</time></trkpt><trkpt lat="47.80276894306919" lon="7.180495717368083"><ele>294.0</ele><time>2026-03-29T13:20:20Z</time></trkpt><trkpt lat="47.80278712348529" lon="7.180350751230915"><ele>294.0</ele><time>2026-03-29T13:20:21Z</time></trkpt><trkpt lat="47.802804605405875" lon="7.180211261273613"><ele>294.0</ele><time>2026-03-29T13:20:22Z</time></trkpt><trkpt lat="47.80282283693012" lon="7.180066382261515"><ele>294.0</ele><time>2026-03-29T13:20:23Z</time></trkpt><trkpt lat="47.802842487072326" lon="7.1799112662690945"><ele>294.0</ele><time>2026-03-29T13:20:24Z</time></trkpt><trkpt lat="47.80285887035913" lon="7.179764890051086"><ele>294.0</ele><time>2026-03-29T13:20:25Z</time></trkpt><trkpt lat="47.80287637291662" lon="7.179632552910379"><ele>294.0</ele><time>2026-03-29T13:20:26Z</time></trkpt><trkpt lat="47.802894320126946" lon="7.179495247617762"><ele>294.0</ele><time>2026-03-29T13:20:27Z</time></trkpt><trkpt lat="47.80291648833617" lon="7.1793575481029945"><ele>294.0</ele><time>2026-03-29T13:20:28Z</time></trkpt><trkpt lat="47.802935563640766" lon="7.179216126906561"><ele>294.0</ele><time>2026-03-29T13:20:29Z</time></trkpt><trkpt lat="47.802956759003635" lon="7.179072318450073"><ele>294.0</ele><time>2026-03-29T13:20:30Z</time></trkpt><trkpt lat="47.802978571969675" lon="7.178926835905686"><ele>294.0</ele><time>2026-03-29T13:20:31Z</time></trkpt><trkpt lat="47.80299711523487" lon="7.178787951530908"><ele>294.0</ele><time>2026-03-29T13:20:32Z</time></trkpt><trkpt lat="47.80301757062296" lon="7.17864679932855"><ele>294.0</ele><time>2026-03-29T13:20:33Z</time></trkpt><trkpt lat="47.80303619281676" lon="7.178515085750725"><ele>294.0</ele><time>2026-03-29T13:20:34Z</time></trkpt><trkpt lat="47.803052520433916" lon="7.178380504038187"><ele>294.0</ele><time>2026-03-29T13:20:35Z</time></trkpt><trkpt lat="47.803074064810616" lon="7.178256594836501"><ele>294.0</ele><time>2026-03-29T13:20:36Z</time></trkpt><trkpt lat="47.80309435680203" lon="7.178129164999364"><ele>294.1666666666667</ele><time>2026-03-29T13:20:37Z</time></trkpt><trkpt lat="47.80311025656785" lon="7.1780036159464915"><ele>294.3333333333333</ele><time>2026-03-29T13:20:38Z</time></trkpt><trkpt lat="47.80312679913342" lon="7.177884833244699"><ele>294.5</ele><time>2026-03-29T13:20:39Z</time></trkpt><trkpt lat="47.80314357848297" lon="7.177757258413353"><ele>294.66666666666663</ele><time>2026-03-29T13:20:40Z</time></trkpt><trkpt lat="47.80316010506899" lon="7.177626821047098"><ele>294.8333333333333</ele><time>2026-03-29T13:20:41Z</time></trkpt><trkpt lat="47.803184660200465" lon="7.177504504505159"><ele>295.0</ele><time>2026-03-29T13:20:42Z</time></trkpt><trkpt lat="47.803206108121664" lon="7.177298249595732"><ele>295.25</ele><time>2026-03-29T13:20:43Z</time></trkpt><trkpt lat="47.80322668479852" lon="7.177044052203478"><ele>295.5</ele><time>2026-03-29T13:20:44Z</time></trkpt><trkpt lat="47.803270488710766" lon="7.1768249096988"><ele>295.75</ele><time>2026-03-29T13:20:45Z</time></trkpt><trkpt lat="47.803294119363116" lon="7.1766875982611795"><ele>296.0</ele><time>2026-03-29T13:20:46Z</time></trkpt><trkpt lat="47.803308410973166" lon="7.176578472762409"><ele>296.2</ele><time>2026-03-29T13:20:48Z</time></trkpt><trkpt lat="47.80331417371749" lon="7.1764649539654055"><ele>296.40000000000003</ele><time>2026-03-29T13:21:33Z</time></trkpt><trkpt lat="47.80330937853327" lon="7.176365218103957"><ele>296.6</ele><time>2026-03-29T13:21:34Z</time></trkpt><trkpt lat="47.80318086445794" lon="7.176227862736429"><ele>296.8</ele><time>2026-03-29T13:21:36Z</time></trkpt><trkpt lat="47.803062893770594" lon="7.176202585065763"><ele>297.0</ele><time>2026-03-29T13:21:37Z</time></trkpt><trkpt lat="47.802940911012904" lon="7.176139765909844"><ele>297.0</ele><time>2026-03-29T13:21:38Z</time></trkpt><trkpt lat="47.80280820660885" lon="7.176073345094014"><ele>297.0</ele><time>2026-03-29T13:21:39Z</time></trkpt><trkpt lat="47.80267270645135" lon="7.176005965767888"><ele>297.0</ele><time>2026-03-29T13:21:40Z</time></trkpt><trkpt lat="47.80253373872424" lon="7.175933124982395"><ele>297.0</ele><time>2026-03-29T13:21:41Z</time></trkpt><trkpt lat="47.802399735756374" lon="7.175862238455105"><ele>297.25</ele><time>2026-03-29T13:21:42Z</time></trkpt><trkpt lat="47.802265318142176" lon="7.175794085844457"><ele>297.5</ele><time>2026-03-29T13:21:43Z</time></trkpt><trkpt lat="47.802130473042155" lon="7.175733996961189"><ele>297.75</ele><time>2026-03-29T13:21:44Z</time></trkpt><trkpt lat="47.801990617566375" lon="7.17566281527145"><ele>298.0</ele><time>2026-03-29T13:21:45Z</time></trkpt><trkpt lat="47.80186169060403" lon="7.175600346696424"><ele>298.25</ele><time>2026-03-29T13:21:46Z</time></trkpt><trkpt lat="47.801729844907506" lon="7.175533265278238"><ele>298.5</ele><time>2026-03-29T13:21:47Z</time></trkpt><trkpt lat="47.801595574277556" lon="7.1754787169002805"><ele>298.75</ele><time>2026-03-29T13:21:48Z</time></trkpt><trkpt lat="47.80145971352792" lon="7.175422994054997"><ele>299.0</ele><time>2026-03-29T13:21:49Z</time></trkpt><trkpt lat="47.801324668168455" lon="7.175363883883272"><ele>299.0</ele><time>2026-03-29T13:21:50Z</time></trkpt><trkpt lat="47.801187754497555" lon="7.17530335373362"><ele>299.0</ele><time>2026-03-29T13:21:51Z</time></trkpt><trkpt lat="47.80105141939371" lon="7.175239512730021"><ele>299.0</ele><time>2026-03-29T13:21:52Z</time></trkpt><trkpt lat="47.800914326463904" lon="7.1751754210611605"><ele>299.0</ele><time>2026-03-29T13:21:53Z</time></trkpt><trkpt lat="47.80077289046689" lon="7.175108274284032"><ele>299.33333333333337</ele><time>2026-03-29T13:21:54Z</time></trkpt><trkpt lat="47.80062970089162" lon="7.175039625723218"><ele>299.6666666666667</ele><time>2026-03-29T13:21:55Z</time></trkpt><trkpt lat="47.80048631664792" lon="7.174969879055613"><ele>300.0</ele><time>2026-03-29T13:21:56Z</time></trkpt><trkpt lat="47.800343117320665" lon="7.174901986298694"><ele>299.75</ele><time>2026-03-29T13:21:57Z</time></trkpt><trkpt lat="47.800197191002596" lon="7.174831790928835"><ele>299.5</ele><time>2026-03-29T13:21:58Z</time></trkpt><trkpt lat="47.80005385606534" lon="7.174768910242851"><ele>299.25</ele><time>2026-03-29T13:21:59Z</time></trkpt><trkpt lat="47.79991834298754" lon="7.1747104824040955"><ele>299.0</ele><time>2026-03-29T13:22:00Z</time></trkpt><trkpt lat="47.799793687535484" lon="7.174649601043088"><ele>299.0</ele><time>2026-03-29T13:22:01Z</time></trkpt><trkpt lat="47.7996760112148" lon="7.174586204310056"><ele>299.0</ele><time>2026-03-29T13:22:02Z</time></trkpt><trkpt lat="47.79956373903178" lon="7.174528008371415"><ele>299.0</ele><time>2026-03-29T13:22:03Z</time></trkpt><trkpt lat="47.799463866584816" lon="7.174478813192204"><ele>299.0</ele><time>2026-03-29T13:22:04Z</time></trkpt><trkpt lat="47.79938096383452" lon="7.174440168788138"><ele>299.0</ele><time>2026-03-29T13:22:05Z</time></trkpt><trkpt lat="47.79928949730403" lon="7.174388010318873"><ele>299.0</ele><time>2026-03-29T13:22:07Z</time></trkpt><trkpt lat="47.79919386777107" lon="7.174335408713084"><ele>299.0</ele><time>2026-03-29T13:22:23Z</time></trkpt><trkpt lat="47.799066541020395" lon="7.174274710680749"><ele>299.0</ele><time>2026-03-29T13:22:24Z</time></trkpt><trkpt lat="47.7988771971712" lon="7.174184653529902"><ele>299.0</ele><time>2026-03-29T13:22:25Z</time></trkpt><trkpt lat="47.798664490205745" lon="7.174083150906426"><ele>299.5</ele><time>2026-03-29T13:22:26Z</time></trkpt><trkpt lat="47.79843140737798" lon="7.173964519138151"><ele>300.0</ele><time>2026-03-29T13:22:27Z</time></trkpt><trkpt lat="47.79817781204974" lon="7.173834027480009"><ele>300.0</ele><time>2026-03-29T13:22:28Z</time></trkpt><trkpt lat="47.79795931816817" lon="7.173723397445415"><ele>300.0</ele><time>2026-03-29T13:22:29Z</time></trkpt><trkpt lat="47.79776327725127" lon="7.173625520603212"><ele>300.0</ele><time>2026-03-29T13:22:30Z</time></trkpt><trkpt lat="47.797581596341" lon="7.173532810833361"><ele>299.3333333333333</ele><time>2026-03-29T13:22:31Z</time></trkpt><trkpt lat="47.79742440584701" lon="7.17345174713063"><ele>298.66666666666663</ele><time>2026-03-29T13:22:32Z</time></trkpt><trkpt lat="47.797280336669644" lon="7.173378168252032"><ele>298.0</ele><time>2026-03-29T13:22:33Z</time></trkpt><trkpt lat="47.797145613300586" lon="7.173308764180845"><ele>298.0</ele><time>2026-03-29T13:22:34Z</time></trkpt><trkpt lat="47.7970251879871" lon="7.173247087583044"><ele>298.0</ele><time>2026-03-29T13:22:35Z</time></trkpt><trkpt lat="47.796916211765236" lon="7.173193952078921"><ele>298.0</ele><time>2026-03-29T13:22:36Z</time></trkpt><trkpt lat="47.79680477794259" lon="7.173134599055873"><ele>298.0</ele><time>2026-03-29T13:22:37Z</time></trkpt><trkpt lat="47.796689389031265" lon="7.1730767829703925"><ele>298.25</ele><time>2026-03-29T13:22:38Z</time></trkpt><trkpt lat="47.79657578904118" lon="7.1730190650898225"><ele>298.5</ele><time>2026-03-29T13:22:39Z</time></trkpt><trkpt lat="47.7964633352711" lon="7.172961339696813"><ele>298.75</ele><time>2026-03-29T13:22:40Z</time></trkpt><trkpt lat="47.796357302448605" lon="7.172906334722018"><ele>299.0</ele><time>2026-03-29T13:22:41Z</time></trkpt><trkpt lat="47.79624850307716" lon="7.1728526041550476"><ele>299.0</ele><time>2026-03-29T13:22:42Z</time></trkpt><trkpt lat="47.79614298477492" lon="7.172800099894409"><ele>299.0</ele><time>2026-03-29T13:22:43Z</time></trkpt><trkpt lat="47.79604893845433" lon="7.1727571522506395"><ele>299.0</ele><time>2026-03-29T13:22:44Z</time></trkpt><trkpt lat="47.79594213287944" lon="7.172702545834077"><ele>299.0</ele><time>2026-03-29T13:22:45Z</time></trkpt><trkpt lat="47.79584753262113" lon="7.172658973495846"><ele>299.0</ele><time>2026-03-29T13:22:46Z</time></trkpt><trkpt lat="47.795746733844474" lon="7.172607240124186"><ele>298.75</ele><time>2026-03-29T13:22:47Z</time></trkpt><trkpt lat="47.795618033020006" lon="7.172545679583097"><ele>298.5</ele><time>2026-03-29T13:22:48Z</time></trkpt><trkpt lat="47.795483887030564" lon="7.172489494178697"><ele>298.25</ele><time>2026-03-29T13:22:49Z</time></trkpt><trkpt lat="47.79538196659981" lon="7.1724458046990245"><ele>298.0</ele><time>2026-03-29T13:22:50Z</time></trkpt><trkpt lat="47.79528789604862" lon="7.172400123781816"><ele>298.0</ele><time>2026-03-29T13:22:51Z</time></trkpt><trkpt lat="47.79519603088198" lon="7.172357913804329"><ele>298.0</ele><time>2026-03-29T13:22:52Z</time></trkpt><trkpt lat="47.79509492679517" lon="7.172302987177177"><ele>298.0</ele><time>2026-03-29T13:22:53Z</time></trkpt><trkpt lat="47.794995575334575" lon="7.172251529825991"><ele>298.0</ele><time>2026-03-29T13:22:54Z</time></trkpt><trkpt lat="47.79490050014875" lon="7.172204416079358"><ele>298.0</ele><time>2026-03-29T13:22:55Z</time></trkpt><trkpt lat="47.794810863933044" lon="7.172160870332319"><ele>298.0</ele><time>2026-03-29T13:22:56Z</time></trkpt><trkpt lat="47.794704594489865" lon="7.172118512842267"><ele>298.0</ele><time>2026-03-29T13:22:57Z</time></trkpt><trkpt lat="47.7945503443349" lon="7.1720344267768095"><ele>298.0</ele><time>2026-03-29T13:22:58Z</time></trkpt><trkpt lat="47.79436499174578" lon="7.171913994705788"><ele>298.5</ele><time>2026-03-29T13:22:59Z</time></trkpt><trkpt lat="47.79421580955213" lon="7.171816768174395"><ele>299.0</ele><time>2026-03-29T13:23:00Z</time></trkpt><trkpt lat="47.79409831873103" lon="7.171743488446782"><ele>299.5</ele><time>2026-03-29T13:23:01Z</time></trkpt><trkpt lat="47.79401423766841" lon="7.171692160841489"><ele>300.0</ele><time>2026-03-29T13:23:02Z</time></trkpt><trkpt lat="47.793947353540005" lon="7.1716518054823295"><ele>300.0</ele><time>2026-03-29T13:23:03Z</time></trkpt><trkpt lat="47.79389004222078" lon="7.171579773874254"><ele>300.0</ele><time>2026-03-29T13:23:04Z</time></trkpt><trkpt lat="47.79383565010558" lon="7.171508023774193"><ele>300.0</ele><time>2026-03-29T13:23:05Z</time></trkpt><trkpt lat="47.793746768322485" lon="7.17152314749713"><ele>300.0</ele><time>2026-03-29T13:23:06Z</time></trkpt><trkpt lat="47.79363082685923" lon="7.171499800359385"><ele>300.0</ele><time>2026-03-29T13:23:07Z</time></trkpt><trkpt lat="47.79349658809721" lon="7.17154797895375"><ele>300.3333333333333</ele><time>2026-03-29T13:23:08Z</time></trkpt><trkpt lat="47.79332554879693" lon="7.171383906369826"><ele>300.66666666666663</ele><time>2026-03-29T13:23:09Z</time></trkpt><trkpt lat="47.7931656340698" lon="7.1713042668097025"><ele>301.0</ele><time>2026-03-29T13:23:10Z</time></trkpt><trkpt lat="47.79300269596471" lon="7.171219689110388"><ele>301.0</ele><time>2026-03-29T13:23:11Z</time></trkpt><trkpt lat="47.792853321992446" lon="7.1711327093783845"><ele>301.0</ele><time>2026-03-29T13:23:12Z</time></trkpt><trkpt lat="47.79272042582888" lon="7.171056815482357"><ele>301.0</ele><time>2026-03-29T13:23:13Z</time></trkpt><trkpt lat="47.792602062379025" lon="7.170988747870911"><ele>301.0</ele><time>2026-03-29T13:23:14Z</time></trkpt><trkpt lat="47.7925150358524" lon="7.1709350213656995"><ele>300.8</ele><time>2026-03-29T13:23:15Z</time></trkpt><trkpt lat="47.79244459836985" lon="7.170877171262368"><ele>300.6</ele><time>2026-03-29T13:23:16Z</time></trkpt><trkpt lat="47.79239688904182" lon="7.170793377403057"><ele>300.4</ele><time>2026-03-29T13:23:17Z</time></trkpt><trkpt lat="47.79237490606639" lon="7.170645331599199"><ele>300.2</ele><time>2026-03-29T13:23:18Z</time></trkpt><trkpt lat="47.79237469186066" lon="7.170454807521453"><ele>300.0</ele><time>2026-03-29T13:23:19Z</time></trkpt><trkpt lat="47.79240885247589" lon="7.170241870635226"><ele>300.0</ele><time>2026-03-29T13:23:20Z</time></trkpt><trkpt lat="47.79248403631305" lon="7.17002253198609"><ele>300.0</ele><time>2026-03-29T13:23:21Z</time></trkpt><trkpt lat="47.79258524881116" lon="7.169754092994696"><ele>300.0</ele><time>2026-03-29T13:23:22Z</time></trkpt><trkpt lat="47.79269358483417" lon="7.16942933235733"><ele>301.0</ele><time>2026-03-29T13:23:23Z</time></trkpt><trkpt lat="47.792796499303506" lon="7.1690358528433045"><ele>302.0</ele><time>2026-03-29T13:23:24Z</time></trkpt><trkpt lat="47.79288892305098" lon="7.1685942096299415"><ele>302.0</ele><time>2026-03-29T13:23:25Z</time></trkpt><trkpt lat="47.79298831158135" lon="7.168155423429619"><ele>302.0</ele><time>2026-03-29T13:23:26Z</time></trkpt><trkpt lat="47.793102325541255" lon="7.167693408143816"><ele>302.0</ele><time>2026-03-29T13:23:27Z</time></trkpt><trkpt lat="47.7932325384283" lon="7.167206525544271"><ele>302.0</ele><time>2026-03-29T13:23:28Z</time></trkpt><trkpt lat="47.79336929847229" lon="7.166704522948791"><ele>302.0</ele><time>2026-03-29T13:23:29Z</time></trkpt><trkpt lat="47.79349669950837" lon="7.166215429497885"><ele>302.0</ele><time>2026-03-29T13:23:30Z</time></trkpt><trkpt lat="47.79361589800266" lon="7.165732588050126"><ele>302.5</ele><time>2026-03-29T13:23:31Z</time></trkpt><trkpt lat="47.793728218101855" lon="7.1652767086772995"><ele>303.0</ele><time>2026-03-29T13:23:32Z</time></trkpt><trkpt lat="47.79382837775567" lon="7.164860841135082"><ele>303.5</ele><time>2026-03-29T13:23:33Z</time></trkpt><trkpt lat="47.79392908116368" lon="7.1644522680899465"><ele>304.0</ele><time>2026-03-29T13:23:34Z</time></trkpt><trkpt lat="47.794026280333405" lon="7.164048347533324"><ele>305.0</ele><time>2026-03-29T13:23:35Z</time></trkpt><trkpt lat="47.794124307798306" lon="7.1636567368763"><ele>306.0</ele><time>2026-03-29T13:23:36Z</time></trkpt><trkpt lat="47.79421501379754" lon="7.163277203961148"><ele>305.5</ele><time>2026-03-29T13:23:37Z</time></trkpt><trkpt lat="47.79430572295343" lon="7.162903697839014"><ele>305.0</ele><time>2026-03-29T13:23:38Z</time></trkpt><trkpt lat="47.79439220363502" lon="7.162545606502523"><ele>306.0</ele><time>2026-03-29T13:23:39Z</time></trkpt><trkpt lat="47.79448029407708" lon="7.162186435185849"><ele>307.0</ele><time>2026-03-29T13:23:40Z</time></trkpt><trkpt lat="47.794566020224565" lon="7.161826186449276"><ele>307.0</ele><time>2026-03-29T13:23:41Z</time></trkpt><trkpt lat="47.794650431664046" lon="7.161469060902629"><ele>307.0</ele><time>2026-03-29T13:23:42Z</time></trkpt><trkpt lat="47.79472562328901" lon="7.1611088079989065"><ele>307.0</ele><time>2026-03-29T13:23:43Z</time></trkpt><trkpt lat="47.79479893519475" lon="7.1607588050181965"><ele>307.0</ele><time>2026-03-29T13:23:44Z</time></trkpt><trkpt lat="47.79488107229543" lon="7.160415418971088"><ele>307.0</ele><time>2026-03-29T13:23:45Z</time></trkpt><trkpt lat="47.794961382802995" lon="7.160094641260667"><ele>307.0</ele><time>2026-03-29T13:23:46Z</time></trkpt><trkpt lat="47.79502820345749" lon="7.159805564198847"><ele>307.0</ele><time>2026-03-29T13:23:47Z</time></trkpt><trkpt lat="47.79509769120586" lon="7.159523768658819"><ele>306.66666666666663</ele><time>2026-03-29T13:23:48Z</time></trkpt><trkpt lat="47.795161915192" lon="7.159267069816943"><ele>306.3333333333333</ele><time>2026-03-29T13:23:49Z</time></trkpt><trkpt lat="47.795221147003936" lon="7.159040064856011"><ele>306.0</ele><time>2026-03-29T13:23:50Z</time></trkpt><trkpt lat="47.79527817058689" lon="7.158853670393379"><ele>305.6</ele><time>2026-03-29T13:23:51Z</time></trkpt><trkpt lat="47.7953334715838" lon="7.158708354510571"><ele>305.20000000000005</ele><time>2026-03-29T13:23:52Z</time></trkpt><trkpt lat="47.79538414432103" lon="7.158600836666952"><ele>304.79999999999995</ele><time>2026-03-29T13:23:53Z</time></trkpt><trkpt lat="47.795450158836545" lon="7.158510934867593"><ele>304.4</ele><time>2026-03-29T13:23:54Z</time></trkpt><trkpt lat="47.795511718747356" lon="7.158429825736819"><ele>304.0</ele><time>2026-03-29T13:23:55Z</time></trkpt><trkpt lat="47.79555802129453" lon="7.158322824986128"><ele>304.0</ele><time>2026-03-29T13:23:56Z</time></trkpt><trkpt lat="47.79555724654432" lon="7.158204402755914"><ele>304.0</ele><time>2026-03-29T13:23:57Z</time></trkpt><trkpt lat="47.79553142426053" lon="7.158085052260016"><ele>304.0</ele><time>2026-03-29T13:23:58Z</time></trkpt><trkpt lat="47.79546145016297" lon="7.1579883013396355"><ele>304.0</ele><time>2026-03-29T13:23:59Z</time></trkpt><trkpt lat="47.795357802492425" lon="7.1579340418185895"><ele>304.0</ele><time>2026-03-29T13:24:00Z</time></trkpt><trkpt lat="47.795248687218795" lon="7.1579334139471245"><ele>304.5</ele><time>2026-03-29T13:24:01Z</time></trkpt><trkpt lat="47.795137647036455" lon="7.158007790012981"><ele>305.0</ele><time>2026-03-29T13:24:02Z</time></trkpt><trkpt lat="47.795023297004036" lon="7.1580538904841315"><ele>305.5</ele><time>2026-03-29T13:24:03Z</time></trkpt><trkpt lat="47.794902129533746" lon="7.158016609980734"><ele>306.0</ele><time>2026-03-29T13:24:04Z</time></trkpt><trkpt lat="47.79476459925158" lon="7.1579399662997245"><ele>306.0</ele><time>2026-03-29T13:24:05Z</time></trkpt><trkpt lat="47.79463085852377" lon="7.157869939676343"><ele>306.0</ele><time>2026-03-29T13:24:06Z</time></trkpt><trkpt lat="47.794483514562565" lon="7.1577947223191245"><ele>306.0</ele><time>2026-03-29T13:24:07Z</time></trkpt><trkpt lat="47.79432785604584" lon="7.157717760425957"><ele>306.3333333333333</ele><time>2026-03-29T13:24:08Z</time></trkpt><trkpt lat="47.794163563376905" lon="7.157633685164549"><ele>306.66666666666663</ele><time>2026-03-29T13:24:09Z</time></trkpt><trkpt lat="47.79399685600604" lon="7.157532314602887"><ele>307.0</ele><time>2026-03-29T13:24:10Z</time></trkpt><trkpt lat="47.79384529609364" lon="7.157406896611675"><ele>307.0</ele><time>2026-03-29T13:24:11Z</time></trkpt><trkpt lat="47.7936890035844" lon="7.157261572725215"><ele>307.0</ele><time>2026-03-29T13:24:12Z</time></trkpt><trkpt lat="47.79353384625329" lon="7.1571232252771075"><ele>307.0</ele><time>2026-03-29T13:24:13Z</time></trkpt><trkpt lat="47.793380065222124" lon="7.156983552421101"><ele>307.0</ele><time>2026-03-29T13:24:14Z</time></trkpt><trkpt lat="47.79323299393728" lon="7.156852043606002"><ele>307.0</ele><time>2026-03-29T13:24:15Z</time></trkpt><trkpt lat="47.793075779770525" lon="7.156712242526863"><ele>307.0</ele><time>2026-03-29T13:24:16Z</time></trkpt><trkpt lat="47.79291235988123" lon="7.156574514753491"><ele>307.0</ele><time>2026-03-29T13:24:17Z</time></trkpt><trkpt lat="47.79274726712444" lon="7.156420657270946"><ele>307.0</ele><time>2026-03-29T13:24:18Z</time></trkpt><trkpt lat="47.792585172178946" lon="7.156270328333116"><ele>307.0</ele><time>2026-03-29T13:24:19Z</time></trkpt><trkpt lat="47.79241835657483" lon="7.156125158552836"><ele>306.66666666666663</ele><time>2026-03-29T13:24:20Z</time></trkpt><trkpt lat="47.7922483058438" lon="7.15597457688611"><ele>306.3333333333333</ele><time>2026-03-29T13:24:21Z</time></trkpt><trkpt lat="47.792084193091306" lon="7.155828530454626"><ele>306.0</ele><time>2026-03-29T13:24:22Z</time></trkpt><trkpt lat="47.79192140980564" lon="7.155682825863176"><ele>306.0</ele><time>2026-03-29T13:24:23Z</time></trkpt><trkpt lat="47.7917597721318" lon="7.155537737509726"><ele>306.0</ele><time>2026-03-29T13:24:24Z</time></trkpt><trkpt lat="47.79159146603461" lon="7.155390127678201"><ele>306.0</ele><time>2026-03-29T13:24:25Z</time></trkpt><trkpt lat="47.79141729002249" lon="7.155233667499454"><ele>306.0</ele><time>2026-03-29T13:24:26Z</time></trkpt><trkpt lat="47.79124149472651" lon="7.155077371582907"><ele>306.0</ele><time>2026-03-29T13:24:27Z</time></trkpt><trkpt lat="47.79107695670401" lon="7.154936205172953"><ele>306.0</ele><time>2026-03-29T13:24:28Z</time></trkpt><trkpt lat="47.790909141648655" lon="7.154789081489243"><ele>306.6666666666667</ele><time>2026-03-29T13:24:29Z</time></trkpt><trkpt lat="47.790742118491345" lon="7.154641732784896"><ele>307.33333333333337</ele><time>2026-03-29T13:24:30Z</time></trkpt><trkpt lat="47.79056451178381" lon="7.154482819054509"><ele>308.0</ele><time>2026-03-29T13:24:31Z</time></trkpt><trkpt lat="47.79040599899473" lon="7.154346518825481"><ele>308.0</ele><time>2026-03-29T13:24:32Z</time></trkpt><trkpt lat="47.79023871581374" lon="7.1541954877838485"><ele>308.0</ele><time>2026-03-29T13:24:33Z</time></trkpt><trkpt lat="47.79007242883898" lon="7.1540469965894085"><ele>308.0</ele><time>2026-03-29T13:24:34Z</time></trkpt><trkpt lat="47.78990662959174" lon="7.153896962263931"><ele>308.33333333333337</ele><time>2026-03-29T13:24:35Z</time></trkpt><trkpt lat="47.789736520092994" lon="7.153744820210476"><ele>308.6666666666667</ele><time>2026-03-29T13:24:36Z</time></trkpt><trkpt lat="47.789560831050814" lon="7.153589387983933"><ele>309.0</ele><time>2026-03-29T13:24:37Z</time></trkpt><trkpt lat="47.78939458015379" lon="7.15343846681035"><ele>309.0</ele><time>2026-03-29T13:24:38Z</time></trkpt><trkpt lat="47.78921776690748" lon="7.153279372497637"><ele>309.0</ele><time>2026-03-29T13:24:39Z</time></trkpt><trkpt lat="47.78904778474434" lon="7.153123080158813"><ele>309.0</ele><time>2026-03-29T13:24:40Z</time></trkpt><trkpt lat="47.78887611625863" lon="7.152964775048217"><ele>308.6666666666667</ele><time>2026-03-29T13:24:41Z</time></trkpt><trkpt lat="47.78870676729235" lon="7.152800402988922"><ele>308.33333333333337</ele><time>2026-03-29T13:24:42Z</time></trkpt><trkpt lat="47.78853612166578" lon="7.152641293138348"><ele>308.0</ele><time>2026-03-29T13:24:43Z</time></trkpt><trkpt lat="47.788364000018696" lon="7.152475571716907"><ele>308.0</ele><time>2026-03-29T13:24:44Z</time></trkpt><trkpt lat="47.788197409772216" lon="7.152305920214066"><ele>308.0</ele><time>2026-03-29T13:24:45Z</time></trkpt><trkpt lat="47.78803247599545" lon="7.152134647213363"><ele>308.0</ele><time>2026-03-29T13:24:46Z</time></trkpt><trkpt lat="47.787869454712826" lon="7.151963065008791"><ele>308.0</ele><time>2026-03-29T13:24:47Z</time></trkpt><trkpt lat="47.78771160264307" lon="7.151791021469499"><ele>308.0</ele><time>2026-03-29T13:24:48Z</time></trkpt><trkpt lat="47.78756021074577" lon="7.151607260624678"><ele>308.0</ele><time>2026-03-29T13:24:49Z</time></trkpt><trkpt lat="47.78738756985567" lon="7.15141712074057"><ele>308.0</ele><time>2026-03-29T13:24:50Z</time></trkpt><trkpt lat="47.7872262792246" lon="7.151238613719736"><ele>308.0</ele><time>2026-03-29T13:24:51Z</time></trkpt><trkpt lat="47.78705847629581" lon="7.151049024696143"><ele>308.0</ele><time>2026-03-29T13:24:52Z</time></trkpt><trkpt lat="47.786896901259205" lon="7.1508614328541364"><ele>307.6666666666667</ele><time>2026-03-29T13:24:53Z</time></trkpt><trkpt lat="47.78673588785509" lon="7.150665811355536"><ele>307.3333333333333</ele><time>2026-03-29T13:24:54Z</time></trkpt><trkpt lat="47.7865769859727" lon="7.150467884372663"><ele>307.0</ele><time>2026-03-29T13:24:55Z</time></trkpt><trkpt lat="47.78642154795629" lon="7.1502678539558575"><ele>307.0</ele><time>2026-03-29T13:24:56Z</time></trkpt><trkpt lat="47.78626928947966" lon="7.150067563049068"><ele>307.0</ele><time>2026-03-29T13:24:57Z</time></trkpt><trkpt lat="47.78611262988424" lon="7.149856970747308"><ele>307.0</ele><time>2026-03-29T13:24:58Z</time></trkpt><trkpt lat="47.78595658980867" lon="7.149650539934999"><ele>307.3333333333333</ele><time>2026-03-29T13:24:59Z</time></trkpt><trkpt lat="47.785803070203094" lon="7.149444454094252"><ele>307.6666666666667</ele><time>2026-03-29T13:25:00Z</time></trkpt><trkpt lat="47.7856401109727" lon="7.149236778318149"><ele>308.0</ele><time>2026-03-29T13:25:01Z</time></trkpt><trkpt lat="47.785482617358916" lon="7.149048982637741"><ele>308.0</ele><time>2026-03-29T13:25:02Z</time></trkpt><trkpt lat="47.78531918876092" lon="7.14885539446903"><ele>308.0</ele><time>2026-03-29T13:25:03Z</time></trkpt><trkpt lat="47.78515452121926" lon="7.148656929815508"><ele>308.0</ele><time>2026-03-29T13:25:04Z</time></trkpt><trkpt lat="47.7849901550441" lon="7.148459106983678"><ele>308.0</ele><time>2026-03-29T13:25:05Z</time></trkpt><trkpt lat="47.784824256929454" lon="7.148262769761476"><ele>308.0</ele><time>2026-03-29T13:25:06Z</time></trkpt><trkpt lat="47.7846600751513" lon="7.148065211986519"><ele>308.0</ele><time>2026-03-29T13:25:07Z</time></trkpt><trkpt lat="47.784496615742505" lon="7.14787038131439"><ele>307.33333333333337</ele><time>2026-03-29T13:25:08Z</time></trkpt><trkpt lat="47.78433162015696" lon="7.147672661622052"><ele>306.6666666666667</ele><time>2026-03-29T13:25:09Z</time></trkpt><trkpt lat="47.78415608025329" lon="7.147463492395363"><ele>306.0</ele><time>2026-03-29T13:25:10Z</time></trkpt><trkpt lat="47.783963041680764" lon="7.1472326535881985"><ele>305.0</ele><time>2026-03-29T13:25:11Z</time></trkpt><trkpt lat="47.783779006262094" lon="7.14699981599383"><ele>304.0</ele><time>2026-03-29T13:25:12Z</time></trkpt><trkpt lat="47.78358758915182" lon="7.146733255625798"><ele>304.0</ele><time>2026-03-29T13:25:13Z</time></trkpt><trkpt lat="47.78340662207229" lon="7.146474425557032"><ele>304.0</ele><time>2026-03-29T13:25:14Z</time></trkpt><trkpt lat="47.783221525908615" lon="7.146209543727708"><ele>304.0</ele><time>2026-03-29T13:25:15Z</time></trkpt><trkpt lat="47.783031809870074" lon="7.145936630589197"><ele>304.0</ele><time>2026-03-29T13:25:16Z</time></trkpt><trkpt lat="47.78284830705892" lon="7.145673770230929"><ele>305.5</ele><time>2026-03-29T13:25:17Z</time></trkpt><trkpt lat="47.78266278159436" lon="7.1454059171488415"><ele>307.0</ele><time>2026-03-29T13:25:18Z</time></trkpt><trkpt lat="47.78248054542493" lon="7.145146065102162"><ele>307.0</ele><time>2026-03-29T13:25:19Z</time></trkpt><trkpt lat="47.782295446400795" lon="7.144882627253013"><ele>307.0</ele><time>2026-03-29T13:25:20Z</time></trkpt><trkpt lat="47.78211830708988" lon="7.144627852076445"><ele>307.0</ele><time>2026-03-29T13:25:21Z</time></trkpt><trkpt lat="47.78193652756235" lon="7.144368983095098"><ele>307.0</ele><time>2026-03-29T13:25:22Z</time></trkpt><trkpt lat="47.78175298776752" lon="7.144126929537978"><ele>306.0</ele><time>2026-03-29T13:25:23Z</time></trkpt><trkpt lat="47.78154711099538" lon="7.143913032798161"><ele>305.0</ele><time>2026-03-29T13:25:24Z</time></trkpt><trkpt lat="47.781331462651124" lon="7.14374088319932"><ele>305.0</ele><time>2026-03-29T13:25:25Z</time></trkpt><trkpt lat="47.78109423684099" lon="7.143587643173019"><ele>305.0</ele><time>2026-03-29T13:25:26Z</time></trkpt><trkpt lat="47.780849715658455" lon="7.143431321335839"><ele>305.5</ele><time>2026-03-29T13:25:27Z</time></trkpt><trkpt lat="47.78061335782967" lon="7.143279335552702"><ele>306.0</ele><time>2026-03-29T13:25:28Z</time></trkpt><trkpt lat="47.780376201296" lon="7.14311763548918"><ele>307.0</ele><time>2026-03-29T13:25:29Z</time></trkpt><trkpt lat="47.78015142069769" lon="7.1429498442240495"><ele>308.0</ele><time>2026-03-29T13:25:30Z</time></trkpt><trkpt lat="47.779930883451044" lon="7.142749345637763"><ele>308.0</ele><time>2026-03-29T13:25:31Z</time></trkpt><trkpt lat="47.77972308395144" lon="7.142512062241108"><ele>308.0</ele><time>2026-03-29T13:25:32Z</time></trkpt><trkpt lat="47.77952460552074" lon="7.142235560124161"><ele>307.5</ele><time>2026-03-29T13:25:33Z</time></trkpt><trkpt lat="47.77933858601897" lon="7.141949391462088"><ele>307.0</ele><time>2026-03-29T13:25:34Z</time></trkpt><trkpt lat="47.77917049549576" lon="7.141669314115684"><ele>307.5</ele><time>2026-03-29T13:25:35Z</time></trkpt><trkpt lat="47.77900692486214" lon="7.141414930397862"><ele>308.0</ele><time>2026-03-29T13:25:36Z</time></trkpt><trkpt lat="47.77884460769316" lon="7.141151658163078"><ele>308.0</ele><time>2026-03-29T13:25:37Z</time></trkpt><trkpt lat="47.77868145165925" lon="7.140893152746958"><ele>308.0</ele><time>2026-03-29T13:25:38Z</time></trkpt><trkpt lat="47.77852100585827" lon="7.140639943540923"><ele>308.0</ele><time>2026-03-29T13:25:39Z</time></trkpt><trkpt lat="47.77835762183541" lon="7.140381932037483"><ele>308.0</ele><time>2026-03-29T13:25:40Z</time></trkpt><trkpt lat="47.77820213105833" lon="7.140129823038724"><ele>307.33333333333337</ele><time>2026-03-29T13:25:41Z</time></trkpt><trkpt lat="47.7780550550463" lon="7.139876516532641"><ele>306.6666666666667</ele><time>2026-03-29T13:25:42Z</time></trkpt><trkpt lat="47.77793598328935" lon="7.139610000238886"><ele>306.0</ele><time>2026-03-29T13:25:43Z</time></trkpt><trkpt lat="47.77783791336219" lon="7.139292154155903"><ele>306.0</ele><time>2026-03-29T13:25:44Z</time></trkpt><trkpt lat="47.77777816000323" lon="7.138969918854249"><ele>306.0</ele><time>2026-03-29T13:25:45Z</time></trkpt><trkpt lat="47.777784803770125" lon="7.138654728267262"><ele>306.0</ele><time>2026-03-29T13:25:46Z</time></trkpt><trkpt lat="47.77782880391581" lon="7.13834306730839"><ele>307.0</ele><time>2026-03-29T13:25:47Z</time></trkpt><trkpt lat="47.77786456431875" lon="7.138015698843788"><ele>308.0</ele><time>2026-03-29T13:25:48Z</time></trkpt><trkpt lat="47.77788805029029" lon="7.137701505724383"><ele>309.0</ele><time>2026-03-29T13:25:49Z</time></trkpt><trkpt lat="47.777901726264055" lon="7.1374128820947345"><ele>308.6666666666667</ele><time>2026-03-29T13:25:50Z</time></trkpt><trkpt lat="47.777906939282026" lon="7.137142848022302"><ele>308.33333333333337</ele><time>2026-03-29T13:25:51Z</time></trkpt><trkpt lat="47.777886305235114" lon="7.136872062552894"><ele>308.0</ele><time>2026-03-29T13:25:52Z</time></trkpt><trkpt lat="47.7778564241928" lon="7.136594386023137"><ele>308.6666666666667</ele><time>2026-03-29T13:25:53Z</time></trkpt><trkpt lat="47.777790262743046" lon="7.136351200766296"><ele>309.3333333333333</ele><time>2026-03-29T13:25:54Z</time></trkpt><trkpt lat="47.77770526898908" lon="7.13610844484457"><ele>310.0</ele><time>2026-03-29T13:25:55Z</time></trkpt><trkpt lat="47.777604582521704" lon="7.135889241937397"><ele>310.3333333333333</ele><time>2026-03-29T13:25:56Z</time></trkpt><trkpt lat="47.77749131187645" lon="7.135670593424658"><ele>310.6666666666667</ele><time>2026-03-29T13:25:57Z</time></trkpt><trkpt lat="47.777381913458605" lon="7.135468187919023"><ele>311.0</ele><time>2026-03-29T13:25:58Z</time></trkpt><trkpt lat="47.777273199349196" lon="7.135253311512192"><ele>311.0</ele><time>2026-03-29T13:25:59Z</time></trkpt><trkpt lat="47.777166966640635" lon="7.135048500598738"><ele>311.0</ele><time>2026-03-29T13:26:00Z</time></trkpt><trkpt lat="47.77706798026024" lon="7.134863463183406"><ele>311.0</ele><time>2026-03-29T13:26:01Z</time></trkpt><trkpt lat="47.776972664870264" lon="7.1346799416255235"><ele>311.0</ele><time>2026-03-29T13:26:02Z</time></trkpt><trkpt lat="47.77688826063089" lon="7.134516001692694"><ele>311.0</ele><time>2026-03-29T13:26:03Z</time></trkpt><trkpt lat="47.776809588163" lon="7.134364811405125"><ele>311.0</ele><time>2026-03-29T13:26:04Z</time></trkpt><trkpt lat="47.77674409997627" lon="7.134219702416396"><ele>311.0</ele><time>2026-03-29T13:26:05Z</time></trkpt><trkpt lat="47.776700360610235" lon="7.134081145451541"><ele>311.2</ele><time>2026-03-29T13:26:06Z</time></trkpt><trkpt lat="47.77668412439837" lon="7.133981755877473"><ele>311.40000000000003</ele><time>2026-03-29T13:26:07Z</time></trkpt><trkpt lat="47.776656260134686" lon="7.133800824295481"><ele>311.6</ele><time>2026-03-29T13:26:09Z</time></trkpt><trkpt lat="47.776710393608234" lon="7.133721872040672"><ele>311.8</ele><time>2026-03-29T13:26:12Z</time></trkpt><trkpt lat="47.77677762179955" lon="7.133661440375105"><ele>312.0</ele><time>2026-03-29T13:26:13Z</time></trkpt><trkpt lat="47.77688967795967" lon="7.13359878429587"><ele>312.25</ele><time>2026-03-29T13:26:14Z</time></trkpt><trkpt lat="47.777035011450174" lon="7.133479134894678"><ele>312.5</ele><time>2026-03-29T13:26:15Z</time></trkpt><trkpt lat="47.77713807160517" lon="7.1333802475054995"><ele>312.75</ele><time>2026-03-29T13:26:16Z</time></trkpt><trkpt lat="47.77723618828056" lon="7.133374545420258"><ele>313.0</ele><time>2026-03-29T13:26:17Z</time></trkpt><trkpt lat="47.777307553104386" lon="7.133338936724523"><ele>313.0</ele><time>2026-03-29T13:26:18Z</time></trkpt><trkpt lat="47.77739583737857" lon="7.133294584205642"><ele>313.0</ele><time>2026-03-29T13:26:20Z</time></trkpt><trkpt lat="47.77733125520909" lon="7.13312771126817"><ele>313.0</ele><time>2026-03-29T13:26:21Z</time></trkpt><trkpt lat="47.77730313206572" lon="7.133002625564279"><ele>313.0</ele><time>2026-03-29T13:26:22Z</time></trkpt><trkpt lat="47.77727515973748" lon="7.132863290145687"><ele>313.0</ele><time>2026-03-29T13:26:23Z</time></trkpt><trkpt lat="47.77721608915868" lon="7.13272118823983"><ele>313.25</ele><time>2026-03-29T13:26:24Z</time></trkpt><trkpt lat="47.777157243463435" lon="7.132576523654344"><ele>313.5</ele><time>2026-03-29T13:26:25Z</time></trkpt><trkpt lat="47.77708607049812" lon="7.132413355658404"><ele>313.75</ele><time>2026-03-29T13:26:26Z</time></trkpt><trkpt lat="47.77700073374456" lon="7.132245183395288"><ele>314.0</ele><time>2026-03-29T13:26:27Z</time></trkpt><trkpt lat="47.77690354691355" lon="7.132091607038978"><ele>313.25</ele><time>2026-03-29T13:26:28Z</time></trkpt><trkpt lat="47.7768031026088" lon="7.131929045079662"><ele>312.5</ele><time>2026-03-29T13:26:29Z</time></trkpt><trkpt lat="47.77670740260801" lon="7.13177800786265"><ele>311.75</ele><time>2026-03-29T13:26:30Z</time></trkpt><trkpt lat="47.77662544808937" lon="7.13164576070691"><ele>311.0</ele><time>2026-03-29T13:26:31Z</time></trkpt><trkpt lat="47.77655152833029" lon="7.131519880753367"><ele>310.83333333333337</ele><time>2026-03-29T13:26:32Z</time></trkpt><trkpt lat="47.77648813097005" lon="7.131408434349177"><ele>310.6666666666667</ele><time>2026-03-29T13:26:33Z</time></trkpt><trkpt lat="47.77643800509208" lon="7.13132885975568"><ele>310.5</ele><time>2026-03-29T13:26:34Z</time></trkpt><trkpt lat="47.776384350049554" lon="7.131254713797161"><ele>310.3333333333333</ele><time>2026-03-29T13:26:35Z</time></trkpt><trkpt lat="47.77631480678449" lon="7.131160798794311"><ele>310.16666666666663</ele><time>2026-03-29T13:26:36Z</time></trkpt><trkpt lat="47.776235803125196" lon="7.131077215314867"><ele>310.0</ele><time>2026-03-29T13:26:37Z</time></trkpt><trkpt lat="47.77614339101631" lon="7.131003935287029"><ele>310.0</ele><time>2026-03-29T13:26:38Z</time></trkpt><trkpt lat="47.77604731265132" lon="7.1309056240599675"><ele>310.0</ele><time>2026-03-29T13:26:39Z</time></trkpt><trkpt lat="47.775935171919556" lon="7.13079581774973"><ele>310.0</ele><time>2026-03-29T13:26:40Z</time></trkpt><trkpt lat="47.77582341675933" lon="7.13068865864966"><ele>310.0</ele><time>2026-03-29T13:26:41Z</time></trkpt><trkpt lat="47.77571216167701" lon="7.130584142511683"><ele>310.25</ele><time>2026-03-29T13:26:42Z</time></trkpt><trkpt lat="47.77560353847655" lon="7.130479805767649"><ele>310.5</ele><time>2026-03-29T13:26:43Z</time></trkpt><trkpt lat="47.77549803080702" lon="7.130381176050114"><ele>310.75</ele><time>2026-03-29T13:26:44Z</time></trkpt><trkpt lat="47.77539587100353" lon="7.130284138774832"><ele>311.0</ele><time>2026-03-29T13:26:45Z</time></trkpt><trkpt lat="47.77528780571416" lon="7.130179010817006"><ele>310.75</ele><time>2026-03-29T13:26:46Z</time></trkpt><trkpt lat="47.77518378840787" lon="7.130084536306679"><ele>310.5</ele><time>2026-03-29T13:26:47Z</time></trkpt><trkpt lat="47.77508230302972" lon="7.129997866116602"><ele>310.25</ele><time>2026-03-29T13:26:48Z</time></trkpt><trkpt lat="47.774979789846604" lon="7.129890493021998"><ele>310.0</ele><time>2026-03-29T13:26:49Z</time></trkpt><trkpt lat="47.77488222209212" lon="7.129779769180156"><ele>310.0</ele><time>2026-03-29T13:26:50Z</time></trkpt><trkpt lat="47.774798750818995" lon="7.129662099399421"><ele>310.0</ele><time>2026-03-29T13:26:51Z</time></trkpt><trkpt lat="47.77471420616397" lon="7.129541892573436"><ele>310.0</ele><time>2026-03-29T13:26:52Z</time></trkpt><trkpt lat="47.774647019867544" lon="7.129427817647914"><ele>310.0</ele><time>2026-03-29T13:26:53Z</time></trkpt><trkpt lat="47.77458482901007" lon="7.12931633231635"><ele>310.0</ele><time>2026-03-29T13:26:54Z</time></trkpt><trkpt lat="47.774533441326014" lon="7.129210434695408"><ele>310.0</ele><time>2026-03-29T13:26:55Z</time></trkpt><trkpt lat="47.774463497838454" lon="7.129085641657012"><ele>310.0</ele><time>2026-03-29T13:26:56Z</time></trkpt><trkpt lat="47.77439454677373" lon="7.128960345739201"><ele>310.0</ele><time>2026-03-29T13:26:57Z</time></trkpt><trkpt lat="47.77431522466349" lon="7.128818079394378"><ele>310.0</ele><time>2026-03-29T13:26:58Z</time></trkpt><trkpt lat="47.77423590754677" lon="7.1286718498660315"><ele>310.75</ele><time>2026-03-29T13:26:59Z</time></trkpt><trkpt lat="47.774166821953166" lon="7.1285365872153275"><ele>311.5</ele><time>2026-03-29T13:27:00Z</time></trkpt><trkpt lat="47.77410221282262" lon="7.128401463444266"><ele>312.25</ele><time>2026-03-29T13:27:01Z</time></trkpt><trkpt lat="47.77404659389875" lon="7.128250780341965"><ele>313.0</ele><time>2026-03-29T13:27:02Z</time></trkpt><trkpt lat="47.77399414171711" lon="7.128089846411396"><ele>313.25</ele><time>2026-03-29T13:27:03Z</time></trkpt><trkpt lat="47.7739311072745" lon="7.127940023443224"><ele>313.5</ele><time>2026-03-29T13:27:04Z</time></trkpt><trkpt lat="47.773854082625945" lon="7.127794522875582"><ele>313.75</ele><time>2026-03-29T13:27:05Z</time></trkpt><trkpt lat="47.77377767222983" lon="7.127650305814231"><ele>314.0</ele><time>2026-03-29T13:27:06Z</time></trkpt><trkpt lat="47.77370380296709" lon="7.12751020897414"><ele>314.75</ele><time>2026-03-29T13:27:07Z</time></trkpt><trkpt lat="47.77362242418372" lon="7.127378999591123"><ele>315.5</ele><time>2026-03-29T13:27:08Z</time></trkpt><trkpt lat="47.773539281908576" lon="7.127252778391764"><ele>316.25</ele><time>2026-03-29T13:27:09Z</time></trkpt><trkpt lat="47.77344730864098" lon="7.127112310742221"><ele>317.0</ele><time>2026-03-29T13:27:10Z</time></trkpt><trkpt lat="47.77335313799124" lon="7.126993213979257"><ele>317.25</ele><time>2026-03-29T13:27:11Z</time></trkpt><trkpt lat="47.77325579228614" lon="7.1268784613132246"><ele>317.5</ele><time>2026-03-29T13:27:12Z</time></trkpt><trkpt lat="47.7731488106473" lon="7.126759719601751"><ele>317.75</ele><time>2026-03-29T13:27:13Z</time></trkpt><trkpt lat="47.77303270910694" lon="7.126652273986741"><ele>318.0</ele><time>2026-03-29T13:27:14Z</time></trkpt><trkpt lat="47.77291427945181" lon="7.1265271008905735"><ele>318.5</ele><time>2026-03-29T13:27:15Z</time></trkpt><trkpt lat="47.7727940120051" lon="7.126397630795491"><ele>319.0</ele><time>2026-03-29T13:27:16Z</time></trkpt><trkpt lat="47.772672517043695" lon="7.126267796381055"><ele>319.5</ele><time>2026-03-29T13:27:17Z</time></trkpt><trkpt lat="47.77256456505833" lon="7.126143995296403"><ele>320.0</ele><time>2026-03-29T13:27:18Z</time></trkpt><trkpt lat="47.772462115193825" lon="7.126028015329939"><ele>319.2</ele><time>2026-03-29T13:27:19Z</time></trkpt><trkpt lat="47.77236336912751" lon="7.125923418826995"><ele>318.4</ele><time>2026-03-29T13:27:20Z</time></trkpt><trkpt lat="47.772274459786594" lon="7.125816871051018"><ele>317.6</ele><time>2026-03-29T13:27:21Z</time></trkpt><trkpt lat="47.77220255897817" lon="7.125738066227442"><ele>316.8</ele><time>2026-03-29T13:27:22Z</time></trkpt><trkpt lat="47.7721394892956" lon="7.125666423408842"><ele>316.0</ele><time>2026-03-29T13:27:23Z</time></trkpt><trkpt lat="47.77208599942727" lon="7.125608120427723"><ele>316.0</ele><time>2026-03-29T13:27:24Z</time></trkpt><trkpt lat="47.772000881276874" lon="7.125499992984689"><ele>316.0</ele><time>2026-03-29T13:27:25Z</time></trkpt><trkpt lat="47.77190417427413" lon="7.125408795353565"><ele>316.0</ele><time>2026-03-29T13:27:26Z</time></trkpt><trkpt lat="47.77180438614977" lon="7.125288991320752"><ele>316.0</ele><time>2026-03-29T13:27:27Z</time></trkpt><trkpt lat="47.77169623541832" lon="7.125167620079556"><ele>315.25</ele><time>2026-03-29T13:27:28Z</time></trkpt><trkpt lat="47.77157961561731" lon="7.125037320278046"><ele>314.5</ele><time>2026-03-29T13:27:29Z</time></trkpt><trkpt lat="47.771466594395406" lon="7.124913810641038"><ele>313.75</ele><time>2026-03-29T13:27:30Z</time></trkpt><trkpt lat="47.7713523854651" lon="7.1247872189067945"><ele>313.0</ele><time>2026-03-29T13:27:31Z</time></trkpt><trkpt lat="47.771238636310954" lon="7.124657263658132"><ele>313.0</ele><time>2026-03-29T13:27:32Z</time></trkpt><trkpt lat="47.77112415658207" lon="7.124527235556833"><ele>313.0</ele><time>2026-03-29T13:27:33Z</time></trkpt><trkpt lat="47.77101349870622" lon="7.12440498147151"><ele>313.0</ele><time>2026-03-29T13:27:34Z</time></trkpt><trkpt lat="47.77090758315899" lon="7.124286914959469"><ele>313.0</ele><time>2026-03-29T13:27:35Z</time></trkpt><trkpt lat="47.77080687459192" lon="7.124186253535559"><ele>313.0</ele><time>2026-03-29T13:27:36Z</time></trkpt><trkpt lat="47.77071535570622" lon="7.124097297664036"><ele>313.0</ele><time>2026-03-29T13:27:37Z</time></trkpt><trkpt lat="47.7706406253478" lon="7.124015283135952"><ele>313.0</ele><time>2026-03-29T13:27:38Z</time></trkpt><trkpt lat="47.770557640206405" lon="7.1239424584410465"><ele>313.0</ele><time>2026-03-29T13:27:39Z</time></trkpt><trkpt lat="47.770478270563935" lon="7.123875341644182"><ele>313.0</ele><time>2026-03-29T13:27:40Z</time></trkpt><trkpt lat="47.770361616242006" lon="7.1237733179310085"><ele>312.66666666666663</ele><time>2026-03-29T13:27:41Z</time></trkpt><trkpt lat="47.77023494832401" lon="7.123664974387942"><ele>312.3333333333333</ele><time>2026-03-29T13:27:42Z</time></trkpt><trkpt lat="47.77009961425349" lon="7.123558779984994"><ele>312.0</ele><time>2026-03-29T13:27:43Z</time></trkpt><trkpt lat="47.76996224468454" lon="7.123444713430352"><ele>311.6666666666667</ele><time>2026-03-29T13:27:44Z</time></trkpt><trkpt lat="47.76981906873929" lon="7.123322550110049"><ele>311.33333333333337</ele><time>2026-03-29T13:27:45Z</time></trkpt><trkpt lat="47.76966565588478" lon="7.123185633796131"><ele>311.0</ele><time>2026-03-29T13:27:46Z</time></trkpt><trkpt lat="47.769517653285575" lon="7.123056526740892"><ele>311.0</ele><time>2026-03-29T13:27:47Z</time></trkpt><trkpt lat="47.7693700829353" lon="7.122928311632377"><ele>311.0</ele><time>2026-03-29T13:27:48Z</time></trkpt><trkpt lat="47.76922660532238" lon="7.122804602716015"><ele>311.0</ele><time>2026-03-29T13:27:49Z</time></trkpt><trkpt lat="47.76909156816999" lon="7.122704691937398"><ele>313.0</ele><time>2026-03-29T13:27:50Z</time></trkpt><trkpt lat="47.76895347066933" lon="7.122668208264059"><ele>315.0</ele><time>2026-03-29T13:27:51Z</time></trkpt><trkpt lat="47.768821399128875" lon="7.122695725892353"><ele>317.0</ele><time>2026-03-29T13:27:52Z</time></trkpt><trkpt lat="47.76868326719199" lon="7.122774161893932"><ele>319.0</ele><time>2026-03-29T13:27:53Z</time></trkpt><trkpt lat="47.76853237940601" lon="7.122860391614039"><ele>322.66666666666663</ele><time>2026-03-29T13:27:54Z</time></trkpt><trkpt lat="47.76837111806848" lon="7.122930118263275"><ele>326.3333333333333</ele><time>2026-03-29T13:27:55Z</time></trkpt><trkpt lat="47.76821076002411" lon="7.122982820938415"><ele>330.0</ele><time>2026-03-29T13:27:56Z</time></trkpt><trkpt lat="47.768063811066405" lon="7.123005773018282"><ele>330.0</ele><time>2026-03-29T13:27:57Z</time></trkpt><trkpt lat="47.767914222158524" lon="7.122963066764509"><ele>330.0</ele><time>2026-03-29T13:27:58Z</time></trkpt><trkpt lat="47.76777053903862" lon="7.122852601041444"><ele>330.0</ele><time>2026-03-29T13:27:59Z</time></trkpt><trkpt lat="47.767624206742184" lon="7.122689596036808"><ele>329.6666666666667</ele><time>2026-03-29T13:28:00Z</time></trkpt><trkpt lat="47.76745781802897" lon="7.122531552353555"><ele>329.33333333333337</ele><time>2026-03-29T13:28:01Z</time></trkpt><trkpt lat="47.76728262011164" lon="7.122371520078724"><ele>329.0</ele><time>2026-03-29T13:28:02Z</time></trkpt><trkpt lat="47.76711234504158" lon="7.122210678424164"><ele>331.33333333333337</ele><time>2026-03-29T13:28:03Z</time></trkpt><trkpt lat="47.76694152366505" lon="7.122047308492471"><ele>333.6666666666667</ele><time>2026-03-29T13:28:04Z</time></trkpt><trkpt lat="47.76676909571452" lon="7.121888083883943"><ele>336.0</ele><time>2026-03-29T13:28:05Z</time></trkpt><trkpt lat="47.76659678349935" lon="7.121727526709652"><ele>336.0</ele><time>2026-03-29T13:28:06Z</time></trkpt><trkpt lat="47.766436597586285" lon="7.121578495885388"><ele>336.0</ele><time>2026-03-29T13:28:07Z</time></trkpt><trkpt lat="47.76629341882231" lon="7.121449209988778"><ele>336.0</ele><time>2026-03-29T13:28:08Z</time></trkpt><trkpt lat="47.76616346999987" lon="7.121332323036813"><ele>336.25</ele><time>2026-03-29T13:28:09Z</time></trkpt><trkpt lat="47.76604304665971" lon="7.1212293921264616"><ele>336.5</ele><time>2026-03-29T13:28:10Z</time></trkpt><trkpt lat="47.765929995288396" lon="7.121139249841683"><ele>336.75</ele><time>2026-03-29T13:28:11Z</time></trkpt><trkpt lat="47.76582906496931" lon="7.121028086281231"><ele>337.0</ele><time>2026-03-29T13:28:12Z</time></trkpt><trkpt lat="47.76571830431755" lon="7.120934808118893"><ele>337.0</ele><time>2026-03-29T13:28:13Z</time></trkpt><trkpt lat="47.765621569667886" lon="7.1208129919521115"><ele>337.0</ele><time>2026-03-29T13:28:14Z</time></trkpt><trkpt lat="47.76550941790842" lon="7.1207176670666845"><ele>337.0</ele><time>2026-03-29T13:28:15Z</time></trkpt><trkpt lat="47.76539322662356" lon="7.120622165680133"><ele>337.0</ele><time>2026-03-29T13:28:16Z</time></trkpt><trkpt lat="47.76527968618014" lon="7.120515923170212"><ele>337.25</ele><time>2026-03-29T13:28:17Z</time></trkpt><trkpt lat="47.76516019970801" lon="7.120401656448565"><ele>337.5</ele><time>2026-03-29T13:28:18Z</time></trkpt><trkpt lat="47.76504450392943" lon="7.120295326064928"><ele>337.75</ele><time>2026-03-29T13:28:19Z</time></trkpt><trkpt lat="47.764931833531975" lon="7.120189380805886"><ele>338.0</ele><time>2026-03-29T13:28:20Z</time></trkpt><trkpt lat="47.764819270095416" lon="7.120083154929622"><ele>338.0</ele><time>2026-03-29T13:28:21Z</time></trkpt><trkpt lat="47.76471737309612" lon="7.119991931598947"><ele>338.0</ele><time>2026-03-29T13:28:22Z</time></trkpt><trkpt lat="47.76461480969527" lon="7.119901175267458"><ele>338.0</ele><time>2026-03-29T13:28:23Z</time></trkpt><trkpt lat="47.76450569772649" lon="7.119811458444626"><ele>338.0</ele><time>2026-03-29T13:28:24Z</time></trkpt><trkpt lat="47.76438794466141" lon="7.119736429058678"><ele>338.75</ele><time>2026-03-29T13:28:25Z</time></trkpt><trkpt lat="47.76426395466045" lon="7.119656908576455"><ele>339.5</ele><time>2026-03-29T13:28:26Z</time></trkpt><trkpt lat="47.76413870030276" lon="7.119572696366117"><ele>340.25</ele><time>2026-03-29T13:28:27Z</time></trkpt><trkpt lat="47.7640164106754" lon="7.119489783372293"><ele>341.0</ele><time>2026-03-29T13:28:28Z</time></trkpt><trkpt lat="47.763892916310034" lon="7.119410764261071"><ele>341.0</ele><time>2026-03-29T13:28:29Z</time></trkpt><trkpt lat="47.763773458411976" lon="7.119331338253011"><ele>341.0</ele><time>2026-03-29T13:28:30Z</time></trkpt><trkpt lat="47.763655236061666" lon="7.119250722879542"><ele>341.0</ele><time>2026-03-29T13:28:31Z</time></trkpt><trkpt lat="47.76353564202434" lon="7.119178910108204"><ele>341.0</ele><time>2026-03-29T13:28:32Z</time></trkpt><trkpt lat="47.76341469939557" lon="7.119101595321613"><ele>340.5</ele><time>2026-03-29T13:28:33Z</time></trkpt><trkpt lat="47.76329903872939" lon="7.119019485955523"><ele>340.0</ele><time>2026-03-29T13:28:34Z</time></trkpt><trkpt lat="47.76317367727017" lon="7.118910926918408"><ele>339.5</ele><time>2026-03-29T13:28:35Z</time></trkpt><trkpt lat="47.763061728456826" lon="7.118799317272"><ele>339.0</ele><time>2026-03-29T13:28:36Z</time></trkpt><trkpt lat="47.76295843004781" lon="7.118672987252681"><ele>339.0</ele><time>2026-03-29T13:28:37Z</time></trkpt><trkpt lat="47.76286782603526" lon="7.118538611315722"><ele>339.0</ele><time>2026-03-29T13:28:38Z</time></trkpt><trkpt lat="47.76277676558249" lon="7.1183871249978345"><ele>339.0</ele><time>2026-03-29T13:28:39Z</time></trkpt><trkpt lat="47.76269549728571" lon="7.118247623614882"><ele>339.0</ele><time>2026-03-29T13:28:40Z</time></trkpt><trkpt lat="47.76260961821442" lon="7.118112470978388"><ele>340.0</ele><time>2026-03-29T13:28:41Z</time></trkpt><trkpt lat="47.7625279399001" lon="7.117973841751377"><ele>341.0</ele><time>2026-03-29T13:28:42Z</time></trkpt><trkpt lat="47.76245205123079" lon="7.1178480299953115"><ele>342.0</ele><time>2026-03-29T13:28:43Z</time></trkpt><trkpt lat="47.76238957158213" lon="7.1177439683322214"><ele>343.0</ele><time>2026-03-29T13:28:44Z</time></trkpt><trkpt lat="47.76233478879057" lon="7.117646918355449"><ele>344.0</ele><time>2026-03-29T13:28:45Z</time></trkpt><trkpt lat="47.76229201145213" lon="7.117543497074243"><ele>344.0</ele><time>2026-03-29T13:28:46Z</time></trkpt><trkpt lat="47.762246395511475" lon="7.117403006056661"><ele>344.0</ele><time>2026-03-29T13:28:47Z</time></trkpt><trkpt lat="47.76220741719575" lon="7.117270766903315"><ele>344.0</ele><time>2026-03-29T13:28:48Z</time></trkpt><trkpt lat="47.76216664412131" lon="7.11714249090397"><ele>344.0</ele><time>2026-03-29T13:28:49Z</time></trkpt><trkpt lat="47.7621240568396" lon="7.116997603031146"><ele>344.0</ele><time>2026-03-29T13:28:50Z</time></trkpt><trkpt lat="47.76208060514735" lon="7.11684258789634"><ele>343.5</ele><time>2026-03-29T13:28:51Z</time></trkpt><trkpt lat="47.76203749739155" lon="7.116683506425768"><ele>343.0</ele><time>2026-03-29T13:28:52Z</time></trkpt><trkpt lat="47.76199117803884" lon="7.116535351410246"><ele>342.5</ele><time>2026-03-29T13:28:53Z</time></trkpt><trkpt lat="47.76193381171079" lon="7.116380807612401"><ele>342.0</ele><time>2026-03-29T13:28:54Z</time></trkpt><trkpt lat="47.76185990356369" lon="7.116239271406576"><ele>342.75</ele><time>2026-03-29T13:28:55Z</time></trkpt><trkpt lat="47.76177625718902" lon="7.116112651229204"><ele>343.5</ele><time>2026-03-29T13:28:56Z</time></trkpt><trkpt lat="47.76168016057493" lon="7.1159897880466625"><ele>344.25</ele><time>2026-03-29T13:28:57Z</time></trkpt><trkpt lat="47.761580992800816" lon="7.115857267276003"><ele>345.0</ele><time>2026-03-29T13:28:58Z</time></trkpt><trkpt lat="47.761479997075355" lon="7.115729714768538"><ele>345.0</ele><time>2026-03-29T13:28:59Z</time></trkpt><trkpt lat="47.76138376203994" lon="7.115602179086242"><ele>345.0</ele><time>2026-03-29T13:29:00Z</time></trkpt><trkpt lat="47.761286920095" lon="7.115474336870849"><ele>345.0</ele><time>2026-03-29T13:29:01Z</time></trkpt><trkpt lat="47.76119150157972" lon="7.1153513884244175"><ele>345.0</ele><time>2026-03-29T13:29:02Z</time></trkpt><trkpt lat="47.761102710394816" lon="7.1152320533120115"><ele>344.0</ele><time>2026-03-29T13:29:03Z</time></trkpt><trkpt lat="47.76101313940505" lon="7.115105437071847"><ele>343.0</ele><time>2026-03-29T13:29:04Z</time></trkpt><trkpt lat="47.76092597806293" lon="7.114972247354375"><ele>342.0</ele><time>2026-03-29T13:29:05Z</time></trkpt><trkpt lat="47.760864594937466" lon="7.114831766175744"><ele>341.0</ele><time>2026-03-29T13:29:06Z</time></trkpt><trkpt lat="47.76084113235132" lon="7.11467774699496"><ele>341.0</ele><time>2026-03-29T13:29:07Z</time></trkpt><trkpt lat="47.7608893630933" lon="7.114535706547924"><ele>341.0</ele><time>2026-03-29T13:29:08Z</time></trkpt><trkpt lat="47.76092332712886" lon="7.114368320492932"><ele>341.0</ele><time>2026-03-29T13:29:09Z</time></trkpt><trkpt lat="47.76096052156924" lon="7.114196301881636"><ele>341.0</ele><time>2026-03-29T13:29:10Z</time></trkpt><trkpt lat="47.7609710879494" lon="7.1140296709886055"><ele>341.0</ele><time>2026-03-29T13:29:11Z</time></trkpt><trkpt lat="47.760959212927624" lon="7.11385572507407"><ele>341.0</ele><time>2026-03-29T13:29:12Z</time></trkpt><trkpt lat="47.76095409885254" lon="7.113677432497076"><ele>341.0</ele><time>2026-03-29T13:29:13Z</time></trkpt><trkpt lat="47.76096988970381" lon="7.113508952443135"><ele>341.0</ele><time>2026-03-29T13:29:14Z</time></trkpt><trkpt lat="47.76102305773303" lon="7.113364822029489"><ele>342.25</ele><time>2026-03-29T13:29:15Z</time></trkpt><trkpt lat="47.76110695452057" lon="7.113212902369698"><ele>343.5</ele><time>2026-03-29T13:29:16Z</time></trkpt><trkpt lat="47.76119338442758" lon="7.113061331913552"><ele>344.75</ele><time>2026-03-29T13:29:17Z</time></trkpt><trkpt lat="47.76126168159639" lon="7.112910050257142"><ele>346.0</ele><time>2026-03-29T13:29:18Z</time></trkpt><trkpt lat="47.761318813065515" lon="7.1127627244498965"><ele>346.0</ele><time>2026-03-29T13:29:19Z</time></trkpt><trkpt lat="47.761376528395694" lon="7.112603518830202"><ele>346.0</ele><time>2026-03-29T13:29:20Z</time></trkpt><trkpt lat="47.7614345078843" lon="7.112434766648564"><ele>346.0</ele><time>2026-03-29T13:29:21Z</time></trkpt><trkpt lat="47.76147782906914" lon="7.112265158367356"><ele>346.0</ele><time>2026-03-29T13:29:22Z</time></trkpt><trkpt lat="47.76153581935185" lon="7.112117454618132"><ele>345.5</ele><time>2026-03-29T13:29:23Z</time></trkpt><trkpt lat="47.761577309218325" lon="7.1119663944427485"><ele>345.0</ele><time>2026-03-29T13:29:24Z</time></trkpt><trkpt lat="47.76161864246423" lon="7.111815904500136"><ele>344.5</ele><time>2026-03-29T13:29:25Z</time></trkpt><trkpt lat="47.761662461527386" lon="7.11166753529492"><ele>344.0</ele><time>2026-03-29T13:29:26Z</time></trkpt><trkpt lat="47.761713129043386" lon="7.111480833028317"><ele>343.6666666666667</ele><time>2026-03-29T13:29:27Z</time></trkpt><trkpt lat="47.761771098192355" lon="7.111270624799288"><ele>343.3333333333333</ele><time>2026-03-29T13:29:28Z</time></trkpt><trkpt lat="47.76183840676331" lon="7.111043644191589"><ele>343.0</ele><time>2026-03-29T13:29:29Z</time></trkpt><trkpt lat="47.76190849766818" lon="7.1108199371004925"><ele>345.0</ele><time>2026-03-29T13:29:30Z</time></trkpt><trkpt lat="47.76198150878484" lon="7.1105854954647425"><ele>347.0</ele><time>2026-03-29T13:29:31Z</time></trkpt><trkpt lat="47.76205837445593" lon="7.110339613740421"><ele>349.0</ele><time>2026-03-29T13:29:32Z</time></trkpt><trkpt lat="47.76212886705167" lon="7.110106415354001"><ele>350.3333333333333</ele><time>2026-03-29T13:29:33Z</time></trkpt><trkpt lat="47.762190652372965" lon="7.109893087351886"><ele>351.6666666666667</ele><time>2026-03-29T13:29:34Z</time></trkpt><trkpt lat="47.76223990347519" lon="7.1096802845402465"><ele>353.0</ele><time>2026-03-29T13:29:35Z</time></trkpt><trkpt lat="47.76225456748666" lon="7.109453998371587"><ele>353.0</ele><time>2026-03-29T13:29:36Z</time></trkpt><trkpt lat="47.76223131310905" lon="7.109195520748804"><ele>353.0</ele><time>2026-03-29T13:29:37Z</time></trkpt><trkpt lat="47.76219925985665" lon="7.108908119368391"><ele>353.0</ele><time>2026-03-29T13:29:38Z</time></trkpt><trkpt lat="47.76215825971244" lon="7.108625949655029"><ele>353.6666666666667</ele><time>2026-03-29T13:29:39Z</time></trkpt><trkpt lat="47.76210719259695" lon="7.108322706794568"><ele>354.3333333333333</ele><time>2026-03-29T13:29:40Z</time></trkpt><trkpt lat="47.762046840993875" lon="7.108027881828336"><ele>355.0</ele><time>2026-03-29T13:29:41Z</time></trkpt><trkpt lat="47.76197464768138" lon="7.107751574410815"><ele>355.0</ele><time>2026-03-29T13:29:42Z</time></trkpt><trkpt lat="47.76189214628033" lon="7.107489402255226"><ele>355.0</ele><time>2026-03-29T13:29:43Z</time></trkpt><trkpt lat="47.761802492852276" lon="7.107248170568614"><ele>355.0</ele><time>2026-03-29T13:29:44Z</time></trkpt><trkpt lat="47.76168892663947" lon="7.107039653161987"><ele>352.0</ele><time>2026-03-29T13:29:45Z</time></trkpt><trkpt lat="47.76155677992183" lon="7.106873237211926"><ele>349.0</ele><time>2026-03-29T13:29:46Z</time></trkpt><trkpt lat="47.76139511958259" lon="7.10679051460413"><ele>346.0</ele><time>2026-03-29T13:29:47Z</time></trkpt><trkpt lat="47.76121353942428" lon="7.106756231552128"><ele>345.0</ele><time>2026-03-29T13:29:48Z</time></trkpt><trkpt lat="47.76101276369969" lon="7.106737150769983"><ele>344.0</ele><time>2026-03-29T13:29:49Z</time></trkpt><trkpt lat="47.76081017218868" lon="7.1066865887529405"><ele>343.0</ele><time>2026-03-29T13:29:50Z</time></trkpt><trkpt lat="47.76060180470837" lon="7.1065519791542675"><ele>343.0</ele><time>2026-03-29T13:29:51Z</time></trkpt><trkpt lat="47.760389654661324" lon="7.106379553923331"><ele>343.0</ele><time>2026-03-29T13:29:52Z</time></trkpt><trkpt lat="47.76019280108666" lon="7.106216732735524"><ele>344.0</ele><time>2026-03-29T13:29:53Z</time></trkpt><trkpt lat="47.760015116629184" lon="7.1060592029259375"><ele>345.0</ele><time>2026-03-29T13:29:54Z</time></trkpt><trkpt lat="47.75987165193843" lon="7.105869662486869"><ele>346.0</ele><time>2026-03-29T13:29:55Z</time></trkpt><trkpt lat="47.75976306207778" lon="7.105638854534075"><ele>346.0</ele><time>2026-03-29T13:29:56Z</time></trkpt><trkpt lat="47.75970581334831" lon="7.105380870040324"><ele>346.0</ele><time>2026-03-29T13:29:57Z</time></trkpt><trkpt lat="47.75970083234673" lon="7.105077083595644"><ele>346.0</ele><time>2026-03-29T13:29:58Z</time></trkpt><trkpt lat="47.75970800557734" lon="7.104743476091081"><ele>347.0</ele><time>2026-03-29T13:29:59Z</time></trkpt><trkpt lat="47.75967376617181" lon="7.104426100014253"><ele>348.0</ele><time>2026-03-29T13:30:00Z</time></trkpt><trkpt lat="47.75959923511124" lon="7.104176174027775"><ele>349.0</ele><time>2026-03-29T13:30:01Z</time></trkpt><trkpt lat="47.759585686502234" lon="7.103861408891602"><ele>349.66666666666663</ele><time>2026-03-29T13:30:02Z</time></trkpt><trkpt lat="47.75956466443768" lon="7.1035501337426465"><ele>350.3333333333333</ele><time>2026-03-29T13:30:03Z</time></trkpt><trkpt lat="47.759549106419456" lon="7.1032298006187675"><ele>351.0</ele><time>2026-03-29T13:30:04Z</time></trkpt><trkpt lat="47.759523101612864" lon="7.102902600029797"><ele>354.0</ele><time>2026-03-29T13:30:05Z</time></trkpt><trkpt lat="47.759501202091435" lon="7.102573531335098"><ele>357.0</ele><time>2026-03-29T13:30:06Z</time></trkpt><trkpt lat="47.759476654169504" lon="7.102230403914621"><ele>359.3333333333333</ele><time>2026-03-29T13:30:07Z</time></trkpt><trkpt lat="47.75945129153162" lon="7.101900759736834"><ele>361.66666666666663</ele><time>2026-03-29T13:30:08Z</time></trkpt><trkpt lat="47.7594272380389" lon="7.101572911486409"><ele>364.0</ele><time>2026-03-29T13:30:09Z</time></trkpt><trkpt lat="47.75940565088104" lon="7.101247887786122"><ele>365.0</ele><time>2026-03-29T13:30:10Z</time></trkpt><trkpt lat="47.759383284011754" lon="7.100923957126887"><ele>366.0</ele><time>2026-03-29T13:30:11Z</time></trkpt><trkpt lat="47.75935238414867" lon="7.100591993046103"><ele>367.0</ele><time>2026-03-29T13:30:12Z</time></trkpt><trkpt lat="47.75932677303089" lon="7.100257058316174"><ele>366.0</ele><time>2026-03-29T13:30:13Z</time></trkpt><trkpt lat="47.75930397947654" lon="7.099921096230088"><ele>365.0</ele><time>2026-03-29T13:30:14Z</time></trkpt><trkpt lat="47.75928222466302" lon="7.099590360046595"><ele>365.0</ele><time>2026-03-29T13:30:15Z</time></trkpt><trkpt lat="47.75924770928325" lon="7.099259606985738"><ele>365.0</ele><time>2026-03-29T13:30:16Z</time></trkpt><trkpt lat="47.75924177837097" lon="7.0989250673731465"><ele>366.0</ele><time>2026-03-29T13:30:17Z</time></trkpt><trkpt lat="47.759261535663995" lon="7.098611796902543"><ele>367.0</ele><time>2026-03-29T13:30:18Z</time></trkpt><trkpt lat="47.75932711961679" lon="7.098308705281948"><ele>368.0</ele><time>2026-03-29T13:30:19Z</time></trkpt><trkpt lat="47.75940250747037" lon="7.097995095433232"><ele>369.6666666666667</ele><time>2026-03-29T13:30:20Z</time></trkpt><trkpt lat="47.759481415109235" lon="7.097678896763695"><ele>371.3333333333333</ele><time>2026-03-29T13:30:21Z</time></trkpt><trkpt lat="47.75954241080891" lon="7.0973660830585725"><ele>373.0</ele><time>2026-03-29T13:30:22Z</time></trkpt><trkpt lat="47.75961674710346" lon="7.097066658906237"><ele>375.0</ele><time>2026-03-29T13:30:23Z</time></trkpt><trkpt lat="47.75968338023036" lon="7.096762476852908"><ele>377.0</ele><time>2026-03-29T13:30:24Z</time></trkpt><trkpt lat="47.75973690788906" lon="7.0964397762453055"><ele>379.0</ele><time>2026-03-29T13:30:25Z</time></trkpt><trkpt lat="47.759783545051384" lon="7.096116909276061"><ele>379.66666666666663</ele><time>2026-03-29T13:30:26Z</time></trkpt><trkpt lat="47.75982917796252" lon="7.095795164823387"><ele>380.3333333333333</ele><time>2026-03-29T13:30:27Z</time></trkpt><trkpt lat="47.75987316405425" lon="7.095481525471792"><ele>381.0</ele><time>2026-03-29T13:30:28Z</time></trkpt><trkpt lat="47.75990983686798" lon="7.095150788573313"><ele>381.5</ele><time>2026-03-29T13:30:29Z</time></trkpt><trkpt lat="47.75997876636763" lon="7.09480678289246"><ele>382.0</ele><time>2026-03-29T13:30:30Z</time></trkpt><trkpt lat="47.76002250642879" lon="7.094456652414095"><ele>382.0</ele><time>2026-03-29T13:30:31Z</time></trkpt><trkpt lat="47.760081556903465" lon="7.094161144731973"><ele>382.0</ele><time>2026-03-29T13:30:32Z</time></trkpt><trkpt lat="47.76012888716008" lon="7.093877756421875"><ele>382.0</ele><time>2026-03-29T13:30:33Z</time></trkpt><trkpt lat="47.760185862579675" lon="7.093614418827729"><ele>382.3333333333333</ele><time>2026-03-29T13:30:34Z</time></trkpt><trkpt lat="47.76027511665174" lon="7.09337851255886"><ele>382.6666666666667</ele><time>2026-03-29T13:30:35Z</time></trkpt><trkpt lat="47.76035242890277" lon="7.093151739209984"><ele>383.0</ele><time>2026-03-29T13:30:36Z</time></trkpt><trkpt lat="47.76041725191636" lon="7.092935044236385"><ele>383.0</ele><time>2026-03-29T13:30:37Z</time></trkpt><trkpt lat="47.760487754165034" lon="7.092740350616016"><ele>383.0</ele><time>2026-03-29T13:30:38Z</time></trkpt><trkpt lat="47.76054256349391" lon="7.092576081387335"><ele>383.0</ele><time>2026-03-29T13:30:39Z</time></trkpt><trkpt lat="47.76059315907108" lon="7.092430652150825"><ele>383.0</ele><time>2026-03-29T13:30:40Z</time></trkpt><trkpt lat="47.76063451618821" lon="7.0922989549707065"><ele>383.59999999999997</ele><time>2026-03-29T13:30:41Z</time></trkpt><trkpt lat="47.76067111634679" lon="7.092185393598977"><ele>384.2</ele><time>2026-03-29T13:30:42Z</time></trkpt><trkpt lat="47.76069967698665" lon="7.092061768310453"><ele>384.8</ele><time>2026-03-29T13:30:44Z</time></trkpt><trkpt lat="47.76059702332359" lon="7.091912523854867"><ele>385.4</ele><time>2026-03-29T13:30:47Z</time></trkpt><trkpt lat="47.76052127963815" lon="7.091856723912369"><ele>386.0</ele><time>2026-03-29T13:30:48Z</time></trkpt><trkpt lat="47.760383909667475" lon="7.091781102352481"><ele>386.0</ele><time>2026-03-29T13:30:49Z</time></trkpt><trkpt lat="47.760215689853965" lon="7.0916647078686825"><ele>386.0</ele><time>2026-03-29T13:30:50Z</time></trkpt><trkpt lat="47.76003058175808" lon="7.09151032502316"><ele>386.0</ele><time>2026-03-29T13:30:51Z</time></trkpt><trkpt lat="47.759852959357396" lon="7.091259515042454"><ele>385.5</ele><time>2026-03-29T13:30:52Z</time></trkpt><trkpt lat="47.75969813250479" lon="7.090985978538754"><ele>385.0</ele><time>2026-03-29T13:30:53Z</time></trkpt><trkpt lat="47.75952569453637" lon="7.090737164641183"><ele>387.33333333333337</ele><time>2026-03-29T13:30:54Z</time></trkpt><trkpt lat="47.75936987786959" lon="7.090528063735476"><ele>389.66666666666663</ele><time>2026-03-29T13:30:55Z</time></trkpt><trkpt lat="47.75927175930154" lon="7.090411266058565"><ele>392.0</ele><time>2026-03-29T13:30:56Z</time></trkpt><trkpt lat="47.75914860641224" lon="7.090286946878468"><ele>388.25</ele><time>2026-03-29T13:30:57Z</time></trkpt><trkpt lat="47.759031394343815" lon="7.090261177193406"><ele>384.5</ele><time>2026-03-29T13:30:58Z</time></trkpt><trkpt lat="47.758903318983585" lon="7.090332308634152"><ele>380.75</ele><time>2026-03-29T13:30:59Z</time></trkpt><trkpt lat="47.758816283706544" lon="7.090457411471324"><ele>377.0</ele><time>2026-03-29T13:31:00Z</time></trkpt><trkpt lat="47.7587742345305" lon="7.0906267301810555"><ele>375.5</ele><time>2026-03-29T13:31:01Z</time></trkpt><trkpt lat="47.75880074135845" lon="7.090843558800026"><ele>374.0</ele><time>2026-03-29T13:31:02Z</time></trkpt><trkpt lat="47.75888910477651" lon="7.091002688189745"><ele>372.5</ele><time>2026-03-29T13:31:03Z</time></trkpt><trkpt lat="47.758976702483686" lon="7.091178496096387"><ele>371.0</ele><time>2026-03-29T13:31:04Z</time></trkpt><trkpt lat="47.75899320714467" lon="7.091359112176237"><ele>371.0</ele><time>2026-03-29T13:31:05Z</time></trkpt><trkpt lat="47.75896496953504" lon="7.0915167345910435"><ele>371.0</ele><time>2026-03-29T13:31:06Z</time></trkpt><trkpt lat="47.7588824814618" lon="7.0916483845380505"><ele>371.0</ele><time>2026-03-29T13:31:07Z</time></trkpt><trkpt lat="47.758766189375" lon="7.091701453070636"><ele>371.0</ele><time>2026-03-29T13:31:08Z</time></trkpt><trkpt lat="47.75858065838904" lon="7.091748215115305"><ele>365.0</ele><time>2026-03-29T13:31:09Z</time></trkpt><trkpt lat="47.75840840918528" lon="7.091779532121082"><ele>359.0</ele><time>2026-03-29T13:31:10Z</time></trkpt><trkpt lat="47.75829886610975" lon="7.091892948391773"><ele>353.0</ele><time>2026-03-29T13:31:11Z</time></trkpt><trkpt lat="47.7582296581451" lon="7.09208602474003"><ele>353.0</ele><time>2026-03-29T13:31:12Z</time></trkpt><trkpt lat="47.75817228741092" lon="7.092368957690504"><ele>353.0</ele><time>2026-03-29T13:31:13Z</time></trkpt><trkpt lat="47.75811210993323" lon="7.092663641912627"><ele>353.0</ele><time>2026-03-29T13:31:14Z</time></trkpt><trkpt lat="47.75804096729114" lon="7.092928004297434"><ele>352.59999999999997</ele><time>2026-03-29T13:31:15Z</time></trkpt><trkpt lat="47.757961098988076" lon="7.093135653394259"><ele>352.2</ele><time>2026-03-29T13:31:16Z</time></trkpt><trkpt lat="47.757905451622655" lon="7.093277823461446"><ele>351.8</ele><time>2026-03-29T13:31:17Z</time></trkpt><trkpt lat="47.75784759257909" lon="7.093377930432359"><ele>351.4</ele><time>2026-03-29T13:31:18Z</time></trkpt><trkpt lat="47.75776851385131" lon="7.093394305320708"><ele>351.0</ele><time>2026-03-29T13:31:19Z</time></trkpt><trkpt lat="47.75768490473323" lon="7.093296870407417"><ele>351.0</ele><time>2026-03-29T13:31:20Z</time></trkpt><trkpt lat="47.75765206749203" lon="7.093113953653371"><ele>351.0</ele><time>2026-03-29T13:31:21Z</time></trkpt><trkpt lat="47.75772033345539" lon="7.092898017536935"><ele>351.0</ele><time>2026-03-29T13:31:22Z</time></trkpt><trkpt lat="47.75777568106887" lon="7.092621196497231"><ele>351.6666666666667</ele><time>2026-03-29T13:31:23Z</time></trkpt><trkpt lat="47.757847119541466" lon="7.092332476751542"><ele>352.33333333333337</ele><time>2026-03-29T13:31:24Z</time></trkpt><trkpt lat="47.75788288517589" lon="7.092052103456573"><ele>353.0</ele><time>2026-03-29T13:31:25Z</time></trkpt><trkpt lat="47.75786995825364" lon="7.091794551299355"><ele>353.6666666666667</ele><time>2026-03-29T13:31:26Z</time></trkpt><trkpt lat="47.757789771807" lon="7.09153406017087"><ele>354.3333333333333</ele><time>2026-03-29T13:31:27Z</time></trkpt><trkpt lat="47.75768791861224" lon="7.091289312145589"><ele>355.0</ele><time>2026-03-29T13:31:28Z</time></trkpt><trkpt lat="47.757593678858846" lon="7.091071032491955"><ele>349.0</ele><time>2026-03-29T13:31:29Z</time></trkpt><trkpt lat="47.75750836387004" lon="7.090863869420122"><ele>343.0</ele><time>2026-03-29T13:31:30Z</time></trkpt><trkpt lat="47.75741663784796" lon="7.090681669847569"><ele>337.0</ele><time>2026-03-29T13:31:31Z</time></trkpt><trkpt lat="47.757296824751116" lon="7.090534042359079"><ele>336.0</ele><time>2026-03-29T13:31:32Z</time></trkpt><trkpt lat="47.75715963040472" lon="7.090419415245335"><ele>335.0</ele><time>2026-03-29T13:31:33Z</time></trkpt><trkpt lat="47.75700737068561" lon="7.090364462458308"><ele>334.0</ele><time>2026-03-29T13:31:34Z</time></trkpt><trkpt lat="47.75685990635014" lon="7.09035994348223"><ele>333.3333333333333</ele><time>2026-03-29T13:31:35Z</time></trkpt><trkpt lat="47.75670883839176" lon="7.090384321795438"><ele>332.6666666666667</ele><time>2026-03-29T13:31:36Z</time></trkpt><trkpt lat="47.756555889448826" lon="7.0904377866066755"><ele>332.0</ele><time>2026-03-29T13:31:37Z</time></trkpt><trkpt lat="47.756404337764295" lon="7.09049212608636"><ele>332.0</ele><time>2026-03-29T13:31:38Z</time></trkpt><trkpt lat="47.756262235563135" lon="7.090538125717196"><ele>332.0</ele><time>2026-03-29T13:31:39Z</time></trkpt><trkpt lat="47.75612949205134" lon="7.090581862817118"><ele>332.0</ele><time>2026-03-29T13:31:40Z</time></trkpt><trkpt lat="47.75600235710625" lon="7.090621593001786"><ele>332.0</ele><time>2026-03-29T13:31:41Z</time></trkpt><trkpt lat="47.75587496658078" lon="7.090658172199642"><ele>331.8</ele><time>2026-03-29T13:31:42Z</time></trkpt><trkpt lat="47.75575794922444" lon="7.090694412482424"><ele>331.6</ele><time>2026-03-29T13:31:43Z</time></trkpt><trkpt lat="47.75564858866021" lon="7.090724583829375"><ele>331.40000000000003</ele><time>2026-03-29T13:31:44Z</time></trkpt><trkpt lat="47.75556397199216" lon="7.090750016929633"><ele>331.20000000000005</ele><time>2026-03-29T13:31:45Z</time></trkpt><trkpt lat="47.75549221333223" lon="7.090769553583496"><ele>331.0</ele><time>2026-03-29T13:31:46Z</time></trkpt><trkpt lat="47.75542904153777" lon="7.090785058750313"><ele>331.0</ele><time>2026-03-29T13:31:47Z</time></trkpt><trkpt lat="47.755352221642184" lon="7.090808531044627"><ele>331.0</ele><time>2026-03-29T13:31:48Z</time></trkpt><trkpt lat="47.75525752272407" lon="7.090839741839344"><ele>331.0</ele><time>2026-03-29T13:31:49Z</time></trkpt><trkpt lat="47.75513927440007" lon="7.090848622615225"><ele>331.0</ele><time>2026-03-29T13:31:50Z</time></trkpt><trkpt lat="47.75502183945943" lon="7.090839747877493"><ele>331.0</ele><time>2026-03-29T13:31:51Z</time></trkpt><trkpt lat="47.75488706017639" lon="7.090817787357368"><ele>331.0</ele><time>2026-03-29T13:31:51.999Z</time></trkpt><trkpt lat="47.754752631960805" lon="7.0907900639290915"><ele>331.0</ele><time>2026-03-29T13:31:52.999Z</time></trkpt><trkpt lat="47.75462358865216" lon="7.090752942996707"><ele>331.0</ele><time>2026-03-29T13:31:53.999Z</time></trkpt><trkpt lat="47.754495972471624" lon="7.090706744800211"><ele>331.0</ele><time>2026-03-29T13:31:54.999Z</time></trkpt><trkpt lat="47.754367293300476" lon="7.090656452630575"><ele>331.0</ele><time>2026-03-29T13:31:55.999Z</time></trkpt><trkpt lat="47.75424296450763" lon="7.090599204540669"><ele>331.0</ele><time>2026-03-29T13:31:56.999Z</time></trkpt><trkpt lat="47.754115377627066" lon="7.09053717058106"><ele>331.0</ele><time>2026-03-29T13:31:58Z</time></trkpt><trkpt lat="47.75399392442501" lon="7.090482145590089"><ele>331.0</ele><time>2026-03-29T13:31:59Z</time></trkpt><trkpt lat="47.75387060791413" lon="7.09042434079165"><ele>331.0</ele><time>2026-03-29T13:32:00Z</time></trkpt><trkpt lat="47.753749896043516" lon="7.090364512981679"><ele>331.0</ele><time>2026-03-29T13:32:01Z</time></trkpt><trkpt lat="47.753635173982865" lon="7.0902954277714585"><ele>331.0</ele><time>2026-03-29T13:32:02Z</time></trkpt><trkpt lat="47.75353848688679" lon="7.090236008166441"><ele>331.0</ele><time>2026-03-29T13:32:03Z</time></trkpt><trkpt lat="47.75343730384155" lon="7.090169345782868"><ele>331.16666666666663</ele><time>2026-03-29T13:32:04Z</time></trkpt><trkpt lat="47.75335377611065" lon="7.090123290605275"><ele>331.3333333333333</ele><time>2026-03-29T13:32:05Z</time></trkpt><trkpt lat="47.75328757295912" lon="7.0900833349431505"><ele>331.5</ele><time>2026-03-29T13:32:06Z</time></trkpt><trkpt lat="47.753234019394455" lon="7.0900289375331065"><ele>331.6666666666667</ele><time>2026-03-29T13:32:08Z</time></trkpt><trkpt lat="47.75321541341893" lon="7.089886112703113"><ele>331.83333333333337</ele><time>2026-03-29T13:32:11Z</time></trkpt><trkpt lat="47.75324167948112" lon="7.089736047780742"><ele>332.0</ele><time>2026-03-29T13:32:12Z</time></trkpt><trkpt lat="47.75325137879776" lon="7.08957091853274"><ele>332.25</ele><time>2026-03-29T13:32:13Z</time></trkpt><trkpt lat="47.75324475454754" lon="7.089390122025408"><ele>332.5</ele><time>2026-03-29T13:32:14Z</time></trkpt><trkpt lat="47.7532514575258" lon="7.089199215501158"><ele>332.75</ele><time>2026-03-29T13:32:15Z</time></trkpt><trkpt lat="47.75326923815578" lon="7.0890073600227845"><ele>333.0</ele><time>2026-03-29T13:32:16Z</time></trkpt><trkpt lat="47.75328579720924" lon="7.088807630818362"><ele>333.25</ele><time>2026-03-29T13:32:17Z</time></trkpt><trkpt lat="47.75330669569388" lon="7.088608456221111"><ele>333.5</ele><time>2026-03-29T13:32:18Z</time></trkpt><trkpt lat="47.75333599358707" lon="7.088413927180246"><ele>333.75</ele><time>2026-03-29T13:32:19Z</time></trkpt><trkpt lat="47.753376739767745" lon="7.0882238783887965"><ele>334.0</ele><time>2026-03-29T13:32:20Z</time></trkpt><trkpt lat="47.75340749092834" lon="7.0880441292124585"><ele>334.25</ele><time>2026-03-29T13:32:21Z</time></trkpt><trkpt lat="47.75343102829519" lon="7.087860746500147"><ele>334.5</ele><time>2026-03-29T13:32:22Z</time></trkpt><trkpt lat="47.753449995978826" lon="7.087677279816333"><ele>334.75</ele><time>2026-03-29T13:32:23Z</time></trkpt><trkpt lat="47.753469909943874" lon="7.087489368090105"><ele>335.0</ele><time>2026-03-29T13:32:24Z</time></trkpt><trkpt lat="47.753495484059314" lon="7.087302918597552"><ele>335.0</ele><time>2026-03-29T13:32:25Z</time></trkpt><trkpt lat="47.75351933378418" lon="7.087114112356974"><ele>335.0</ele><time>2026-03-29T13:32:26Z</time></trkpt><trkpt lat="47.7535413293527" lon="7.086923599275835"><ele>335.0</ele><time>2026-03-29T13:32:27Z</time></trkpt><trkpt lat="47.75356004241986" lon="7.086730442458112"><ele>335.0</ele><time>2026-03-29T13:32:28Z</time></trkpt><trkpt lat="47.75358198784811" lon="7.08653784927067"><ele>334.75</ele><time>2026-03-29T13:32:29Z</time></trkpt><trkpt lat="47.75360170926186" lon="7.086343084302614"><ele>334.5</ele><time>2026-03-29T13:32:30Z</time></trkpt><trkpt lat="47.75361714005909" lon="7.086148438610058"><ele>334.25</ele><time>2026-03-29T13:32:31Z</time></trkpt><trkpt lat="47.753631871875825" lon="7.085953471459712"><ele>334.0</ele><time>2026-03-29T13:32:32Z</time></trkpt><trkpt lat="47.75364784680971" lon="7.085751844598876"><ele>334.0</ele><time>2026-03-29T13:32:33Z</time></trkpt><trkpt lat="47.75366246363215" lon="7.085545132489123"><ele>334.0</ele><time>2026-03-29T13:32:34Z</time></trkpt><trkpt lat="47.753674159923726" lon="7.085342908944997"><ele>334.0</ele><time>2026-03-29T13:32:35Z</time></trkpt><trkpt lat="47.75368460941574" lon="7.085143687923958"><ele>334.0</ele><time>2026-03-29T13:32:36Z</time></trkpt><trkpt lat="47.75369579422026" lon="7.084945513511866"><ele>334.25</ele><time>2026-03-29T13:32:37Z</time></trkpt><trkpt lat="47.753706934490566" lon="7.084747756268167"><ele>334.5</ele><time>2026-03-29T13:32:38Z</time></trkpt><trkpt lat="47.75371459867985" lon="7.084547308858646"><ele>334.75</ele><time>2026-03-29T13:32:39Z</time></trkpt><trkpt lat="47.753709631286604" lon="7.084338002188503"><ele>335.0</ele><time>2026-03-29T13:32:40Z</time></trkpt><trkpt lat="47.75368738127899" lon="7.084131436809375"><ele>334.75</ele><time>2026-03-29T13:32:41Z</time></trkpt><trkpt lat="47.75366410285257" lon="7.083934888191865"><ele>334.5</ele><time>2026-03-29T13:32:42Z</time></trkpt><trkpt lat="47.75365150441408" lon="7.083734135335443"><ele>334.25</ele><time>2026-03-29T13:32:43Z</time></trkpt><trkpt lat="47.75363963828315" lon="7.083541092102156"><ele>334.0</ele><time>2026-03-29T13:32:44Z</time></trkpt><trkpt lat="47.75362649832426" lon="7.083345595225386"><ele>334.0</ele><time>2026-03-29T13:32:45Z</time></trkpt><trkpt lat="47.75360122635489" lon="7.08315510852988"><ele>334.0</ele><time>2026-03-29T13:32:46Z</time></trkpt><trkpt lat="47.753582963839065" lon="7.082959532643875"><ele>334.0</ele><time>2026-03-29T13:32:47Z</time></trkpt><trkpt lat="47.75357862930304" lon="7.0827698153969525"><ele>334.0</ele><time>2026-03-29T13:32:48Z</time></trkpt><trkpt lat="47.753563787243486" lon="7.082580366580934"><ele>334.5</ele><time>2026-03-29T13:32:49Z</time></trkpt><trkpt lat="47.753573500079554" lon="7.082400054072011"><ele>335.0</ele><time>2026-03-29T13:32:50Z</time></trkpt><trkpt lat="47.75357612883849" lon="7.082224718885713"><ele>335.5</ele><time>2026-03-29T13:32:51Z</time></trkpt><trkpt lat="47.75359606872824" lon="7.082058806326946"><ele>336.0</ele><time>2026-03-29T13:32:52Z</time></trkpt><trkpt lat="47.75361586618052" lon="7.081883197136412"><ele>336.0</ele><time>2026-03-29T13:32:53Z</time></trkpt><trkpt lat="47.75365071691969" lon="7.081687742141176"><ele>336.0</ele><time>2026-03-29T13:32:54Z</time></trkpt><trkpt lat="47.75368771244094" lon="7.0814571722732"><ele>336.0</ele><time>2026-03-29T13:32:55Z</time></trkpt><trkpt lat="47.75374301593111" lon="7.081179591916002"><ele>336.0</ele><time>2026-03-29T13:32:56Z</time></trkpt><trkpt lat="47.75381541827234" lon="7.080892039377409"><ele>336.0</ele><time>2026-03-29T13:32:57Z</time></trkpt><trkpt lat="47.75388632835304" lon="7.080583835898219"><ele>336.0</ele><time>2026-03-29T13:32:58Z</time></trkpt><trkpt lat="47.753956591484936" lon="7.0802117755214935"><ele>336.5</ele><time>2026-03-29T13:32:59Z</time></trkpt><trkpt lat="47.75401834566077" lon="7.079857967793609"><ele>337.0</ele><time>2026-03-29T13:33:00Z</time></trkpt><trkpt lat="47.75407838117467" lon="7.079549986889142"><ele>337.0</ele><time>2026-03-29T13:33:01Z</time></trkpt><trkpt lat="47.75413398888239" lon="7.079265603288544"><ele>337.0</ele><time>2026-03-29T13:33:02Z</time></trkpt><trkpt lat="47.75419918059192" lon="7.078959925297181"><ele>337.0</ele><time>2026-03-29T13:33:03Z</time></trkpt><trkpt lat="47.754264543587844" lon="7.0786273283049965"><ele>337.0</ele><time>2026-03-29T13:33:04Z</time></trkpt><trkpt lat="47.75433167974991" lon="7.078302836103471"><ele>337.0</ele><time>2026-03-29T13:33:05Z</time></trkpt><trkpt lat="47.75439612644432" lon="7.0779974444577505"><ele>337.0</ele><time>2026-03-29T13:33:06Z</time></trkpt><trkpt lat="47.75445957670468" lon="7.077689905203379"><ele>337.3333333333333</ele><time>2026-03-29T13:33:07Z</time></trkpt><trkpt lat="47.754526176811936" lon="7.077371186490297"><ele>337.6666666666667</ele><time>2026-03-29T13:33:08Z</time></trkpt><trkpt lat="47.754590247519104" lon="7.077053907935151"><ele>338.0</ele><time>2026-03-29T13:33:09Z</time></trkpt><trkpt lat="47.7546591947233" lon="7.076734817622445"><ele>339.0</ele><time>2026-03-29T13:33:10Z</time></trkpt><trkpt lat="47.75472575837436" lon="7.076417936189364"><ele>340.0</ele><time>2026-03-29T13:33:11Z</time></trkpt><trkpt lat="47.75479074383728" lon="7.076104410346193"><ele>341.0</ele><time>2026-03-29T13:33:12Z</time></trkpt><trkpt lat="47.754855697747" lon="7.075785438947435"><ele>340.6666666666667</ele><time>2026-03-29T13:33:13Z</time></trkpt><trkpt lat="47.754925284975485" lon="7.0754700184495976"><ele>340.3333333333333</ele><time>2026-03-29T13:33:14Z</time></trkpt><trkpt lat="47.75499105149383" lon="7.075151328079173"><ele>340.0</ele><time>2026-03-29T13:33:15Z</time></trkpt><trkpt lat="47.755056226434434" lon="7.074840586326486"><ele>340.66666666666663</ele><time>2026-03-29T13:33:16Z</time></trkpt><trkpt lat="47.75511832755975" lon="7.074540837794369"><ele>341.3333333333333</ele><time>2026-03-29T13:33:17Z</time></trkpt><trkpt lat="47.75518249857965" lon="7.074238537136969"><ele>342.0</ele><time>2026-03-29T13:33:18Z</time></trkpt><trkpt lat="47.75524545816571" lon="7.0739373144372735"><ele>342.0</ele><time>2026-03-29T13:33:19Z</time></trkpt><trkpt lat="47.75531019634673" lon="7.073625567372226"><ele>342.0</ele><time>2026-03-29T13:33:20Z</time></trkpt><trkpt lat="47.75537706806416" lon="7.073314689820521"><ele>342.0</ele><time>2026-03-29T13:33:21Z</time></trkpt><trkpt lat="47.75544002791304" lon="7.073011978737131"><ele>342.0</ele><time>2026-03-29T13:33:22Z</time></trkpt><trkpt lat="47.755501752350206" lon="7.072706675960144"><ele>342.0</ele><time>2026-03-29T13:33:23Z</time></trkpt><trkpt lat="47.75556364601725" lon="7.072400510649181"><ele>342.0</ele><time>2026-03-29T13:33:24Z</time></trkpt><trkpt lat="47.75562655325164" lon="7.072096810335243"><ele>342.0</ele><time>2026-03-29T13:33:25Z</time></trkpt><trkpt lat="47.755691854717355" lon="7.071788761141692"><ele>342.0</ele><time>2026-03-29T13:33:26Z</time></trkpt><trkpt lat="47.75576079987793" lon="7.071474899396239"><ele>342.0</ele><time>2026-03-29T13:33:27Z</time></trkpt><trkpt lat="47.75582734547857" lon="7.071163897705581"><ele>342.3333333333333</ele><time>2026-03-29T13:33:28Z</time></trkpt><trkpt lat="47.75588892864422" lon="7.07085706259536"><ele>342.66666666666663</ele><time>2026-03-29T13:33:29Z</time></trkpt><trkpt lat="47.75594723019466" lon="7.070550855070593"><ele>343.0</ele><time>2026-03-29T13:33:30Z</time></trkpt><trkpt lat="47.75600179912794" lon="7.070242453773002"><ele>343.3333333333333</ele><time>2026-03-29T13:33:31Z</time></trkpt><trkpt lat="47.75604394723046" lon="7.0699333174465755"><ele>343.6666666666667</ele><time>2026-03-29T13:33:32Z</time></trkpt><trkpt lat="47.75607673780509" lon="7.069617765443785"><ele>344.0</ele><time>2026-03-29T13:33:33Z</time></trkpt><trkpt lat="47.75609354713432" lon="7.0693032360946475"><ele>344.33333333333337</ele><time>2026-03-29T13:33:34Z</time></trkpt><trkpt lat="47.756099798473066" lon="7.068984075172267"><ele>344.6666666666667</ele><time>2026-03-29T13:33:35Z</time></trkpt><trkpt lat="47.756101097385866" lon="7.068649110859216"><ele>345.0</ele><time>2026-03-29T13:33:36Z</time></trkpt><trkpt lat="47.75609407312143" lon="7.068313850773384"><ele>344.6666666666667</ele><time>2026-03-29T13:33:37Z</time></trkpt><trkpt lat="47.756089955825146" lon="7.067975744460039"><ele>344.33333333333337</ele><time>2026-03-29T13:33:37.999Z</time></trkpt><trkpt lat="47.75608393055056" lon="7.067651450023678"><ele>344.0</ele><time>2026-03-29T13:33:38.999Z</time></trkpt><trkpt lat="47.75607668899458" lon="7.067343193259258"><ele>344.6666666666667</ele><time>2026-03-29T13:33:39.999Z</time></trkpt><trkpt lat="47.75607087238859" lon="7.067057390108332"><ele>345.3333333333333</ele><time>2026-03-29T13:33:40.999Z</time></trkpt><trkpt lat="47.75606667907057" lon="7.066786848591072"><ele>346.0</ele><time>2026-03-29T13:33:41.999Z</time></trkpt><trkpt lat="47.756061278819615" lon="7.066527902919156"><ele>346.0</ele><time>2026-03-29T13:33:42.999Z</time></trkpt><trkpt lat="47.756053882117506" lon="7.066274880709098"><ele>346.0</ele><time>2026-03-29T13:33:43.999Z</time></trkpt><trkpt lat="47.756043602641704" lon="7.066046982938035"><ele>346.0</ele><time>2026-03-29T13:33:44.999Z</time></trkpt><trkpt lat="47.75602896419833" lon="7.065833560489838"><ele>346.5</ele><time>2026-03-29T13:33:45.999Z</time></trkpt><trkpt lat="47.75604020341097" lon="7.06559865733754"><ele>347.0</ele><time>2026-03-29T13:33:46.999Z</time></trkpt><trkpt lat="47.75603772687113" lon="7.065396261229552"><ele>347.5</ele><time>2026-03-29T13:33:47.999Z</time></trkpt><trkpt lat="47.75603321008346" lon="7.065194515572816"><ele>348.0</ele><time>2026-03-29T13:33:48.999Z</time></trkpt><trkpt lat="47.756037522390535" lon="7.0650202294260165"><ele>350.0</ele><time>2026-03-29T13:33:49.999Z</time></trkpt><trkpt lat="47.75604670438688" lon="7.064903346391421"><ele>352.0</ele><time>2026-03-29T13:33:50.999Z</time></trkpt><trkpt lat="47.75635978356454" lon="7.064793037599537"><ele>354.0</ele><time>2026-03-29T13:33:52.999Z</time></trkpt><trkpt lat="47.75655216344573" lon="7.0648085032734205"><ele>354.0</ele><time>2026-03-29T13:33:53.999Z</time></trkpt><trkpt lat="47.756776570875154" lon="7.064862159628949"><ele>354.0</ele><time>2026-03-29T13:33:54.999Z</time></trkpt><trkpt lat="47.75704023170567" lon="7.064922185048913"><ele>351.5</ele><time>2026-03-29T13:33:55.999Z</time></trkpt><trkpt lat="47.75732562268803" lon="7.06497556026186"><ele>349.0</ele><time>2026-03-29T13:33:56.999Z</time></trkpt><trkpt lat="47.75763930029041" lon="7.065026597453544"><ele>348.0</ele><time>2026-03-29T13:33:57.999Z</time></trkpt><trkpt lat="47.75794850518367" lon="7.065058530348171"><ele>347.0</ele><time>2026-03-29T13:33:58.999Z</time></trkpt><trkpt lat="47.75828237538837" lon="7.0651044075864124"><ele>346.0</ele><time>2026-03-29T13:33:59.999Z</time></trkpt><trkpt lat="47.75862996227042" lon="7.065179840547242"><ele>345.0</ele><time>2026-03-29T13:34:00.999Z</time></trkpt><trkpt lat="47.7589900325962" lon="7.06526935098018"><ele>345.0</ele><time>2026-03-29T13:34:01.999Z</time></trkpt><trkpt lat="47.75935363157209" lon="7.065345156870354"><ele>345.0</ele><time>2026-03-29T13:34:02.999Z</time></trkpt><trkpt lat="47.759711814319004" lon="7.065423954659431"><ele>347.5</ele><time>2026-03-29T13:34:04Z</time></trkpt><trkpt lat="47.76006927742198" lon="7.065495096408602"><ele>350.0</ele><time>2026-03-29T13:34:05Z</time></trkpt><trkpt lat="47.76041594102516" lon="7.065535420144079"><ele>357.0</ele><time>2026-03-29T13:34:06Z</time></trkpt><trkpt lat="47.76069475689353" lon="7.065525706444485"><ele>364.0</ele><time>2026-03-29T13:34:07Z</time></trkpt><trkpt lat="47.76096136050376" lon="7.065478596793639"><ele>364.0</ele><time>2026-03-29T13:34:08Z</time></trkpt><trkpt lat="47.76123894338991" lon="7.065383284162659"><ele>364.0</ele><time>2026-03-29T13:34:09Z</time></trkpt><trkpt lat="47.76149771506847" lon="7.065288907404093"><ele>364.0</ele><time>2026-03-29T13:34:10Z</time></trkpt><trkpt lat="47.761728492687695" lon="7.065201508431196"><ele>364.0</ele><time>2026-03-29T13:34:11Z</time></trkpt><trkpt lat="47.76195725683192" lon="7.065120587835446"><ele>361.5</ele><time>2026-03-29T13:34:12Z</time></trkpt><trkpt lat="47.76219263556154" lon="7.065043154520045"><ele>359.0</ele><time>2026-03-29T13:34:13Z</time></trkpt><trkpt lat="47.76243078292285" lon="7.064969537328222"><ele>368.0</ele><time>2026-03-29T13:34:14Z</time></trkpt><trkpt lat="47.762671737910686" lon="7.06491182298389"><ele>377.0</ele><time>2026-03-29T13:34:15Z</time></trkpt><trkpt lat="47.76291293933764" lon="7.064894467148612"><ele>377.0</ele><time>2026-03-29T13:34:16Z</time></trkpt><trkpt lat="47.7631509059784" lon="7.064925961396914"><ele>377.0</ele><time>2026-03-29T13:34:17Z</time></trkpt><trkpt lat="47.76338280206848" lon="7.06499827891418"><ele>371.33333333333337</ele><time>2026-03-29T13:34:18Z</time></trkpt><trkpt lat="47.7636012661203" lon="7.065099521446407"><ele>365.6666666666667</ele><time>2026-03-29T13:34:19Z</time></trkpt><trkpt lat="47.763795901079696" lon="7.065215308551322"><ele>360.0</ele><time>2026-03-29T13:34:20Z</time></trkpt><trkpt lat="47.76400234602578" lon="7.065323290634042"><ele>360.0</ele><time>2026-03-29T13:34:21Z</time></trkpt><trkpt lat="47.76421179742857" lon="7.065400195448233"><ele>360.0</ele><time>2026-03-29T13:34:22Z</time></trkpt><trkpt lat="47.7644267844278" lon="7.065447971837034"><ele>360.0</ele><time>2026-03-29T13:34:23Z</time></trkpt><trkpt lat="47.76464408670691" lon="7.065464541643791"><ele>360.0</ele><time>2026-03-29T13:34:24Z</time></trkpt><trkpt lat="47.7648596840313" lon="7.065438108355198"><ele>360.0</ele><time>2026-03-29T13:34:25Z</time></trkpt><trkpt lat="47.76506672201199" lon="7.065384625439558"><ele>360.0</ele><time>2026-03-29T13:34:26Z</time></trkpt><trkpt lat="47.765267613323374" lon="7.0653191724341236"><ele>359.6666666666667</ele><time>2026-03-29T13:34:27Z</time></trkpt><trkpt lat="47.76546249645496" lon="7.065259298990431"><ele>359.33333333333337</ele><time>2026-03-29T13:34:28Z</time></trkpt><trkpt lat="47.76565309479692" lon="7.065192865136876"><ele>359.0</ele><time>2026-03-29T13:34:29Z</time></trkpt><trkpt lat="47.765832864420936" lon="7.06512516466628"><ele>359.0</ele><time>2026-03-29T13:34:30Z</time></trkpt><trkpt lat="47.765997933467986" lon="7.0650596403773225"><ele>359.0</ele><time>2026-03-29T13:34:31Z</time></trkpt><trkpt lat="47.766142912656456" lon="7.0650038376766116"><ele>359.0</ele><time>2026-03-29T13:34:32Z</time></trkpt><trkpt lat="47.76626944539934" lon="7.064947814638615"><ele>358.33333333333337</ele><time>2026-03-29T13:34:33Z</time></trkpt><trkpt lat="47.76640100795947" lon="7.064879599263547"><ele>357.6666666666667</ele><time>2026-03-29T13:34:34Z</time></trkpt><trkpt lat="47.76655981533168" lon="7.0648107833389915"><ele>357.0</ele><time>2026-03-29T13:34:35Z</time></trkpt><trkpt lat="47.766725418324505" lon="7.0647591310637985"><ele>358.6666666666667</ele><time>2026-03-29T13:34:36Z</time></trkpt><trkpt lat="47.766877816016894" lon="7.064698122009233"><ele>360.33333333333337</ele><time>2026-03-29T13:34:37Z</time></trkpt><trkpt lat="47.76703306882897" lon="7.0646137890300995"><ele>362.0</ele><time>2026-03-29T13:34:38Z</time></trkpt><trkpt lat="47.76717765194002" lon="7.064491678319495"><ele>362.0</ele><time>2026-03-29T13:34:39Z</time></trkpt><trkpt lat="47.767320017765755" lon="7.064335857541238"><ele>362.0</ele><time>2026-03-29T13:34:40Z</time></trkpt><trkpt lat="47.76748122168325" lon="7.064184325169993"><ele>362.0</ele><time>2026-03-29T13:34:41Z</time></trkpt><trkpt lat="47.767637075924675" lon="7.064043152635405"><ele>362.33333333333337</ele><time>2026-03-29T13:34:42Z</time></trkpt><trkpt lat="47.767801688187525" lon="7.063917142138811"><ele>362.6666666666667</ele><time>2026-03-29T13:34:43Z</time></trkpt><trkpt lat="47.76795985912338" lon="7.063794137159513"><ele>363.0</ele><time>2026-03-29T13:34:44Z</time></trkpt><trkpt lat="47.76810852406797" lon="7.06366230457564"><ele>363.0</ele><time>2026-03-29T13:34:45Z</time></trkpt><trkpt lat="47.76823624865389" lon="7.063522400130249"><ele>363.0</ele><time>2026-03-29T13:34:46Z</time></trkpt><trkpt lat="47.768359075765" lon="7.063385483653758"><ele>363.0</ele><time>2026-03-29T13:34:47Z</time></trkpt><trkpt lat="47.76846612884629" lon="7.063256178837874"><ele>363.5</ele><time>2026-03-29T13:34:48Z</time></trkpt><trkpt lat="47.76857509462357" lon="7.063128369328794"><ele>364.0</ele><time>2026-03-29T13:34:49Z</time></trkpt><trkpt lat="47.76867668814304" lon="7.063014532191004"><ele>364.5</ele><time>2026-03-29T13:34:50Z</time></trkpt><trkpt lat="47.768769675553436" lon="7.062911364181804"><ele>365.0</ele><time>2026-03-29T13:34:51Z</time></trkpt><trkpt lat="47.76885402964462" lon="7.062819487255704"><ele>365.0</ele><time>2026-03-29T13:34:52Z</time></trkpt><trkpt lat="47.768929389821274" lon="7.062738585074851"><ele>365.0</ele><time>2026-03-29T13:34:53Z</time></trkpt><trkpt lat="47.76899271183919" lon="7.06264395989363"><ele>365.0</ele><time>2026-03-29T13:34:54Z</time></trkpt><trkpt lat="47.7690448129142" lon="7.062539481549947"><ele>365.0</ele><time>2026-03-29T13:34:55Z</time></trkpt><trkpt lat="47.769110032326715" lon="7.062424656115195"><ele>365.0</ele><time>2026-03-29T13:34:56Z</time></trkpt><trkpt lat="47.769170167022786" lon="7.0623172089209305"><ele>365.5</ele><time>2026-03-29T13:34:57Z</time></trkpt><trkpt lat="47.76924043259782" lon="7.062205021570556"><ele>366.0</ele><time>2026-03-29T13:34:58Z</time></trkpt><trkpt lat="47.76933395029189" lon="7.062087351033462"><ele>366.5</ele><time>2026-03-29T13:34:59Z</time></trkpt><trkpt lat="47.769438894805724" lon="7.0619728695883035"><ele>367.0</ele><time>2026-03-29T13:35:00Z</time></trkpt><trkpt lat="47.769552408923744" lon="7.061856804422074"><ele>367.0</ele><time>2026-03-29T13:35:01Z</time></trkpt><trkpt lat="47.76966756236192" lon="7.061746162829655"><ele>367.0</ele><time>2026-03-29T13:35:02Z</time></trkpt><trkpt lat="47.76978287353689" lon="7.061637021324304"><ele>367.0</ele><time>2026-03-29T13:35:03Z</time></trkpt><trkpt lat="47.769896875064056" lon="7.061527166054206"><ele>367.0</ele><time>2026-03-29T13:35:04Z</time></trkpt><trkpt lat="47.770012371997126" lon="7.061420206255299"><ele>367.5</ele><time>2026-03-29T13:35:05Z</time></trkpt><trkpt lat="47.770125236398115" lon="7.061318581782246"><ele>368.0</ele><time>2026-03-29T13:35:06Z</time></trkpt><trkpt lat="47.77023228010881" lon="7.061224919619981"><ele>368.5</ele><time>2026-03-29T13:35:07Z</time></trkpt><trkpt lat="47.770329415102964" lon="7.0611486936550065"><ele>369.0</ele><time>2026-03-29T13:35:08Z</time></trkpt><trkpt lat="47.77041788927374" lon="7.061086116869848"><ele>369.0</ele><time>2026-03-29T13:35:09Z</time></trkpt><trkpt lat="47.77050618846669" lon="7.061035432488344"><ele>369.0</ele><time>2026-03-29T13:35:10Z</time></trkpt><trkpt lat="47.77059615482099" lon="7.060978800878649"><ele>369.0</ele><time>2026-03-29T13:35:11Z</time></trkpt><trkpt lat="47.77069305957197" lon="7.060919854181456"><ele>369.0</ele><time>2026-03-29T13:35:12Z</time></trkpt><trkpt lat="47.77079845076604" lon="7.060853109111371"><ele>369.0</ele><time>2026-03-29T13:35:13Z</time></trkpt><trkpt lat="47.77090935627987" lon="7.060777291050877"><ele>369.25</ele><time>2026-03-29T13:35:14Z</time></trkpt><trkpt lat="47.771022815104146" lon="7.0606981591240165"><ele>369.5</ele><time>2026-03-29T13:35:15Z</time></trkpt><trkpt lat="47.77115177632523" lon="7.060628741227588"><ele>369.75</ele><time>2026-03-29T13:35:16Z</time></trkpt><trkpt lat="47.77128518137302" lon="7.060565569346142"><ele>370.0</ele><time>2026-03-29T13:35:17Z</time></trkpt><trkpt lat="47.77142216531506" lon="7.060506064563586"><ele>370.25</ele><time>2026-03-29T13:35:18Z</time></trkpt><trkpt lat="47.771557579820474" lon="7.060456303668687"><ele>370.5</ele><time>2026-03-29T13:35:19Z</time></trkpt><trkpt lat="47.77169073158554" lon="7.0604070931889265"><ele>370.75</ele><time>2026-03-29T13:35:20Z</time></trkpt><trkpt lat="47.77181800137333" lon="7.0603563870278725"><ele>371.0</ele><time>2026-03-29T13:35:21Z</time></trkpt><trkpt lat="47.77192845730265" lon="7.06028693719606"><ele>371.4</ele><time>2026-03-29T13:35:22Z</time></trkpt><trkpt lat="47.772013600625066" lon="7.060199207196251"><ele>371.8</ele><time>2026-03-29T13:35:23Z</time></trkpt><trkpt lat="47.77210935512328" lon="7.060098292701687"><ele>372.2</ele><time>2026-03-29T13:35:24Z</time></trkpt><trkpt lat="47.77219083492278" lon="7.060014795021487"><ele>372.59999999999997</ele><time>2026-03-29T13:35:25Z</time></trkpt><trkpt lat="47.77227039184132" lon="7.059941777674838"><ele>373.0</ele><time>2026-03-29T13:35:26Z</time></trkpt><trkpt lat="47.772343681675316" lon="7.059884425265579"><ele>373.0</ele><time>2026-03-29T13:35:26.999Z</time></trkpt><trkpt lat="47.77241305467899" lon="7.059840723700095"><ele>373.0</ele><time>2026-03-29T13:35:27.999Z</time></trkpt><trkpt lat="47.77247567801947" lon="7.059810607690056"><ele>373.0</ele><time>2026-03-29T13:35:28.999Z</time></trkpt><trkpt lat="47.77257891035977" lon="7.059787975241157"><ele>373.0</ele><time>2026-03-29T13:35:30.999Z</time></trkpt><trkpt lat="47.77262948954818" lon="7.059950814314607"><ele>373.0</ele><time>2026-03-29T13:35:32.999Z</time></trkpt><trkpt lat="47.77266020524211" lon="7.060087325488477"><ele>373.79999999999995</ele><time>2026-03-29T13:35:33.999Z</time></trkpt><trkpt lat="47.77270797089104" lon="7.060210636993516"><ele>374.6</ele><time>2026-03-29T13:35:34.999Z</time></trkpt><trkpt lat="47.77276946283378" lon="7.060333321805172"><ele>375.4</ele><time>2026-03-29T13:35:35.999Z</time></trkpt><trkpt lat="47.77283367777195" lon="7.060459484489304"><ele>376.20000000000005</ele><time>2026-03-29T13:35:36.999Z</time></trkpt><trkpt lat="47.77288836161036" lon="7.06059836207853"><ele>377.0</ele><time>2026-03-29T13:35:37.999Z</time></trkpt><trkpt lat="47.772922884198" lon="7.060739263725564"><ele>377.8</ele><time>2026-03-29T13:35:38.999Z</time></trkpt><trkpt lat="47.772942405672104" lon="7.060907852633213"><ele>378.6</ele><time>2026-03-29T13:35:39.999Z</time></trkpt><trkpt lat="47.77294185773636" lon="7.061060559138625"><ele>379.40000000000003</ele><time>2026-03-29T13:35:40.999Z</time></trkpt><trkpt lat="47.77292262733161" lon="7.0611912612134"><ele>380.20000000000005</ele><time>2026-03-29T13:35:41.999Z</time></trkpt><trkpt lat="47.77287616928903" lon="7.061310159364913"><ele>381.0</ele><time>2026-03-29T13:35:42.999Z</time></trkpt><trkpt lat="47.77280522266222" lon="7.0614232775083225"><ele>381.0</ele><time>2026-03-29T13:35:43.999Z</time></trkpt><trkpt lat="47.77272551459771" lon="7.061513935480027"><ele>381.0</ele><time>2026-03-29T13:35:44.999Z</time></trkpt><trkpt lat="47.77263586422567" lon="7.0616127511747395"><ele>381.0</ele><time>2026-03-29T13:35:45.999Z</time></trkpt><trkpt lat="47.772551277657726" lon="7.061711046883846"><ele>381.0</ele><time>2026-03-29T13:35:46.999Z</time></trkpt><trkpt lat="47.7724730184597" lon="7.06180763475588"><ele>381.0</ele><time>2026-03-29T13:35:47.999Z</time></trkpt><trkpt lat="47.77239806130702" lon="7.0619191152970355"><ele>381.8</ele><time>2026-03-29T13:35:48.999Z</time></trkpt><trkpt lat="47.77233035246994" lon="7.062045616159911"><ele>382.6</ele><time>2026-03-29T13:35:49.999Z</time></trkpt><trkpt lat="47.77226936924648" lon="7.062191162057594"><ele>383.4</ele><time>2026-03-29T13:35:50.999Z</time></trkpt><trkpt lat="47.772211500570286" lon="7.06232534189613"><ele>384.2</ele><time>2026-03-29T13:35:51.999Z</time></trkpt><trkpt lat="47.7721510188821" lon="7.062463540852153"><ele>385.0</ele><time>2026-03-29T13:35:52.999Z</time></trkpt><trkpt lat="47.77208699974069" lon="7.062596525115342"><ele>384.6</ele><time>2026-03-29T13:35:53.999Z</time></trkpt><trkpt lat="47.772022582640616" lon="7.062725215935176"><ele>384.2</ele><time>2026-03-29T13:35:54.999Z</time></trkpt><trkpt lat="47.771951175555515" lon="7.062869653976757"><ele>383.79999999999995</ele><time>2026-03-29T13:35:55.999Z</time></trkpt><trkpt lat="47.7718855636147" lon="7.062998118731781"><ele>383.4</ele><time>2026-03-29T13:35:56.999Z</time></trkpt><trkpt lat="47.77182718180855" lon="7.063121832248297"><ele>383.0</ele><time>2026-03-29T13:35:57.999Z</time></trkpt><trkpt lat="47.77176045135634" lon="7.063258072805239"><ele>384.75</ele><time>2026-03-29T13:35:58.999Z</time></trkpt><trkpt lat="47.77169020557201" lon="7.063377815731045"><ele>386.5</ele><time>2026-03-29T13:35:59.999Z</time></trkpt><trkpt lat="47.77161742223343" lon="7.063526239942716"><ele>388.25</ele><time>2026-03-29T13:36:00.999Z</time></trkpt><trkpt lat="47.77154423115212" lon="7.0636751346754165"><ele>390.0</ele><time>2026-03-29T13:36:01.999Z</time></trkpt><trkpt lat="47.77146240932451" lon="7.063857791434107"><ele>390.0</ele><time>2026-03-29T13:36:02.999Z</time></trkpt><trkpt lat="47.771375034117455" lon="7.064048960733488"><ele>390.0</ele><time>2026-03-29T13:36:03.999Z</time></trkpt><trkpt lat="47.77130008270629" lon="7.064202576013402"><ele>390.0</ele><time>2026-03-29T13:36:04.999Z</time></trkpt><trkpt lat="47.77120822222352" lon="7.064346899946684"><ele>390.0</ele><time>2026-03-29T13:36:05.999Z</time></trkpt><trkpt lat="47.771097750019834" lon="7.064489629467219"><ele>389.8</ele><time>2026-03-29T13:36:06.999Z</time></trkpt><trkpt lat="47.770986883786286" lon="7.064607899837088"><ele>389.6</ele><time>2026-03-29T13:36:07.999Z</time></trkpt><trkpt lat="47.77090848163114" lon="7.064706225170975"><ele>389.4</ele><time>2026-03-29T13:36:08.999Z</time></trkpt><trkpt lat="47.7708223177326" lon="7.064808953366088"><ele>389.2</ele><time>2026-03-29T13:36:10Z</time></trkpt><trkpt lat="47.77074597168065" lon="7.064904049228795"><ele>389.0</ele><time>2026-03-29T13:36:11Z</time></trkpt><trkpt lat="47.77067904447425" lon="7.064982945136724"><ele>389.8333333333333</ele><time>2026-03-29T13:36:12Z</time></trkpt><trkpt lat="47.77061956625929" lon="7.0650463079257175"><ele>390.66666666666663</ele><time>2026-03-29T13:36:13Z</time></trkpt><trkpt lat="47.7705660506544" lon="7.065108363505723"><ele>391.5</ele><time>2026-03-29T13:36:14Z</time></trkpt><trkpt lat="47.77050028447915" lon="7.065196327872583"><ele>392.33333333333337</ele><time>2026-03-29T13:36:15Z</time></trkpt><trkpt lat="47.77043120561092" lon="7.065292213589187"><ele>393.1666666666667</ele><time>2026-03-29T13:36:16Z</time></trkpt><trkpt lat="47.77034019844782" lon="7.065402459724907"><ele>394.0</ele><time>2026-03-29T13:36:17Z</time></trkpt><trkpt lat="47.770220392058995" lon="7.065546460140919"><ele>393.6666666666667</ele><time>2026-03-29T13:36:18Z</time></trkpt><trkpt lat="47.77009656982469" lon="7.065707102984786"><ele>393.33333333333337</ele><time>2026-03-29T13:36:19Z</time></trkpt><trkpt lat="47.7699750726263" lon="7.06586066854292"><ele>393.0</ele><time>2026-03-29T13:36:20Z</time></trkpt><trkpt lat="47.76985187340588" lon="7.066022088770791"><ele>393.0</ele><time>2026-03-29T13:36:21Z</time></trkpt><trkpt lat="47.769734963153276" lon="7.066201719739421"><ele>393.0</ele><time>2026-03-29T13:36:22Z</time></trkpt><trkpt lat="47.769617321990395" lon="7.066424987766577"><ele>393.0</ele><time>2026-03-29T13:36:23Z</time></trkpt><trkpt lat="47.76949842812542" lon="7.066674094489064"><ele>393.33333333333337</ele><time>2026-03-29T13:36:24Z</time></trkpt><trkpt lat="47.76937369747695" lon="7.0669281387067935"><ele>393.6666666666667</ele><time>2026-03-29T13:36:25Z</time></trkpt><trkpt lat="47.76925412446609" lon="7.067172129610069"><ele>394.0</ele><time>2026-03-29T13:36:26Z</time></trkpt><trkpt lat="47.769154012931196" lon="7.067392774152026"><ele>396.6666666666667</ele><time>2026-03-29T13:36:27Z</time></trkpt><trkpt lat="47.7690619042067" lon="7.067587744571223"><ele>399.33333333333337</ele><time>2026-03-29T13:36:28Z</time></trkpt><trkpt lat="47.76897274876558" lon="7.06776769285677"><ele>402.0</ele><time>2026-03-29T13:36:29Z</time></trkpt><trkpt lat="47.76887074978016" lon="7.067937451911208"><ele>402.0</ele><time>2026-03-29T13:36:30Z</time></trkpt><trkpt lat="47.76876939490178" lon="7.068068918202482"><ele>402.0</ele><time>2026-03-29T13:36:31Z</time></trkpt><trkpt lat="47.768668785263586" lon="7.068177108897007"><ele>402.0</ele><time>2026-03-29T13:36:32Z</time></trkpt><trkpt lat="47.76857884440651" lon="7.0682879719749145"><ele>402.0</ele><time>2026-03-29T13:36:33Z</time></trkpt><trkpt lat="47.76851109195559" lon="7.068415936404463"><ele>403.5</ele><time>2026-03-29T13:36:34Z</time></trkpt><trkpt lat="47.768483723082916" lon="7.068561586798936"><ele>405.0</ele><time>2026-03-29T13:36:35Z</time></trkpt><trkpt lat="47.76850600536286" lon="7.068708942790873"><ele>406.5</ele><time>2026-03-29T13:36:36Z</time></trkpt><trkpt lat="47.76857995327904" lon="7.068862044108837"><ele>408.0</ele><time>2026-03-29T13:36:37Z</time></trkpt><trkpt lat="47.76868675732299" lon="7.068990538584519"><ele>408.0</ele><time>2026-03-29T13:36:38Z</time></trkpt><trkpt lat="47.76879790440619" lon="7.069073871092849"><ele>408.0</ele><time>2026-03-29T13:36:39Z</time></trkpt><trkpt lat="47.76890838363721" lon="7.069126025378399"><ele>408.0</ele><time>2026-03-29T13:36:40Z</time></trkpt><trkpt lat="47.7690194237906" lon="7.069141817585294"><ele>408.0</ele><time>2026-03-29T13:36:41Z</time></trkpt><trkpt lat="47.76914595525731" lon="7.069113568047718"><ele>408.0</ele><time>2026-03-29T13:36:42Z</time></trkpt><trkpt lat="47.76929474669759" lon="7.069036469675412"><ele>408.0</ele><time>2026-03-29T13:36:43Z</time></trkpt><trkpt lat="47.7694480869138" lon="7.068895689818046"><ele>408.0</ele><time>2026-03-29T13:36:44Z</time></trkpt><trkpt lat="47.76964111405304" lon="7.068714306865238"><ele>408.5</ele><time>2026-03-29T13:36:45Z</time></trkpt><trkpt lat="47.76985564437271" lon="7.068494071869338"><ele>409.0</ele><time>2026-03-29T13:36:46Z</time></trkpt><trkpt lat="47.770094174233215" lon="7.0682440034957885"><ele>411.5</ele><time>2026-03-29T13:36:47Z</time></trkpt><trkpt lat="47.770327853606084" lon="7.068001315190431"><ele>414.0</ele><time>2026-03-29T13:36:48Z</time></trkpt><trkpt lat="47.77054863446844" lon="7.067844881945563"><ele>414.0</ele><time>2026-03-29T13:36:49Z</time></trkpt><trkpt lat="47.77074985472983" lon="7.067677501853297"><ele>414.0</ele><time>2026-03-29T13:36:50Z</time></trkpt><trkpt lat="47.770926019884655" lon="7.067558030961924"><ele>414.0</ele><time>2026-03-29T13:36:51Z</time></trkpt><trkpt lat="47.7710954514949" lon="7.067439477758362"><ele>415.0</ele><time>2026-03-29T13:36:52Z</time></trkpt><trkpt lat="47.771257885549794" lon="7.067324864212922"><ele>416.0</ele><time>2026-03-29T13:36:53Z</time></trkpt><trkpt lat="47.77141989218232" lon="7.067221711852556"><ele>417.0</ele><time>2026-03-29T13:36:54Z</time></trkpt><trkpt lat="47.77158423525088" lon="7.0671170244981365"><ele>417.0</ele><time>2026-03-29T13:36:55Z</time></trkpt><trkpt lat="47.77172941636369" lon="7.067007431361814"><ele>417.0</ele><time>2026-03-29T13:36:56Z</time></trkpt><trkpt lat="47.77188393057685" lon="7.0668758692111995"><ele>417.0</ele><time>2026-03-29T13:36:57Z</time></trkpt><trkpt lat="47.77203161035329" lon="7.066724593653839"><ele>416.66666666666663</ele><time>2026-03-29T13:36:58Z</time></trkpt><trkpt lat="47.77217901240064" lon="7.066542037210967"><ele>416.3333333333333</ele><time>2026-03-29T13:36:59Z</time></trkpt><trkpt lat="47.77232199677613" lon="7.066340010513971"><ele>416.0</ele><time>2026-03-29T13:37:00Z</time></trkpt><trkpt lat="47.77247766818645" lon="7.0661571234402025"><ele>416.0</ele><time>2026-03-29T13:37:01Z</time></trkpt><trkpt lat="47.77263180155604" lon="7.065979451791336"><ele>416.0</ele><time>2026-03-29T13:37:02Z</time></trkpt><trkpt lat="47.77279939614491" lon="7.0658202966694885"><ele>416.0</ele><time>2026-03-29T13:37:03Z</time></trkpt><trkpt lat="47.77296823567292" lon="7.065653684527869"><ele>418.3333333333333</ele><time>2026-03-29T13:37:04Z</time></trkpt><trkpt lat="47.77316810221395" lon="7.065560936323411"><ele>420.66666666666663</ele><time>2026-03-29T13:37:05Z</time></trkpt><trkpt lat="47.773366431415134" lon="7.065476584130561"><ele>423.0</ele><time>2026-03-29T13:37:06Z</time></trkpt><trkpt lat="47.77356071060657" lon="7.0654046313992875"><ele>425.66666666666663</ele><time>2026-03-29T13:37:07Z</time></trkpt><trkpt lat="47.77375271516619" lon="7.06533376157112"><ele>428.3333333333333</ele><time>2026-03-29T13:37:08Z</time></trkpt><trkpt lat="47.77392535745361" lon="7.065267439468711"><ele>431.0</ele><time>2026-03-29T13:37:09Z</time></trkpt><trkpt lat="47.774099386725084" lon="7.065200584565634"><ele>431.0</ele><time>2026-03-29T13:37:10Z</time></trkpt><trkpt lat="47.77426147042397" lon="7.065121332409147"><ele>431.0</ele><time>2026-03-29T13:37:11Z</time></trkpt><trkpt lat="47.77441758913431" lon="7.065088331561827"><ele>431.0</ele><time>2026-03-29T13:37:12Z</time></trkpt><trkpt lat="47.77455684523158" lon="7.06515759762739"><ele>433.0</ele><time>2026-03-29T13:37:13Z</time></trkpt><trkpt lat="47.7747144501712" lon="7.065236218586573"><ele>435.0</ele><time>2026-03-29T13:37:14Z</time></trkpt><trkpt lat="47.77484158716197" lon="7.065424073538655"><ele>437.0</ele><time>2026-03-29T13:37:14.999Z</time></trkpt><trkpt lat="47.774981451231454" lon="7.065599467556806"><ele>437.0</ele><time>2026-03-29T13:37:15.999Z</time></trkpt><trkpt lat="47.775091179779544" lon="7.065790561528515"><ele>437.0</ele><time>2026-03-29T13:37:16.999Z</time></trkpt><trkpt lat="47.775174188834924" lon="7.065967651325202"><ele>437.0</ele><time>2026-03-29T13:37:17.999Z</time></trkpt><trkpt lat="47.775258381643695" lon="7.0661232522513355"><ele>437.0</ele><time>2026-03-29T13:37:18.999Z</time></trkpt><trkpt lat="47.775366778643004" lon="7.066240057492954"><ele>438.3333333333333</ele><time>2026-03-29T13:37:19.999Z</time></trkpt><trkpt lat="47.775513491484375" lon="7.066302249687706"><ele>439.66666666666663</ele><time>2026-03-29T13:37:20.999Z</time></trkpt><trkpt lat="47.77567636313913" lon="7.066336141026907"><ele>441.0</ele><time>2026-03-29T13:37:21.999Z</time></trkpt><trkpt lat="47.775852168186645" lon="7.0663259630034965"><ele>441.0</ele><time>2026-03-29T13:37:22.999Z</time></trkpt><trkpt lat="47.77600692974212" lon="7.0663254291969855"><ele>441.0</ele><time>2026-03-29T13:37:23.999Z</time></trkpt><trkpt lat="47.776151543181946" lon="7.0663351346989804"><ele>441.0</ele><time>2026-03-29T13:37:24.999Z</time></trkpt><trkpt lat="47.77627883009548" lon="7.066369988117124"><ele>441.0</ele><time>2026-03-29T13:37:25.999Z</time></trkpt><trkpt lat="47.7763877680592" lon="7.066396409493926"><ele>441.25</ele><time>2026-03-29T13:37:26.999Z</time></trkpt><trkpt lat="47.77649073817873" lon="7.0664618928113425"><ele>441.5</ele><time>2026-03-29T13:37:27.999Z</time></trkpt><trkpt lat="47.77656343641205" lon="7.066589708978858"><ele>441.75</ele><time>2026-03-29T13:37:28.999Z</time></trkpt><trkpt lat="47.77661792675054" lon="7.066759091967725"><ele>442.0</ele><time>2026-03-29T13:37:29.999Z</time></trkpt><trkpt lat="47.776574333600124" lon="7.06699934039525"><ele>442.0</ele><time>2026-03-29T13:37:30.999Z</time></trkpt><trkpt lat="47.77652102681855" lon="7.067246492045008"><ele>442.0</ele><time>2026-03-29T13:37:31.999Z</time></trkpt><trkpt lat="47.77642565484514" lon="7.067498474155177"><ele>442.0</ele><time>2026-03-29T13:37:32.999Z</time></trkpt><trkpt lat="47.776337882967496" lon="7.067772267759594"><ele>444.6666666666667</ele><time>2026-03-29T13:37:33.999Z</time></trkpt><trkpt lat="47.77625249947957" lon="7.068065941275498"><ele>447.33333333333337</ele><time>2026-03-29T13:37:34.999Z</time></trkpt><trkpt lat="47.77615985815883" lon="7.068382956466014"><ele>450.0</ele><time>2026-03-29T13:37:35.999Z</time></trkpt><trkpt lat="47.776069915715574" lon="7.068729871708385"><ele>451.0</ele><time>2026-03-29T13:37:36.999Z</time></trkpt><trkpt lat="47.775995551996225" lon="7.069116003447147"><ele>452.0</ele><time>2026-03-29T13:37:37.999Z</time></trkpt><trkpt lat="47.77592528065182" lon="7.069514887079748"><ele>452.0</ele><time>2026-03-29T13:37:38.999Z</time></trkpt><trkpt lat="47.77583983056368" lon="7.069919182796834"><ele>452.0</ele><time>2026-03-29T13:37:39.999Z</time></trkpt><trkpt lat="47.77573665969958" lon="7.070284854308321"><ele>452.5</ele><time>2026-03-29T13:37:40.999Z</time></trkpt><trkpt lat="47.77559863474282" lon="7.070628784785983"><ele>453.0</ele><time>2026-03-29T13:37:41.999Z</time></trkpt><trkpt lat="47.77545059464235" lon="7.07098031105006"><ele>453.33333333333337</ele><time>2026-03-29T13:37:42.999Z</time></trkpt><trkpt lat="47.775345344145784" lon="7.071263623626407"><ele>453.6666666666667</ele><time>2026-03-29T13:37:43.999Z</time></trkpt><trkpt lat="47.775240740795596" lon="7.07154337177958"><ele>454.0</ele><time>2026-03-29T13:37:44.999Z</time></trkpt><trkpt lat="47.77513451663332" lon="7.071817578734886"><ele>454.0</ele><time>2026-03-29T13:37:45.999Z</time></trkpt><trkpt lat="47.77503009621491" lon="7.072084357223417"><ele>454.0</ele><time>2026-03-29T13:37:46.999Z</time></trkpt><trkpt lat="47.774947790562656" lon="7.072305258333573"><ele>454.0</ele><time>2026-03-29T13:37:47.999Z</time></trkpt><trkpt lat="47.77486572705977" lon="7.072516030059211"><ele>455.5</ele><time>2026-03-29T13:37:48.999Z</time></trkpt><trkpt lat="47.77479513811823" lon="7.072707139620524"><ele>457.0</ele><time>2026-03-29T13:37:49.999Z</time></trkpt><trkpt lat="47.77475229387401" lon="7.072878863757743"><ele>458.5</ele><time>2026-03-29T13:37:50.999Z</time></trkpt><trkpt lat="47.77473707285844" lon="7.073060544525497"><ele>460.0</ele><time>2026-03-29T13:37:51.999Z</time></trkpt><trkpt lat="47.7747692913117" lon="7.07325341890518"><ele>461.25</ele><time>2026-03-29T13:37:52.999Z</time></trkpt><trkpt lat="47.77484674167878" lon="7.0734201387785856"><ele>462.5</ele><time>2026-03-29T13:37:53.999Z</time></trkpt><trkpt lat="47.77496496244879" lon="7.073542083339784"><ele>463.75</ele><time>2026-03-29T13:37:54.999Z</time></trkpt><trkpt lat="47.77511514580957" lon="7.073604677718341"><ele>465.0</ele><time>2026-03-29T13:37:55.999Z</time></trkpt><trkpt lat="47.775282159194845" lon="7.073670815421208"><ele>466.0</ele><time>2026-03-29T13:37:56.999Z</time></trkpt><trkpt lat="47.77541593092159" lon="7.073819896005202"><ele>467.0</ele><time>2026-03-29T13:37:57.999Z</time></trkpt><trkpt lat="47.77553633949128" lon="7.074012338495911"><ele>468.0</ele><time>2026-03-29T13:37:58.999Z</time></trkpt><trkpt lat="47.775666329792415" lon="7.074204516335959"><ele>468.5</ele><time>2026-03-29T13:37:59.999Z</time></trkpt><trkpt lat="47.775784747123694" lon="7.074373005951139"><ele>469.0</ele><time>2026-03-29T13:38:00.999Z</time></trkpt><trkpt lat="47.77589954310264" lon="7.074529252424817"><ele>469.5</ele><time>2026-03-29T13:38:01.999Z</time></trkpt><trkpt lat="47.77598854284358" lon="7.0746515302128365"><ele>470.0</ele><time>2026-03-29T13:38:02.999Z</time></trkpt><trkpt lat="47.77608048456031" lon="7.074782251922015"><ele>470.25</ele><time>2026-03-29T13:38:03.999Z</time></trkpt><trkpt lat="47.77616795809342" lon="7.074907572353598"><ele>470.5</ele><time>2026-03-29T13:38:04.999Z</time></trkpt><trkpt lat="47.77626570555306" lon="7.075038002968926"><ele>470.75</ele><time>2026-03-29T13:38:05.999Z</time></trkpt><trkpt lat="47.776373290014405" lon="7.075199637684171"><ele>471.0</ele><time>2026-03-29T13:38:06.999Z</time></trkpt><trkpt lat="47.776483771471256" lon="7.075360113724449"><ele>469.66666666666663</ele><time>2026-03-29T13:38:07.999Z</time></trkpt><trkpt lat="47.77659583505724" lon="7.075527343214116"><ele>468.3333333333333</ele><time>2026-03-29T13:38:08.999Z</time></trkpt><trkpt lat="47.77671160830798" lon="7.0756902042191685"><ele>467.0</ele><time>2026-03-29T13:38:09.999Z</time></trkpt><trkpt lat="47.776831164088556" lon="7.075862848444618"><ele>467.3333333333333</ele><time>2026-03-29T13:38:10.999Z</time></trkpt><trkpt lat="47.77694952908378" lon="7.07603658523716"><ele>467.66666666666663</ele><time>2026-03-29T13:38:11.999Z</time></trkpt><trkpt lat="47.77706280325463" lon="7.076216644953341"><ele>468.0</ele><time>2026-03-29T13:38:12.999Z</time></trkpt><trkpt lat="47.777167956954266" lon="7.076419871465895"><ele>465.66666666666663</ele><time>2026-03-29T13:38:13.999Z</time></trkpt><trkpt lat="47.777271053554074" lon="7.076637897043811"><ele>463.3333333333333</ele><time>2026-03-29T13:38:14.999Z</time></trkpt><trkpt lat="47.777368710094" lon="7.076856609021718"><ele>461.0</ele><time>2026-03-29T13:38:16Z</time></trkpt><trkpt lat="47.77746875553713" lon="7.077077830322906"><ele>461.0</ele><time>2026-03-29T13:38:17Z</time></trkpt><trkpt lat="47.77757217605352" lon="7.077301974681344"><ele>461.0</ele><time>2026-03-29T13:38:18Z</time></trkpt><trkpt lat="47.777668154093185" lon="7.077543414194631"><ele>461.0</ele><time>2026-03-29T13:38:19Z</time></trkpt><trkpt lat="47.77776615825275" lon="7.077838665885704"><ele>461.3333333333333</ele><time>2026-03-29T13:38:20Z</time></trkpt><trkpt lat="47.77784777486746" lon="7.078124787355269"><ele>461.66666666666663</ele><time>2026-03-29T13:38:21Z</time></trkpt><trkpt lat="47.77792729419146" lon="7.078400225969096"><ele>462.0</ele><time>2026-03-29T13:38:22Z</time></trkpt><trkpt lat="47.77800820662684" lon="7.078672949686307"><ele>460.0</ele><time>2026-03-29T13:38:23Z</time></trkpt><trkpt lat="47.778086045414675" lon="7.078949653416437"><ele>458.0</ele><time>2026-03-29T13:38:24Z</time></trkpt><trkpt lat="47.77816773387203" lon="7.079231383005569"><ele>456.0</ele><time>2026-03-29T13:38:25Z</time></trkpt><trkpt lat="47.77824847959016" lon="7.079506462805709"><ele>453.33333333333337</ele><time>2026-03-29T13:38:26Z</time></trkpt><trkpt lat="47.77832492564349" lon="7.079761410911567"><ele>450.6666666666667</ele><time>2026-03-29T13:38:27Z</time></trkpt><trkpt lat="47.77839878784266" lon="7.0800056529055135"><ele>448.0</ele><time>2026-03-29T13:38:28Z</time></trkpt><trkpt lat="47.77847284524728" lon="7.0802598780805495"><ele>448.33333333333337</ele><time>2026-03-29T13:38:29Z</time></trkpt><trkpt lat="47.77854703559382" lon="7.0805198480639655"><ele>448.66666666666663</ele><time>2026-03-29T13:38:30Z</time></trkpt><trkpt lat="47.77862380677557" lon="7.080786492552094"><ele>449.0</ele><time>2026-03-29T13:38:31Z</time></trkpt><trkpt lat="47.778705176331755" lon="7.081068142180754"><ele>447.0</ele><time>2026-03-29T13:38:32Z</time></trkpt><trkpt lat="47.77878259376351" lon="7.0813242249513815"><ele>445.0</ele><time>2026-03-29T13:38:33Z</time></trkpt><trkpt lat="47.77885291371081" lon="7.0815697329956295"><ele>443.0</ele><time>2026-03-29T13:38:34Z</time></trkpt><trkpt lat="47.77891946573037" lon="7.0818014448958655"><ele>440.66666666666663</ele><time>2026-03-29T13:38:35Z</time></trkpt><trkpt lat="47.77898291380829" lon="7.082030786664906"><ele>438.33333333333337</ele><time>2026-03-29T13:38:36Z</time></trkpt><trkpt lat="47.77904982159415" lon="7.0822205385105335"><ele>436.0</ele><time>2026-03-29T13:38:37Z</time></trkpt><trkpt lat="47.77915025986914" lon="7.082389372548195"><ele>434.75</ele><time>2026-03-29T13:38:38Z</time></trkpt><trkpt lat="47.779285197229086" lon="7.082499678671521"><ele>433.5</ele><time>2026-03-29T13:38:39Z</time></trkpt><trkpt lat="47.77943463975506" lon="7.082529230757043"><ele>432.25</ele><time>2026-03-29T13:38:40Z</time></trkpt><trkpt lat="47.77956838334172" lon="7.082503425864338"><ele>431.0</ele><time>2026-03-29T13:38:41Z</time></trkpt><trkpt lat="47.77966055580634" lon="7.082548969755373"><ele>430.5</ele><time>2026-03-29T13:38:42Z</time></trkpt><trkpt lat="47.77973702423099" lon="7.082622483018375"><ele>430.0</ele><time>2026-03-29T13:38:43Z</time></trkpt><trkpt lat="47.77977068214363" lon="7.082760567174454"><ele>429.5</ele><time>2026-03-29T13:38:44Z</time></trkpt><trkpt lat="47.779710682370236" lon="7.082942992289248"><ele>429.0</ele><time>2026-03-29T13:38:45Z</time></trkpt><trkpt lat="47.77963576378661" lon="7.083100465579249"><ele>429.0</ele><time>2026-03-29T13:38:46Z</time></trkpt><trkpt lat="47.77950736709993" lon="7.083200939945167"><ele>429.0</ele><time>2026-03-29T13:38:47Z</time></trkpt><trkpt lat="47.779393629600996" lon="7.083241010735318"><ele>429.0</ele><time>2026-03-29T13:38:48Z</time></trkpt><trkpt lat="47.77928751678901" lon="7.083223759200375"><ele>429.0</ele><time>2026-03-29T13:38:49Z</time></trkpt><trkpt lat="47.77918558161892" lon="7.0831354152345645"><ele>429.5</ele><time>2026-03-29T13:38:50Z</time></trkpt><trkpt lat="47.77908439181302" lon="7.083017622869622"><ele>430.0</ele><time>2026-03-29T13:38:51Z</time></trkpt><trkpt lat="47.77896494065388" lon="7.082906369334278"><ele>430.5</ele><time>2026-03-29T13:38:52Z</time></trkpt><trkpt lat="47.77883830195317" lon="7.08275627954766"><ele>431.0</ele><time>2026-03-29T13:38:53Z</time></trkpt><trkpt lat="47.778693898958764" lon="7.0825524446842225"><ele>430.3333333333333</ele><time>2026-03-29T13:38:54Z</time></trkpt><trkpt lat="47.778555941632284" lon="7.08233565640027"><ele>429.66666666666663</ele><time>2026-03-29T13:38:55Z</time></trkpt><trkpt lat="47.7784297261955" lon="7.082147923235257"><ele>429.0</ele><time>2026-03-29T13:38:56Z</time></trkpt><trkpt lat="47.77830701929876" lon="7.081963792361427"><ele>429.0</ele><time>2026-03-29T13:38:57Z</time></trkpt><trkpt lat="47.778179871291705" lon="7.081780521268281"><ele>429.0</ele><time>2026-03-29T13:38:58Z</time></trkpt><trkpt lat="47.77806039790909" lon="7.0816036381801"><ele>429.0</ele><time>2026-03-29T13:38:58.999Z</time></trkpt><trkpt lat="47.777959215176864" lon="7.081443478319293"><ele>430.5</ele><time>2026-03-29T13:38:59.999Z</time></trkpt><trkpt lat="47.777887013804744" lon="7.081270230367622"><ele>432.0</ele><time>2026-03-29T13:39:00.999Z</time></trkpt><trkpt lat="47.77784942562924" lon="7.081084599062905"><ele>433.5</ele><time>2026-03-29T13:39:01.999Z</time></trkpt><trkpt lat="47.77782015403023" lon="7.0809251239607205"><ele>435.0</ele><time>2026-03-29T13:39:02.999Z</time></trkpt><trkpt lat="47.77770567574537" lon="7.080701729424029"><ele>433.4</ele><time>2026-03-29T13:39:03.999Z</time></trkpt><trkpt lat="47.77765884233962" lon="7.080624864220322"><ele>431.8</ele><time>2026-03-29T13:39:04.999Z</time></trkpt><trkpt lat="47.777589402307015" lon="7.080597557475903"><ele>430.20000000000005</ele><time>2026-03-29T13:39:05.999Z</time></trkpt><trkpt lat="47.777475829938886" lon="7.0806031739717685"><ele>428.6</ele><time>2026-03-29T13:39:06.999Z</time></trkpt><trkpt lat="47.777384245431016" lon="7.0806721354147"><ele>427.0</ele><time>2026-03-29T13:39:07.999Z</time></trkpt><trkpt lat="47.77730315660704" lon="7.080756529769506"><ele>425.25</ele><time>2026-03-29T13:39:08.999Z</time></trkpt><trkpt lat="47.777266673289134" lon="7.080927218462864"><ele>423.5</ele><time>2026-03-29T13:39:09.999Z</time></trkpt><trkpt lat="47.77728328059289" lon="7.081096571069166"><ele>421.75</ele><time>2026-03-29T13:39:10.999Z</time></trkpt><trkpt lat="47.77734821459951" lon="7.081247593424206"><ele>420.0</ele><time>2026-03-29T13:39:11.999Z</time></trkpt><trkpt lat="47.777396394314565" lon="7.081408569978399"><ele>418.0</ele><time>2026-03-29T13:39:12.999Z</time></trkpt><trkpt lat="47.77746144078067" lon="7.081618982801876"><ele>416.0</ele><time>2026-03-29T13:39:13.999Z</time></trkpt><trkpt lat="47.77753551424338" lon="7.081851697773495"><ele>414.0</ele><time>2026-03-29T13:39:14.999Z</time></trkpt><trkpt lat="47.77757180105006" lon="7.082117176322378"><ele>414.0</ele><time>2026-03-29T13:39:15.999Z</time></trkpt><trkpt lat="47.777602061445805" lon="7.082405128092854"><ele>414.0</ele><time>2026-03-29T13:39:16.999Z</time></trkpt><trkpt lat="47.7776311602323" lon="7.08276087962253"><ele>414.0</ele><time>2026-03-29T13:39:17.999Z</time></trkpt><trkpt lat="47.77765481452441" lon="7.083096053373617"><ele>413.33333333333337</ele><time>2026-03-29T13:39:18.999Z</time></trkpt><trkpt lat="47.777674096718926" lon="7.083393839753748"><ele>412.6666666666667</ele><time>2026-03-29T13:39:19.999Z</time></trkpt><trkpt lat="47.777709638059335" lon="7.0836730652389726"><ele>412.0</ele><time>2026-03-29T13:39:20.999Z</time></trkpt><trkpt lat="47.77772251719169" lon="7.083940610892528"><ele>409.0</ele><time>2026-03-29T13:39:21.999Z</time></trkpt><trkpt lat="47.777739451951625" lon="7.084193146002352"><ele>406.0</ele><time>2026-03-29T13:39:22.999Z</time></trkpt><trkpt lat="47.77775408332203" lon="7.084448052153772"><ele>403.0</ele><time>2026-03-29T13:39:23.999Z</time></trkpt><trkpt lat="47.7777661040141" lon="7.0847025746855845"><ele>401.0</ele><time>2026-03-29T13:39:24.999Z</time></trkpt><trkpt lat="47.77777971751686" lon="7.084954363854058"><ele>399.0</ele><time>2026-03-29T13:39:25.999Z</time></trkpt><trkpt lat="47.77780604977621" lon="7.085187104693094"><ele>397.0</ele><time>2026-03-29T13:39:26.999Z</time></trkpt><trkpt lat="47.77782525421749" lon="7.0854324820431245"><ele>397.0</ele><time>2026-03-29T13:39:27.999Z</time></trkpt><trkpt lat="47.777836727615245" lon="7.085669327030484"><ele>397.0</ele><time>2026-03-29T13:39:28.999Z</time></trkpt><trkpt lat="47.77784728584546" lon="7.0858972395768145"><ele>397.0</ele><time>2026-03-29T13:39:29.999Z</time></trkpt><trkpt lat="47.77785576454477" lon="7.086083822573633"><ele>397.0</ele><time>2026-03-29T13:39:30.999Z</time></trkpt><trkpt lat="47.77786400201549" lon="7.086250409151527"><ele>396.33333333333337</ele><time>2026-03-29T13:39:31.999Z</time></trkpt><trkpt lat="47.77787344936766" lon="7.086389350194684"><ele>395.6666666666667</ele><time>2026-03-29T13:39:32.999Z</time></trkpt><trkpt lat="47.77788307808283" lon="7.086497015255661"><ele>395.0</ele><time>2026-03-29T13:39:33.999Z</time></trkpt><trkpt lat="47.7778987268436" lon="7.086640054595235"><ele>394.33333333333337</ele><time>2026-03-29T13:39:35.999Z</time></trkpt><trkpt lat="47.777951972254925" lon="7.086798842171149"><ele>393.6666666666667</ele><time>2026-03-29T13:43:26Z</time></trkpt><trkpt lat="47.77797502812165" lon="7.086888130823396"><ele>393.0</ele><time>2026-03-29T13:43:28Z</time></trkpt><trkpt lat="47.77801818170851" lon="7.086988516697734"><ele>391.4</ele><time>2026-03-29T13:43:31Z</time></trkpt><trkpt lat="47.778085261172926" lon="7.087104023231994"><ele>389.79999999999995</ele><time>2026-03-29T13:43:33Z</time></trkpt><trkpt lat="47.778129743404776" lon="7.0871713009537745"><ele>388.2</ele><time>2026-03-29T13:43:34Z</time></trkpt><trkpt lat="47.778209574864775" lon="7.087329436938813"><ele>386.6</ele><time>2026-03-29T13:43:36Z</time></trkpt><trkpt lat="47.77826172925591" lon="7.0874238511061645"><ele>385.0</ele><time>2026-03-29T13:43:37Z</time></trkpt><trkpt lat="47.77832178117155" lon="7.087534521297535"><ele>384.0</ele><time>2026-03-29T13:43:38Z</time></trkpt><trkpt lat="47.77839531140531" lon="7.087667861712493"><ele>383.0</ele><time>2026-03-29T13:43:39Z</time></trkpt><trkpt lat="47.778469220318776" lon="7.087804006267185"><ele>382.0</ele><time>2026-03-29T13:43:40Z</time></trkpt><trkpt lat="47.778540081451574" lon="7.087933899741541"><ele>381.0</ele><time>2026-03-29T13:43:41Z</time></trkpt><trkpt lat="47.778607640145296" lon="7.088054743489116"><ele>380.8</ele><time>2026-03-29T13:43:42Z</time></trkpt><trkpt lat="47.77867407404201" lon="7.088172509489727"><ele>380.6</ele><time>2026-03-29T13:43:43Z</time></trkpt><trkpt lat="47.77874041628351" lon="7.088272824211336"><ele>380.4</ele><time>2026-03-29T13:43:44Z</time></trkpt><trkpt lat="47.778810847725765" lon="7.088360889059445"><ele>380.2</ele><time>2026-03-29T13:43:45Z</time></trkpt><trkpt lat="47.77890520518209" lon="7.088424026409127"><ele>380.0</ele><time>2026-03-29T13:43:46Z</time></trkpt><trkpt lat="47.77902205450869" lon="7.08843296978674"><ele>378.75</ele><time>2026-03-29T13:43:47Z</time></trkpt><trkpt lat="47.77913815992797" lon="7.088451501542676"><ele>377.5</ele><time>2026-03-29T13:43:48Z</time></trkpt><trkpt lat="47.77926354510582" lon="7.088475661727636"><ele>376.25</ele><time>2026-03-29T13:43:49Z</time></trkpt><trkpt lat="47.77937486389938" lon="7.088494542986642"><ele>375.0</ele><time>2026-03-29T13:43:50Z</time></trkpt><trkpt lat="47.77950983448772" lon="7.088509346080647"><ele>374.75</ele><time>2026-03-29T13:43:51Z</time></trkpt><trkpt lat="47.7796372857757" lon="7.08853018871742"><ele>374.5</ele><time>2026-03-29T13:43:52Z</time></trkpt><trkpt lat="47.77975994870999" lon="7.088539904178322"><ele>374.25</ele><time>2026-03-29T13:43:53Z</time></trkpt><trkpt lat="47.77988610071885" lon="7.0885538475474235"><ele>374.0</ele><time>2026-03-29T13:43:54Z</time></trkpt><trkpt lat="47.780004349250994" lon="7.0885701005433965"><ele>374.0</ele><time>2026-03-29T13:43:55Z</time></trkpt><trkpt lat="47.78011892202565" lon="7.08858567246374"><ele>374.0</ele><time>2026-03-29T13:43:56Z</time></trkpt><trkpt lat="47.78023251829733" lon="7.088602466171676"><ele>374.0</ele><time>2026-03-29T13:43:57Z</time></trkpt><trkpt lat="47.78035751245841" lon="7.0886224999503495"><ele>374.0</ele><time>2026-03-29T13:43:58Z</time></trkpt><trkpt lat="47.78047290866433" lon="7.0886411645364324"><ele>373.5</ele><time>2026-03-29T13:43:59Z</time></trkpt><trkpt lat="47.780586734340666" lon="7.08866841331665"><ele>373.0</ele><time>2026-03-29T13:44:00Z</time></trkpt><trkpt lat="47.78070076789206" lon="7.08872105954466"><ele>372.5</ele><time>2026-03-29T13:44:01Z</time></trkpt><trkpt lat="47.780816955170934" lon="7.0887479164760085"><ele>372.0</ele><time>2026-03-29T13:44:02Z</time></trkpt><trkpt lat="47.780933102940594" lon="7.088771714899802"><ele>371.8</ele><time>2026-03-29T13:44:03Z</time></trkpt><trkpt lat="47.78104103470707" lon="7.088792618445381"><ele>371.6</ele><time>2026-03-29T13:44:04Z</time></trkpt><trkpt lat="47.78114468171584" lon="7.088814655222503"><ele>371.40000000000003</ele><time>2026-03-29T13:44:05Z</time></trkpt><trkpt lat="47.78123631959279" lon="7.088840658078164"><ele>371.20000000000005</ele><time>2026-03-29T13:44:06Z</time></trkpt><trkpt lat="47.78131808210731" lon="7.088918508404917"><ele>371.0</ele><time>2026-03-29T13:44:07Z</time></trkpt><trkpt lat="47.78140062629704" lon="7.088994762759842"><ele>371.0</ele><time>2026-03-29T13:44:08Z</time></trkpt><trkpt lat="47.78146950784059" lon="7.089038958688341"><ele>371.0</ele><time>2026-03-29T13:44:09Z</time></trkpt><trkpt lat="47.7815300075132" lon="7.089148591478136"><ele>371.0</ele><time>2026-03-29T13:44:11Z</time></trkpt><trkpt lat="47.78145910241785" lon="7.0892910849381625"><ele>371.0</ele><time>2026-03-29T13:44:13Z</time></trkpt><trkpt lat="47.78139713982672" lon="7.08938904515573"><ele>371.0</ele><time>2026-03-29T13:44:14Z</time></trkpt><trkpt lat="47.78132843250937" lon="7.089503291876901"><ele>370.25</ele><time>2026-03-29T13:44:15Z</time></trkpt><trkpt lat="47.78126446281375" lon="7.089636775473354"><ele>369.5</ele><time>2026-03-29T13:44:16Z</time></trkpt><trkpt lat="47.781200055074216" lon="7.089779793348753"><ele>368.75</ele><time>2026-03-29T13:44:17Z</time></trkpt><trkpt lat="47.781141025041826" lon="7.0899153571807405"><ele>368.0</ele><time>2026-03-29T13:44:18Z</time></trkpt><trkpt lat="47.78108503523052" lon="7.090072264174035"><ele>367.4</ele><time>2026-03-29T13:44:19Z</time></trkpt><trkpt lat="47.78103065502352" lon="7.090238978092923"><ele>366.79999999999995</ele><time>2026-03-29T13:44:20Z</time></trkpt><trkpt lat="47.78097316915095" lon="7.090395855605852"><ele>366.2</ele><time>2026-03-29T13:44:21Z</time></trkpt><trkpt lat="47.78091440433474" lon="7.090531686768225"><ele>365.6</ele><time>2026-03-29T13:44:22Z</time></trkpt><trkpt lat="47.78085792465849" lon="7.090630922207053"><ele>365.0</ele><time>2026-03-29T13:44:23Z</time></trkpt><trkpt lat="47.78080458675277" lon="7.090719030136245"><ele>364.0</ele><time>2026-03-29T13:44:24Z</time></trkpt><trkpt lat="47.780732731865996" lon="7.090823143930034"><ele>363.0</ele><time>2026-03-29T13:44:25Z</time></trkpt><trkpt lat="47.78064395952469" lon="7.090949984275935"><ele>362.0</ele><time>2026-03-29T13:44:26Z</time></trkpt><trkpt lat="47.78055719592297" lon="7.091083044516688"><ele>361.0</ele><time>2026-03-29T13:44:27Z</time></trkpt><trkpt lat="47.78046167598646" lon="7.0912205920821085"><ele>361.0</ele><time>2026-03-29T13:44:28Z</time></trkpt><trkpt lat="47.780352920820334" lon="7.091349693367833"><ele>361.0</ele><time>2026-03-29T13:44:29Z</time></trkpt><trkpt lat="47.78024303362408" lon="7.091460118799905"><ele>361.0</ele><time>2026-03-29T13:44:30Z</time></trkpt><trkpt lat="47.78013442896118" lon="7.091552609374871"><ele>361.0</ele><time>2026-03-29T13:44:31Z</time></trkpt><trkpt lat="47.780022748267264" lon="7.091653276182291"><ele>360.75</ele><time>2026-03-29T13:44:32Z</time></trkpt><trkpt lat="47.779902878098454" lon="7.091752460934451"><ele>360.5</ele><time>2026-03-29T13:44:33Z</time></trkpt><trkpt lat="47.77979520018227" lon="7.09184042616545"><ele>360.25</ele><time>2026-03-29T13:44:34Z</time></trkpt><trkpt lat="47.77968349452959" lon="7.0919382733904355"><ele>360.0</ele><time>2026-03-29T13:44:35Z</time></trkpt><trkpt lat="47.77957083473436" lon="7.09203501606768"><ele>360.0</ele><time>2026-03-29T13:44:36Z</time></trkpt><trkpt lat="47.77946080031157" lon="7.092124206788981"><ele>360.0</ele><time>2026-03-29T13:44:37Z</time></trkpt><trkpt lat="47.77934566839826" lon="7.092191032465176"><ele>360.0</ele><time>2026-03-29T13:44:38Z</time></trkpt><trkpt lat="47.77924682553851" lon="7.092258235413979"><ele>360.0</ele><time>2026-03-29T13:44:39Z</time></trkpt><trkpt lat="47.77916028148181" lon="7.0923416065394225"><ele>359.6666666666667</ele><time>2026-03-29T13:44:40Z</time></trkpt><trkpt lat="47.77908356339018" lon="7.092429455284218"><ele>359.3333333333333</ele><time>2026-03-29T13:44:41Z</time></trkpt><trkpt lat="47.7790235599266" lon="7.092504833285441"><ele>359.0</ele><time>2026-03-29T13:44:42Z</time></trkpt><trkpt lat="47.77897089346867" lon="7.092627627181515"><ele>358.66666666666663</ele><time>2026-03-29T13:44:44Z</time></trkpt><trkpt lat="47.779003610721475" lon="7.092723406838764"><ele>358.3333333333333</ele><time>2026-03-29T13:44:45Z</time></trkpt><trkpt lat="47.77907139795767" lon="7.092831271816179"><ele>358.0</ele><time>2026-03-29T13:44:46Z</time></trkpt><trkpt lat="47.779157569798905" lon="7.092940542455854"><ele>358.0</ele><time>2026-03-29T13:44:47Z</time></trkpt><trkpt lat="47.77925073971145" lon="7.0930655171938595"><ele>358.0</ele><time>2026-03-29T13:44:48Z</time></trkpt><trkpt lat="47.77937746316675" lon="7.093182597134373"><ele>358.0</ele><time>2026-03-29T13:44:49Z</time></trkpt><trkpt lat="47.77950985015944" lon="7.093308139683793"><ele>358.0</ele><time>2026-03-29T13:44:50Z</time></trkpt><trkpt lat="47.77963119680741" lon="7.09341489342861"><ele>359.0</ele><time>2026-03-29T13:44:51Z</time></trkpt><trkpt lat="47.779741949877945" lon="7.093509112966843"><ele>360.0</ele><time>2026-03-29T13:44:52Z</time></trkpt><trkpt lat="47.77982705235308" lon="7.09361970665347"><ele>361.0</ele><time>2026-03-29T13:44:53Z</time></trkpt><trkpt lat="47.779902820644594" lon="7.093741918512433"><ele>362.0</ele><time>2026-03-29T13:44:54Z</time></trkpt><trkpt lat="47.7799596728839" lon="7.093901917844759"><ele>362.5</ele><time>2026-03-29T13:44:55Z</time></trkpt><trkpt lat="47.779973223977564" lon="7.094090740410423"><ele>363.0</ele><time>2026-03-29T13:44:56Z</time></trkpt><trkpt lat="47.77998680415349" lon="7.094291301372065"><ele>363.5</ele><time>2026-03-29T13:44:57Z</time></trkpt><trkpt lat="47.78002539341916" lon="7.094534691057536"><ele>364.0</ele><time>2026-03-29T13:44:58Z</time></trkpt><trkpt lat="47.78004237292061" lon="7.094763037815395"><ele>364.5</ele><time>2026-03-29T13:44:59Z</time></trkpt><trkpt lat="47.78006335309349" lon="7.094976941515594"><ele>365.0</ele><time>2026-03-29T13:45:00Z</time></trkpt><trkpt lat="47.780102576180944" lon="7.095179194676643"><ele>365.5</ele><time>2026-03-29T13:45:01Z</time></trkpt><trkpt lat="47.78016785934144" lon="7.095380988268934"><ele>366.0</ele><time>2026-03-29T13:45:02Z</time></trkpt><trkpt lat="47.78024661701533" lon="7.095568227346644"><ele>366.5</ele><time>2026-03-29T13:45:03Z</time></trkpt><trkpt lat="47.780315704117356" lon="7.095757446855121"><ele>367.0</ele><time>2026-03-29T13:45:04Z</time></trkpt><trkpt lat="47.780362090406506" lon="7.095955628915227"><ele>367.5</ele><time>2026-03-29T13:45:05Z</time></trkpt><trkpt lat="47.78039419986422" lon="7.096160128062011"><ele>368.0</ele><time>2026-03-29T13:45:06Z</time></trkpt><trkpt lat="47.78043154723975" lon="7.096384411026236"><ele>367.0</ele><time>2026-03-29T13:45:07Z</time></trkpt><trkpt lat="47.78046989111261" lon="7.096588507977231"><ele>366.0</ele><time>2026-03-29T13:45:08Z</time></trkpt><trkpt lat="47.780506679892135" lon="7.096802208382399"><ele>365.0</ele><time>2026-03-29T13:45:09Z</time></trkpt><trkpt lat="47.78054613303246" lon="7.0970000630004915"><ele>364.0</ele><time>2026-03-29T13:45:10Z</time></trkpt><trkpt lat="47.7805817169521" lon="7.097183690113149"><ele>364.0</ele><time>2026-03-29T13:45:11Z</time></trkpt><trkpt lat="47.78061769182909" lon="7.097335633640218"><ele>364.0</ele><time>2026-03-29T13:45:12Z</time></trkpt><trkpt lat="47.78064901136741" lon="7.0974655991948294"><ele>364.0</ele><time>2026-03-29T13:45:13Z</time></trkpt><trkpt lat="47.780670904111545" lon="7.097563396048305"><ele>364.0</ele><time>2026-03-29T13:45:14Z</time></trkpt><trkpt lat="47.78065630970135" lon="7.097673010280651"><ele>364.0</ele><time>2026-03-29T13:45:16Z</time></trkpt><trkpt lat="47.78073105432816" lon="7.097859332000082"><ele>363.6</ele><time>2026-03-29T13:45:20Z</time></trkpt><trkpt lat="47.78083518689964" lon="7.097983293625189"><ele>363.2</ele><time>2026-03-29T13:45:21Z</time></trkpt><trkpt lat="47.780880030244354" lon="7.0980914668163"><ele>362.8</ele><time>2026-03-29T13:45:22Z</time></trkpt><trkpt lat="47.78092900397103" lon="7.098210796307771"><ele>362.40000000000003</ele><time>2026-03-29T13:45:23Z</time></trkpt><trkpt lat="47.78100061350943" lon="7.0983123888933894"><ele>362.0</ele><time>2026-03-29T13:45:24Z</time></trkpt><trkpt lat="47.78109526953637" lon="7.098402242425695"><ele>360.75</ele><time>2026-03-29T13:45:25Z</time></trkpt><trkpt lat="47.781191314340276" lon="7.098481012745627"><ele>359.5</ele><time>2026-03-29T13:45:26Z</time></trkpt><trkpt lat="47.78131356743433" lon="7.098561034048545"><ele>358.25</ele><time>2026-03-29T13:45:27Z</time></trkpt><trkpt lat="47.78144930057714" lon="7.098651704013417"><ele>357.0</ele><time>2026-03-29T13:45:28Z</time></trkpt><trkpt lat="47.78159591213684" lon="7.098753467322186"><ele>357.0</ele><time>2026-03-29T13:45:29Z</time></trkpt><trkpt lat="47.78175874151115" lon="7.098845685838774"><ele>357.0</ele><time>2026-03-29T13:45:30Z</time></trkpt><trkpt lat="47.78196525751635" lon="7.098967102093809"><ele>357.0</ele><time>2026-03-29T13:45:31Z</time></trkpt><trkpt lat="47.78217194677428" lon="7.099075373814843"><ele>355.0</ele><time>2026-03-29T13:45:32Z</time></trkpt><trkpt lat="47.78237397015028" lon="7.099189016747836"><ele>353.0</ele><time>2026-03-29T13:45:33Z</time></trkpt><trkpt lat="47.78254980928434" lon="7.099318699440033"><ele>351.0</ele><time>2026-03-29T13:45:34Z</time></trkpt><trkpt lat="47.78272920387339" lon="7.0995289700574125"><ele>350.5</ele><time>2026-03-29T13:45:35Z</time></trkpt><trkpt lat="47.7828750516447" lon="7.099799788862147"><ele>350.0</ele><time>2026-03-29T13:45:36Z</time></trkpt><trkpt lat="47.78304862454185" lon="7.100072294449288"><ele>350.0</ele><time>2026-03-29T13:45:37Z</time></trkpt><trkpt lat="47.7832106186351" lon="7.100357415064576"><ele>350.0</ele><time>2026-03-29T13:45:38Z</time></trkpt><trkpt lat="47.783382248763495" lon="7.100629671070022"><ele>350.5</ele><time>2026-03-29T13:45:39Z</time></trkpt><trkpt lat="47.78355140942148" lon="7.100940388387685"><ele>351.0</ele><time>2026-03-29T13:45:40Z</time></trkpt><trkpt lat="47.78374037219531" lon="7.101260690972848"><ele>350.0</ele><time>2026-03-29T13:45:41Z</time></trkpt><trkpt lat="47.78393682928251" lon="7.101598058801254"><ele>349.0</ele><time>2026-03-29T13:45:42Z</time></trkpt><trkpt lat="47.78413371575495" lon="7.101919707154163"><ele>349.0</ele><time>2026-03-29T13:45:43Z</time></trkpt><trkpt lat="47.7843011540384" lon="7.102207895735534"><ele>349.0</ele><time>2026-03-29T13:45:44Z</time></trkpt><trkpt lat="47.78445836940143" lon="7.102453399463617"><ele>349.0</ele><time>2026-03-29T13:45:45Z</time></trkpt><trkpt lat="47.78461313084482" lon="7.102693415086586"><ele>349.0</ele><time>2026-03-29T13:45:46Z</time></trkpt><trkpt lat="47.78476966727324" lon="7.102928455046872"><ele>349.0</ele><time>2026-03-29T13:45:47Z</time></trkpt><trkpt lat="47.784929903780665" lon="7.103167443076486"><ele>348.0</ele><time>2026-03-29T13:45:48Z</time></trkpt><trkpt lat="47.78508531228001" lon="7.1033682929460396"><ele>347.0</ele><time>2026-03-29T13:45:49Z</time></trkpt><trkpt lat="47.7852567570975" lon="7.103544791716441"><ele>346.0</ele><time>2026-03-29T13:45:50Z</time></trkpt><trkpt lat="47.785426003405604" lon="7.10369922613171"><ele>346.0</ele><time>2026-03-29T13:45:51Z</time></trkpt><trkpt lat="47.785599579944794" lon="7.10383841962621"><ele>346.0</ele><time>2026-03-29T13:45:52Z</time></trkpt><trkpt lat="47.7857762944926" lon="7.103983593483884"><ele>346.0</ele><time>2026-03-29T13:45:53Z</time></trkpt><trkpt lat="47.78595300257305" lon="7.104137488251566"><ele>344.0</ele><time>2026-03-29T13:45:54Z</time></trkpt><trkpt lat="47.78611360613932" lon="7.104271387205161"><ele>342.0</ele><time>2026-03-29T13:45:55Z</time></trkpt><trkpt lat="47.7862714714591" lon="7.104386499107956"><ele>340.0</ele><time>2026-03-29T13:45:56Z</time></trkpt><trkpt lat="47.78643729960646" lon="7.104478703615177"><ele>340.0</ele><time>2026-03-29T13:45:57Z</time></trkpt><trkpt lat="47.78661328247043" lon="7.1045653680378775"><ele>340.0</ele><time>2026-03-29T13:45:58Z</time></trkpt><trkpt lat="47.78677279052378" lon="7.104635478691307"><ele>340.0</ele><time>2026-03-29T13:45:59Z</time></trkpt><trkpt lat="47.78691918090696" lon="7.104699226240809"><ele>340.2</ele><time>2026-03-29T13:46:00Z</time></trkpt><trkpt lat="47.78705093236734" lon="7.104749469680747"><ele>340.4</ele><time>2026-03-29T13:46:01Z</time></trkpt><trkpt lat="47.78715974714254" lon="7.1048125421517"><ele>340.6</ele><time>2026-03-29T13:46:02Z</time></trkpt><trkpt lat="47.787240692496034" lon="7.1048959174789115"><ele>340.8</ele><time>2026-03-29T13:46:03Z</time></trkpt><trkpt lat="47.78731002279505" lon="7.10497846802305"><ele>341.0</ele><time>2026-03-29T13:46:04Z</time></trkpt><trkpt lat="47.78736359203746" lon="7.105048401563053"><ele>341.0</ele><time>2026-03-29T13:46:05Z</time></trkpt><trkpt lat="47.78740594296248" lon="7.105131322405977"><ele>341.0</ele><time>2026-03-29T13:46:06Z</time></trkpt><trkpt lat="47.787544903676626" lon="7.105018848004997"><ele>341.0</ele><time>2026-03-29T13:46:08Z</time></trkpt><trkpt lat="47.78763111574123" lon="7.104947404438008"><ele>341.0</ele><time>2026-03-29T13:46:09Z</time></trkpt><trkpt lat="47.78773615632727" lon="7.104924240739887"><ele>341.0</ele><time>2026-03-29T13:46:10Z</time></trkpt><trkpt lat="47.78784787965467" lon="7.104997712537474"><ele>342.75</ele><time>2026-03-29T13:46:11Z</time></trkpt><trkpt lat="47.7879910236816" lon="7.105090785356441"><ele>344.5</ele><time>2026-03-29T13:46:12Z</time></trkpt><trkpt lat="47.78812971468711" lon="7.105158557296649"><ele>346.25</ele><time>2026-03-29T13:46:13Z</time></trkpt><trkpt lat="47.78826663665089" lon="7.105227169040234"><ele>348.0</ele><time>2026-03-29T13:46:14Z</time></trkpt><trkpt lat="47.788407817594525" lon="7.105302474811857"><ele>350.0</ele><time>2026-03-29T13:46:15Z</time></trkpt><trkpt lat="47.78854770003901" lon="7.105369779904021"><ele>352.0</ele><time>2026-03-29T13:46:16Z</time></trkpt><trkpt lat="47.78868804534893" lon="7.1054400875078745"><ele>354.0</ele><time>2026-03-29T13:46:17Z</time></trkpt><trkpt lat="47.78882368957375" lon="7.105509749253398"><ele>356.0</ele><time>2026-03-29T13:46:18Z</time></trkpt><trkpt lat="47.78896055233942" lon="7.105570730993628"><ele>356.0</ele><time>2026-03-29T13:46:19Z</time></trkpt><trkpt lat="47.78908963563778" lon="7.105644306796635"><ele>356.0</ele><time>2026-03-29T13:46:20Z</time></trkpt><trkpt lat="47.789215807893854" lon="7.105729096650609"><ele>356.0</ele><time>2026-03-29T13:46:21Z</time></trkpt><trkpt lat="47.789343045460555" lon="7.105830362791925"><ele>356.0</ele><time>2026-03-29T13:46:22Z</time></trkpt><trkpt lat="47.78946607481574" lon="7.105932376556329"><ele>356.25</ele><time>2026-03-29T13:46:23Z</time></trkpt><trkpt lat="47.789583468185945" lon="7.106025150943998"><ele>356.5</ele><time>2026-03-29T13:46:24Z</time></trkpt><trkpt lat="47.789690261960764" lon="7.106081604262794"><ele>356.75</ele><time>2026-03-29T13:46:25Z</time></trkpt><trkpt lat="47.789803969537395" lon="7.106110513579388"><ele>357.0</ele><time>2026-03-29T13:46:26Z</time></trkpt><trkpt lat="47.78992850146898" lon="7.10610763615528"><ele>357.0</ele><time>2026-03-29T13:46:27Z</time></trkpt><trkpt lat="47.79005548944628" lon="7.106079774458025"><ele>357.0</ele><time>2026-03-29T13:46:28Z</time></trkpt><trkpt lat="47.79017665584752" lon="7.106052520176721"><ele>357.0</ele><time>2026-03-29T13:46:29Z</time></trkpt><trkpt lat="47.790299088317525" lon="7.106027050374911"><ele>357.0</ele><time>2026-03-29T13:46:30Z</time></trkpt><trkpt lat="47.79041840852444" lon="7.1059909060931234"><ele>356.75</ele><time>2026-03-29T13:46:31Z</time></trkpt><trkpt lat="47.79054275886607" lon="7.105964184895877"><ele>356.5</ele><time>2026-03-29T13:46:32Z</time></trkpt><trkpt lat="47.7906688571774" lon="7.105967917202172"><ele>356.25</ele><time>2026-03-29T13:46:33Z</time></trkpt><trkpt lat="47.79079319100669" lon="7.105973115859417"><ele>356.0</ele><time>2026-03-29T13:46:34Z</time></trkpt><trkpt lat="47.79091928675673" lon="7.105948973470274"><ele>354.0</ele><time>2026-03-29T13:46:35Z</time></trkpt><trkpt lat="47.79105008086136" lon="7.105924966713588"><ele>352.0</ele><time>2026-03-29T13:46:36Z</time></trkpt><trkpt lat="47.79118738912169" lon="7.105919614541271"><ele>350.0</ele><time>2026-03-29T13:46:37Z</time></trkpt><trkpt lat="47.79132596897172" lon="7.105915846927315"><ele>348.0</ele><time>2026-03-29T13:46:38Z</time></trkpt><trkpt lat="47.79147192343674" lon="7.105928697988562"><ele>348.0</ele><time>2026-03-29T13:46:39Z</time></trkpt><trkpt lat="47.79161439484441" lon="7.105968218249907"><ele>348.0</ele><time>2026-03-29T13:46:40Z</time></trkpt><trkpt lat="47.79174745535418" lon="7.106030233086073"><ele>348.0</ele><time>2026-03-29T13:46:41Z</time></trkpt><trkpt lat="47.79187266575756" lon="7.10611929231855"><ele>348.0</ele><time>2026-03-29T13:46:42Z</time></trkpt><trkpt lat="47.79198567511735" lon="7.106225232531268"><ele>348.0</ele><time>2026-03-29T13:46:43Z</time></trkpt><trkpt lat="47.792085976244095" lon="7.106338956432933"><ele>348.0</ele><time>2026-03-29T13:46:44Z</time></trkpt><trkpt lat="47.79217382905598" lon="7.106428724400532"><ele>348.0</ele><time>2026-03-29T13:46:45Z</time></trkpt><trkpt lat="47.79225952311628" lon="7.106506634483655"><ele>348.0</ele><time>2026-03-29T13:46:46Z</time></trkpt><trkpt lat="47.79233032524349" lon="7.106575140825486"><ele>348.0</ele><time>2026-03-29T13:46:47Z</time></trkpt><trkpt lat="47.7923925777782" lon="7.1066385527671105"><ele>348.0</ele><time>2026-03-29T13:46:48Z</time></trkpt><trkpt lat="47.79244903902969" lon="7.106700229143916"><ele>348.0</ele><time>2026-03-29T13:46:49Z</time></trkpt><trkpt lat="47.792548317368144" lon="7.106764933747757"><ele>348.0</ele><time>2026-03-29T13:46:51Z</time></trkpt><trkpt lat="47.79263534310559" lon="7.106620923602846"><ele>348.0</ele><time>2026-03-29T13:46:53Z</time></trkpt><trkpt lat="47.79266961785643" lon="7.106500162030365"><ele>348.0</ele><time>2026-03-29T13:46:54Z</time></trkpt><trkpt lat="47.79269955374472" lon="7.106367358511822"><ele>349.5</ele><time>2026-03-29T13:46:55Z</time></trkpt><trkpt lat="47.79272100490096" lon="7.106222238796841"><ele>351.0</ele><time>2026-03-29T13:46:56Z</time></trkpt><trkpt lat="47.79274557880451" lon="7.106037937934477"><ele>352.5</ele><time>2026-03-29T13:46:57Z</time></trkpt><trkpt lat="47.792772718164294" lon="7.10584991568989"><ele>354.0</ele><time>2026-03-29T13:46:58Z</time></trkpt><trkpt lat="47.79279515477224" lon="7.105655510226135"><ele>354.5</ele><time>2026-03-29T13:46:59Z</time></trkpt><trkpt lat="47.792810255744726" lon="7.105469343358308"><ele>355.0</ele><time>2026-03-29T13:47:00Z</time></trkpt><trkpt lat="47.792818118920366" lon="7.105296204661515"><ele>355.5</ele><time>2026-03-29T13:47:01Z</time></trkpt><trkpt lat="47.7928208890862" lon="7.105122793144194"><ele>356.0</ele><time>2026-03-29T13:47:02Z</time></trkpt><trkpt lat="47.79281999627319" lon="7.104941988052195"><ele>356.25</ele><time>2026-03-29T13:47:03Z</time></trkpt><trkpt lat="47.7928139818647" lon="7.104750351860869"><ele>356.5</ele><time>2026-03-29T13:47:04Z</time></trkpt><trkpt lat="47.79281115304709" lon="7.10455314668852"><ele>356.75</ele><time>2026-03-29T13:47:05Z</time></trkpt><trkpt lat="47.79281133005574" lon="7.104338435970839"><ele>357.0</ele><time>2026-03-29T13:47:06Z</time></trkpt><trkpt lat="47.79281230226599" lon="7.1041207907157515"><ele>357.5</ele><time>2026-03-29T13:47:07Z</time></trkpt><trkpt lat="47.79280983923729" lon="7.1039050530029995"><ele>358.0</ele><time>2026-03-29T13:47:08Z</time></trkpt><trkpt lat="47.792805861049736" lon="7.103704552429154"><ele>358.5</ele><time>2026-03-29T13:47:09Z</time></trkpt><trkpt lat="47.792809093520596" lon="7.103508537127762"><ele>359.0</ele><time>2026-03-29T13:47:10Z</time></trkpt><trkpt lat="47.79281089905101" lon="7.103331459736863"><ele>359.25</ele><time>2026-03-29T13:47:11Z</time></trkpt><trkpt lat="47.792819882936634" lon="7.103151729888005"><ele>359.5</ele><time>2026-03-29T13:47:12Z</time></trkpt><trkpt lat="47.79283180491406" lon="7.102969257901747"><ele>359.75</ele><time>2026-03-29T13:47:13Z</time></trkpt><trkpt lat="47.79285221129852" lon="7.102769156777223"><ele>360.0</ele><time>2026-03-29T13:47:14Z</time></trkpt><trkpt lat="47.792871319379564" lon="7.102586043560444"><ele>360.25</ele><time>2026-03-29T13:47:15Z</time></trkpt><trkpt lat="47.79288725502477" lon="7.102403641338421"><ele>360.5</ele><time>2026-03-29T13:47:16Z</time></trkpt><trkpt lat="47.79289978783655" lon="7.102230152588746"><ele>360.75</ele><time>2026-03-29T13:47:17Z</time></trkpt><trkpt lat="47.79291898393327" lon="7.10204871816792"><ele>361.0</ele><time>2026-03-29T13:47:18Z</time></trkpt><trkpt lat="47.792938220966334" lon="7.101856109154096"><ele>361.0</ele><time>2026-03-29T13:47:19Z</time></trkpt><trkpt lat="47.79295874865227" lon="7.101674163786841"><ele>361.0</ele><time>2026-03-29T13:47:20Z</time></trkpt><trkpt lat="47.792995758806335" lon="7.101495761638754"><ele>361.0</ele><time>2026-03-29T13:47:21Z</time></trkpt><trkpt lat="47.793029996032985" lon="7.101330967102867"><ele>361.0</ele><time>2026-03-29T13:47:22Z</time></trkpt><trkpt lat="47.79305834058796" lon="7.101165446403176"><ele>361.20000000000005</ele><time>2026-03-29T13:47:23Z</time></trkpt><trkpt lat="47.79309917393465" lon="7.101006211384757"><ele>361.40000000000003</ele><time>2026-03-29T13:47:24Z</time></trkpt><trkpt lat="47.79313159409765" lon="7.1008537437383"><ele>361.6</ele><time>2026-03-29T13:47:25Z</time></trkpt><trkpt lat="47.793153829732624" lon="7.100705817305562"><ele>361.8</ele><time>2026-03-29T13:47:26Z</time></trkpt><trkpt lat="47.79314762640531" lon="7.100549606766705"><ele>362.0</ele><time>2026-03-29T13:47:27Z</time></trkpt><trkpt lat="47.793109587520505" lon="7.100378671959465"><ele>362.0</ele><time>2026-03-29T13:47:28Z</time></trkpt><trkpt lat="47.793078030788834" lon="7.100200519239241"><ele>362.0</ele><time>2026-03-29T13:47:29Z</time></trkpt><trkpt lat="47.79306347834656" lon="7.100014849763644"><ele>362.0</ele><time>2026-03-29T13:47:30Z</time></trkpt><trkpt lat="47.79307243745496" lon="7.099828874218578"><ele>362.0</ele><time>2026-03-29T13:47:31Z</time></trkpt><trkpt lat="47.79307883004922" lon="7.09962840792385"><ele>362.25</ele><time>2026-03-29T13:47:32Z</time></trkpt><trkpt lat="47.79308400182844" lon="7.0994396203365495"><ele>362.5</ele><time>2026-03-29T13:47:33Z</time></trkpt><trkpt lat="47.793090379805385" lon="7.099246394719799"><ele>362.75</ele><time>2026-03-29T13:47:34Z</time></trkpt><trkpt lat="47.79309575981316" lon="7.0990459676343045"><ele>363.0</ele><time>2026-03-29T13:47:35Z</time></trkpt><trkpt lat="47.79310359061893" lon="7.098848899370681"><ele>363.25</ele><time>2026-03-29T13:47:36Z</time></trkpt><trkpt lat="47.79312076103269" lon="7.098657241835636"><ele>363.5</ele><time>2026-03-29T13:47:37Z</time></trkpt><trkpt lat="47.79316277349471" lon="7.098456140982641"><ele>363.75</ele><time>2026-03-29T13:47:38Z</time></trkpt><trkpt lat="47.79321596078771" lon="7.098258197261228"><ele>364.0</ele><time>2026-03-29T13:47:39Z</time></trkpt><trkpt lat="47.79325797349555" lon="7.098061224416867"><ele>364.25</ele><time>2026-03-29T13:47:40Z</time></trkpt><trkpt lat="47.79329586061704" lon="7.09787432013533"><ele>364.5</ele><time>2026-03-29T13:47:41Z</time></trkpt><trkpt lat="47.79333557863281" lon="7.097695579686101"><ele>364.75</ele><time>2026-03-29T13:47:42Z</time></trkpt><trkpt lat="47.79336927479854" lon="7.09751558735824"><ele>365.0</ele><time>2026-03-29T13:47:43Z</time></trkpt><trkpt lat="47.79340814532566" lon="7.097334624093279"><ele>365.5</ele><time>2026-03-29T13:47:44Z</time></trkpt><trkpt lat="47.793445959256" lon="7.097152518846324"><ele>366.0</ele><time>2026-03-29T13:47:45Z</time></trkpt><trkpt lat="47.793481385247176" lon="7.096968201897562"><ele>366.5</ele><time>2026-03-29T13:47:46Z</time></trkpt><trkpt lat="47.793522588935375" lon="7.096793730513175"><ele>367.0</ele><time>2026-03-29T13:47:47Z</time></trkpt><trkpt lat="47.793573389364944" lon="7.096632630567538"><ele>368.5</ele><time>2026-03-29T13:47:48Z</time></trkpt><trkpt lat="47.79363648645097" lon="7.096459556254743"><ele>370.0</ele><time>2026-03-29T13:47:49Z</time></trkpt><trkpt lat="47.79371055460793" lon="7.096271100374658"><ele>371.5</ele><time>2026-03-29T13:47:50Z</time></trkpt><trkpt lat="47.79378480851102" lon="7.096081958782402"><ele>373.0</ele><time>2026-03-29T13:47:51Z</time></trkpt><trkpt lat="47.79386027303745" lon="7.095906475482894"><ele>373.0</ele><time>2026-03-29T13:47:52Z</time></trkpt><trkpt lat="47.793936261306946" lon="7.095755148234543"><ele>373.0</ele><time>2026-03-29T13:47:53Z</time></trkpt><trkpt lat="47.79401941688813" lon="7.095618318484111"><ele>373.0</ele><time>2026-03-29T13:47:54Z</time></trkpt><trkpt lat="47.79413018956854" lon="7.095519881269128"><ele>373.0</ele><time>2026-03-29T13:47:55Z</time></trkpt><trkpt lat="47.79426196494418" lon="7.095419643078547"><ele>374.5</ele><time>2026-03-29T13:47:56Z</time></trkpt><trkpt lat="47.79440192172453" lon="7.095318642132045"><ele>376.0</ele><time>2026-03-29T13:47:57Z</time></trkpt><trkpt lat="47.794525337376264" lon="7.095221508845129"><ele>377.5</ele><time>2026-03-29T13:47:58Z</time></trkpt><trkpt lat="47.7946353062417" lon="7.095112547419699"><ele>379.0</ele><time>2026-03-29T13:47:59Z</time></trkpt><trkpt lat="47.79473999774812" lon="7.094971950880344"><ele>379.0</ele><time>2026-03-29T13:48:00Z</time></trkpt><trkpt lat="47.79481951991135" lon="7.094795579416703"><ele>379.0</ele><time>2026-03-29T13:48:01Z</time></trkpt><trkpt lat="47.794891022046485" lon="7.0946121146086965"><ele>379.0</ele><time>2026-03-29T13:48:02Z</time></trkpt><trkpt lat="47.79494298521617" lon="7.094417511519888"><ele>379.0</ele><time>2026-03-29T13:48:03Z</time></trkpt><trkpt lat="47.794996810964605" lon="7.094200781983228"><ele>379.3333333333333</ele><time>2026-03-29T13:48:04Z</time></trkpt><trkpt lat="47.79504362306955" lon="7.0939774838430685"><ele>379.6666666666667</ele><time>2026-03-29T13:48:05Z</time></trkpt><trkpt lat="47.79508957320633" lon="7.093735823316552"><ele>380.0</ele><time>2026-03-29T13:48:06Z</time></trkpt><trkpt lat="47.795134887226965" lon="7.0934924532652115"><ele>384.0</ele><time>2026-03-29T13:48:07Z</time></trkpt><trkpt lat="47.79518742712872" lon="7.093236109663078"><ele>388.0</ele><time>2026-03-29T13:48:08Z</time></trkpt><trkpt lat="47.79524166371849" lon="7.092970549646605"><ele>392.0</ele><time>2026-03-29T13:48:09Z</time></trkpt><trkpt lat="47.79529193924083" lon="7.092699660168902"><ele>394.0</ele><time>2026-03-29T13:48:10Z</time></trkpt><trkpt lat="47.79534150525167" lon="7.092414082329527"><ele>396.0</ele><time>2026-03-29T13:48:11Z</time></trkpt><trkpt lat="47.79537828129445" lon="7.092111311345162"><ele>398.0</ele><time>2026-03-29T13:48:12Z</time></trkpt><trkpt lat="47.79539456890036" lon="7.091791412001345"><ele>399.0</ele><time>2026-03-29T13:48:13Z</time></trkpt><trkpt lat="47.79541369356921" lon="7.091475716245026"><ele>400.0</ele><time>2026-03-29T13:48:14Z</time></trkpt><trkpt lat="47.79548696223158" lon="7.091166550338434"><ele>401.0</ele><time>2026-03-29T13:48:15Z</time></trkpt><trkpt lat="47.79558537737362" lon="7.090831272242039"><ele>402.0</ele><time>2026-03-29T13:48:16Z</time></trkpt><trkpt lat="47.795721167489056" lon="7.090479259226119"><ele>403.0</ele><time>2026-03-29T13:48:17Z</time></trkpt><trkpt lat="47.795852816212395" lon="7.090094114369339"><ele>406.0</ele><time>2026-03-29T13:48:18Z</time></trkpt><trkpt lat="47.79597525620401" lon="7.089776236472043"><ele>409.0</ele><time>2026-03-29T13:48:19Z</time></trkpt><trkpt lat="47.79609480386324" lon="7.08950579506092"><ele>411.25</ele><time>2026-03-29T13:48:20Z</time></trkpt><trkpt lat="47.79618305646559" lon="7.089268600675508"><ele>413.5</ele><time>2026-03-29T13:48:21Z</time></trkpt><trkpt lat="47.79624209022987" lon="7.089063432077107"><ele>415.75</ele><time>2026-03-29T13:48:22Z</time></trkpt><trkpt lat="47.79630142534517" lon="7.088924318203236"><ele>418.0</ele><time>2026-03-29T13:48:23Z</time></trkpt><trkpt lat="47.796364432869815" lon="7.088851661528482"><ele>418.0</ele><time>2026-03-29T13:48:24Z</time></trkpt><trkpt lat="47.79644429199382" lon="7.088876736210811"><ele>418.0</ele><time>2026-03-29T13:48:25Z</time></trkpt><trkpt lat="47.79649710181617" lon="7.089006311763388"><ele>418.0</ele><time>2026-03-29T13:48:26Z</time></trkpt><trkpt lat="47.796503704372626" lon="7.089186172020809"><ele>418.0</ele><time>2026-03-29T13:48:27Z</time></trkpt><trkpt lat="47.79649198178429" lon="7.089401408010475"><ele>418.0</ele><time>2026-03-29T13:48:28Z</time></trkpt><trkpt lat="47.796488390170204" lon="7.089649787169396"><ele>418.2</ele><time>2026-03-29T13:48:29Z</time></trkpt><trkpt lat="47.79648089020526" lon="7.0898387562314715"><ele>418.4</ele><time>2026-03-29T13:48:30Z</time></trkpt><trkpt lat="47.796478979773575" lon="7.09000185596376"><ele>418.59999999999997</ele><time>2026-03-29T13:48:31Z</time></trkpt><trkpt lat="47.7965008459095" lon="7.0901175152288065"><ele>418.79999999999995</ele><time>2026-03-29T13:48:32Z</time></trkpt><trkpt lat="47.796538880205794" lon="7.090205327217848"><ele>419.0</ele><time>2026-03-29T13:48:33Z</time></trkpt><trkpt lat="47.79663127105886" lon="7.090264212204844"><ele>419.0</ele><time>2026-03-29T13:48:34Z</time></trkpt><trkpt lat="47.796728280660766" lon="7.090194902743498"><ele>419.0</ele><time>2026-03-29T13:48:35Z</time></trkpt><trkpt lat="47.79676657564457" lon="7.090011334942971"><ele>419.0</ele><time>2026-03-29T13:48:36Z</time></trkpt><trkpt lat="47.79675048012921" lon="7.0898151343980285"><ele>419.0</ele><time>2026-03-29T13:48:37Z</time></trkpt><trkpt lat="47.79676378972382" lon="7.0895796563719875"><ele>419.3333333333333</ele><time>2026-03-29T13:48:38Z</time></trkpt><trkpt lat="47.79679234250263" lon="7.089328180525194"><ele>419.66666666666663</ele><time>2026-03-29T13:48:39Z</time></trkpt><trkpt lat="47.79686895685123" lon="7.089048150098939"><ele>420.0</ele><time>2026-03-29T13:48:40Z</time></trkpt><trkpt lat="47.79697365514109" lon="7.088721613083064"><ele>428.0</ele><time>2026-03-29T13:48:41Z</time></trkpt><trkpt lat="47.797075849966255" lon="7.088377192722104"><ele>436.0</ele><time>2026-03-29T13:48:42Z</time></trkpt><trkpt lat="47.79716304251679" lon="7.088024370593068"><ele>436.0</ele><time>2026-03-29T13:48:43Z</time></trkpt><trkpt lat="47.79725485826208" lon="7.087643076794692"><ele>436.0</ele><time>2026-03-29T13:48:44Z</time></trkpt><trkpt lat="47.79733721425812" lon="7.0872954941318005"><ele>435.0</ele><time>2026-03-29T13:48:45Z</time></trkpt><trkpt lat="47.79740870524845" lon="7.086988012654218"><ele>434.0</ele><time>2026-03-29T13:48:46Z</time></trkpt><trkpt lat="47.797474447925204" lon="7.08670525446655"><ele>433.0</ele><time>2026-03-29T13:48:47Z</time></trkpt><trkpt lat="47.79754006867157" lon="7.086423020604954"><ele>433.0</ele><time>2026-03-29T13:48:48Z</time></trkpt><trkpt lat="47.7976051388299" lon="7.0861432954908725"><ele>433.0</ele><time>2026-03-29T13:48:49Z</time></trkpt><trkpt lat="47.797661222183464" lon="7.0859008238207934"><ele>433.0</ele><time>2026-03-29T13:48:50Z</time></trkpt><trkpt lat="47.79771270189016" lon="7.085677922726155"><ele>438.25</ele><time>2026-03-29T13:48:51Z</time></trkpt><trkpt lat="47.79776086659951" lon="7.085479846287884"><ele>443.5</ele><time>2026-03-29T13:48:52Z</time></trkpt><trkpt lat="47.7977950050974" lon="7.085292784506574"><ele>448.75</ele><time>2026-03-29T13:48:53Z</time></trkpt><trkpt lat="47.79783087205451" lon="7.085144653332221"><ele>454.0</ele><time>2026-03-29T13:48:54Z</time></trkpt><trkpt lat="47.79783099777706" lon="7.084996634763252"><ele>453.75</ele><time>2026-03-29T13:48:55Z</time></trkpt><trkpt lat="47.79777898008124" lon="7.084860418580378"><ele>453.5</ele><time>2026-03-29T13:48:56Z</time></trkpt><trkpt lat="47.79767670332721" lon="7.084764111028563"><ele>453.25</ele><time>2026-03-29T13:48:57Z</time></trkpt><trkpt lat="47.797552683081534" lon="7.0847243520707135"><ele>453.0</ele><time>2026-03-29T13:48:58Z</time></trkpt><trkpt lat="47.7974031612766" lon="7.084751258507015"><ele>455.33333333333337</ele><time>2026-03-29T13:48:59Z</time></trkpt><trkpt lat="47.79725055325806" lon="7.08484918822271"><ele>457.6666666666667</ele><time>2026-03-29T13:49:00Z</time></trkpt><trkpt lat="47.797108560132884" lon="7.085031088049455"><ele>460.0</ele><time>2026-03-29T13:49:01Z</time></trkpt><trkpt lat="47.79697995960147" lon="7.0851565413707345"><ele>457.25</ele><time>2026-03-29T13:49:02Z</time></trkpt><trkpt lat="47.796856840184496" lon="7.085275004962324"><ele>454.5</ele><time>2026-03-29T13:49:03Z</time></trkpt><trkpt lat="47.796713156000514" lon="7.085317006051346"><ele>451.75</ele><time>2026-03-29T13:49:04Z</time></trkpt><trkpt lat="47.79657159572791" lon="7.085265290676461"><ele>449.0</ele><time>2026-03-29T13:49:05Z</time></trkpt><trkpt lat="47.796446944428254" lon="7.085205740864664"><ele>449.0</ele><time>2026-03-29T13:49:06Z</time></trkpt><trkpt lat="47.796372994852725" lon="7.085100610151072"><ele>449.0</ele><time>2026-03-29T13:49:07Z</time></trkpt><trkpt lat="47.796275670515925" lon="7.08491947040023"><ele>449.0</ele><time>2026-03-29T13:49:08Z</time></trkpt><trkpt lat="47.7961881578938" lon="7.084703333571408"><ele>449.0</ele><time>2026-03-29T13:49:09Z</time></trkpt><trkpt lat="47.7960697784434" lon="7.0844107618363745"><ele>451.75</ele><time>2026-03-29T13:49:10Z</time></trkpt><trkpt lat="47.795953785061265" lon="7.084167005150414"><ele>454.5</ele><time>2026-03-29T13:49:11Z</time></trkpt><trkpt lat="47.79589762427988" lon="7.084009138671451"><ele>457.25</ele><time>2026-03-29T13:49:12Z</time></trkpt><trkpt lat="47.79580686598592" lon="7.083892578436366"><ele>460.0</ele><time>2026-03-29T13:49:13Z</time></trkpt><trkpt lat="47.79572842487577" lon="7.083847474694415"><ele>460.0</ele><time>2026-03-29T13:49:14Z</time></trkpt><trkpt lat="47.795634742134126" lon="7.083932190737681"><ele>460.0</ele><time>2026-03-29T13:49:15Z</time></trkpt><trkpt lat="47.795578474787604" lon="7.084044566728659"><ele>460.0</ele><time>2026-03-29T13:49:16Z</time></trkpt><trkpt lat="47.795504706848625" lon="7.084326349082974"><ele>460.0</ele><time>2026-03-29T13:49:17Z</time></trkpt><trkpt lat="47.7954197221686" lon="7.084562986824402"><ele>460.0</ele><time>2026-03-29T13:49:18Z</time></trkpt><trkpt lat="47.79531823382947" lon="7.084720406347713"><ele>460.0</ele><time>2026-03-29T13:49:19Z</time></trkpt><trkpt lat="47.79518491891532" lon="7.08485146526115"><ele>460.0</ele><time>2026-03-29T13:49:20Z</time></trkpt><trkpt lat="47.795002678586044" lon="7.08503123011054"><ele>461.25</ele><time>2026-03-29T13:49:21Z</time></trkpt><trkpt lat="47.794888830721746" lon="7.085133439198639"><ele>462.5</ele><time>2026-03-29T13:49:22Z</time></trkpt><trkpt lat="47.79477343829878" lon="7.08519047228986"><ele>463.75</ele><time>2026-03-29T13:49:23Z</time></trkpt><trkpt lat="47.794705577673064" lon="7.085069207109352"><ele>465.0</ele><time>2026-03-29T13:49:25Z</time></trkpt><trkpt lat="47.79468719332453" lon="7.0849223342221395"><ele>463.75</ele><time>2026-03-29T13:49:26Z</time></trkpt><trkpt lat="47.79477260424272" lon="7.0848314209321614"><ele>462.5</ele><time>2026-03-29T13:49:27Z</time></trkpt><trkpt lat="47.794882999405424" lon="7.084698034729929"><ele>461.25</ele><time>2026-03-29T13:49:28Z</time></trkpt><trkpt lat="47.79500673317739" lon="7.084520831656962"><ele>460.0</ele><time>2026-03-29T13:49:29Z</time></trkpt><trkpt lat="47.795170927407476" lon="7.08425346602928"><ele>465.0</ele><time>2026-03-29T13:49:30Z</time></trkpt><trkpt lat="47.79529665027082" lon="7.083912269640239"><ele>470.0</ele><time>2026-03-29T13:49:31Z</time></trkpt><trkpt lat="47.795359780737044" lon="7.0835732740973185"><ele>473.0</ele><time>2026-03-29T13:49:32Z</time></trkpt><trkpt lat="47.79534245579784" lon="7.083227075674372"><ele>476.0</ele><time>2026-03-29T13:49:33Z</time></trkpt><trkpt lat="47.79528164541306" lon="7.082942237629304"><ele>479.0</ele><time>2026-03-29T13:49:34Z</time></trkpt><trkpt lat="47.795196158000316" lon="7.082617653521639"><ele>478.3333333333333</ele><time>2026-03-29T13:49:35Z</time></trkpt><trkpt lat="47.79508005336584" lon="7.082327201168"><ele>477.66666666666663</ele><time>2026-03-29T13:49:36Z</time></trkpt><trkpt lat="47.79500666564744" lon="7.082135408184357"><ele>477.0</ele><time>2026-03-29T13:49:37Z</time></trkpt><trkpt lat="47.79494493068649" lon="7.081945472917461"><ele>477.0</ele><time>2026-03-29T13:49:38Z</time></trkpt><trkpt lat="47.794909332016076" lon="7.0817547398847"><ele>477.0</ele><time>2026-03-29T13:49:39Z</time></trkpt><trkpt lat="47.794897642211225" lon="7.081532617673554"><ele>477.0</ele><time>2026-03-29T13:49:40Z</time></trkpt><trkpt lat="47.794919118950396" lon="7.081282977102895"><ele>478.0</ele><time>2026-03-29T13:49:41Z</time></trkpt><trkpt lat="47.794936559686114" lon="7.081018422448126"><ele>479.0</ele><time>2026-03-29T13:49:42Z</time></trkpt><trkpt lat="47.79493534345535" lon="7.080754281498527"><ele>480.0</ele><time>2026-03-29T13:49:43Z</time></trkpt><trkpt lat="47.79494600094294" lon="7.08051451511968"><ele>481.66666666666663</ele><time>2026-03-29T13:49:44Z</time></trkpt><trkpt lat="47.79493538366163" lon="7.080285511379368"><ele>483.3333333333333</ele><time>2026-03-29T13:49:45Z</time></trkpt><trkpt lat="47.79491744978854" lon="7.080035449995682"><ele>485.0</ele><time>2026-03-29T13:49:46Z</time></trkpt><trkpt lat="47.7948827248005" lon="7.079778143352868"><ele>487.3333333333333</ele><time>2026-03-29T13:49:47Z</time></trkpt><trkpt lat="47.794827226768525" lon="7.079525284819162"><ele>489.66666666666663</ele><time>2026-03-29T13:49:48Z</time></trkpt><trkpt lat="47.794750161930935" lon="7.079288096603216"><ele>492.0</ele><time>2026-03-29T13:49:49Z</time></trkpt><trkpt lat="47.79466528966754" lon="7.079051624032783"><ele>494.66666666666663</ele><time>2026-03-29T13:49:50Z</time></trkpt><trkpt lat="47.79457379739273" lon="7.078818474713734"><ele>497.3333333333333</ele><time>2026-03-29T13:49:51Z</time></trkpt><trkpt lat="47.79449737633246" lon="7.078570671656584"><ele>500.0</ele><time>2026-03-29T13:49:52Z</time></trkpt><trkpt lat="47.79443528616099" lon="7.078311113400539"><ele>501.0</ele><time>2026-03-29T13:49:53Z</time></trkpt><trkpt lat="47.79438574055701" lon="7.078055522020319"><ele>502.0</ele><time>2026-03-29T13:49:54Z</time></trkpt><trkpt lat="47.794342299236796" lon="7.077823626658339"><ele>503.0</ele><time>2026-03-29T13:49:55Z</time></trkpt><trkpt lat="47.79430427968813" lon="7.07762201975581"><ele>500.25</ele><time>2026-03-29T13:49:56Z</time></trkpt><trkpt lat="47.794298309981485" lon="7.077408842400008"><ele>497.5</ele><time>2026-03-29T13:49:57Z</time></trkpt><trkpt lat="47.794296059022905" lon="7.077217939060927"><ele>494.75</ele><time>2026-03-29T13:49:58Z</time></trkpt><trkpt lat="47.79432130295019" lon="7.076995212048478"><ele>492.0</ele><time>2026-03-29T13:49:59Z</time></trkpt><trkpt lat="47.79437219861174" lon="7.076753964657151"><ele>487.0</ele><time>2026-03-29T13:50:00Z</time></trkpt><trkpt lat="47.794450710202746" lon="7.076500135495488"><ele>482.0</ele><time>2026-03-29T13:50:01Z</time></trkpt><trkpt lat="47.79454589448759" lon="7.076247282961253"><ele>477.0</ele><time>2026-03-29T13:50:02Z</time></trkpt><trkpt lat="47.79470432241332" lon="7.0760472892612585"><ele>477.0</ele><time>2026-03-29T13:50:03Z</time></trkpt><trkpt lat="47.79485858805364" lon="7.075851560889656"><ele>477.0</ele><time>2026-03-29T13:50:04Z</time></trkpt><trkpt lat="47.79500678706795" lon="7.075654971014708"><ele>477.0</ele><time>2026-03-29T13:50:05Z</time></trkpt><trkpt lat="47.7951411183072" lon="7.075493767816774"><ele>478.0</ele><time>2026-03-29T13:50:06Z</time></trkpt><trkpt lat="47.795266789882014" lon="7.075341107619712"><ele>479.0</ele><time>2026-03-29T13:50:07Z</time></trkpt><trkpt lat="47.79537601178414" lon="7.075217518082054"><ele>480.0</ele><time>2026-03-29T13:50:08Z</time></trkpt><trkpt lat="47.79547928358398" lon="7.075105133626607"><ele>481.0</ele><time>2026-03-29T13:50:09Z</time></trkpt><trkpt lat="47.79556110091278" lon="7.074998742127142"><ele>480.20000000000005</ele><time>2026-03-29T13:50:10Z</time></trkpt><trkpt lat="47.795579359885735" lon="7.074867982177606"><ele>479.40000000000003</ele><time>2026-03-29T13:50:11Z</time></trkpt><trkpt lat="47.79557338460347" lon="7.07473993655134"><ele>478.6</ele><time>2026-03-29T13:50:12Z</time></trkpt><trkpt lat="47.795534429605624" lon="7.074617407079478"><ele>477.8</ele><time>2026-03-29T13:50:13Z</time></trkpt><trkpt lat="47.79545577703169" lon="7.0744795206565145"><ele>477.0</ele><time>2026-03-29T13:50:14Z</time></trkpt><trkpt lat="47.79533872138238" lon="7.0744168234818865"><ele>477.0</ele><time>2026-03-29T13:50:15Z</time></trkpt><trkpt lat="47.795213143065524" lon="7.074452035172539"><ele>477.0</ele><time>2026-03-29T13:50:16Z</time></trkpt><trkpt lat="47.79507660894128" lon="7.074577289950147"><ele>477.0</ele><time>2026-03-29T13:50:17Z</time></trkpt><trkpt lat="47.794907803891064" lon="7.074707496787221"><ele>476.0</ele><time>2026-03-29T13:50:18Z</time></trkpt><trkpt lat="47.7947301491688" lon="7.074859254079377"><ele>475.0</ele><time>2026-03-29T13:50:19Z</time></trkpt><trkpt lat="47.79452497300949" lon="7.075013586847237"><ele>474.0</ele><time>2026-03-29T13:50:20Z</time></trkpt><trkpt lat="47.79432203884171" lon="7.07514452639075"><ele>479.66666666666663</ele><time>2026-03-29T13:50:21Z</time></trkpt><trkpt lat="47.794110018473056" lon="7.075263195021164"><ele>485.3333333333333</ele><time>2026-03-29T13:50:22Z</time></trkpt><trkpt lat="47.793932813500575" lon="7.075364077395262"><ele>491.0</ele><time>2026-03-29T13:50:23Z</time></trkpt><trkpt lat="47.793741736701854" lon="7.075416709170459"><ele>491.0</ele><time>2026-03-29T13:50:24Z</time></trkpt><trkpt lat="47.79354910769478" lon="7.075429141214592"><ele>491.0</ele><time>2026-03-29T13:50:25Z</time></trkpt><trkpt lat="47.79339188697578" lon="7.075447517897483"><ele>491.0</ele><time>2026-03-29T13:50:26Z</time></trkpt><trkpt lat="47.79324205536816" lon="7.075492725708175"><ele>494.5</ele><time>2026-03-29T13:50:27Z</time></trkpt><trkpt lat="47.79310221627163" lon="7.0755123110788025"><ele>498.0</ele><time>2026-03-29T13:50:28Z</time></trkpt><trkpt lat="47.79296784853436" lon="7.075502164723329"><ele>501.5</ele><time>2026-03-29T13:50:29Z</time></trkpt><trkpt lat="47.792849338224784" lon="7.075374571803419"><ele>505.0</ele><time>2026-03-29T13:50:30Z</time></trkpt><trkpt lat="47.79268822409614" lon="7.0752647697779585"><ele>502.0</ele><time>2026-03-29T13:50:31Z</time></trkpt><trkpt lat="47.79248680434783" lon="7.075143754367415"><ele>499.0</ele><time>2026-03-29T13:50:32Z</time></trkpt><trkpt lat="47.79226862032436" lon="7.075069432826621"><ele>496.0</ele><time>2026-03-29T13:50:33Z</time></trkpt><trkpt lat="47.792091023088986" lon="7.074999738287349"><ele>497.0</ele><time>2026-03-29T13:50:34Z</time></trkpt><trkpt lat="47.791943093310735" lon="7.074912927826142"><ele>498.0</ele><time>2026-03-29T13:50:35Z</time></trkpt><trkpt lat="47.791796588935405" lon="7.074774828847229"><ele>499.0</ele><time>2026-03-29T13:50:36Z</time></trkpt><trkpt lat="47.79162735001528" lon="7.0745547081912745"><ele>499.0</ele><time>2026-03-29T13:50:37Z</time></trkpt><trkpt lat="47.79144508267876" lon="7.07428970013423"><ele>499.0</ele><time>2026-03-29T13:50:38Z</time></trkpt><trkpt lat="47.79124620296939" lon="7.074010937538479"><ele>498.0</ele><time>2026-03-29T13:50:39Z</time></trkpt><trkpt lat="47.79105540740552" lon="7.073734994761508"><ele>497.0</ele><time>2026-03-29T13:50:40Z</time></trkpt><trkpt lat="47.790875041321335" lon="7.073457468628689"><ele>500.66666666666663</ele><time>2026-03-29T13:50:41Z</time></trkpt><trkpt lat="47.79072741503463" lon="7.073246790130658"><ele>504.33333333333337</ele><time>2026-03-29T13:50:42Z</time></trkpt><trkpt lat="47.790608568571635" lon="7.073118916643274"><ele>508.0</ele><time>2026-03-29T13:50:43Z</time></trkpt><trkpt lat="47.79052104531007" lon="7.073024258062002"><ele>508.0</ele><time>2026-03-29T13:50:44Z</time></trkpt><trkpt lat="47.790418748085244" lon="7.0729829194338585"><ele>508.0</ele><time>2026-03-29T13:50:45Z</time></trkpt><trkpt lat="47.790291868298" lon="7.073028877690447"><ele>508.0</ele><time>2026-03-29T13:50:46Z</time></trkpt><trkpt lat="47.790179930157514" lon="7.073143429440384"><ele>508.0</ele><time>2026-03-29T13:50:47Z</time></trkpt><trkpt lat="47.79011123379056" lon="7.073317331636571"><ele>505.59999999999997</ele><time>2026-03-29T13:50:48Z</time></trkpt><trkpt lat="47.790044549651036" lon="7.073448672463275"><ele>503.19999999999993</ele><time>2026-03-29T13:50:49Z</time></trkpt><trkpt lat="47.78998331200829" lon="7.073551174918388"><ele>500.8</ele><time>2026-03-29T13:50:50Z</time></trkpt><trkpt lat="47.789913432618526" lon="7.07364318436886"><ele>498.4</ele><time>2026-03-29T13:50:51Z</time></trkpt><trkpt lat="47.78983191577197" lon="7.073710389133586"><ele>496.0</ele><time>2026-03-29T13:50:52Z</time></trkpt><trkpt lat="47.78974220695785" lon="7.073699210507891"><ele>496.00000000000006</ele><time>2026-03-29T13:50:53Z</time></trkpt><trkpt lat="47.789650910087694" lon="7.073667676123468"><ele>496.0</ele><time>2026-03-29T13:50:54Z</time></trkpt><trkpt lat="47.78961214267823" lon="7.073581588380541"><ele>496.0</ele><time>2026-03-29T13:50:55Z</time></trkpt><trkpt lat="47.78957855364412" lon="7.07345523872794"><ele>496.0</ele><time>2026-03-29T13:50:56Z</time></trkpt><trkpt lat="47.78954990155819" lon="7.073326442349156"><ele>496.00000000000006</ele><time>2026-03-29T13:50:57Z</time></trkpt><trkpt lat="47.78952368235377" lon="7.073210174367553"><ele>496.0</ele><time>2026-03-29T13:50:58Z</time></trkpt><trkpt lat="47.78950437264113" lon="7.073103119547541"><ele>497.4</ele><time>2026-03-29T13:50:59Z</time></trkpt><trkpt lat="47.78948409513617" lon="7.0729875289552115"><ele>498.8</ele><time>2026-03-29T13:51:00Z</time></trkpt><trkpt lat="47.789465421384534" lon="7.072878136891336"><ele>500.19999999999993</ele><time>2026-03-29T13:51:01Z</time></trkpt><trkpt lat="47.7894415297396" lon="7.0727665944314815"><ele>501.59999999999997</ele><time>2026-03-29T13:51:02Z</time></trkpt><trkpt lat="47.78941115554795" lon="7.072615110195249"><ele>503.0</ele><time>2026-03-29T13:51:03Z</time></trkpt><trkpt lat="47.78939077790526" lon="7.072432420879088"><ele>504.0</ele><time>2026-03-29T13:51:04Z</time></trkpt><trkpt lat="47.78937872406574" lon="7.072238815328229"><ele>505.0</ele><time>2026-03-29T13:51:05Z</time></trkpt><trkpt lat="47.78937809103083" lon="7.072052222021931"><ele>506.0</ele><time>2026-03-29T13:51:06Z</time></trkpt><trkpt lat="47.7893803679521" lon="7.0718686613081"><ele>507.0</ele><time>2026-03-29T13:51:07Z</time></trkpt><trkpt lat="47.78937716642348" lon="7.071685630899713"><ele>507.0</ele><time>2026-03-29T13:51:08Z</time></trkpt><trkpt lat="47.78937303690505" lon="7.071502805664274"><ele>507.0</ele><time>2026-03-29T13:51:09Z</time></trkpt><trkpt lat="47.78936918154814" lon="7.071324653900321"><ele>507.0</ele><time>2026-03-29T13:51:10Z</time></trkpt><trkpt lat="47.789364778678504" lon="7.071151401948569"><ele>507.0</ele><time>2026-03-29T13:51:11Z</time></trkpt><trkpt lat="47.789358953218866" lon="7.070979488615612"><ele>507.0</ele><time>2026-03-29T13:51:12Z</time></trkpt><trkpt lat="47.78935443718907" lon="7.070811012422108"><ele>507.0</ele><time>2026-03-29T13:51:13Z</time></trkpt><trkpt lat="47.789360539490986" lon="7.070634208344118"><ele>507.0</ele><time>2026-03-29T13:51:14Z</time></trkpt><trkpt lat="47.78937893236989" lon="7.070448493445933"><ele>507.0</ele><time>2026-03-29T13:51:15Z</time></trkpt><trkpt lat="47.78941122060234" lon="7.070264169132648"><ele>505.6</ele><time>2026-03-29T13:51:16Z</time></trkpt><trkpt lat="47.78945353178641" lon="7.070100724548486"><ele>504.20000000000005</ele><time>2026-03-29T13:51:17Z</time></trkpt><trkpt lat="47.78950425667322" lon="7.069956403173762"><ele>502.8</ele><time>2026-03-29T13:51:18Z</time></trkpt><trkpt lat="47.78956169171975" lon="7.06984976974527"><ele>501.4</ele><time>2026-03-29T13:51:19Z</time></trkpt><trkpt lat="47.78964219949036" lon="7.069789880352129"><ele>500.0</ele><time>2026-03-29T13:51:20Z</time></trkpt><trkpt lat="47.789727615175146" lon="7.069780970757832"><ele>498.6</ele><time>2026-03-29T13:51:21Z</time></trkpt><trkpt lat="47.78982412278244" lon="7.069749700550253"><ele>497.2</ele><time>2026-03-29T13:51:22Z</time></trkpt><trkpt lat="47.78987748978469" lon="7.069636820294301"><ele>495.79999999999995</ele><time>2026-03-29T13:51:23Z</time></trkpt><trkpt lat="47.78990815357054" lon="7.069491449703614"><ele>494.4</ele><time>2026-03-29T13:51:24Z</time></trkpt><trkpt lat="47.78990901151267" lon="7.069333512461885"><ele>493.0</ele><time>2026-03-29T13:51:25Z</time></trkpt><trkpt lat="47.78991199184565" lon="7.0692102723307455"><ele>493.50000000000006</ele><time>2026-03-29T13:51:26Z</time></trkpt><trkpt lat="47.78992259645548" lon="7.069096444541804"><ele>494.0</ele><time>2026-03-29T13:51:27Z</time></trkpt><trkpt lat="47.78992770290888" lon="7.068990361526824"><ele>494.5</ele><time>2026-03-29T13:51:28Z</time></trkpt><trkpt lat="47.78989304495062" lon="7.068889517532844"><ele>495.0</ele><time>2026-03-29T13:51:29Z</time></trkpt><trkpt lat="47.78981103628013" lon="7.068795702083514"><ele>495.50000000000006</ele><time>2026-03-29T13:51:30Z</time></trkpt><trkpt lat="47.78970827850788" lon="7.068739467733991"><ele>496.0</ele><time>2026-03-29T13:51:31Z</time></trkpt><trkpt lat="47.789600936234265" lon="7.068683121238872"><ele>496.0</ele><time>2026-03-29T13:51:32Z</time></trkpt><trkpt lat="47.7895082662345" lon="7.068609518386309"><ele>496.0</ele><time>2026-03-29T13:51:33Z</time></trkpt><trkpt lat="47.78941907102945" lon="7.068514408062458"><ele>496.0</ele><time>2026-03-29T13:51:34Z</time></trkpt><trkpt lat="47.78932923418126" lon="7.068422122628819"><ele>496.0</ele><time>2026-03-29T13:51:35Z</time></trkpt><trkpt lat="47.789240586382576" lon="7.068348006380294"><ele>496.0</ele><time>2026-03-29T13:51:36Z</time></trkpt><trkpt lat="47.789155516695445" lon="7.068303511674261"><ele>498.20000000000005</ele><time>2026-03-29T13:51:37Z</time></trkpt><trkpt lat="47.78906327959047" lon="7.068269886609901"><ele>500.40000000000003</ele><time>2026-03-29T13:51:38Z</time></trkpt><trkpt lat="47.78900229999773" lon="7.06820223159105"><ele>502.6</ele><time>2026-03-29T13:51:39Z</time></trkpt><trkpt lat="47.7889228303367" lon="7.068162971452647"><ele>504.8</ele><time>2026-03-29T13:51:40Z</time></trkpt><trkpt lat="47.788852267890555" lon="7.068034382863912"><ele>507.0</ele><time>2026-03-29T13:51:41Z</time></trkpt><trkpt lat="47.78877709812626" lon="7.0678970798506775"><ele>507.0</ele><time>2026-03-29T13:51:42Z</time></trkpt><trkpt lat="47.788707421836925" lon="7.067763706334723"><ele>507.00000000000006</ele><time>2026-03-29T13:51:43Z</time></trkpt><trkpt lat="47.788635078020874" lon="7.067633914328905"><ele>507.00000000000006</ele><time>2026-03-29T13:51:44Z</time></trkpt><trkpt lat="47.7885613541235" lon="7.067522319961243"><ele>507.0</ele><time>2026-03-29T13:51:45Z</time></trkpt><trkpt lat="47.788479946910506" lon="7.067414272000218"><ele>507.0</ele><time>2026-03-29T13:51:46Z</time></trkpt><trkpt lat="47.78839143990391" lon="7.067307983866603"><ele>506.40000000000003</ele><time>2026-03-29T13:51:47Z</time></trkpt><trkpt lat="47.78830578898337" lon="7.06721580509282"><ele>505.80000000000007</ele><time>2026-03-29T13:51:48Z</time></trkpt><trkpt lat="47.78821893015774" lon="7.067107309439267"><ele>505.2</ele><time>2026-03-29T13:51:49Z</time></trkpt><trkpt lat="47.78814303836878" lon="7.0669903589193535"><ele>504.6</ele><time>2026-03-29T13:51:50Z</time></trkpt><trkpt lat="47.78807126070928" lon="7.066861845860001"><ele>504.0</ele><time>2026-03-29T13:51:51Z</time></trkpt><trkpt lat="47.78799503332541" lon="7.066735254590862"><ele>507.25</ele><time>2026-03-29T13:51:52Z</time></trkpt><trkpt lat="47.78791911922649" lon="7.066604842786689"><ele>510.5</ele><time>2026-03-29T13:51:53Z</time></trkpt><trkpt lat="47.7878418751384" lon="7.0664740737463765"><ele>513.75</ele><time>2026-03-29T13:51:54Z</time></trkpt><trkpt lat="47.78776357541094" lon="7.066346278625225"><ele>517.0</ele><time>2026-03-29T13:51:55Z</time></trkpt><trkpt lat="47.78768383169301" lon="7.06623634097335"><ele>515.8000000000001</ele><time>2026-03-29T13:51:56Z</time></trkpt><trkpt lat="47.78759680742284" lon="7.066132670381605"><ele>514.6</ele><time>2026-03-29T13:51:57Z</time></trkpt><trkpt lat="47.78751305961664" lon="7.066035810748715"><ele>513.4000000000001</ele><time>2026-03-29T13:51:58Z</time></trkpt><trkpt lat="47.78743470615729" lon="7.065942278454031"><ele>512.2</ele><time>2026-03-29T13:51:59Z</time></trkpt><trkpt lat="47.78735228965624" lon="7.06584639397411"><ele>511.0</ele><time>2026-03-29T13:52:00Z</time></trkpt><trkpt lat="47.78726978072885" lon="7.06576132213508"><ele>511.0</ele><time>2026-03-29T13:52:01Z</time></trkpt><trkpt lat="47.787190175061035" lon="7.0656793669887135"><ele>511.0</ele><time>2026-03-29T13:52:02Z</time></trkpt><trkpt lat="47.78711400386634" lon="7.065588417646281"><ele>511.0</ele><time>2026-03-29T13:52:03Z</time></trkpt><trkpt lat="47.78702598804724" lon="7.0654766668793"><ele>511.0</ele><time>2026-03-29T13:52:04Z</time></trkpt><trkpt lat="47.78692466058165" lon="7.0653353003487"><ele>511.0</ele><time>2026-03-29T13:52:05Z</time></trkpt><trkpt lat="47.786818946261675" lon="7.06519121260773"><ele>505.6666666666667</ele><time>2026-03-29T13:52:06Z</time></trkpt><trkpt lat="47.78671985092951" lon="7.065038489047184"><ele>500.33333333333337</ele><time>2026-03-29T13:52:07Z</time></trkpt><trkpt lat="47.78661329826969" lon="7.064874216125302"><ele>495.0</ele><time>2026-03-29T13:52:08Z</time></trkpt><trkpt lat="47.78650784561689" lon="7.06470724550378"><ele>495.0</ele><time>2026-03-29T13:52:09Z</time></trkpt><trkpt lat="47.786407668528796" lon="7.064531070682772"><ele>495.0</ele><time>2026-03-29T13:52:10Z</time></trkpt><trkpt lat="47.78630972622022" lon="7.0643332482467684"><ele>495.0</ele><time>2026-03-29T13:52:11Z</time></trkpt><trkpt lat="47.78622444139196" lon="7.064093401995697"><ele>498.0</ele><time>2026-03-29T13:52:12Z</time></trkpt><trkpt lat="47.786165458750524" lon="7.0638130686988285"><ele>501.0</ele><time>2026-03-29T13:52:13Z</time></trkpt><trkpt lat="47.7861165832367" lon="7.063516221298761"><ele>504.0</ele><time>2026-03-29T13:52:14Z</time></trkpt><trkpt lat="47.78608539575649" lon="7.0631877718786304"><ele>507.0</ele><time>2026-03-29T13:52:15Z</time></trkpt><trkpt lat="47.78606853036433" lon="7.0628607436879935"><ele>510.0</ele><time>2026-03-29T13:52:16Z</time></trkpt><trkpt lat="47.78605667675305" lon="7.0625430155162325"><ele>513.0</ele><time>2026-03-29T13:52:17Z</time></trkpt><trkpt lat="47.78603935723941" lon="7.062220335572853"><ele>496.0</ele><time>2026-03-29T13:52:18Z</time></trkpt><trkpt lat="47.786004432563956" lon="7.061891890545228"><ele>479.0</ele><time>2026-03-29T13:52:19Z</time></trkpt><trkpt lat="47.78595329267165" lon="7.061558834006025"><ele>479.0</ele><time>2026-03-29T13:52:20Z</time></trkpt><trkpt lat="47.78591074036848" lon="7.06121835589"><ele>479.0</ele><time>2026-03-29T13:52:21Z</time></trkpt><trkpt lat="47.78588406338211" lon="7.060886428606136"><ele>479.0</ele><time>2026-03-29T13:52:22Z</time></trkpt><trkpt lat="47.785855300820174" lon="7.060567429750016"><ele>479.0</ele><time>2026-03-29T13:52:23Z</time></trkpt><trkpt lat="47.78579704774109" lon="7.060268272892713"><ele>479.0</ele><time>2026-03-29T13:52:24Z</time></trkpt><trkpt lat="47.78575525892023" lon="7.060017308492682"><ele>477.5</ele><time>2026-03-29T13:52:25Z</time></trkpt><trkpt lat="47.78571927443564" lon="7.05975306505262"><ele>476.0</ele><time>2026-03-29T13:52:26Z</time></trkpt><trkpt lat="47.78570469506783" lon="7.0595970211750805"><ele>474.5</ele><time>2026-03-29T13:52:27Z</time></trkpt><trkpt lat="47.78572094824184" lon="7.059419461356231"><ele>473.0</ele><time>2026-03-29T13:52:28Z</time></trkpt><trkpt lat="47.7857513755856" lon="7.059234291207173"><ele>472.59999999999997</ele><time>2026-03-29T13:52:29Z</time></trkpt><trkpt lat="47.78575724733751" lon="7.059085544317279"><ele>472.19999999999993</ele><time>2026-03-29T13:52:30Z</time></trkpt><trkpt lat="47.78573190408048" lon="7.05896895553067"><ele>471.8</ele><time>2026-03-29T13:52:31Z</time></trkpt><trkpt lat="47.785678089454535" lon="7.058873632854425"><ele>471.4</ele><time>2026-03-29T13:52:32Z</time></trkpt><trkpt lat="47.78557872661411" lon="7.058899687053201"><ele>471.0</ele><time>2026-03-29T13:52:33Z</time></trkpt><trkpt lat="47.78549278571726" lon="7.05893475688611"><ele>471.0</ele><time>2026-03-29T13:52:34Z</time></trkpt><trkpt lat="47.785412704175805" lon="7.058947894996498"><ele>471.0</ele><time>2026-03-29T13:52:35Z</time></trkpt><trkpt lat="47.78548705410975" lon="7.05932482808841"><ele>471.0</ele><time>2026-03-29T13:52:36Z</time></trkpt><trkpt lat="47.785502562425506" lon="7.059471980302181"><ele>471.0</ele><time>2026-03-29T13:52:37Z</time></trkpt><trkpt lat="47.78546039571273" lon="7.059632928889329"><ele>471.66666666666663</ele><time>2026-03-29T13:52:38Z</time></trkpt><trkpt lat="47.78539467008907" lon="7.059843316430803"><ele>472.3333333333333</ele><time>2026-03-29T13:52:39Z</time></trkpt><trkpt lat="47.78528809716845" lon="7.0601296519065055"><ele>473.0</ele><time>2026-03-29T13:52:40Z</time></trkpt><trkpt lat="47.7852053944208" lon="7.060338945423564"><ele>469.2</ele><time>2026-03-29T13:52:41Z</time></trkpt><trkpt lat="47.78512790432856" lon="7.060491234963777"><ele>465.4</ele><time>2026-03-29T13:52:42Z</time></trkpt><trkpt lat="47.785068946075164" lon="7.060542036287685"><ele>461.59999999999997</ele><time>2026-03-29T13:52:43Z</time></trkpt><trkpt lat="47.78499986899226" lon="7.0605025804201675"><ele>457.79999999999995</ele><time>2026-03-29T13:52:45Z</time></trkpt><trkpt lat="47.78495210138287" lon="7.0604000070783615"><ele>454.0</ele><time>2026-03-29T13:52:46Z</time></trkpt><trkpt lat="47.78499919439372" lon="7.060266181671748"><ele>454.0</ele><time>2026-03-29T13:52:47Z</time></trkpt><trkpt lat="47.78508455862097" lon="7.060166183866747"><ele>454.0</ele><time>2026-03-29T13:52:48Z</time></trkpt><trkpt lat="47.78518199982849" lon="7.0599763548808125"><ele>454.0</ele><time>2026-03-29T13:52:49Z</time></trkpt><trkpt lat="47.78520521279303" lon="7.0597665723709495"><ele>454.0</ele><time>2026-03-29T13:52:50Z</time></trkpt><trkpt lat="47.785135846072215" lon="7.059560343840003"><ele>451.6666666666667</ele><time>2026-03-29T13:52:51Z</time></trkpt><trkpt lat="47.78505952451757" lon="7.059381663221518"><ele>449.33333333333337</ele><time>2026-03-29T13:52:52Z</time></trkpt><trkpt lat="47.784967673178045" lon="7.059112880748332"><ele>447.0</ele><time>2026-03-29T13:52:53Z</time></trkpt><trkpt lat="47.78495107733217" lon="7.058868310249164"><ele>445.66666666666663</ele><time>2026-03-29T13:52:54Z</time></trkpt><trkpt lat="47.78497434208034" lon="7.058630801176191"><ele>444.3333333333333</ele><time>2026-03-29T13:52:55Z</time></trkpt><trkpt lat="47.78503362861947" lon="7.0584003092038765"><ele>443.0</ele><time>2026-03-29T13:52:56Z</time></trkpt><trkpt lat="47.78511728648132" lon="7.058191911646625"><ele>449.25</ele><time>2026-03-29T13:52:57Z</time></trkpt><trkpt lat="47.78521555279356" lon="7.0579580053366575"><ele>455.5</ele><time>2026-03-29T13:52:58Z</time></trkpt><trkpt lat="47.785282247775484" lon="7.057771674672015"><ele>461.75</ele><time>2026-03-29T13:52:59Z</time></trkpt><trkpt lat="47.78532393614131" lon="7.057643132488823"><ele>468.0</ele><time>2026-03-29T13:53:00Z</time></trkpt><trkpt lat="47.78534898533706" lon="7.057529675893522"><ele>466.79999999999995</ele><time>2026-03-29T13:53:01Z</time></trkpt><trkpt lat="47.78529731843401" lon="7.057403904236159"><ele>465.59999999999997</ele><time>2026-03-29T13:53:02Z</time></trkpt><trkpt lat="47.785218792211" lon="7.057341614421646"><ele>464.40000000000003</ele><time>2026-03-29T13:53:03Z</time></trkpt><trkpt lat="47.78511573382911" lon="7.057351164549356"><ele>463.20000000000005</ele><time>2026-03-29T13:53:04Z</time></trkpt><trkpt lat="47.784988232753975" lon="7.057414832903054"><ele>462.0</ele><time>2026-03-29T13:53:05Z</time></trkpt><trkpt lat="47.78485806066889" lon="7.05757810489017"><ele>455.66666666666663</ele><time>2026-03-29T13:53:06Z</time></trkpt><trkpt lat="47.78471348308717" lon="7.057759219785235"><ele>449.3333333333333</ele><time>2026-03-29T13:53:07Z</time></trkpt><trkpt lat="47.78454669468753" lon="7.057917665770879"><ele>443.0</ele><time>2026-03-29T13:53:08Z</time></trkpt><trkpt lat="47.78439815047416" lon="7.058056515311213"><ele>442.3333333333333</ele><time>2026-03-29T13:53:09Z</time></trkpt><trkpt lat="47.7842648447771" lon="7.058150839298667"><ele>441.66666666666663</ele><time>2026-03-29T13:53:10Z</time></trkpt><trkpt lat="47.784119639737106" lon="7.058162137847604"><ele>441.0</ele><time>2026-03-29T13:53:11Z</time></trkpt><trkpt lat="47.783934618559165" lon="7.058182425428361"><ele>441.0</ele><time>2026-03-29T13:53:12Z</time></trkpt><trkpt lat="47.78375766835567" lon="7.058180788795228"><ele>441.0</ele><time>2026-03-29T13:53:13Z</time></trkpt><trkpt lat="47.78359812579378" lon="7.058156575948169"><ele>441.0</ele><time>2026-03-29T13:53:14Z</time></trkpt><trkpt lat="47.78346185223246" lon="7.058086209553002"><ele>436.33333333333337</ele><time>2026-03-29T13:53:15Z</time></trkpt><trkpt lat="47.783307494079146" lon="7.057974419475558"><ele>431.6666666666667</ele><time>2026-03-29T13:53:16Z</time></trkpt><trkpt lat="47.78313027900608" lon="7.057820257996571"><ele>427.0</ele><time>2026-03-29T13:53:17Z</time></trkpt><trkpt lat="47.78293898815709" lon="7.057670485695429"><ele>427.0</ele><time>2026-03-29T13:53:18Z</time></trkpt><trkpt lat="47.782758110079065" lon="7.057551958158593"><ele>427.0</ele><time>2026-03-29T13:53:19Z</time></trkpt><trkpt lat="47.782579609036894" lon="7.057462865704915"><ele>427.0</ele><time>2026-03-29T13:53:20Z</time></trkpt><trkpt lat="47.78238678435219" lon="7.057441827027756"><ele>426.0</ele><time>2026-03-29T13:53:21Z</time></trkpt><trkpt lat="47.78217842775565" lon="7.057447893933204"><ele>425.0</ele><time>2026-03-29T13:53:22Z</time></trkpt><trkpt lat="47.781975744789015" lon="7.057518314689986"><ele>424.0</ele><time>2026-03-29T13:53:23Z</time></trkpt><trkpt lat="47.781765342778705" lon="7.0576407213399195"><ele>421.0</ele><time>2026-03-29T13:53:24Z</time></trkpt><trkpt lat="47.781544803103685" lon="7.057756812607199"><ele>418.0</ele><time>2026-03-29T13:53:25Z</time></trkpt><trkpt lat="47.78132403388909" lon="7.0578505050844615"><ele>418.0</ele><time>2026-03-29T13:53:26Z</time></trkpt><trkpt lat="47.78107094879112" lon="7.0578890250813755"><ele>418.0</ele><time>2026-03-29T13:53:27Z</time></trkpt><trkpt lat="47.78077855494702" lon="7.057883302126882"><ele>417.5</ele><time>2026-03-29T13:53:28Z</time></trkpt><trkpt lat="47.78048144323098" lon="7.0578721531649276"><ele>417.0</ele><time>2026-03-29T13:53:29Z</time></trkpt><trkpt lat="47.780229535582556" lon="7.057859295370293"><ele>415.66666666666663</ele><time>2026-03-29T13:53:30Z</time></trkpt><trkpt lat="47.77999596337149" lon="7.05783203110595"><ele>414.3333333333333</ele><time>2026-03-29T13:53:31Z</time></trkpt><trkpt lat="47.779801158673685" lon="7.057781597912605"><ele>413.0</ele><time>2026-03-29T13:53:32Z</time></trkpt><trkpt lat="47.77966006491241" lon="7.057710128839999"><ele>413.0</ele><time>2026-03-29T13:53:33Z</time></trkpt><trkpt lat="47.77953136627152" lon="7.05766006467648"><ele>413.0</ele><time>2026-03-29T13:53:34Z</time></trkpt><trkpt lat="47.77940183233979" lon="7.057639612543505"><ele>413.0</ele><time>2026-03-29T13:53:35Z</time></trkpt><trkpt lat="47.77928133403402" lon="7.057612156809948"><ele>413.0</ele><time>2026-03-29T13:53:36Z</time></trkpt><trkpt lat="47.77916335152314" lon="7.057568552862254"><ele>411.0</ele><time>2026-03-29T13:53:37Z</time></trkpt><trkpt lat="47.779035942414666" lon="7.057535339691385"><ele>409.0</ele><time>2026-03-29T13:53:38Z</time></trkpt><trkpt lat="47.778903306639656" lon="7.057498356142172"><ele>407.0</ele><time>2026-03-29T13:53:39Z</time></trkpt><trkpt lat="47.778768541841615" lon="7.057451397395399"><ele>405.0</ele><time>2026-03-29T13:53:40Z</time></trkpt><trkpt lat="47.77862975736433" lon="7.0574013264846975"><ele>405.0</ele><time>2026-03-29T13:53:41Z</time></trkpt><trkpt lat="47.77850029287362" lon="7.057346709443532"><ele>405.0</ele><time>2026-03-29T13:53:42Z</time></trkpt><trkpt lat="47.7783875258949" lon="7.057309620995"><ele>405.0</ele><time>2026-03-29T13:53:43Z</time></trkpt><trkpt lat="47.7782744958323" lon="7.057290404235047"><ele>405.0</ele><time>2026-03-29T13:53:44Z</time></trkpt><trkpt lat="47.77815513528636" lon="7.057303038882271"><ele>405.0</ele><time>2026-03-29T13:53:45Z</time></trkpt><trkpt lat="47.77804356128906" lon="7.057351105905728"><ele>405.0</ele><time>2026-03-29T13:53:46Z</time></trkpt><trkpt lat="47.777936647577015" lon="7.057413015920019"><ele>405.0</ele><time>2026-03-29T13:53:47Z</time></trkpt><trkpt lat="47.77782976681134" lon="7.057453233570265"><ele>405.0</ele><time>2026-03-29T13:53:48Z</time></trkpt><trkpt lat="47.77772062503132" lon="7.057431016924764"><ele>402.5</ele><time>2026-03-29T13:53:49Z</time></trkpt><trkpt lat="47.777616986528805" lon="7.057436317319221"><ele>400.0</ele><time>2026-03-29T13:53:50Z</time></trkpt><trkpt lat="47.77754238007768" lon="7.057416011228229"><ele>397.5</ele><time>2026-03-29T13:53:51Z</time></trkpt><trkpt lat="47.77747925600238" lon="7.057394587879262"><ele>395.0</ele><time>2026-03-29T13:53:52Z</time></trkpt><trkpt lat="47.77739549719263" lon="7.057378466686103"><ele>392.5</ele><time>2026-03-29T13:53:53Z</time></trkpt><trkpt lat="47.77730386758154" lon="7.057348439379621"><ele>390.0</ele><time>2026-03-29T13:53:54Z</time></trkpt><trkpt lat="47.777212685385244" lon="7.057293919477984"><ele>390.0</ele><time>2026-03-29T13:53:55Z</time></trkpt><trkpt lat="47.7771264244938" lon="7.05721794239139"><ele>390.0</ele><time>2026-03-29T13:53:56Z</time></trkpt><trkpt lat="47.77703419478993" lon="7.057145680144305"><ele>390.0</ele><time>2026-03-29T13:53:57Z</time></trkpt><trkpt lat="47.77694982592975" lon="7.057110775527256"><ele>390.0</ele><time>2026-03-29T13:53:58Z</time></trkpt><trkpt lat="47.77686398469584" lon="7.057094124892661"><ele>390.0</ele><time>2026-03-29T13:53:59Z</time></trkpt><trkpt lat="47.776796813540095" lon="7.057090062639276"><ele>390.0</ele><time>2026-03-29T13:54:00Z</time></trkpt><trkpt lat="47.77670113426493" lon="7.057061787505499"><ele>389.4</ele><time>2026-03-29T13:54:02Z</time></trkpt><trkpt lat="47.77673506425182" lon="7.056848819617149"><ele>388.8</ele><time>2026-03-29T13:54:14Z</time></trkpt><trkpt lat="47.77676209955819" lon="7.056728422207339"><ele>388.20000000000005</ele><time>2026-03-29T13:54:15Z</time></trkpt><trkpt lat="47.77679592878682" lon="7.0566201196773015"><ele>387.6</ele><time>2026-03-29T13:54:16Z</time></trkpt><trkpt lat="47.77682435169771" lon="7.05650207847239"><ele>387.0</ele><time>2026-03-29T13:54:17Z</time></trkpt><trkpt lat="47.77684003132616" lon="7.056352777769882"><ele>387.0</ele><time>2026-03-29T13:54:18Z</time></trkpt><trkpt lat="47.776839990303436" lon="7.056189254740121"><ele>387.0</ele><time>2026-03-29T13:54:19Z</time></trkpt><trkpt lat="47.77683125614407" lon="7.05601855045624"><ele>387.0</ele><time>2026-03-29T13:54:20Z</time></trkpt><trkpt lat="47.776816138744294" lon="7.055838045072146"><ele>387.0</ele><time>2026-03-29T13:54:21Z</time></trkpt><trkpt lat="47.77681164334801" lon="7.0556568197477"><ele>387.5</ele><time>2026-03-29T13:54:22Z</time></trkpt><trkpt lat="47.77682130897629" lon="7.05548892147684"><ele>388.0</ele><time>2026-03-29T13:54:23Z</time></trkpt><trkpt lat="47.7768396915249" lon="7.055318888791862"><ele>388.5</ele><time>2026-03-29T13:54:24Z</time></trkpt><trkpt lat="47.776881839649455" lon="7.055161497728161"><ele>389.0</ele><time>2026-03-29T13:54:25Z</time></trkpt><trkpt lat="47.77697093502573" lon="7.055039933312736"><ele>389.5</ele><time>2026-03-29T13:54:26Z</time></trkpt><trkpt lat="47.777079452705586" lon="7.054941431393764"><ele>390.0</ele><time>2026-03-29T13:54:27Z</time></trkpt><trkpt lat="47.77717972898887" lon="7.054828231609262"><ele>390.5</ele><time>2026-03-29T13:54:28Z</time></trkpt><trkpt lat="47.7772643365549" lon="7.054704301682098"><ele>391.0</ele><time>2026-03-29T13:54:29Z</time></trkpt><trkpt lat="47.77732651243526" lon="7.054554516178228"><ele>391.0</ele><time>2026-03-29T13:54:30Z</time></trkpt><trkpt lat="47.777369601924285" lon="7.0543692737476"><ele>391.0</ele><time>2026-03-29T13:54:31Z</time></trkpt><trkpt lat="47.7774035488172" lon="7.054179213685684"><ele>391.0</ele><time>2026-03-29T13:54:32Z</time></trkpt><trkpt lat="47.777439109306265" lon="7.0539844059410335"><ele>391.0</ele><time>2026-03-29T13:54:33Z</time></trkpt><trkpt lat="47.77747582223275" lon="7.053788752922944"><ele>391.75</ele><time>2026-03-29T13:54:34Z</time></trkpt><trkpt lat="47.7775111301566" lon="7.053597470601717"><ele>392.5</ele><time>2026-03-29T13:54:35Z</time></trkpt><trkpt lat="47.777540212299314" lon="7.053400573439204"><ele>393.25</ele><time>2026-03-29T13:54:36Z</time></trkpt><trkpt lat="47.77756326293282" lon="7.053196939141194"><ele>394.0</ele><time>2026-03-29T13:54:37Z</time></trkpt><trkpt lat="47.7775876490861" lon="7.052986851543199"><ele>395.0</ele><time>2026-03-29T13:54:38Z</time></trkpt><trkpt lat="47.77762585292499" lon="7.052783641895449"><ele>396.0</ele><time>2026-03-29T13:54:39Z</time></trkpt><trkpt lat="47.777683118667895" lon="7.052585026741029"><ele>397.0</ele><time>2026-03-29T13:54:40Z</time></trkpt><trkpt lat="47.777764167475446" lon="7.052396960730827"><ele>398.0</ele><time>2026-03-29T13:54:41Z</time></trkpt><trkpt lat="47.77786788686771" lon="7.052229603379502"><ele>398.0</ele><time>2026-03-29T13:54:42Z</time></trkpt><trkpt lat="47.777958361300605" lon="7.0520679278948535"><ele>398.0</ele><time>2026-03-29T13:54:43Z</time></trkpt><trkpt lat="47.77800075401663" lon="7.051860392676962"><ele>398.0</ele><time>2026-03-29T13:54:44Z</time></trkpt><trkpt lat="47.777982421835524" lon="7.0515977856625"><ele>398.25</ele><time>2026-03-29T13:54:45Z</time></trkpt><trkpt lat="47.7779590141314" lon="7.051380530346136"><ele>398.5</ele><time>2026-03-29T13:54:46Z</time></trkpt><trkpt lat="47.77803053091148" lon="7.051186933353484"><ele>398.75</ele><time>2026-03-29T13:54:47Z</time></trkpt><trkpt lat="47.778113234675544" lon="7.050995134927378"><ele>399.0</ele><time>2026-03-29T13:54:48Z</time></trkpt><trkpt lat="47.778256549867685" lon="7.050777429133815"><ele>399.33333333333337</ele><time>2026-03-29T13:54:49Z</time></trkpt><trkpt lat="47.77837966520193" lon="7.050568626314382"><ele>399.6666666666667</ele><time>2026-03-29T13:54:50Z</time></trkpt><trkpt lat="47.77847370538347" lon="7.050314059783592"><ele>400.0</ele><time>2026-03-29T13:54:51Z</time></trkpt><trkpt lat="47.778560708398125" lon="7.050023646519233"><ele>407.0</ele><time>2026-03-29T13:54:52Z</time></trkpt><trkpt lat="47.77867218150072" lon="7.049746891883741"><ele>414.0</ele><time>2026-03-29T13:54:53Z</time></trkpt><trkpt lat="47.77880393036676" lon="7.049490150875547"><ele>421.0</ele><time>2026-03-29T13:54:54Z</time></trkpt><trkpt lat="47.77891361904943" lon="7.0492469788063055"><ele>421.5</ele><time>2026-03-29T13:54:55Z</time></trkpt><trkpt lat="47.77899237408959" lon="7.048939318444198"><ele>422.0</ele><time>2026-03-29T13:54:56Z</time></trkpt><trkpt lat="47.77906548223352" lon="7.0485954099866746"><ele>424.5</ele><time>2026-03-29T13:54:57Z</time></trkpt><trkpt lat="47.779176460392776" lon="7.048233398917937"><ele>427.0</ele><time>2026-03-29T13:54:58Z</time></trkpt><trkpt lat="47.779284158251194" lon="7.0479176402562835"><ele>426.33333333333337</ele><time>2026-03-29T13:54:59Z</time></trkpt><trkpt lat="47.77940874366929" lon="7.047673516202014"><ele>425.66666666666663</ele><time>2026-03-29T13:55:00Z</time></trkpt><trkpt lat="47.7795488057538" lon="7.047481344062032"><ele>425.0</ele><time>2026-03-29T13:55:01Z</time></trkpt><trkpt lat="47.77973799669557" lon="7.047298441819917"><ele>425.0</ele><time>2026-03-29T13:55:02Z</time></trkpt><trkpt lat="47.779953531914444" lon="7.047092783693715"><ele>425.0</ele><time>2026-03-29T13:55:03Z</time></trkpt><trkpt lat="47.78015982606163" lon="7.046931071201934"><ele>427.0</ele><time>2026-03-29T13:55:04Z</time></trkpt><trkpt lat="47.78033333176554" lon="7.046788560723244"><ele>429.0</ele><time>2026-03-29T13:55:05Z</time></trkpt><trkpt lat="47.780469156480784" lon="7.046644515353682"><ele>431.0</ele><time>2026-03-29T13:55:06Z</time></trkpt><trkpt lat="47.780580508309136" lon="7.046440729671834"><ele>431.0</ele><time>2026-03-29T13:55:07Z</time></trkpt><trkpt lat="47.78067332759216" lon="7.046166170319973"><ele>431.0</ele><time>2026-03-29T13:55:08Z</time></trkpt><trkpt lat="47.78076014006219" lon="7.045903619215097"><ele>431.0</ele><time>2026-03-29T13:55:09Z</time></trkpt><trkpt lat="47.780830809185154" lon="7.045659338058942"><ele>432.0</ele><time>2026-03-29T13:55:10Z</time></trkpt><trkpt lat="47.780878015698" lon="7.04536550440253"><ele>433.0</ele><time>2026-03-29T13:55:11Z</time></trkpt><trkpt lat="47.78089276443066" lon="7.045025049830751"><ele>434.0</ele><time>2026-03-29T13:55:12Z</time></trkpt><trkpt lat="47.78093042666313" lon="7.044663380405253"><ele>434.5</ele><time>2026-03-29T13:55:13Z</time></trkpt><trkpt lat="47.780981256377885" lon="7.044316665998926"><ele>435.0</ele><time>2026-03-29T13:55:14Z</time></trkpt><trkpt lat="47.78104396699315" lon="7.043994828386206"><ele>444.0</ele><time>2026-03-29T13:55:15Z</time></trkpt><trkpt lat="47.781075857293565" lon="7.043720996417728"><ele>453.0</ele><time>2026-03-29T13:55:16Z</time></trkpt><trkpt lat="47.78109873948389" lon="7.043493403577177"><ele>462.0</ele><time>2026-03-29T13:55:17Z</time></trkpt><trkpt lat="47.78112531392781" lon="7.043308317756582"><ele>460.0</ele><time>2026-03-29T13:55:18Z</time></trkpt><trkpt lat="47.78120202539148" lon="7.043111867640674"><ele>458.0</ele><time>2026-03-29T13:55:19Z</time></trkpt><trkpt lat="47.7813211622902" lon="7.042870779495719"><ele>456.0</ele><time>2026-03-29T13:55:20Z</time></trkpt><trkpt lat="47.78144371791775" lon="7.04261517060817"><ele>457.5</ele><time>2026-03-29T13:55:21Z</time></trkpt><trkpt lat="47.78153934040008" lon="7.042428748484783"><ele>459.0</ele><time>2026-03-29T13:55:22Z</time></trkpt><trkpt lat="47.78165634075984" lon="7.042348892820605"><ele>460.5</ele><time>2026-03-29T13:55:23Z</time></trkpt><trkpt lat="47.78179023443877" lon="7.042308753999575"><ele>462.0</ele><time>2026-03-29T13:55:24Z</time></trkpt><trkpt lat="47.78196673815035" lon="7.04224806794789"><ele>462.0</ele><time>2026-03-29T13:55:25Z</time></trkpt><trkpt lat="47.78213730141077" lon="7.042178363519179"><ele>462.0</ele><time>2026-03-29T13:55:26Z</time></trkpt><trkpt lat="47.78225410614703" lon="7.042042626315519"><ele>462.0</ele><time>2026-03-29T13:55:27Z</time></trkpt><trkpt lat="47.78233400292285" lon="7.041883856794756"><ele>462.0</ele><time>2026-03-29T13:55:28Z</time></trkpt><trkpt lat="47.782392973118554" lon="7.041741768774557"><ele>462.0</ele><time>2026-03-29T13:55:29Z</time></trkpt><trkpt lat="47.78240076852937" lon="7.041600286949231"><ele>462.0</ele><time>2026-03-29T13:55:30Z</time></trkpt><trkpt lat="47.7823347065666" lon="7.0414452233427705"><ele>462.0</ele><time>2026-03-29T13:55:31Z</time></trkpt><trkpt lat="47.782232388236956" lon="7.041270821184159"><ele>461.0</ele><time>2026-03-29T13:55:32Z</time></trkpt><trkpt lat="47.7821212846505" lon="7.041062411621898"><ele>460.0</ele><time>2026-03-29T13:55:33Z</time></trkpt><trkpt lat="47.782060961264385" lon="7.040888711720446"><ele>459.0</ele><time>2026-03-29T13:55:34Z</time></trkpt><trkpt lat="47.782045789927516" lon="7.040753825493252"><ele>458.0</ele><time>2026-03-29T13:55:35Z</time></trkpt><trkpt lat="47.78208773046116" lon="7.040650644897429"><ele>462.0</ele><time>2026-03-29T13:55:36Z</time></trkpt><trkpt lat="47.782170410336256" lon="7.0405803803694935"><ele>466.0</ele><time>2026-03-29T13:55:37Z</time></trkpt><trkpt lat="47.78231523630958" lon="7.040608994790161"><ele>470.0</ele><time>2026-03-29T13:55:38Z</time></trkpt><trkpt lat="47.782475418137146" lon="7.040582239706695"><ele>474.0</ele><time>2026-03-29T13:55:39Z</time></trkpt><trkpt lat="47.78262667636367" lon="7.0404873214084915"><ele>472.5</ele><time>2026-03-29T13:55:40Z</time></trkpt><trkpt lat="47.78282102376584" lon="7.040287630655323"><ele>471.0</ele><time>2026-03-29T13:55:41Z</time></trkpt><trkpt lat="47.78300112433289" lon="7.040110297454318"><ele>468.66666666666663</ele><time>2026-03-29T13:55:42Z</time></trkpt><trkpt lat="47.783110334000604" lon="7.039957572462454"><ele>466.3333333333333</ele><time>2026-03-29T13:55:43Z</time></trkpt><trkpt lat="47.78318833546198" lon="7.039747033704465"><ele>464.0</ele><time>2026-03-29T13:55:44Z</time></trkpt><trkpt lat="47.7832349798294" lon="7.039483836093578"><ele>464.0</ele><time>2026-03-29T13:55:45Z</time></trkpt><trkpt lat="47.783332527751845" lon="7.039260884789546"><ele>464.0</ele><time>2026-03-29T13:55:46Z</time></trkpt><trkpt lat="47.78346781016368" lon="7.039033237969292"><ele>464.0</ele><time>2026-03-29T13:55:47Z</time></trkpt><trkpt lat="47.78360019197891" lon="7.03881532201883"><ele>465.66666666666663</ele><time>2026-03-29T13:55:48Z</time></trkpt><trkpt lat="47.7837464443477" lon="7.038678623625216"><ele>467.33333333333337</ele><time>2026-03-29T13:55:49Z</time></trkpt><trkpt lat="47.78390763841259" lon="7.038591232032139"><ele>469.0</ele><time>2026-03-29T13:55:50Z</time></trkpt><trkpt lat="47.78410514943727" lon="7.038551004694091"><ele>469.0</ele><time>2026-03-29T13:55:51Z</time></trkpt><trkpt lat="47.78433046606653" lon="7.038471459961641"><ele>469.0</ele><time>2026-03-29T13:55:52Z</time></trkpt><trkpt lat="47.78453555949971" lon="7.038347972506237"><ele>471.0</ele><time>2026-03-29T13:55:53Z</time></trkpt><trkpt lat="47.78474426477934" lon="7.038170164476308"><ele>473.0</ele><time>2026-03-29T13:55:54Z</time></trkpt><trkpt lat="47.78492014275388" lon="7.038038294869369"><ele>475.0</ele><time>2026-03-29T13:55:55Z</time></trkpt><trkpt lat="47.785027749118655" lon="7.037937797040429"><ele>475.0</ele><time>2026-03-29T13:55:56Z</time></trkpt><trkpt lat="47.785121982356756" lon="7.037757764058608"><ele>475.0</ele><time>2026-03-29T13:55:57Z</time></trkpt><trkpt lat="47.78521552731545" lon="7.037484227476563"><ele>475.0</ele><time>2026-03-29T13:55:58Z</time></trkpt><trkpt lat="47.78533499717147" lon="7.037253964782427"><ele>478.5</ele><time>2026-03-29T13:55:59Z</time></trkpt><trkpt lat="47.78550542886287" lon="7.037047271607047"><ele>482.0</ele><time>2026-03-29T13:56:00Z</time></trkpt><trkpt lat="47.785684140228" lon="7.036829742721394"><ele>483.0</ele><time>2026-03-29T13:56:01Z</time></trkpt><trkpt lat="47.78584126490663" lon="7.036630549581854"><ele>484.0</ele><time>2026-03-29T13:56:02Z</time></trkpt><trkpt lat="47.78598381948776" lon="7.03633923058965"><ele>485.0</ele><time>2026-03-29T13:56:03Z</time></trkpt><trkpt lat="47.78609137363102" lon="7.036070435366152"><ele>485.0</ele><time>2026-03-29T13:56:04Z</time></trkpt><trkpt lat="47.78619792549559" lon="7.03593794992385"><ele>485.0</ele><time>2026-03-29T13:56:05Z</time></trkpt><trkpt lat="47.7863349767603" lon="7.03589605226916"><ele>485.0</ele><time>2026-03-29T13:56:06Z</time></trkpt><trkpt lat="47.78652586218008" lon="7.035861023186819"><ele>485.0</ele><time>2026-03-29T13:56:07Z</time></trkpt><trkpt lat="47.7867625970459" lon="7.035851237784479"><ele>485.0</ele><time>2026-03-29T13:56:08Z</time></trkpt><trkpt lat="47.78694981965528" lon="7.035863692100584"><ele>485.0</ele><time>2026-03-29T13:56:09Z</time></trkpt><trkpt lat="47.787104817995456" lon="7.0358201016320105"><ele>486.66666666666663</ele><time>2026-03-29T13:56:10Z</time></trkpt><trkpt lat="47.78725782226131" lon="7.035680811536185"><ele>488.33333333333337</ele><time>2026-03-29T13:56:11Z</time></trkpt><trkpt lat="47.78744251652601" lon="7.0354734524484694"><ele>490.0</ele><time>2026-03-29T13:56:12Z</time></trkpt><trkpt lat="47.78767299542391" lon="7.0352674397549055"><ele>487.5</ele><time>2026-03-29T13:56:13Z</time></trkpt><trkpt lat="47.78792819166258" lon="7.0350595825578255"><ele>485.0</ele><time>2026-03-29T13:56:14Z</time></trkpt><trkpt lat="47.78819309806736" lon="7.034843900956188"><ele>485.0</ele><time>2026-03-29T13:56:15Z</time></trkpt><trkpt lat="47.78845501569752" lon="7.034654001189357"><ele>485.0</ele><time>2026-03-29T13:56:16Z</time></trkpt><trkpt lat="47.78866240925667" lon="7.034451419895138"><ele>485.0</ele><time>2026-03-29T13:56:17Z</time></trkpt><trkpt lat="47.788847955756985" lon="7.034291961682573"><ele>485.0</ele><time>2026-03-29T13:56:18Z</time></trkpt><trkpt lat="47.789032862722536" lon="7.034144661729004"><ele>485.0</ele><time>2026-03-29T13:56:19Z</time></trkpt><trkpt lat="47.789199323867145" lon="7.034017261602459"><ele>491.3333333333333</ele><time>2026-03-29T13:56:20Z</time></trkpt><trkpt lat="47.78937516134802" lon="7.033955618137094"><ele>497.66666666666663</ele><time>2026-03-29T13:56:21Z</time></trkpt><trkpt lat="47.78955723514847" lon="7.033872495818066"><ele>504.0</ele><time>2026-03-29T13:56:22Z</time></trkpt><trkpt lat="47.7897553785326" lon="7.033761430881961"><ele>504.0</ele><time>2026-03-29T13:56:23Z</time></trkpt><trkpt lat="47.789955976336614" lon="7.033667826162961"><ele>504.0</ele><time>2026-03-29T13:56:24Z</time></trkpt><trkpt lat="47.790154991085444" lon="7.0335827779379025"><ele>504.0</ele><time>2026-03-29T13:56:25Z</time></trkpt><trkpt lat="47.790341076929266" lon="7.0334797827524085"><ele>506.0</ele><time>2026-03-29T13:56:26Z</time></trkpt><trkpt lat="47.79050951749248" lon="7.0333807742258845"><ele>508.0</ele><time>2026-03-29T13:56:27Z</time></trkpt><trkpt lat="47.79067058847326" lon="7.033265755724706"><ele>510.0</ele><time>2026-03-29T13:56:28Z</time></trkpt><trkpt lat="47.790822812593895" lon="7.033138878685035"><ele>513.0</ele><time>2026-03-29T13:56:29Z</time></trkpt><trkpt lat="47.79097708899578" lon="7.032955061117598"><ele>516.0</ele><time>2026-03-29T13:56:30Z</time></trkpt><trkpt lat="47.79111592361653" lon="7.032734702980181"><ele>519.0</ele><time>2026-03-29T13:56:31Z</time></trkpt><trkpt lat="47.79123434718428" lon="7.032502814178145"><ele>519.0</ele><time>2026-03-29T13:56:32Z</time></trkpt><trkpt lat="47.7913382391048" lon="7.03227035894143"><ele>519.0</ele><time>2026-03-29T13:56:33Z</time></trkpt><trkpt lat="47.791411713157345" lon="7.032038970403946"><ele>519.0</ele><time>2026-03-29T13:56:34Z</time></trkpt><trkpt lat="47.79144081319534" lon="7.031779952532124"><ele>520.6666666666666</ele><time>2026-03-29T13:56:35Z</time></trkpt><trkpt lat="47.791436456245336" lon="7.031492152718576"><ele>522.3333333333333</ele><time>2026-03-29T13:56:36Z</time></trkpt><trkpt lat="47.791399923929255" lon="7.031173694149407"><ele>524.0</ele><time>2026-03-29T13:56:37Z</time></trkpt><trkpt lat="47.79136867189892" lon="7.030881024077535"><ele>523.4</ele><time>2026-03-29T13:56:38Z</time></trkpt><trkpt lat="47.791344931898465" lon="7.030638469712843"><ele>522.8</ele><time>2026-03-29T13:56:39Z</time></trkpt><trkpt lat="47.79133033720626" lon="7.0304625488513945"><ele>522.2</ele><time>2026-03-29T13:56:40Z</time></trkpt><trkpt lat="47.791344652156894" lon="7.03032570511883"><ele>521.6</ele><time>2026-03-29T13:56:41Z</time></trkpt><trkpt lat="47.79137514441203" lon="7.030229408883249"><ele>521.0</ele><time>2026-03-29T13:56:42Z</time></trkpt><trkpt lat="47.79144075233258" lon="7.03017811140246"><ele>521.0</ele><time>2026-03-29T13:56:43Z</time></trkpt><trkpt lat="47.79151898696542" lon="7.030195899710041"><ele>521.0</ele><time>2026-03-29T13:56:44Z</time></trkpt><trkpt lat="47.791540979491145" lon="7.030372030923926"><ele>521.0</ele><time>2026-03-29T13:56:45Z</time></trkpt><trkpt lat="47.79152846257631" lon="7.030567398381253"><ele>521.0</ele><time>2026-03-29T13:56:46Z</time></trkpt><trkpt lat="47.79154153223767" lon="7.030815195572262"><ele>522.0</ele><time>2026-03-29T13:56:47Z</time></trkpt><trkpt lat="47.79158439125518" lon="7.031066193053486"><ele>523.0</ele><time>2026-03-29T13:56:48Z</time></trkpt><trkpt lat="47.79166547449169" lon="7.031306008371758"><ele>524.0</ele><time>2026-03-29T13:56:49Z</time></trkpt><trkpt lat="47.79175091851561" lon="7.031464919324471"><ele>523.5</ele><time>2026-03-29T13:56:50Z</time></trkpt><trkpt lat="47.79186674312146" lon="7.0315638724989915"><ele>523.0</ele><time>2026-03-29T13:56:51Z</time></trkpt><trkpt lat="47.792010120093295" lon="7.031640448833401"><ele>522.5</ele><time>2026-03-29T13:56:52Z</time></trkpt><trkpt lat="47.79214903593273" lon="7.031630750158184"><ele>522.0</ele><time>2026-03-29T13:56:53Z</time></trkpt><trkpt lat="47.792277102514696" lon="7.031522688981074"><ele>523.6666666666666</ele><time>2026-03-29T13:56:54Z</time></trkpt><trkpt lat="47.79240282074412" lon="7.0313973006446036"><ele>525.3333333333333</ele><time>2026-03-29T13:56:55Z</time></trkpt><trkpt lat="47.792514459153416" lon="7.031221439853726"><ele>527.0</ele><time>2026-03-29T13:56:56Z</time></trkpt><trkpt lat="47.79257289859771" lon="7.030983632212063"><ele>527.0</ele><time>2026-03-29T13:56:57Z</time></trkpt><trkpt lat="47.79266121446341" lon="7.0307719467118455"><ele>527.0</ele><time>2026-03-29T13:56:58Z</time></trkpt><trkpt lat="47.792815804681474" lon="7.030682919228677"><ele>527.0</ele><time>2026-03-29T13:56:59Z</time></trkpt><trkpt lat="47.79293047465054" lon="7.030546737822852"><ele>527.0</ele><time>2026-03-29T13:57:00Z</time></trkpt><trkpt lat="47.79303457207696" lon="7.030393050788962"><ele>527.0</ele><time>2026-03-29T13:57:01Z</time></trkpt><trkpt lat="47.793135898934224" lon="7.030255869147878"><ele>527.0</ele><time>2026-03-29T13:57:02Z</time></trkpt><trkpt lat="47.79320122627363" lon="7.030068815857969"><ele>527.0</ele><time>2026-03-29T13:57:03Z</time></trkpt><trkpt lat="47.793231536955474" lon="7.029833865817399"><ele>529.75</ele><time>2026-03-29T13:57:04Z</time></trkpt><trkpt lat="47.79326671270826" lon="7.029620303917173"><ele>532.5</ele><time>2026-03-29T13:57:05Z</time></trkpt><trkpt lat="47.79334898115831" lon="7.0294961275166115"><ele>535.25</ele><time>2026-03-29T13:57:06Z</time></trkpt><trkpt lat="47.79344220020063" lon="7.029394361868042"><ele>538.0</ele><time>2026-03-29T13:57:07Z</time></trkpt><trkpt lat="47.79355412508519" lon="7.029299936786609"><ele>538.0</ele><time>2026-03-29T13:57:08Z</time></trkpt><trkpt lat="47.79365428458429" lon="7.029199989931872"><ele>538.0</ele><time>2026-03-29T13:57:09Z</time></trkpt><trkpt lat="47.79374406112844" lon="7.029137195990055"><ele>538.0</ele><time>2026-03-29T13:57:10Z</time></trkpt><trkpt lat="47.79382151357166" lon="7.029074073337116"><ele>538.0</ele><time>2026-03-29T13:57:11Z</time></trkpt><trkpt lat="47.79389502023494" lon="7.029022634202097"><ele>538.0</ele><time>2026-03-29T13:57:12Z</time></trkpt><trkpt lat="47.79396602021207" lon="7.029011476228396"><ele>538.0</ele><time>2026-03-29T13:57:13Z</time></trkpt><trkpt lat="47.79402691513995" lon="7.029066797235171"><ele>538.0</ele><time>2026-03-29T13:57:14Z</time></trkpt><trkpt lat="47.79408465900192" lon="7.0291540126370196"><ele>538.0</ele><time>2026-03-29T13:57:15Z</time></trkpt><trkpt lat="47.79411096384576" lon="7.029268811670454"><ele>538.0</ele><time>2026-03-29T13:57:16Z</time></trkpt><trkpt lat="47.79412587525722" lon="7.029391453054361"><ele>538.0</ele><time>2026-03-29T13:57:17Z</time></trkpt><trkpt lat="47.79415058982016" lon="7.0295048243783445"><ele>538.0</ele><time>2026-03-29T13:57:18Z</time></trkpt><trkpt lat="47.794161806709965" lon="7.029623289393829"><ele>538.0</ele><time>2026-03-29T13:57:19Z</time></trkpt><trkpt lat="47.79419707102688" lon="7.029769813749526"><ele>538.0</ele><time>2026-03-29T13:57:21Z</time></trkpt><trkpt lat="47.79417165976917" lon="7.02987185167525"><ele>538.0</ele><time>2026-03-29T13:57:22Z</time></trkpt><trkpt lat="47.794156103849396" lon="7.029987758061983"><ele>538.0</ele><time>2026-03-29T13:57:23Z</time></trkpt><trkpt lat="47.79414919917377" lon="7.0301089007923085"><ele>538.0</ele><time>2026-03-29T13:57:24Z</time></trkpt><trkpt lat="47.7941534294973" lon="7.030217498120196"><ele>538.0</ele><time>2026-03-29T13:57:25Z</time></trkpt><trkpt lat="47.794195003879615" lon="7.0303214629728235"><ele>537.1999999999999</ele><time>2026-03-29T13:57:26Z</time></trkpt><trkpt lat="47.79428250750545" lon="7.030403213460867"><ele>536.4</ele><time>2026-03-29T13:57:27Z</time></trkpt><trkpt lat="47.79434203571757" lon="7.030514217747263"><ele>535.5999999999999</ele><time>2026-03-29T13:57:28Z</time></trkpt><trkpt lat="47.794405144508715" lon="7.030628246617772"><ele>534.8</ele><time>2026-03-29T13:57:29Z</time></trkpt><trkpt lat="47.79446283824678" lon="7.030731370840269"><ele>534.0</ele><time>2026-03-29T13:57:30Z</time></trkpt><trkpt lat="47.79451114213427" lon="7.030824837948122"><ele>536.0</ele><time>2026-03-29T13:57:31Z</time></trkpt><trkpt lat="47.79455941608209" lon="7.030920965980234"><ele>538.0</ele><time>2026-03-29T13:57:32Z</time></trkpt><trkpt lat="47.79460614714976" lon="7.031013234428131"><ele>540.0</ele><time>2026-03-29T13:57:33Z</time></trkpt><trkpt lat="47.79463893737256" lon="7.031124529918487"><ele>542.0</ele><time>2026-03-29T13:57:34Z</time></trkpt><trkpt lat="47.79470105595155" lon="7.031201070129717"><ele>544.0</ele><time>2026-03-29T13:57:35Z</time></trkpt><trkpt lat="47.79475966803131" lon="7.031262639169316"><ele>546.0</ele><time>2026-03-29T13:57:36Z</time></trkpt><trkpt lat="47.79483158562017" lon="7.031262217282615"><ele>546.0</ele><time>2026-03-29T13:57:37Z</time></trkpt><trkpt lat="47.79489975823544" lon="7.03122743844233"><ele>546.0</ele><time>2026-03-29T13:57:38Z</time></trkpt><trkpt lat="47.79496941849401" lon="7.0311658137515485"><ele>546.0</ele><time>2026-03-29T13:57:39Z</time></trkpt><trkpt lat="47.79500089220719" lon="7.03106969704815"><ele>546.0</ele><time>2026-03-29T13:57:40Z</time></trkpt><trkpt lat="47.79499683534993" lon="7.0309314872894095"><ele>546.0</ele><time>2026-03-29T13:57:41Z</time></trkpt><trkpt lat="47.79499169620584" lon="7.030798513807846"><ele>546.0</ele><time>2026-03-29T13:57:42Z</time></trkpt><trkpt lat="47.79501752050891" lon="7.030671691967749"><ele>546.6</ele><time>2026-03-29T13:57:43Z</time></trkpt><trkpt lat="47.79503727747975" lon="7.030528597691998"><ele>547.2</ele><time>2026-03-29T13:57:44Z</time></trkpt><trkpt lat="47.79504772975012" lon="7.030379629173692"><ele>547.8</ele><time>2026-03-29T13:57:45Z</time></trkpt><trkpt lat="47.79507467181644" lon="7.030229616304262"><ele>548.4</ele><time>2026-03-29T13:57:46Z</time></trkpt><trkpt lat="47.795113158135976" lon="7.030112306119633"><ele>549.0</ele><time>2026-03-29T13:57:47Z</time></trkpt><trkpt lat="47.79514979342839" lon="7.030004877545202"><ele>551.4</ele><time>2026-03-29T13:57:48Z</time></trkpt><trkpt lat="47.795210812295515" lon="7.029907690138571"><ele>553.8</ele><time>2026-03-29T13:57:50Z</time></trkpt><trkpt lat="47.79526942252083" lon="7.029849195879298"><ele>556.2</ele><time>2026-03-29T13:57:52Z</time></trkpt><trkpt lat="47.79531404831627" lon="7.029765290189776"><ele>558.6</ele><time>2026-03-29T13:57:54Z</time></trkpt><trkpt lat="47.79537635172761" lon="7.029636345290122"><ele>561.0</ele><time>2026-03-29T13:57:56Z</time></trkpt><trkpt lat="47.795506805958745" lon="7.029580100197569"><ele>561.0</ele><time>2026-03-29T13:57:58Z</time></trkpt><trkpt lat="47.795588210373126" lon="7.0295641571513805"><ele>561.0</ele><time>2026-03-29T13:57:59Z</time></trkpt><trkpt lat="47.79567186063945" lon="7.029545992964811"><ele>561.0</ele><time>2026-03-29T13:58:00Z</time></trkpt><trkpt lat="47.79575315706224" lon="7.029511689787241"><ele>561.0</ele><time>2026-03-29T13:58:01Z</time></trkpt><trkpt lat="47.79583374717887" lon="7.029455929705936"><ele>561.0</ele><time>2026-03-29T13:58:02Z</time></trkpt><trkpt lat="47.795917038991846" lon="7.029376868093336"><ele>561.0</ele><time>2026-03-29T13:58:03Z</time></trkpt><trkpt lat="47.79600331579521" lon="7.029286777498443"><ele>560.5</ele><time>2026-03-29T13:58:04Z</time></trkpt><trkpt lat="47.796101000043656" lon="7.029199278418374"><ele>560.0</ele><time>2026-03-29T13:58:05Z</time></trkpt><trkpt lat="47.79620367262252" lon="7.029112829367437"><ele>559.5</ele><time>2026-03-29T13:58:06Z</time></trkpt><trkpt lat="47.796306040973604" lon="7.029030700546633"><ele>559.0</ele><time>2026-03-29T13:58:07Z</time></trkpt><trkpt lat="47.79640681966492" lon="7.028956760628037"><ele>561.25</ele><time>2026-03-29T13:58:08Z</time></trkpt><trkpt lat="47.79651736000148" lon="7.028895646437307"><ele>563.5</ele><time>2026-03-29T13:58:09Z</time></trkpt><trkpt lat="47.79663301354861" lon="7.028853800255838"><ele>565.75</ele><time>2026-03-29T13:58:10Z</time></trkpt><trkpt lat="47.796752101397736" lon="7.028834196007121"><ele>568.0</ele><time>2026-03-29T13:58:11Z</time></trkpt><trkpt lat="47.796868588480535" lon="7.02881153058855"><ele>568.0</ele><time>2026-03-29T13:58:12Z</time></trkpt><trkpt lat="47.79697947722474" lon="7.028783083996357"><ele>568.0</ele><time>2026-03-29T13:58:13Z</time></trkpt><trkpt lat="47.79708003274933" lon="7.028728595802353"><ele>568.0</ele><time>2026-03-29T13:58:14Z</time></trkpt><trkpt lat="47.79717696538368" lon="7.028631183478183"><ele>568.0</ele><time>2026-03-29T13:58:15Z</time></trkpt><trkpt lat="47.79726881479613" lon="7.028521288945439"><ele>568.0</ele><time>2026-03-29T13:58:16Z</time></trkpt><trkpt lat="47.79735285428925" lon="7.02840759253248"><ele>568.0</ele><time>2026-03-29T13:58:17Z</time></trkpt><trkpt lat="47.79742240532856" lon="7.028279555093712"><ele>568.0</ele><time>2026-03-29T13:58:18Z</time></trkpt><trkpt lat="47.79748192523726" lon="7.028137738119037"><ele>568.0</ele><time>2026-03-29T13:58:19Z</time></trkpt><trkpt lat="47.79757416870159" lon="7.028038308728775"><ele>570.75</ele><time>2026-03-29T13:58:20Z</time></trkpt><trkpt lat="47.79767094799805" lon="7.027946100652839"><ele>573.5</ele><time>2026-03-29T13:58:21Z</time></trkpt><trkpt lat="47.79779047141778" lon="7.027850811208256"><ele>576.25</ele><time>2026-03-29T13:58:22Z</time></trkpt><trkpt lat="47.79790919447818" lon="7.02781121645689"><ele>579.0</ele><time>2026-03-29T13:58:23Z</time></trkpt><trkpt lat="47.79801516865002" lon="7.027783167643755"><ele>579.0</ele><time>2026-03-29T13:58:24Z</time></trkpt><trkpt lat="47.79810999365535" lon="7.027744421255359"><ele>579.0</ele><time>2026-03-29T13:58:25Z</time></trkpt><trkpt lat="47.79818367672286" lon="7.0276707554950875"><ele>579.0</ele><time>2026-03-29T13:58:26Z</time></trkpt><trkpt lat="47.79823285825028" lon="7.0275485143152485"><ele>579.0</ele><time>2026-03-29T13:58:27Z</time></trkpt><trkpt lat="47.79825549740513" lon="7.027392368488198"><ele>579.0</ele><time>2026-03-29T13:58:28Z</time></trkpt><trkpt lat="47.79825473057495" lon="7.027225109058217"><ele>579.4</ele><time>2026-03-29T13:58:29Z</time></trkpt><trkpt lat="47.798237422078024" lon="7.027068999042657"><ele>579.8</ele><time>2026-03-29T13:58:30Z</time></trkpt><trkpt lat="47.798206205424215" lon="7.026926121832702"><ele>580.2</ele><time>2026-03-29T13:58:31Z</time></trkpt><trkpt lat="47.79821309867708" lon="7.0267818351546705"><ele>580.6</ele><time>2026-03-29T13:58:32Z</time></trkpt><trkpt lat="47.79824048021625" lon="7.026633360426378"><ele>581.0</ele><time>2026-03-29T13:58:33Z</time></trkpt><trkpt lat="47.79827898995985" lon="7.02649314638565"><ele>581.0</ele><time>2026-03-29T13:58:34Z</time></trkpt><trkpt lat="47.79833077234908" lon="7.02636102428392"><ele>581.0</ele><time>2026-03-29T13:58:35Z</time></trkpt><trkpt lat="47.79839540108333" lon="7.026253870202178"><ele>581.0</ele><time>2026-03-29T13:58:36Z</time></trkpt><trkpt lat="47.798481550985" lon="7.026186914633126"><ele>581.0</ele><time>2026-03-29T13:58:37Z</time></trkpt><trkpt lat="47.798571559844284" lon="7.026112622866746"><ele>581.0</ele><time>2026-03-29T13:58:38Z</time></trkpt><trkpt lat="47.7986697142091" lon="7.026064573098185"><ele>580.1666666666666</ele><time>2026-03-29T13:58:39Z</time></trkpt><trkpt lat="47.798765361904266" lon="7.026011860304588"><ele>579.3333333333333</ele><time>2026-03-29T13:58:40Z</time></trkpt><trkpt lat="47.79885720773096" lon="7.0259589606249895"><ele>578.5</ele><time>2026-03-29T13:58:41Z</time></trkpt><trkpt lat="47.79893941776349" lon="7.025905223038784"><ele>577.6666666666666</ele><time>2026-03-29T13:58:42Z</time></trkpt><trkpt lat="47.799010119876755" lon="7.025859867441455"><ele>576.8333333333334</ele><time>2026-03-29T13:58:43Z</time></trkpt><trkpt lat="47.799086254378594" lon="7.025821742457253"><ele>576.0</ele><time>2026-03-29T13:58:44Z</time></trkpt><trkpt lat="47.7991531559787" lon="7.025796529696736"><ele>576.0</ele><time>2026-03-29T13:58:45Z</time></trkpt><trkpt lat="47.79923961587398" lon="7.025900734415183"><ele>576.0</ele><time>2026-03-29T13:58:47Z</time></trkpt><trkpt lat="47.799253913844304" lon="7.026003504388443"><ele>576.0</ele><time>2026-03-29T13:58:48Z</time></trkpt><trkpt lat="47.79914810100677" lon="7.026168805273846"><ele>576.0</ele><time>2026-03-29T13:58:50Z</time></trkpt><trkpt lat="47.79906890904486" lon="7.026247360041275"><ele>576.0</ele><time>2026-03-29T13:58:51Z</time></trkpt><trkpt lat="47.7989933020442" lon="7.02633430065471"><ele>576.0</ele><time>2026-03-29T13:58:52Z</time></trkpt><trkpt lat="47.79892849570493" lon="7.026449748624623"><ele>576.0</ele><time>2026-03-29T13:58:53Z</time></trkpt><trkpt lat="47.79888925708593" lon="7.0265937482998275"><ele>576.0</ele><time>2026-03-29T13:58:54Z</time></trkpt><trkpt lat="47.798882566797474" lon="7.026744581284451"><ele>576.0</ele><time>2026-03-29T13:58:55Z</time></trkpt><trkpt lat="47.79888651148018" lon="7.0269009483899385"><ele>576.0</ele><time>2026-03-29T13:58:56Z</time></trkpt><trkpt lat="47.79887715266078" lon="7.02706179670153"><ele>578.0</ele><time>2026-03-29T13:58:57Z</time></trkpt><trkpt lat="47.79887178724587" lon="7.027231511629127"><ele>580.0</ele><time>2026-03-29T13:58:58Z</time></trkpt><trkpt lat="47.79887541877742" lon="7.027404261421239"><ele>582.0</ele><time>2026-03-29T13:58:59Z</time></trkpt><trkpt lat="47.798880944355346" lon="7.027581836579696"><ele>584.0</ele><time>2026-03-29T13:59:00Z</time></trkpt><trkpt lat="47.79889026173934" lon="7.027767216746932"><ele>585.75</ele><time>2026-03-29T13:59:01Z</time></trkpt><trkpt lat="47.79892798863966" lon="7.027948268389455"><ele>587.5</ele><time>2026-03-29T13:59:02Z</time></trkpt><trkpt lat="47.79898204271707" lon="7.028131607766664"><ele>589.25</ele><time>2026-03-29T13:59:03Z</time></trkpt><trkpt lat="47.79897502858374" lon="7.028326936590972"><ele>591.0</ele><time>2026-03-29T13:59:04Z</time></trkpt><trkpt lat="47.798973032206945" lon="7.028555763104883"><ele>591.0</ele><time>2026-03-29T13:59:05Z</time></trkpt><trkpt lat="47.79896310659988" lon="7.0287309356501595"><ele>591.0</ele><time>2026-03-29T13:59:06Z</time></trkpt><trkpt lat="47.79900559457454" lon="7.0288996582043755"><ele>591.0</ele><time>2026-03-29T13:59:07Z</time></trkpt><trkpt lat="47.79910659852219" lon="7.029048583177567"><ele>591.0</ele><time>2026-03-29T13:59:08Z</time></trkpt><trkpt lat="47.79924266580078" lon="7.0291803360656635"><ele>598.0</ele><time>2026-03-29T13:59:09Z</time></trkpt><trkpt lat="47.799370278624586" lon="7.029320110997193"><ele>605.0</ele><time>2026-03-29T13:59:10Z</time></trkpt><trkpt lat="47.79947435750097" lon="7.029442629796935"><ele>612.0</ele><time>2026-03-29T13:59:11Z</time></trkpt><trkpt lat="47.7995749932502" lon="7.029528518844169"><ele>619.0</ele><time>2026-03-29T13:59:12Z</time></trkpt><trkpt lat="47.79965469196545" lon="7.029646154311149"><ele>619.0</ele><time>2026-03-29T13:59:13Z</time></trkpt><trkpt lat="47.799721178658736" lon="7.029777658249281"><ele>619.0</ele><time>2026-03-29T13:59:14Z</time></trkpt><trkpt lat="47.79974995342307" lon="7.029946582552159"><ele>619.0</ele><time>2026-03-29T13:59:15Z</time></trkpt><trkpt lat="47.79973659059165" lon="7.030148808069846"><ele>619.0</ele><time>2026-03-29T13:59:16Z</time></trkpt><trkpt lat="47.79966734470874" lon="7.030312883741507"><ele>616.5</ele><time>2026-03-29T13:59:17Z</time></trkpt><trkpt lat="47.799592788737094" lon="7.030466433984166"><ele>614.0</ele><time>2026-03-29T13:59:18Z</time></trkpt><trkpt lat="47.79951234794919" lon="7.030601956578364"><ele>611.5</ele><time>2026-03-29T13:59:19Z</time></trkpt><trkpt lat="47.799490098672855" lon="7.03077782828705"><ele>609.0</ele><time>2026-03-29T13:59:20Z</time></trkpt><trkpt lat="47.799516579638826" lon="7.03097756501443"><ele>609.0</ele><time>2026-03-29T13:59:21Z</time></trkpt><trkpt lat="47.79957110323242" lon="7.03119178245399"><ele>609.0</ele><time>2026-03-29T13:59:22Z</time></trkpt><trkpt lat="47.799637574079874" lon="7.031406915344901"><ele>609.0</ele><time>2026-03-29T13:59:23Z</time></trkpt><trkpt lat="47.799720408292664" lon="7.03160597995814"><ele>607.3333333333334</ele><time>2026-03-29T13:59:24Z</time></trkpt><trkpt lat="47.79982175356939" lon="7.031785741613042"><ele>605.6666666666667</ele><time>2026-03-29T13:59:25Z</time></trkpt><trkpt lat="47.79992823773641" lon="7.031966229520742"><ele>604.0</ele><time>2026-03-29T13:59:26Z</time></trkpt><trkpt lat="47.800026346584566" lon="7.032147231545009"><ele>604.0</ele><time>2026-03-29T13:59:27Z</time></trkpt><trkpt lat="47.80011813646556" lon="7.032332478238602"><ele>604.0</ele><time>2026-03-29T13:59:28Z</time></trkpt><trkpt lat="47.800211163513616" lon="7.032508437378951"><ele>604.0</ele><time>2026-03-29T13:59:29Z</time></trkpt><trkpt lat="47.80031936813577" lon="7.032678844874273"><ele>610.0</ele><time>2026-03-29T13:59:30Z</time></trkpt><trkpt lat="47.80044665486344" lon="7.0328183073752655"><ele>616.0</ele><time>2026-03-29T13:59:31Z</time></trkpt><trkpt lat="47.80059754112416" lon="7.032952406506139"><ele>622.0</ele><time>2026-03-29T13:59:32Z</time></trkpt><trkpt lat="47.80075646208025" lon="7.033068837113318"><ele>622.0</ele><time>2026-03-29T13:59:32.999Z</time></trkpt><trkpt lat="47.800915901312635" lon="7.033185661050473"><ele>622.0</ele><time>2026-03-29T13:59:33.999Z</time></trkpt><trkpt lat="47.80108482984556" lon="7.033274463618626"><ele>622.0</ele><time>2026-03-29T13:59:34.999Z</time></trkpt><trkpt lat="47.80127380982943" lon="7.033325627824851"><ele>623.3333333333334</ele><time>2026-03-29T13:59:35.999Z</time></trkpt><trkpt lat="47.801451794087235" lon="7.033343823398052"><ele>624.6666666666666</ele><time>2026-03-29T13:59:36.999Z</time></trkpt><trkpt lat="47.80159993666365" lon="7.033376720821469"><ele>626.0</ele><time>2026-03-29T13:59:37.999Z</time></trkpt><trkpt lat="47.80173278283708" lon="7.0334594664917764"><ele>631.3333333333333</ele><time>2026-03-29T13:59:38.999Z</time></trkpt><trkpt lat="47.80185360486169" lon="7.0335821508651755"><ele>636.6666666666666</ele><time>2026-03-29T13:59:39.999Z</time></trkpt><trkpt lat="47.80196932520517" lon="7.033745509019817"><ele>642.0</ele><time>2026-03-29T13:59:40.999Z</time></trkpt><trkpt lat="47.80206681702695" lon="7.033938043311194"><ele>642.0</ele><time>2026-03-29T13:59:41.998Z</time></trkpt><trkpt lat="47.80217354217085" lon="7.034086580359748"><ele>642.0</ele><time>2026-03-29T13:59:42.998Z</time></trkpt><trkpt lat="47.80231307205096" lon="7.034178241096997"><ele>642.0</ele><time>2026-03-29T13:59:43.998Z</time></trkpt><trkpt lat="47.80248285870032" lon="7.034210731484463"><ele>642.5</ele><time>2026-03-29T13:59:44.998Z</time></trkpt><trkpt lat="47.80265221136947" lon="7.034216235114025"><ele>643.0</ele><time>2026-03-29T13:59:45.998Z</time></trkpt><trkpt lat="47.80277602917855" lon="7.034218933973739"><ele>643.5</ele><time>2026-03-29T13:59:46.998Z</time></trkpt><trkpt lat="47.802864460372184" lon="7.034266429915382"><ele>644.0</ele><time>2026-03-29T13:59:47.998Z</time></trkpt><trkpt lat="47.80296431952488" lon="7.034341558426664"><ele>644.0</ele><time>2026-03-29T13:59:48.998Z</time></trkpt><trkpt lat="47.80307612177439" lon="7.03442815391202"><ele>644.0</ele><time>2026-03-29T13:59:49.998Z</time></trkpt><trkpt lat="47.80318099868618" lon="7.034479004711815"><ele>644.0</ele><time>2026-03-29T13:59:50.998Z</time></trkpt><trkpt lat="47.803271269608544" lon="7.034499350166753"><ele>644.0</ele><time>2026-03-29T13:59:51.998Z</time></trkpt><trkpt lat="47.8033577826434" lon="7.034554483067987"><ele>644.0</ele><time>2026-03-29T13:59:52.998Z</time></trkpt><trkpt lat="47.80342508570958" lon="7.0346414070189205"><ele>644.0</ele><time>2026-03-29T13:59:53.998Z</time></trkpt><trkpt lat="47.80344819684227" lon="7.034813969155806"><ele>644.0</ele><time>2026-03-29T13:59:54.998Z</time></trkpt><trkpt lat="47.80341873572346" lon="7.035012991349775"><ele>644.0</ele><time>2026-03-29T13:59:55.998Z</time></trkpt><trkpt lat="47.80331923543786" lon="7.035152227442057"><ele>644.0</ele><time>2026-03-29T13:59:56.998Z</time></trkpt><trkpt lat="47.80316526901737" lon="7.035232747470393"><ele>642.25</ele><time>2026-03-29T13:59:57.998Z</time></trkpt><trkpt lat="47.8030018155187" lon="7.035325344491794"><ele>640.5</ele><time>2026-03-29T13:59:58.998Z</time></trkpt><trkpt lat="47.80287075027508" lon="7.035429151275525"><ele>638.75</ele><time>2026-03-29T13:59:59.998Z</time></trkpt><trkpt lat="47.802805115725555" lon="7.0355496752620095"><ele>637.0</ele><time>2026-03-29T14:00:00.998Z</time></trkpt><trkpt lat="47.80279092629706" lon="7.035739487901081"><ele>637.0</ele><time>2026-03-29T14:00:01.998Z</time></trkpt><trkpt lat="47.8028084404948" lon="7.035931442678647"><ele>637.0</ele><time>2026-03-29T14:00:02.998Z</time></trkpt><trkpt lat="47.802763712077876" lon="7.0360738981013355"><ele>637.0</ele><time>2026-03-29T14:00:03.998Z</time></trkpt><trkpt lat="47.802655534289464" lon="7.036084816314014"><ele>637.0</ele><time>2026-03-29T14:00:04.998Z</time></trkpt><trkpt lat="47.80253216239215" lon="7.035951838240777"><ele>637.0</ele><time>2026-03-29T14:00:05.998Z</time></trkpt><trkpt lat="47.80239789809663" lon="7.035869386575666"><ele>637.0</ele><time>2026-03-29T14:00:06.998Z</time></trkpt><trkpt lat="47.8022769114641" lon="7.035839986704264"><ele>637.0</ele><time>2026-03-29T14:00:07.998Z</time></trkpt><trkpt lat="47.802199299273134" lon="7.035943967242135"><ele>637.0</ele><time>2026-03-29T14:00:08.998Z</time></trkpt><trkpt lat="47.802116788889684" lon="7.03608174525491"><ele>637.0</ele><time>2026-03-29T14:00:09.998Z</time></trkpt><trkpt lat="47.80194106054685" lon="7.036082184548648"><ele>637.0</ele><time>2026-03-29T14:00:10.997Z</time></trkpt><trkpt lat="47.801745402027635" lon="7.03606274381166"><ele>637.0</ele><time>2026-03-29T14:00:11.997Z</time></trkpt><trkpt lat="47.80153380126171" lon="7.0360812567919915"><ele>636.25</ele><time>2026-03-29T14:00:12.997Z</time></trkpt><trkpt lat="47.80135515355887" lon="7.036080594313502"><ele>635.5</ele><time>2026-03-29T14:00:13.997Z</time></trkpt><trkpt lat="47.80123330568952" lon="7.036079757228096"><ele>634.75</ele><time>2026-03-29T14:00:14.997Z</time></trkpt><trkpt lat="47.801149715372844" lon="7.036146344957035"><ele>634.0</ele><time>2026-03-29T14:00:15.997Z</time></trkpt><trkpt lat="47.801095094573434" lon="7.036266765254559"><ele>634.0</ele><time>2026-03-29T14:00:16.997Z</time></trkpt><trkpt lat="47.801088371627735" lon="7.036418492207721"><ele>634.0</ele><time>2026-03-29T14:00:17.997Z</time></trkpt><trkpt lat="47.80113943435786" lon="7.036512629768725"><ele>634.0</ele><time>2026-03-29T14:00:18.997Z</time></trkpt><trkpt lat="47.80122091595032" lon="7.036601391731967"><ele>634.0</ele><time>2026-03-29T14:00:19.997Z</time></trkpt><trkpt lat="47.80128327300074" lon="7.036703352148422"><ele>634.0</ele><time>2026-03-29T14:00:20.997Z</time></trkpt><trkpt lat="47.801360977708896" lon="7.036814068102198"><ele>637.25</ele><time>2026-03-29T14:00:21.997Z</time></trkpt><trkpt lat="47.80144448368322" lon="7.036950246556932"><ele>640.5</ele><time>2026-03-29T14:00:22.997Z</time></trkpt><trkpt lat="47.801544176746724" lon="7.037081582145937"><ele>643.75</ele><time>2026-03-29T14:00:23.997Z</time></trkpt><trkpt lat="47.8016579682622" lon="7.037261482043734"><ele>647.0</ele><time>2026-03-29T14:00:24.997Z</time></trkpt><trkpt lat="47.80178740360818" lon="7.037480373353217"><ele>653.0</ele><time>2026-03-29T14:00:25.997Z</time></trkpt><trkpt lat="47.8019094102006" lon="7.037668039058084"><ele>659.0</ele><time>2026-03-29T14:00:26.997Z</time></trkpt><trkpt lat="47.80203782379235" lon="7.037829269281676"><ele>665.0</ele><time>2026-03-29T14:00:27.997Z</time></trkpt><trkpt lat="47.802186738770196" lon="7.03795712592715"><ele>665.0</ele><time>2026-03-29T14:00:28.997Z</time></trkpt><trkpt lat="47.80234073161524" lon="7.038043761455726"><ele>665.0</ele><time>2026-03-29T14:00:29.997Z</time></trkpt><trkpt lat="47.802484353495736" lon="7.038066866740911"><ele>665.0</ele><time>2026-03-29T14:00:30.997Z</time></trkpt><trkpt lat="47.80265393739506" lon="7.038010669398228"><ele>668.25</ele><time>2026-03-29T14:00:31.997Z</time></trkpt><trkpt lat="47.80280456883832" lon="7.037988298415583"><ele>671.5</ele><time>2026-03-29T14:00:32.997Z</time></trkpt><trkpt lat="47.80293810389867" lon="7.038021256986791"><ele>674.75</ele><time>2026-03-29T14:00:33.997Z</time></trkpt><trkpt lat="47.803056471316275" lon="7.038091613736329"><ele>678.0</ele><time>2026-03-29T14:00:34.997Z</time></trkpt><trkpt lat="47.80322780150229" lon="7.038296279794587"><ele>677.0</ele><time>2026-03-29T14:00:35.997Z</time></trkpt><trkpt lat="47.80334015156457" lon="7.038539647236929"><ele>676.0</ele><time>2026-03-29T14:00:36.997Z</time></trkpt><trkpt lat="47.80342695309063" lon="7.038786989621259"><ele>675.0</ele><time>2026-03-29T14:00:37.997Z</time></trkpt><trkpt lat="47.80354382366388" lon="7.039143744727458"><ele>690.0</ele><time>2026-03-29T14:00:38.997Z</time></trkpt><trkpt lat="47.80369554726269" lon="7.039510647665611"><ele>705.0</ele><time>2026-03-29T14:00:39.997Z</time></trkpt><trkpt lat="47.80382265879661" lon="7.039926381277294"><ele>700.3333333333334</ele><time>2026-03-29T14:00:40.997Z</time></trkpt><trkpt lat="47.80392407437719" lon="7.040280041767135"><ele>695.6666666666667</ele><time>2026-03-29T14:00:41.997Z</time></trkpt><trkpt lat="47.803996697824104" lon="7.040533298034128"><ele>691.0</ele><time>2026-03-29T14:00:42.997Z</time></trkpt><trkpt lat="47.804058917487446" lon="7.0406931590129"><ele>691.0</ele><time>2026-03-29T14:00:43.997Z</time></trkpt><trkpt lat="47.80408865772508" lon="7.04079939156173"><ele>691.0</ele><time>2026-03-29T14:00:44.997Z</time></trkpt><trkpt lat="47.804199667167715" lon="7.040860197015538"><ele>691.0</ele><time>2026-03-29T14:00:46.997Z</time></trkpt><trkpt lat="47.804284723665624" lon="7.040756557202452"><ele>691.0</ele><time>2026-03-29T14:00:47.997Z</time></trkpt><trkpt lat="47.804316668513515" lon="7.0405913695026"><ele>691.0</ele><time>2026-03-29T14:00:48.997Z</time></trkpt><trkpt lat="47.804263770932195" lon="7.040410388655793"><ele>691.0</ele><time>2026-03-29T14:00:49.997Z</time></trkpt><trkpt lat="47.80414944599717" lon="7.040220635677259"><ele>691.0</ele><time>2026-03-29T14:00:50.997Z</time></trkpt><trkpt lat="47.80407817903485" lon="7.039975774675572"><ele>691.0</ele><time>2026-03-29T14:00:51.997Z</time></trkpt><trkpt lat="47.804004955229665" lon="7.039622535778886"><ele>698.0</ele><time>2026-03-29T14:00:52.997Z</time></trkpt><trkpt lat="47.803919230914275" lon="7.039242562023216"><ele>705.0</ele><time>2026-03-29T14:00:53.997Z</time></trkpt><trkpt lat="47.803800659938915" lon="7.038854164120107"><ele>707.6666666666666</ele><time>2026-03-29T14:00:54.997Z</time></trkpt><trkpt lat="47.80373240918184" lon="7.038533297563475"><ele>710.3333333333333</ele><time>2026-03-29T14:00:55.997Z</time></trkpt><trkpt lat="47.803699725960826" lon="7.038262548304531"><ele>713.0</ele><time>2026-03-29T14:00:56.997Z</time></trkpt><trkpt lat="47.80369076894099" lon="7.038037010179495"><ele>713.3333333333333</ele><time>2026-03-29T14:00:57.997Z</time></trkpt><trkpt lat="47.803731743101515" lon="7.037830742461513"><ele>713.6666666666666</ele><time>2026-03-29T14:00:58.997Z</time></trkpt><trkpt lat="47.80380843240469" lon="7.037567349086619"><ele>714.0</ele><time>2026-03-29T14:00:59.997Z</time></trkpt><trkpt lat="47.80388800428694" lon="7.037240791201211"><ele>709.6666666666666</ele><time>2026-03-29T14:01:00.997Z</time></trkpt><trkpt lat="47.803924783146996" lon="7.036970163917988"><ele>705.3333333333333</ele><time>2026-03-29T14:01:01.997Z</time></trkpt><trkpt lat="47.803970607370175" lon="7.036753543140652"><ele>701.0</ele><time>2026-03-29T14:01:02.997Z</time></trkpt><trkpt lat="47.80402862373235" lon="7.0365976364044895"><ele>702.75</ele><time>2026-03-29T14:01:03.997Z</time></trkpt><trkpt lat="47.804118733116546" lon="7.036529699339204"><ele>704.5</ele><time>2026-03-29T14:01:04.997Z</time></trkpt><trkpt lat="47.80423189893754" lon="7.036507402809663"><ele>706.25</ele><time>2026-03-29T14:01:05.997Z</time></trkpt><trkpt lat="47.8043849936074" lon="7.036456461089299"><ele>708.0</ele><time>2026-03-29T14:01:06.997Z</time></trkpt><trkpt lat="47.804543368164815" lon="7.03642971704613"><ele>708.0</ele><time>2026-03-29T14:01:07.997Z</time></trkpt><trkpt lat="47.80466059228761" lon="7.036365521532921"><ele>708.0</ele><time>2026-03-29T14:01:08.997Z</time></trkpt><trkpt lat="47.80477506818174" lon="7.03622926085903"><ele>708.0</ele><time>2026-03-29T14:01:09.997Z</time></trkpt><trkpt lat="47.80486692650393" lon="7.036051375447562"><ele>708.0</ele><time>2026-03-29T14:01:10.997Z</time></trkpt><trkpt lat="47.80492805375555" lon="7.035897368319717"><ele>704.0</ele><time>2026-03-29T14:01:11.997Z</time></trkpt><trkpt lat="47.804936693488216" lon="7.0357077816887275"><ele>700.0</ele><time>2026-03-29T14:01:12.997Z</time></trkpt><trkpt lat="47.80489625385239" lon="7.035474993240542"><ele>696.0</ele><time>2026-03-29T14:01:13.997Z</time></trkpt><trkpt lat="47.80487789363107" lon="7.035317822233034"><ele>692.0</ele><time>2026-03-29T14:01:14.997Z</time></trkpt><trkpt lat="47.8049425351074" lon="7.035281482193738"><ele>692.0</ele><time>2026-03-29T14:01:15.997Z</time></trkpt><trkpt lat="47.8050241330236" lon="7.035371647819823"><ele>692.0</ele><time>2026-03-29T14:01:16.997Z</time></trkpt><trkpt lat="47.80503540523068" lon="7.035538813077347"><ele>692.0</ele><time>2026-03-29T14:01:17.997Z</time></trkpt><trkpt lat="47.80498999343813" lon="7.035765744022213"><ele>692.0</ele><time>2026-03-29T14:01:18.997Z</time></trkpt><trkpt lat="47.80495459973434" lon="7.036014150614326"><ele>697.3333333333333</ele><time>2026-03-29T14:01:19.997Z</time></trkpt><trkpt lat="47.80486885495848" lon="7.036213287964426"><ele>702.6666666666666</ele><time>2026-03-29T14:01:20.997Z</time></trkpt><trkpt lat="47.80476326496687" lon="7.036439111491998"><ele>708.0</ele><time>2026-03-29T14:01:21.997Z</time></trkpt><trkpt lat="47.8046765632118" lon="7.0366232782529305"><ele>706.25</ele><time>2026-03-29T14:01:22.997Z</time></trkpt><trkpt lat="47.80457169928206" lon="7.036676059934012"><ele>704.5</ele><time>2026-03-29T14:01:23.997Z</time></trkpt><trkpt lat="47.804474358144276" lon="7.036641258794701"><ele>702.75</ele><time>2026-03-29T14:01:24.998Z</time></trkpt><trkpt lat="47.804353320554405" lon="7.036692351521225"><ele>701.0</ele><time>2026-03-29T14:01:25.998Z</time></trkpt><trkpt lat="47.80427382751314" lon="7.036842578919439"><ele>701.0</ele><time>2026-03-29T14:01:26.998Z</time></trkpt><trkpt lat="47.804210015657326" lon="7.037077378004563"><ele>701.0</ele><time>2026-03-29T14:01:27.998Z</time></trkpt><trkpt lat="47.80418867947404" lon="7.037374450971698"><ele>701.0</ele><time>2026-03-29T14:01:28.998Z</time></trkpt><trkpt lat="47.80418083972189" lon="7.037699177903096"><ele>705.0</ele><time>2026-03-29T14:01:29.998Z</time></trkpt><trkpt lat="47.80418493539079" lon="7.037994299900753"><ele>709.0</ele><time>2026-03-29T14:01:30.998Z</time></trkpt><trkpt lat="47.80420952861053" lon="7.038241289262088"><ele>713.0</ele><time>2026-03-29T14:01:31.998Z</time></trkpt><trkpt lat="47.80428989140561" lon="7.0385005069280995"><ele>732.0</ele><time>2026-03-29T14:01:32.999Z</time></trkpt><trkpt lat="47.80440614985854" lon="7.03878483335439"><ele>751.0</ele><time>2026-03-29T14:01:33.999Z</time></trkpt><trkpt lat="47.80454876515511" lon="7.0390723134635"><ele>746.5</ele><time>2026-03-29T14:01:34.999Z</time></trkpt><trkpt lat="47.80472499199376" lon="7.039366168173084"><ele>742.0</ele><time>2026-03-29T14:01:35.999Z</time></trkpt><trkpt lat="47.80492404258611" lon="7.039663028190514"><ele>742.0</ele><time>2026-03-29T14:01:36.999Z</time></trkpt><trkpt lat="47.80509763181216" lon="7.03991446392047"><ele>742.0</ele><time>2026-03-29T14:01:37.999Z</time></trkpt><trkpt lat="47.80523050649909" lon="7.040127197718594"><ele>742.0</ele><time>2026-03-29T14:01:38.999Z</time></trkpt><trkpt lat="47.80532377342633" lon="7.040346677724099"><ele>745.3333333333334</ele><time>2026-03-29T14:01:39.999Z</time></trkpt><trkpt lat="47.805400760204925" lon="7.040548278139429"><ele>748.6666666666666</ele><time>2026-03-29T14:01:40.999Z</time></trkpt><trkpt lat="47.80547563929097" lon="7.040734884113549"><ele>752.0</ele><time>2026-03-29T14:01:41.999Z</time></trkpt><trkpt lat="47.80554217398775" lon="7.040932893708753"><ele>752.0</ele><time>2026-03-29T14:01:42.999Z</time></trkpt><trkpt lat="47.80561252658592" lon="7.041132399392878"><ele>752.0</ele><time>2026-03-29T14:01:43.999Z</time></trkpt><trkpt lat="47.80568677294161" lon="7.041322107497427"><ele>752.0</ele><time>2026-03-29T14:01:44.999Z</time></trkpt><trkpt lat="47.80576600791554" lon="7.041506731378294"><ele>752.0</ele><time>2026-03-29T14:01:45.999Z</time></trkpt><trkpt lat="47.80584914581533" lon="7.041677514562708"><ele>748.75</ele><time>2026-03-29T14:01:46.999Z</time></trkpt><trkpt lat="47.80593670429745" lon="7.041840975408076"><ele>745.5</ele><time>2026-03-29T14:01:47.999Z</time></trkpt><trkpt lat="47.80601543414279" lon="7.041995511515659"><ele>742.25</ele><time>2026-03-29T14:01:48.999Z</time></trkpt><trkpt lat="47.806087013212554" lon="7.042140648132257"><ele>739.0</ele><time>2026-03-29T14:01:49.999Z</time></trkpt><trkpt lat="47.80614578990259" lon="7.042259537399179"><ele>741.1666666666667</ele><time>2026-03-29T14:01:51Z</time></trkpt><trkpt lat="47.80620792199963" lon="7.042365341054061"><ele>743.3333333333334</ele><time>2026-03-29T14:01:52Z</time></trkpt><trkpt lat="47.80627168461535" lon="7.042446402605229"><ele>745.5</ele><time>2026-03-29T14:01:53Z</time></trkpt><trkpt lat="47.80631682592161" lon="7.042517217985107"><ele>747.6666666666666</ele><time>2026-03-29T14:01:54Z</time></trkpt><trkpt lat="47.806341105065115" lon="7.042604677650201"><ele>749.8333333333333</ele><time>2026-03-29T14:01:57Z</time></trkpt><trkpt lat="47.806445031152926" lon="7.042657414876181"><ele>752.0</ele><time>2026-03-29T14:02:37Z</time></trkpt><trkpt lat="47.80651635365692" lon="7.042716657822143"><ele>752.0</ele><time>2026-03-29T14:02:39Z</time></trkpt><trkpt lat="47.806591180930134" lon="7.042696498679638"><ele>752.0</ele><time>2026-03-29T14:02:41Z</time></trkpt><trkpt lat="47.80665848800614" lon="7.04265446763379"><ele>752.0</ele><time>2026-03-29T14:02:44Z</time></trkpt><trkpt lat="47.80672364585576" lon="7.0426204742953"><ele>752.0</ele><time>2026-03-29T14:02:46Z</time></trkpt><trkpt lat="47.80679757027813" lon="7.0425951969675324"><ele>752.0</ele><time>2026-03-29T14:02:49Z</time></trkpt></trkseg><trkseg><trkpt lat="47.80694928965363" lon="7.0434148226950555"><ele>731.0</ele><time>2026-03-29T14:27:14Z</time></trkpt><trkpt lat="47.807022467980715" lon="7.0435939117697774"><ele>731.0</ele><time>2026-03-29T14:27:15Z</time></trkpt><trkpt lat="47.80710617723597" lon="7.043791416446134"><ele>731.0</ele><time>2026-03-29T14:27:16Z</time></trkpt><trkpt lat="47.80720181895472" lon="7.044010217823972"><ele>733.0</ele><time>2026-03-29T14:27:17Z</time></trkpt><trkpt lat="47.80727797115039" lon="7.04422168644748"><ele>735.0</ele><time>2026-03-29T14:27:18Z</time></trkpt><trkpt lat="47.80734903092303" lon="7.0444424721466445"><ele>737.0</ele><time>2026-03-29T14:27:19Z</time></trkpt><trkpt lat="47.80742625362511" lon="7.04464235584926"><ele>737.0</ele><time>2026-03-29T14:27:20Z</time></trkpt><trkpt lat="47.80750755316776" lon="7.044817842832066"><ele>737.0</ele><time>2026-03-29T14:27:21Z</time></trkpt><trkpt lat="47.80758953863174" lon="7.044973166307272"><ele>737.0</ele><time>2026-03-29T14:27:22Z</time></trkpt><trkpt lat="47.807665429120526" lon="7.045120698680023"><ele>737.0</ele><time>2026-03-29T14:27:23Z</time></trkpt><trkpt lat="47.80773649346102" lon="7.045272725164481"><ele>736.0</ele><time>2026-03-29T14:27:24Z</time></trkpt><trkpt lat="47.80781046288669" lon="7.045439387849136"><ele>735.0</ele><time>2026-03-29T14:27:25Z</time></trkpt><trkpt lat="47.80787597345141" lon="7.045596598955434"><ele>734.0</ele><time>2026-03-29T14:27:26Z</time></trkpt><trkpt lat="47.807945046969124" lon="7.0457447249096745"><ele>733.0</ele><time>2026-03-29T14:27:27Z</time></trkpt><trkpt lat="47.808065372765434" lon="7.045846948952929"><ele>733.0</ele><time>2026-03-29T14:27:28Z</time></trkpt><trkpt lat="47.808228937719306" lon="7.045864030600183"><ele>733.0</ele><time>2026-03-29T14:27:29Z</time></trkpt><trkpt lat="47.80841680385365" lon="7.045870021388053"><ele>733.0</ele><time>2026-03-29T14:27:30Z</time></trkpt><trkpt lat="47.808598923522894" lon="7.04588007471746"><ele>722.0</ele><time>2026-03-29T14:27:31Z</time></trkpt><trkpt lat="47.80870000509332" lon="7.046052969753956"><ele>711.0</ele><time>2026-03-29T14:27:32Z</time></trkpt><trkpt lat="47.808930050823356" lon="7.0462942449629224"><ele>700.0</ele><time>2026-03-29T14:27:33Z</time></trkpt><trkpt lat="47.80912661130183" lon="7.046479390782015"><ele>695.3333333333334</ele><time>2026-03-29T14:27:34Z</time></trkpt><trkpt lat="47.8092883788288" lon="7.046667523960863"><ele>690.6666666666666</ele><time>2026-03-29T14:27:35Z</time></trkpt><trkpt lat="47.8094264754697" lon="7.04686335143434"><ele>686.0</ele><time>2026-03-29T14:27:36Z</time></trkpt><trkpt lat="47.809537792076256" lon="7.047078452411292"><ele>686.0</ele><time>2026-03-29T14:27:37Z</time></trkpt><trkpt lat="47.809615323443154" lon="7.047303293213088"><ele>686.0</ele><time>2026-03-29T14:27:38Z</time></trkpt><trkpt lat="47.80965457017812" lon="7.047517363096672"><ele>686.0</ele><time>2026-03-29T14:27:39Z</time></trkpt><trkpt lat="47.80969226038042" lon="7.04775734837056"><ele>690.0</ele><time>2026-03-29T14:27:40Z</time></trkpt><trkpt lat="47.80974275263923" lon="7.047921917763613"><ele>694.0</ele><time>2026-03-29T14:27:41Z</time></trkpt><trkpt lat="47.80980899556752" lon="7.048050760933102"><ele>698.0</ele><time>2026-03-29T14:27:42Z</time></trkpt><trkpt lat="47.80992363177404" lon="7.048126388874949"><ele>702.0</ele><time>2026-03-29T14:27:43Z</time></trkpt><trkpt lat="47.810044261797685" lon="7.0481769070334925"><ele>692.3333333333334</ele><time>2026-03-29T14:27:44Z</time></trkpt><trkpt lat="47.810175694350605" lon="7.048184290714456"><ele>682.6666666666667</ele><time>2026-03-29T14:27:45Z</time></trkpt><trkpt lat="47.81030486839591" lon="7.0481710123471775"><ele>673.0</ele><time>2026-03-29T14:27:46Z</time></trkpt><trkpt lat="47.810592369875366" lon="7.048122700590681"><ele>673.0</ele><time>2026-03-29T14:27:47Z</time></trkpt><trkpt lat="47.81077842374475" lon="7.048166734154368"><ele>673.0</ele><time>2026-03-29T14:27:48Z</time></trkpt><trkpt lat="47.81094211009671" lon="7.0482940866575055"><ele>673.0</ele><time>2026-03-29T14:27:49Z</time></trkpt><trkpt lat="47.81110724114544" lon="7.0484574452600155"><ele>670.0</ele><time>2026-03-29T14:27:50Z</time></trkpt><trkpt lat="47.811314607611074" lon="7.0487161007904335"><ele>667.0</ele><time>2026-03-29T14:27:51Z</time></trkpt><trkpt lat="47.81157570069627" lon="7.049070729005261"><ele>657.0</ele><time>2026-03-29T14:27:52Z</time></trkpt><trkpt lat="47.811800398914826" lon="7.049382712472349"><ele>647.0</ele><time>2026-03-29T14:27:53Z</time></trkpt><trkpt lat="47.81206243993114" lon="7.049738545576255"><ele>657.5</ele><time>2026-03-29T14:27:54Z</time></trkpt><trkpt lat="47.81232235319165" lon="7.050084563438883"><ele>668.0</ele><time>2026-03-29T14:27:55Z</time></trkpt><trkpt lat="47.81258179869947" lon="7.050413155473349"><ele>657.0</ele><time>2026-03-29T14:27:56Z</time></trkpt><trkpt lat="47.81277594213777" lon="7.050751210728049"><ele>646.0</ele><time>2026-03-29T14:27:57Z</time></trkpt><trkpt lat="47.812941868497354" lon="7.051079388654728"><ele>646.0</ele><time>2026-03-29T14:27:58Z</time></trkpt><trkpt lat="47.813091351487685" lon="7.051409261448585"><ele>646.0</ele><time>2026-03-29T14:27:59Z</time></trkpt><trkpt lat="47.81323021680543" lon="7.0517809186054885"><ele>655.5</ele><time>2026-03-29T14:28:00Z</time></trkpt><trkpt lat="47.81335327800354" lon="7.052202878826921"><ele>665.0</ele><time>2026-03-29T14:28:01Z</time></trkpt><trkpt lat="47.81344501155499" lon="7.052591512057847"><ele>651.5</ele><time>2026-03-29T14:28:02Z</time></trkpt><trkpt lat="47.81350335109549" lon="7.0529869527519615"><ele>638.0</ele><time>2026-03-29T14:28:03Z</time></trkpt><trkpt lat="47.813551743545275" lon="7.053385949511338"><ele>638.0</ele><time>2026-03-29T14:28:04Z</time></trkpt><trkpt lat="47.81363364653319" lon="7.053677133206972"><ele>638.0</ele><time>2026-03-29T14:28:05Z</time></trkpt><trkpt lat="47.81373051339372" lon="7.053947158743926"><ele>638.0</ele><time>2026-03-29T14:28:06Z</time></trkpt><trkpt lat="47.81389838551152" lon="7.05424451714936"><ele>645.0</ele><time>2026-03-29T14:28:07Z</time></trkpt><trkpt lat="47.81413686007277" lon="7.05449504858598"><ele>652.0</ele><time>2026-03-29T14:28:08Z</time></trkpt><trkpt lat="47.81437626260556" lon="7.054704165077259"><ele>647.6666666666667</ele><time>2026-03-29T14:28:09Z</time></trkpt><trkpt lat="47.814571021389206" lon="7.054849747933033"><ele>643.3333333333334</ele><time>2026-03-29T14:28:10Z</time></trkpt><trkpt lat="47.814722861803475" lon="7.054948407566814"><ele>639.0</ele><time>2026-03-29T14:28:11Z</time></trkpt><trkpt lat="47.81483613667626" lon="7.055016593377651"><ele>639.0</ele><time>2026-03-29T14:28:12Z</time></trkpt><trkpt lat="47.81488462939812" lon="7.055092493434033"><ele>639.0</ele><time>2026-03-29T14:28:13Z</time></trkpt><trkpt lat="47.8148924745015" lon="7.055202679466362"><ele>639.0</ele><time>2026-03-29T14:28:14Z</time></trkpt><trkpt lat="47.81482560594577" lon="7.055370296369322"><ele>639.0</ele><time>2026-03-29T14:28:15Z</time></trkpt><trkpt lat="47.81473424933747" lon="7.055586567560588"><ele>639.0</ele><time>2026-03-29T14:28:16Z</time></trkpt><trkpt lat="47.814606358599775" lon="7.055804618434962"><ele>640.0</ele><time>2026-03-29T14:28:17Z</time></trkpt><trkpt lat="47.8144603787534" lon="7.056077396649812"><ele>641.0</ele><time>2026-03-29T14:28:18Z</time></trkpt><trkpt lat="47.814339832430825" lon="7.056391432435025"><ele>650.5</ele><time>2026-03-29T14:28:19Z</time></trkpt><trkpt lat="47.8142523620851" lon="7.0567420455878525"><ele>660.0</ele><time>2026-03-29T14:28:20Z</time></trkpt><trkpt lat="47.814216657960266" lon="7.057081621747201"><ele>660.0</ele><time>2026-03-29T14:28:21Z</time></trkpt><trkpt lat="47.814178751555566" lon="7.057387112718662"><ele>660.0</ele><time>2026-03-29T14:28:22Z</time></trkpt><trkpt lat="47.81416528921044" lon="7.057630725760259"><ele>660.0</ele><time>2026-03-29T14:28:23Z</time></trkpt><trkpt lat="47.814166825209995" lon="7.05782168918635"><ele>656.25</ele><time>2026-03-29T14:28:24Z</time></trkpt><trkpt lat="47.81417088160165" lon="7.0579893092654595"><ele>652.5</ele><time>2026-03-29T14:28:25Z</time></trkpt><trkpt lat="47.81421508268801" lon="7.0581251345088925"><ele>648.75</ele><time>2026-03-29T14:28:26Z</time></trkpt><trkpt lat="47.81430774197153" lon="7.058217973640176"><ele>645.0</ele><time>2026-03-29T14:28:27Z</time></trkpt><trkpt lat="47.81443192763366" lon="7.058254325889046"><ele>639.0</ele><time>2026-03-29T14:28:28Z</time></trkpt><trkpt lat="47.8145828286636" lon="7.05827461195287"><ele>633.0</ele><time>2026-03-29T14:28:29Z</time></trkpt><trkpt lat="47.81476912644867" lon="7.058270115077468"><ele>627.0</ele><time>2026-03-29T14:28:30Z</time></trkpt><trkpt lat="47.81498916742437" lon="7.058224427180213"><ele>620.5</ele><time>2026-03-29T14:28:31Z</time></trkpt><trkpt lat="47.81524186554714" lon="7.05818974603485"><ele>614.0</ele><time>2026-03-29T14:28:32Z</time></trkpt><trkpt lat="47.815507655744035" lon="7.058144470431542"><ele>614.0</ele><time>2026-03-29T14:28:33Z</time></trkpt><trkpt lat="47.81572628186596" lon="7.058101097403778"><ele>614.0</ele><time>2026-03-29T14:28:34Z</time></trkpt><trkpt lat="47.81591430870841" lon="7.058019118731408"><ele>614.0</ele><time>2026-03-29T14:28:35Z</time></trkpt><trkpt lat="47.81607753634445" lon="7.057905815451989"><ele>610.3333333333333</ele><time>2026-03-29T14:28:36Z</time></trkpt><trkpt lat="47.81625656941567" lon="7.05783362231199"><ele>606.6666666666666</ele><time>2026-03-29T14:28:37Z</time></trkpt><trkpt lat="47.81639470954552" lon="7.057756115921675"><ele>603.0</ele><time>2026-03-29T14:28:38Z</time></trkpt><trkpt lat="47.816510561658845" lon="7.0577018997155205"><ele>603.0</ele><time>2026-03-29T14:28:39Z</time></trkpt><trkpt lat="47.81661905457038" lon="7.057712406101939"><ele>603.0</ele><time>2026-03-29T14:28:40Z</time></trkpt><trkpt lat="47.816751886114645" lon="7.057790519564502"><ele>603.0</ele><time>2026-03-29T14:28:41Z</time></trkpt><trkpt lat="47.81691077178669" lon="7.057958464351816"><ele>603.0</ele><time>2026-03-29T14:28:42Z</time></trkpt><trkpt lat="47.817091862387095" lon="7.058163822494496"><ele>603.6666666666666</ele><time>2026-03-29T14:28:43Z</time></trkpt><trkpt lat="47.81727728661577" lon="7.058324423193343"><ele>604.3333333333333</ele><time>2026-03-29T14:28:44Z</time></trkpt><trkpt lat="47.817488642493494" lon="7.058394898967681"><ele>605.0</ele><time>2026-03-29T14:28:45Z</time></trkpt><trkpt lat="47.81765392837753" lon="7.05850342003497"><ele>594.0</ele><time>2026-03-29T14:28:46Z</time></trkpt><trkpt lat="47.81779940688283" lon="7.05862747057251"><ele>583.0</ele><time>2026-03-29T14:28:47Z</time></trkpt><trkpt lat="47.8179743872647" lon="7.058825139766681"><ele>572.0</ele><time>2026-03-29T14:28:48Z</time></trkpt><trkpt lat="47.818139302929005" lon="7.0590229284897985"><ele>582.5</ele><time>2026-03-29T14:28:49Z</time></trkpt><trkpt lat="47.81831648409546" lon="7.059276907983502"><ele>593.0</ele><time>2026-03-29T14:28:50Z</time></trkpt><trkpt lat="47.81848296320044" lon="7.059542771039232"><ele>588.3333333333333</ele><time>2026-03-29T14:28:51Z</time></trkpt><trkpt lat="47.81864552705327" lon="7.059749137267592"><ele>583.6666666666666</ele><time>2026-03-29T14:28:52Z</time></trkpt><trkpt lat="47.818812898440875" lon="7.059884019727454"><ele>579.0</ele><time>2026-03-29T14:28:53Z</time></trkpt><trkpt lat="47.81895840397014" lon="7.059986300280723"><ele>579.0</ele><time>2026-03-29T14:28:54Z</time></trkpt><trkpt lat="47.81906032230821" lon="7.06010856714141"><ele>579.0</ele><time>2026-03-29T14:28:55Z</time></trkpt><trkpt lat="47.81914267056432" lon="7.060196702135767"><ele>579.0</ele><time>2026-03-29T14:28:56Z</time></trkpt><trkpt lat="47.819183801838555" lon="7.060346586001918"><ele>579.0</ele><time>2026-03-29T14:28:57Z</time></trkpt><trkpt lat="47.81913585200607" lon="7.060591778782659"><ele>582.5</ele><time>2026-03-29T14:28:58Z</time></trkpt><trkpt lat="47.819109482327626" lon="7.060920418891023"><ele>586.0</ele><time>2026-03-29T14:28:59Z</time></trkpt><trkpt lat="47.8190609732993" lon="7.061296960882233"><ele>584.0</ele><time>2026-03-29T14:29:00Z</time></trkpt><trkpt lat="47.819027709842466" lon="7.061725733860186"><ele>582.0</ele><time>2026-03-29T14:29:01Z</time></trkpt><trkpt lat="47.81901524875756" lon="7.062091904021674"><ele>582.0</ele><time>2026-03-29T14:29:02Z</time></trkpt><trkpt lat="47.8190086541209" lon="7.062344700259011"><ele>582.0</ele><time>2026-03-29T14:29:03Z</time></trkpt><trkpt lat="47.818979743977344" lon="7.062540788071746"><ele>582.0</ele><time>2026-03-29T14:29:04Z</time></trkpt><trkpt lat="47.81902922768068" lon="7.062806110995798"><ele>581.0</ele><time>2026-03-29T14:29:05Z</time></trkpt><trkpt lat="47.81911784572318" lon="7.063100372263189"><ele>580.0</ele><time>2026-03-29T14:29:06Z</time></trkpt><trkpt lat="47.819215754347695" lon="7.06340458067584"><ele>579.0</ele><time>2026-03-29T14:29:07Z</time></trkpt><trkpt lat="47.81929782521073" lon="7.063748476252202"><ele>563.0</ele><time>2026-03-29T14:29:08Z</time></trkpt><trkpt lat="47.81942313397636" lon="7.064066362128338"><ele>547.0</ele><time>2026-03-29T14:29:09Z</time></trkpt><trkpt lat="47.819544056324446" lon="7.06431697457185"><ele>547.0</ele><time>2026-03-29T14:29:10Z</time></trkpt><trkpt lat="47.81964963637853" lon="7.064535649461762"><ele>547.0</ele><time>2026-03-29T14:29:11Z</time></trkpt><trkpt lat="47.81972311789999" lon="7.064741849647462"><ele>547.0</ele><time>2026-03-29T14:29:12Z</time></trkpt><trkpt lat="47.819731877162184" lon="7.064965618373101"><ele>547.8000000000001</ele><time>2026-03-29T14:29:13Z</time></trkpt><trkpt lat="47.81973166277907" lon="7.065177120572477"><ele>548.6</ele><time>2026-03-29T14:29:14Z</time></trkpt><trkpt lat="47.81973219085243" lon="7.065326935355413"><ele>549.4000000000001</ele><time>2026-03-29T14:29:15Z</time></trkpt><trkpt lat="47.8197386440888" lon="7.065433927501052"><ele>550.2</ele><time>2026-03-29T14:29:16Z</time></trkpt><trkpt lat="47.81980649658974" lon="7.065486881260996"><ele>551.0</ele><time>2026-03-29T14:29:17Z</time></trkpt><trkpt lat="47.81991474443778" lon="7.06544893198033"><ele>551.0</ele><time>2026-03-29T14:29:18Z</time></trkpt><trkpt lat="47.81998684932156" lon="7.065307257310162"><ele>551.0</ele><time>2026-03-29T14:29:19Z</time></trkpt><trkpt lat="47.81996014618682" lon="7.065113260587404"><ele>551.0</ele><time>2026-03-29T14:29:20Z</time></trkpt><trkpt lat="47.819912192018116" lon="7.064906557703482"><ele>551.0</ele><time>2026-03-29T14:29:21Z</time></trkpt><trkpt lat="47.819837885353074" lon="7.064623883141931"><ele>549.0</ele><time>2026-03-29T14:29:22Z</time></trkpt><trkpt lat="47.81977322958137" lon="7.064287004152306"><ele>547.0</ele><time>2026-03-29T14:29:23Z</time></trkpt><trkpt lat="47.819678946710624" lon="7.06390642182298"><ele>545.0</ele><time>2026-03-29T14:29:24Z</time></trkpt><trkpt lat="47.81961951932247" lon="7.063548709296972"><ele>543.0</ele><time>2026-03-29T14:29:25Z</time></trkpt><trkpt lat="47.819574046585885" lon="7.063206981282825"><ele>543.6666666666666</ele><time>2026-03-29T14:29:26Z</time></trkpt><trkpt lat="47.81957598136255" lon="7.062907530612383"><ele>544.3333333333333</ele><time>2026-03-29T14:29:27Z</time></trkpt><trkpt lat="47.819607035437144" lon="7.062587297876979"><ele>545.0</ele><time>2026-03-29T14:29:28Z</time></trkpt><trkpt lat="47.8196456683723" lon="7.062242689716853"><ele>545.0</ele><time>2026-03-29T14:29:29Z</time></trkpt><trkpt lat="47.81970322649841" lon="7.06195071506728"><ele>545.0</ele><time>2026-03-29T14:29:30Z</time></trkpt><trkpt lat="47.81977154197021" lon="7.061751064303521"><ele>545.0</ele><time>2026-03-29T14:29:31Z</time></trkpt><trkpt lat="47.819880028921936" lon="7.061536705715786"><ele>545.6666666666666</ele><time>2026-03-29T14:29:32Z</time></trkpt><trkpt lat="47.82003341538873" lon="7.061285080620957"><ele>546.3333333333334</ele><time>2026-03-29T14:29:33Z</time></trkpt><trkpt lat="47.82017113610649" lon="7.061084637355536"><ele>547.0</ele><time>2026-03-29T14:29:34Z</time></trkpt><trkpt lat="47.82030999615015" lon="7.060909194100434"><ele>543.0</ele><time>2026-03-29T14:29:35Z</time></trkpt><trkpt lat="47.82042036680579" lon="7.060819018377504"><ele>539.0</ele><time>2026-03-29T14:29:36Z</time></trkpt><trkpt lat="47.82048569632234" lon="7.060781253272362"><ele>535.0</ele><time>2026-03-29T14:29:37Z</time></trkpt><trkpt lat="47.82058735028384" lon="7.060840503807462"><ele>531.0</ele><time>2026-03-29T14:29:38Z</time></trkpt><trkpt lat="47.82066143497187" lon="7.060957860998503"><ele>527.0</ele><time>2026-03-29T14:29:39Z</time></trkpt><trkpt lat="47.820675670179654" lon="7.061121211516952"><ele>527.0</ele><time>2026-03-29T14:29:40Z</time></trkpt><trkpt lat="47.82062645849862" lon="7.061260931174281"><ele>527.0</ele><time>2026-03-29T14:29:41Z</time></trkpt><trkpt lat="47.820524879359354" lon="7.0613228708685565"><ele>527.0</ele><time>2026-03-29T14:29:42Z</time></trkpt><trkpt lat="47.82040123054685" lon="7.061336739279847"><ele>527.0</ele><time>2026-03-29T14:29:43Z</time></trkpt><trkpt lat="47.820244735191366" lon="7.061391860779225"><ele>533.0</ele><time>2026-03-29T14:29:44Z</time></trkpt><trkpt lat="47.82009147707868" lon="7.061574114775513"><ele>539.0</ele><time>2026-03-29T14:29:45Z</time></trkpt><trkpt lat="47.82000652496975" lon="7.061788679627658"><ele>545.0</ele><time>2026-03-29T14:29:46Z</time></trkpt><trkpt lat="47.82000341245053" lon="7.062116480577787"><ele>545.0</ele><time>2026-03-29T14:29:47Z</time></trkpt><trkpt lat="47.820020519454616" lon="7.0624357592112545"><ele>545.0</ele><time>2026-03-29T14:29:48Z</time></trkpt><trkpt lat="47.82006980050931" lon="7.0628819711335025"><ele>527.0</ele><time>2026-03-29T14:29:49Z</time></trkpt><trkpt lat="47.82016127830456" lon="7.063294752725314"><ele>509.0</ele><time>2026-03-29T14:29:50Z</time></trkpt><trkpt lat="47.820298888295746" lon="7.063687635623416"><ele>509.0</ele><time>2026-03-29T14:29:51Z</time></trkpt><trkpt lat="47.820460823853665" lon="7.064075706815704"><ele>509.0</ele><time>2026-03-29T14:29:52Z</time></trkpt><trkpt lat="47.82065512100932" lon="7.064406224701609"><ele>509.5</ele><time>2026-03-29T14:29:53Z</time></trkpt><trkpt lat="47.82083106662532" lon="7.06474799213672"><ele>510.0</ele><time>2026-03-29T14:29:54Z</time></trkpt><trkpt lat="47.820951596824685" lon="7.065058224632397"><ele>499.66666666666663</ele><time>2026-03-29T14:29:55Z</time></trkpt><trkpt lat="47.82101339960403" lon="7.0652823877647775"><ele>489.3333333333333</ele><time>2026-03-29T14:29:56Z</time></trkpt><trkpt lat="47.821069264653026" lon="7.065609629714135"><ele>479.0</ele><time>2026-03-29T14:29:57Z</time></trkpt><trkpt lat="47.82109904720121" lon="7.065928730927967"><ele>479.0</ele><time>2026-03-29T14:29:58Z</time></trkpt><trkpt lat="47.821112830222226" lon="7.066271835022887"><ele>479.0</ele><time>2026-03-29T14:29:59Z</time></trkpt><trkpt lat="47.82109306713511" lon="7.066509680922383"><ele>479.0</ele><time>2026-03-29T14:30:00Z</time></trkpt><trkpt lat="47.82106130802583" lon="7.066651042480714"><ele>488.3333333333333</ele><time>2026-03-29T14:30:01Z</time></trkpt><trkpt lat="47.820965933748695" lon="7.0667800959948925"><ele>497.66666666666663</ele><time>2026-03-29T14:30:02Z</time></trkpt><trkpt lat="47.820836756157334" lon="7.066893784886358"><ele>507.0</ele><time>2026-03-29T14:30:03Z</time></trkpt><trkpt lat="47.82066502036165" lon="7.067087309810606"><ele>507.0</ele><time>2026-03-29T14:30:04Z</time></trkpt><trkpt lat="47.820474053839135" lon="7.067259283636159"><ele>507.0</ele><time>2026-03-29T14:30:05Z</time></trkpt><trkpt lat="47.82028037266379" lon="7.0673367725280904"><ele>507.0</ele><time>2026-03-29T14:30:06Z</time></trkpt><trkpt lat="47.820089924072484" lon="7.06732127261006"><ele>511.0</ele><time>2026-03-29T14:30:07Z</time></trkpt><trkpt lat="47.819903202210114" lon="7.06730009703446"><ele>515.0</ele><time>2026-03-29T14:30:08Z</time></trkpt><trkpt lat="47.81974277549787" lon="7.067342418217149"><ele>519.0</ele><time>2026-03-29T14:30:09Z</time></trkpt><trkpt lat="47.8195913318317" lon="7.0675033848595366"><ele>510.0</ele><time>2026-03-29T14:30:10Z</time></trkpt><trkpt lat="47.81942844315405" lon="7.067714553161051"><ele>501.0</ele><time>2026-03-29T14:30:11Z</time></trkpt><trkpt lat="47.81932526003846" lon="7.067914869679802"><ele>492.0</ele><time>2026-03-29T14:30:12Z</time></trkpt><trkpt lat="47.81934888066003" lon="7.068040188380798"><ele>492.0</ele><time>2026-03-29T14:30:13Z</time></trkpt><trkpt lat="47.81942542262308" lon="7.068261317338031"><ele>492.0</ele><time>2026-03-29T14:30:14Z</time></trkpt><trkpt lat="47.81947807758969" lon="7.068485257502261"><ele>492.0</ele><time>2026-03-29T14:30:15Z</time></trkpt><trkpt lat="47.81962577952793" lon="7.068833351549019"><ele>485.5</ele><time>2026-03-29T14:30:16Z</time></trkpt><trkpt lat="47.81976604251994" lon="7.06919496290597"><ele>479.0</ele><time>2026-03-29T14:30:17Z</time></trkpt><trkpt lat="47.819886063023645" lon="7.069492954794482"><ele>479.0</ele><time>2026-03-29T14:30:18Z</time></trkpt><trkpt lat="47.82007561736115" lon="7.069746451082345"><ele>479.0</ele><time>2026-03-29T14:30:19Z</time></trkpt><trkpt lat="47.820305959948016" lon="7.069989838706241"><ele>465.5</ele><time>2026-03-29T14:30:20Z</time></trkpt><trkpt lat="47.820552997882594" lon="7.070228248131258"><ele>452.0</ele><time>2026-03-29T14:30:21Z</time></trkpt><trkpt lat="47.82072172356768" lon="7.070435126067213"><ele>452.0</ele><time>2026-03-29T14:30:22Z</time></trkpt><trkpt lat="47.820795060001736" lon="7.070585813038799"><ele>452.0</ele><time>2026-03-29T14:30:23Z</time></trkpt><trkpt lat="47.820914334929085" lon="7.070841653547203"><ele>452.0</ele><time>2026-03-29T14:30:24Z</time></trkpt><trkpt lat="47.82100353306889" lon="7.0710993730172556"><ele>445.0</ele><time>2026-03-29T14:30:25Z</time></trkpt><trkpt lat="47.82106496898854" lon="7.071365591217691"><ele>438.0</ele><time>2026-03-29T14:30:26Z</time></trkpt><trkpt lat="47.82109271355523" lon="7.071623570437253"><ele>431.0</ele><time>2026-03-29T14:30:27Z</time></trkpt><trkpt lat="47.82107982803294" lon="7.071923212397475"><ele>431.0</ele><time>2026-03-29T14:30:28Z</time></trkpt><trkpt lat="47.82103543733647" lon="7.072285048042348"><ele>431.0</ele><time>2026-03-29T14:30:29Z</time></trkpt><trkpt lat="47.821006839110694" lon="7.072633816281163"><ele>428.5</ele><time>2026-03-29T14:30:30Z</time></trkpt><trkpt lat="47.82099108846416" lon="7.07290274492338"><ele>426.0</ele><time>2026-03-29T14:30:31Z</time></trkpt><trkpt lat="47.82094974844523" lon="7.073066406003855"><ele>423.5</ele><time>2026-03-29T14:30:32Z</time></trkpt><trkpt lat="47.82089679145602" lon="7.073161145007054"><ele>421.0</ele><time>2026-03-29T14:30:33Z</time></trkpt><trkpt lat="47.82077851937091" lon="7.073170129848072"><ele>435.0</ele><time>2026-03-29T14:30:34Z</time></trkpt><trkpt lat="47.820608925854145" lon="7.073179954110604"><ele>449.0</ele><time>2026-03-29T14:30:35Z</time></trkpt><trkpt lat="47.820403188155154" lon="7.073213716315175"><ele>463.0</ele><time>2026-03-29T14:30:36Z</time></trkpt><trkpt lat="47.82019699792184" lon="7.0731903607167785"><ele>466.5</ele><time>2026-03-29T14:30:37Z</time></trkpt><trkpt lat="47.82003956086005" lon="7.073144602893126"><ele>470.0</ele><time>2026-03-29T14:30:38Z</time></trkpt><trkpt lat="47.81992984334638" lon="7.0731728883961145"><ele>473.5</ele><time>2026-03-29T14:30:39Z</time></trkpt><trkpt lat="47.819843478268965" lon="7.073314804757999"><ele>477.0</ele><time>2026-03-29T14:30:40Z</time></trkpt><trkpt lat="47.81975641257726" lon="7.073551830924352"><ele>465.66666666666663</ele><time>2026-03-29T14:30:41Z</time></trkpt><trkpt lat="47.81963457359935" lon="7.073788346981718"><ele>454.3333333333333</ele><time>2026-03-29T14:30:42Z</time></trkpt><trkpt lat="47.81952544680736" lon="7.0739925373208"><ele>443.0</ele><time>2026-03-29T14:30:43Z</time></trkpt><trkpt lat="47.81947222413727" lon="7.074155684857509"><ele>436.3333333333333</ele><time>2026-03-29T14:30:44Z</time></trkpt><trkpt lat="47.8195130253758" lon="7.074340161195515"><ele>429.66666666666663</ele><time>2026-03-29T14:30:45Z</time></trkpt><trkpt lat="47.81959834242579" lon="7.074574238945236"><ele>423.0</ele><time>2026-03-29T14:30:46Z</time></trkpt><trkpt lat="47.81967158646682" lon="7.074889171097052"><ele>421.25</ele><time>2026-03-29T14:30:47Z</time></trkpt><trkpt lat="47.81971918155355" lon="7.075145279835643"><ele>419.5</ele><time>2026-03-29T14:30:48Z</time></trkpt><trkpt lat="47.81968502964291" lon="7.075357860093406"><ele>417.75</ele><time>2026-03-29T14:30:49Z</time></trkpt><trkpt lat="47.81968936244685" lon="7.0755245188028315"><ele>416.0</ele><time>2026-03-29T14:30:50Z</time></trkpt><trkpt lat="47.819750330131896" lon="7.0756573648684284"><ele>416.0</ele><time>2026-03-29T14:30:51Z</time></trkpt><trkpt lat="47.819842420655355" lon="7.07566072141036"><ele>416.0</ele><time>2026-03-29T14:30:52Z</time></trkpt><trkpt lat="47.81994268232844" lon="7.0755554092854265"><ele>416.0</ele><time>2026-03-29T14:30:53Z</time></trkpt><trkpt lat="47.820009449848776" lon="7.075340665976348"><ele>416.0</ele><time>2026-03-29T14:30:54Z</time></trkpt><trkpt lat="47.82003087442904" lon="7.075078849586344"><ele>417.16666666666663</ele><time>2026-03-29T14:30:55Z</time></trkpt><trkpt lat="47.819998595818966" lon="7.0748865082758"><ele>418.3333333333333</ele><time>2026-03-29T14:30:56Z</time></trkpt><trkpt lat="47.8199432014847" lon="7.074766264810689"><ele>419.5</ele><time>2026-03-29T14:30:57Z</time></trkpt><trkpt lat="47.81990302915169" lon="7.074681104171762"><ele>420.66666666666663</ele><time>2026-03-29T14:30:58Z</time></trkpt><trkpt lat="47.81990054049291" lon="7.074585954112932"><ele>421.8333333333333</ele><time>2026-03-29T14:30:59Z</time></trkpt><trkpt lat="47.81993276291675" lon="7.074489803718283"><ele>423.0</ele><time>2026-03-29T14:31:00Z</time></trkpt><trkpt lat="47.82001669583971" lon="7.074435326945945"><ele>423.0</ele><time>2026-03-29T14:31:01Z</time></trkpt><trkpt lat="47.820128485352626" lon="7.07441162128808"><ele>423.0</ele><time>2026-03-29T14:31:02Z</time></trkpt><trkpt lat="47.820293687721446" lon="7.074368198344254"><ele>423.0</ele><time>2026-03-29T14:31:03Z</time></trkpt><trkpt lat="47.82050743646594" lon="7.0743639602220805"><ele>420.33333333333337</ele><time>2026-03-29T14:31:04Z</time></trkpt><trkpt lat="47.820739168725424" lon="7.074394228922739"><ele>417.6666666666667</ele><time>2026-03-29T14:31:05Z</time></trkpt><trkpt lat="47.82093502405069" lon="7.074454905459451"><ele>415.0</ele><time>2026-03-29T14:31:06Z</time></trkpt><trkpt lat="47.821081241655605" lon="7.0745897061869965"><ele>413.33333333333337</ele><time>2026-03-29T14:31:07Z</time></trkpt><trkpt lat="47.821224767715705" lon="7.0748122812991125"><ele>411.66666666666663</ele><time>2026-03-29T14:31:08Z</time></trkpt><trkpt lat="47.821358584050195" lon="7.075061203714074"><ele>410.0</ele><time>2026-03-29T14:31:09Z</time></trkpt><trkpt lat="47.82147335259663" lon="7.075221992387537"><ele>408.0</ele><time>2026-03-29T14:31:10Z</time></trkpt><trkpt lat="47.821582941716215" lon="7.075308931487144"><ele>406.0</ele><time>2026-03-29T14:31:11Z</time></trkpt><trkpt lat="47.82171067182308" lon="7.075280220920092"><ele>404.0</ele><time>2026-03-29T14:31:12Z</time></trkpt><trkpt lat="47.8218223942212" lon="7.075142068234467"><ele>402.0</ele><time>2026-03-29T14:31:13Z</time></trkpt><trkpt lat="47.82189836293645" lon="7.074907714788123"><ele>398.66666666666663</ele><time>2026-03-29T14:31:14Z</time></trkpt><trkpt lat="47.82195379398861" lon="7.074602084770831"><ele>395.3333333333333</ele><time>2026-03-29T14:31:15Z</time></trkpt><trkpt lat="47.82203003725115" lon="7.074268288845481"><ele>392.0</ele><time>2026-03-29T14:31:16Z</time></trkpt><trkpt lat="47.82213493782262" lon="7.073893886712805"><ele>392.0</ele><time>2026-03-29T14:31:17Z</time></trkpt><trkpt lat="47.822282352879405" lon="7.073509996829259"><ele>392.0</ele><time>2026-03-29T14:31:18Z</time></trkpt><trkpt lat="47.82246155235696" lon="7.07314647378907"><ele>389.0</ele><time>2026-03-29T14:31:19Z</time></trkpt><trkpt lat="47.8226529082007" lon="7.072800136093651"><ele>386.0</ele><time>2026-03-29T14:31:20Z</time></trkpt><trkpt lat="47.822859162734204" lon="7.072499404060367"><ele>387.0</ele><time>2026-03-29T14:31:21Z</time></trkpt><trkpt lat="47.82304171510359" lon="7.072255516618426"><ele>388.0</ele><time>2026-03-29T14:31:22Z</time></trkpt><trkpt lat="47.82317127697928" lon="7.072099904914612"><ele>389.0</ele><time>2026-03-29T14:31:23Z</time></trkpt><trkpt lat="47.82330183043039" lon="7.072037272079216"><ele>389.0</ele><time>2026-03-29T14:31:24Z</time></trkpt><trkpt lat="47.82345938747799" lon="7.072002640854292"><ele>389.0</ele><time>2026-03-29T14:31:25Z</time></trkpt><trkpt lat="47.823662317206974" lon="7.0719362429094454"><ele>389.0</ele><time>2026-03-29T14:31:26Z</time></trkpt><trkpt lat="47.823889561893736" lon="7.0718865709400704"><ele>385.66666666666663</ele><time>2026-03-29T14:31:27Z</time></trkpt><trkpt lat="47.824084613791406" lon="7.071775811148044"><ele>382.3333333333333</ele><time>2026-03-29T14:31:28Z</time></trkpt><trkpt lat="47.82424147491301" lon="7.071621279115128"><ele>379.0</ele><time>2026-03-29T14:31:29Z</time></trkpt><trkpt lat="47.82440528257583" lon="7.071531729740067"><ele>377.3333333333333</ele><time>2026-03-29T14:31:30Z</time></trkpt><trkpt lat="47.8245786839404" lon="7.071498966346302"><ele>375.6666666666667</ele><time>2026-03-29T14:31:31Z</time></trkpt><trkpt lat="47.82474373117354" lon="7.0714825352755755"><ele>374.0</ele><time>2026-03-29T14:31:32Z</time></trkpt><trkpt lat="47.82489862065608" lon="7.0714518188200435"><ele>374.0</ele><time>2026-03-29T14:31:33Z</time></trkpt><trkpt lat="47.825052467929474" lon="7.07142770791342"><ele>374.0</ele><time>2026-03-29T14:31:34Z</time></trkpt><trkpt lat="47.82519467297644" lon="7.071388719094023"><ele>374.0</ele><time>2026-03-29T14:31:35Z</time></trkpt><trkpt lat="47.825311654790625" lon="7.07140280573119"><ele>374.0</ele><time>2026-03-29T14:31:36Z</time></trkpt><trkpt lat="47.825393148177476" lon="7.071414068870079"><ele>373.4</ele><time>2026-03-29T14:31:37Z</time></trkpt><trkpt lat="47.825463697607056" lon="7.071433511029197"><ele>372.79999999999995</ele><time>2026-03-29T14:31:39Z</time></trkpt><trkpt lat="47.825615154773004" lon="7.07150364136039"><ele>372.20000000000005</ele><time>2026-03-29T14:32:19Z</time></trkpt><trkpt lat="47.82571567934603" lon="7.071579686334265"><ele>371.6</ele><time>2026-03-29T14:32:21Z</time></trkpt><trkpt lat="47.82579684259939" lon="7.071663113235708"><ele>371.0</ele><time>2026-03-29T14:32:22Z</time></trkpt><trkpt lat="47.82587238643505" lon="7.071802445653781"><ele>370.33333333333337</ele><time>2026-03-29T14:32:23Z</time></trkpt><trkpt lat="47.82595240624119" lon="7.071988877300161"><ele>369.6666666666667</ele><time>2026-03-29T14:32:24Z</time></trkpt><trkpt lat="47.826025908405825" lon="7.072222520971331"><ele>369.0</ele><time>2026-03-29T14:32:25Z</time></trkpt><trkpt lat="47.82604401883477" lon="7.072544354176314"><ele>373.0</ele><time>2026-03-29T14:32:26Z</time></trkpt><trkpt lat="47.826071939126095" lon="7.072855183196128"><ele>377.0</ele><time>2026-03-29T14:32:27Z</time></trkpt><trkpt lat="47.82606952521005" lon="7.0731241728372725"><ele>381.0</ele><time>2026-03-29T14:32:28Z</time></trkpt><trkpt lat="47.82608701420196" lon="7.073340036174711"><ele>381.0</ele><time>2026-03-29T14:32:29Z</time></trkpt><trkpt lat="47.82609488051709" lon="7.073535688505649"><ele>381.0</ele><time>2026-03-29T14:32:30Z</time></trkpt><trkpt lat="47.826100887760205" lon="7.073725880061652"><ele>381.0</ele><time>2026-03-29T14:32:31Z</time></trkpt><trkpt lat="47.82611582841214" lon="7.07392675363798"><ele>381.0</ele><time>2026-03-29T14:32:32Z</time></trkpt><trkpt lat="47.82612304225095" lon="7.074113269703843"><ele>379.75</ele><time>2026-03-29T14:32:33Z</time></trkpt><trkpt lat="47.82612709572997" lon="7.074276090892384"><ele>378.5</ele><time>2026-03-29T14:32:34Z</time></trkpt><trkpt lat="47.826132776200296" lon="7.074446857050906"><ele>377.25</ele><time>2026-03-29T14:32:35Z</time></trkpt><trkpt lat="47.82614054030766" lon="7.074637120367062"><ele>376.0</ele><time>2026-03-29T14:32:36Z</time></trkpt><trkpt lat="47.826163645072924" lon="7.0748210251516275"><ele>374.25</ele><time>2026-03-29T14:32:37Z</time></trkpt><trkpt lat="47.82620309383516" lon="7.074989992881387"><ele>372.5</ele><time>2026-03-29T14:32:38Z</time></trkpt><trkpt lat="47.8262483121642" lon="7.075160312155928"><ele>370.75</ele><time>2026-03-29T14:32:39Z</time></trkpt><trkpt lat="47.82630625378846" lon="7.075327695532356"><ele>369.0</ele><time>2026-03-29T14:32:40Z</time></trkpt><trkpt lat="47.82637426965465" lon="7.075487153842764"><ele>369.0</ele><time>2026-03-29T14:32:41Z</time></trkpt><trkpt lat="47.82645751598073" lon="7.075643578114945"><ele>369.0</ele><time>2026-03-29T14:32:42Z</time></trkpt><trkpt lat="47.82654423091538" lon="7.07578856976797"><ele>369.0</ele><time>2026-03-29T14:32:43Z</time></trkpt><trkpt lat="47.826636211483816" lon="7.075930521768921"><ele>369.0</ele><time>2026-03-29T14:32:44Z</time></trkpt><trkpt lat="47.826731362232806" lon="7.076060533341349"><ele>368.25</ele><time>2026-03-29T14:32:45Z</time></trkpt><trkpt lat="47.82682879327879" lon="7.076185416234573"><ele>367.5</ele><time>2026-03-29T14:32:46Z</time></trkpt><trkpt lat="47.82693316206297" lon="7.076302019526396"><ele>366.75</ele><time>2026-03-29T14:32:47Z</time></trkpt><trkpt lat="47.827046621860376" lon="7.076409329861653"><ele>366.0</ele><time>2026-03-29T14:32:48Z</time></trkpt><trkpt lat="47.82716722462374" lon="7.076504860327642"><ele>366.0</ele><time>2026-03-29T14:32:49Z</time></trkpt><trkpt lat="47.8272878687898" lon="7.07659682957758"><ele>366.0</ele><time>2026-03-29T14:32:50Z</time></trkpt><trkpt lat="47.827401578526775" lon="7.076689441452265"><ele>366.0</ele><time>2026-03-29T14:32:51Z</time></trkpt><trkpt lat="47.827503026056654" lon="7.076770736097959"><ele>366.0</ele><time>2026-03-29T14:32:52Z</time></trkpt><trkpt lat="47.827608477672904" lon="7.076850287774459"><ele>364.5</ele><time>2026-03-29T14:32:53Z</time></trkpt><trkpt lat="47.8277689982207" lon="7.076936327797746"><ele>363.0</ele><time>2026-03-29T14:32:54Z</time></trkpt><trkpt lat="47.82789683404389" lon="7.076977214583705"><ele>361.5</ele><time>2026-03-29T14:32:55Z</time></trkpt><trkpt lat="47.828005044322694" lon="7.077013845076162"><ele>360.0</ele><time>2026-03-29T14:32:56Z</time></trkpt><trkpt lat="47.82809370120905" lon="7.077079630041649"><ele>360.0</ele><time>2026-03-29T14:32:57Z</time></trkpt><trkpt lat="47.82817949168764" lon="7.077167538700659"><ele>360.0</ele><time>2026-03-29T14:32:58Z</time></trkpt><trkpt lat="47.82827892682442" lon="7.077295890296107"><ele>360.0</ele><time>2026-03-29T14:32:59Z</time></trkpt><trkpt lat="47.82832526009643" lon="7.077454851162402"><ele>360.0</ele><time>2026-03-29T14:33:00Z</time></trkpt><trkpt lat="47.828367606522384" lon="7.077636612222202"><ele>359.25</ele><time>2026-03-29T14:33:01Z</time></trkpt><trkpt lat="47.82840848708155" lon="7.077819412240673"><ele>358.5</ele><time>2026-03-29T14:33:02Z</time></trkpt><trkpt lat="47.82846193501382" lon="7.077984236889933"><ele>357.75</ele><time>2026-03-29T14:33:03Z</time></trkpt><trkpt lat="47.82849274346461" lon="7.078142506532771"><ele>357.0</ele><time>2026-03-29T14:33:04Z</time></trkpt><trkpt lat="47.82852364264566" lon="7.078301490655336"><ele>356.6</ele><time>2026-03-29T14:33:05Z</time></trkpt><trkpt lat="47.828571088620606" lon="7.078454918712054"><ele>356.20000000000005</ele><time>2026-03-29T14:33:06Z</time></trkpt><trkpt lat="47.82861958833079" lon="7.0785870617410485"><ele>355.8</ele><time>2026-03-29T14:33:07Z</time></trkpt><trkpt lat="47.82866424009786" lon="7.078701956472532"><ele>355.4</ele><time>2026-03-29T14:33:08Z</time></trkpt><trkpt lat="47.828711883602445" lon="7.0787974798638995"><ele>355.0</ele><time>2026-03-29T14:33:09Z</time></trkpt><trkpt lat="47.82874137887919" lon="7.078892804373881"><ele>355.0</ele><time>2026-03-29T14:33:10Z</time></trkpt><trkpt lat="47.82877805684253" lon="7.078979698201065"><ele>355.0</ele><time>2026-03-29T14:33:11Z</time></trkpt><trkpt lat="47.82881660503826" lon="7.07908210660997"><ele>355.0</ele><time>2026-03-29T14:33:13Z</time></trkpt><trkpt lat="47.82884832712863" lon="7.079200014662154"><ele>355.0</ele><time>2026-03-29T14:34:05Z</time></trkpt><trkpt lat="47.828899527512874" lon="7.079336155858797"><ele>355.0</ele><time>2026-03-29T14:34:08Z</time></trkpt><trkpt lat="47.82894244860364" lon="7.079450282529442"><ele>355.0</ele><time>2026-03-29T14:34:10Z</time></trkpt><trkpt lat="47.82898905837177" lon="7.079574217353474"><ele>355.0</ele><time>2026-03-29T14:34:12Z</time></trkpt><trkpt lat="47.82903586233208" lon="7.079704181365333"><ele>355.0</ele><time>2026-03-29T14:34:14Z</time></trkpt><trkpt lat="47.82892146717524" lon="7.0798182425113"><ele>355.0</ele><time>2026-03-29T14:34:16Z</time></trkpt><trkpt lat="47.82883645460436" lon="7.079899329739854"><ele>355.0</ele><time>2026-03-29T14:34:17Z</time></trkpt><trkpt lat="47.8287320965179" lon="7.0799872515209"><ele>355.0</ele><time>2026-03-29T14:34:18Z</time></trkpt><trkpt lat="47.82861641438888" lon="7.080080450429901"><ele>355.0</ele><time>2026-03-29T14:34:19Z</time></trkpt><trkpt lat="47.82850955602801" lon="7.080175592325953"><ele>355.0</ele><time>2026-03-29T14:34:20Z</time></trkpt><trkpt lat="47.82841496523992" lon="7.0802531640810145"><ele>355.0</ele><time>2026-03-29T14:34:21Z</time></trkpt><trkpt lat="47.82831562052012" lon="7.080336725218555"><ele>355.2</ele><time>2026-03-29T14:34:22Z</time></trkpt><trkpt lat="47.828212992496034" lon="7.080423936659752"><ele>355.4</ele><time>2026-03-29T14:34:23Z</time></trkpt><trkpt lat="47.82811983978076" lon="7.080504514399278"><ele>355.6</ele><time>2026-03-29T14:34:24Z</time></trkpt><trkpt lat="47.82802994434225" lon="7.08057827760257"><ele>355.8</ele><time>2026-03-29T14:34:25Z</time></trkpt><trkpt lat="47.82793131109377" lon="7.080661090839048"><ele>356.0</ele><time>2026-03-29T14:34:26Z</time></trkpt><trkpt lat="47.82782567212165" lon="7.080741950020819"><ele>356.0</ele><time>2026-03-29T14:34:27Z</time></trkpt><trkpt lat="47.82771303556261" lon="7.080819285979488"><ele>356.0</ele><time>2026-03-29T14:34:28Z</time></trkpt><trkpt lat="47.8275979294928" lon="7.080881274651251"><ele>356.0</ele><time>2026-03-29T14:34:29Z</time></trkpt><trkpt lat="47.82747679032731" lon="7.0809287644530015"><ele>356.0</ele><time>2026-03-29T14:34:30Z</time></trkpt><trkpt lat="47.82735062986028" lon="7.080964970470302"><ele>356.0</ele><time>2026-03-29T14:34:31Z</time></trkpt><trkpt lat="47.82721530936882" lon="7.080994914147294"><ele>356.0</ele><time>2026-03-29T14:34:32Z</time></trkpt><trkpt lat="47.82705968277437" lon="7.08102588029564"><ele>356.0</ele><time>2026-03-29T14:34:33Z</time></trkpt><trkpt lat="47.82688320616081" lon="7.081063117379667"><ele>356.33333333333337</ele><time>2026-03-29T14:34:34Z</time></trkpt><trkpt lat="47.82668367613147" lon="7.08110968524509"><ele>356.6666666666667</ele><time>2026-03-29T14:34:35Z</time></trkpt><trkpt lat="47.826479747501416" lon="7.081152212329117"><ele>357.0</ele><time>2026-03-29T14:34:36Z</time></trkpt><trkpt lat="47.82630342422124" lon="7.081175578621005"><ele>357.0</ele><time>2026-03-29T14:34:37Z</time></trkpt><trkpt lat="47.8261398473985" lon="7.081199691963285"><ele>357.0</ele><time>2026-03-29T14:34:38Z</time></trkpt><trkpt lat="47.82598503860023" lon="7.081227670405826"><ele>357.0</ele><time>2026-03-29T14:34:39Z</time></trkpt><trkpt lat="47.82583806241275" lon="7.081252922588211"><ele>356.75</ele><time>2026-03-29T14:34:40Z</time></trkpt><trkpt lat="47.825693081227115" lon="7.081283662074768"><ele>356.5</ele><time>2026-03-29T14:34:41Z</time></trkpt><trkpt lat="47.82554953445382" lon="7.081316392825857"><ele>356.25</ele><time>2026-03-29T14:34:42Z</time></trkpt><trkpt lat="47.82540138207314" lon="7.081346490107617"><ele>356.0</ele><time>2026-03-29T14:34:43Z</time></trkpt><trkpt lat="47.82524747529489" lon="7.081376584408873"><ele>356.6666666666667</ele><time>2026-03-29T14:34:44Z</time></trkpt><trkpt lat="47.8250969664194" lon="7.081409316682298"><ele>357.3333333333333</ele><time>2026-03-29T14:34:45Z</time></trkpt><trkpt lat="47.824948521730455" lon="7.0814366173553"><ele>358.0</ele><time>2026-03-29T14:34:46Z</time></trkpt><trkpt lat="47.824799038520496" lon="7.081465907920908"><ele>358.0</ele><time>2026-03-29T14:34:47Z</time></trkpt><trkpt lat="47.82464720657251" lon="7.081501622297405"><ele>358.0</ele><time>2026-03-29T14:34:48Z</time></trkpt><trkpt lat="47.82449043110498" lon="7.081536400190983"><ele>358.0</ele><time>2026-03-29T14:34:49Z</time></trkpt><trkpt lat="47.82433732926647" lon="7.081562583597575"><ele>357.0</ele><time>2026-03-29T14:34:50Z</time></trkpt><trkpt lat="47.82419564634494" lon="7.081586260065173"><ele>356.0</ele><time>2026-03-29T14:34:51Z</time></trkpt><trkpt lat="47.82406197708359" lon="7.081611290756986"><ele>355.0</ele><time>2026-03-29T14:34:52Z</time></trkpt><trkpt lat="47.82392295155956" lon="7.081641863516377"><ele>354.0</ele><time>2026-03-29T14:34:53Z</time></trkpt><trkpt lat="47.82376842336872" lon="7.081675981549257"><ele>353.6666666666667</ele><time>2026-03-29T14:34:54Z</time></trkpt><trkpt lat="47.8236134299945" lon="7.081709882789869"><ele>353.33333333333337</ele><time>2026-03-29T14:34:55Z</time></trkpt><trkpt lat="47.82345969871188" lon="7.081741440038667"><ele>353.0</ele><time>2026-03-29T14:34:56Z</time></trkpt><trkpt lat="47.82331101896602" lon="7.081774446476466"><ele>353.0</ele><time>2026-03-29T14:34:57Z</time></trkpt><trkpt lat="47.82316215217272" lon="7.081805326182743"><ele>353.0</ele><time>2026-03-29T14:34:58Z</time></trkpt><trkpt lat="47.82301380575646" lon="7.081833301668961"><ele>353.0</ele><time>2026-03-29T14:34:59Z</time></trkpt><trkpt lat="47.82286449560454" lon="7.081861547734975"><ele>353.0</ele><time>2026-03-29T14:35:00Z</time></trkpt><trkpt lat="47.82272135790118" lon="7.081892534648671"><ele>353.0</ele><time>2026-03-29T14:35:01Z</time></trkpt><trkpt lat="47.82257806313995" lon="7.08192178567504"><ele>353.0</ele><time>2026-03-29T14:35:02Z</time></trkpt><trkpt lat="47.82244664064087" lon="7.081952496980068"><ele>353.0</ele><time>2026-03-29T14:35:03Z</time></trkpt><trkpt lat="47.82230223989866" lon="7.081991519255221"><ele>353.0</ele><time>2026-03-29T14:35:04Z</time></trkpt><trkpt lat="47.822146315730166" lon="7.08203211471048"><ele>353.0</ele><time>2026-03-29T14:35:04.999Z</time></trkpt><trkpt lat="47.8219971534716" lon="7.082065970784355"><ele>353.0</ele><time>2026-03-29T14:35:05.999Z</time></trkpt><trkpt lat="47.821850870961946" lon="7.0820999399750635"><ele>352.5</ele><time>2026-03-29T14:35:06.999Z</time></trkpt><trkpt lat="47.8217045340509" lon="7.082127757534871"><ele>352.0</ele><time>2026-03-29T14:35:07.999Z</time></trkpt><trkpt lat="47.82156517377358" lon="7.082154766586946"><ele>351.5</ele><time>2026-03-29T14:35:08.999Z</time></trkpt><trkpt lat="47.82142437445392" lon="7.08218286929149"><ele>351.0</ele><time>2026-03-29T14:35:09.999Z</time></trkpt><trkpt lat="47.821284481196216" lon="7.082209113733757"><ele>351.0</ele><time>2026-03-29T14:35:10.999Z</time></trkpt><trkpt lat="47.82115256255819" lon="7.082234601551068"><ele>351.0</ele><time>2026-03-29T14:35:11.999Z</time></trkpt><trkpt lat="47.821019425281584" lon="7.082251612554744"><ele>351.0</ele><time>2026-03-29T14:35:12.999Z</time></trkpt><trkpt lat="47.82087900503222" lon="7.082269307903494"><ele>351.0</ele><time>2026-03-29T14:35:13.999Z</time></trkpt><trkpt lat="47.82074521682264" lon="7.082291123661118"><ele>351.5</ele><time>2026-03-29T14:35:14.999Z</time></trkpt><trkpt lat="47.820605737676395" lon="7.082314020978537"><ele>352.0</ele><time>2026-03-29T14:35:15.999Z</time></trkpt><trkpt lat="47.820470674395644" lon="7.08234056218585"><ele>352.5</ele><time>2026-03-29T14:35:16.999Z</time></trkpt><trkpt lat="47.82033649071898" lon="7.082377823779623"><ele>353.0</ele><time>2026-03-29T14:35:17.999Z</time></trkpt><trkpt lat="47.820206335340956" lon="7.082435875383443"><ele>353.0</ele><time>2026-03-29T14:35:18.999Z</time></trkpt><trkpt lat="47.82008097454134" lon="7.082507909893814"><ele>353.0</ele><time>2026-03-29T14:35:19.999Z</time></trkpt><trkpt lat="47.819960306269344" lon="7.082582568738156"><ele>353.0</ele><time>2026-03-29T14:35:20.999Z</time></trkpt><trkpt lat="47.81982967715375" lon="7.082664195112179"><ele>353.0</ele><time>2026-03-29T14:35:21.999Z</time></trkpt><trkpt lat="47.81969351534867" lon="7.082754068979396"><ele>353.0</ele><time>2026-03-29T14:35:22.999Z</time></trkpt><trkpt lat="47.819563538889945" lon="7.082850767276514"><ele>353.0</ele><time>2026-03-29T14:35:23.999Z</time></trkpt><trkpt lat="47.81944560258771" lon="7.082946506653799"><ele>353.0</ele><time>2026-03-29T14:35:24.999Z</time></trkpt><trkpt lat="47.81933885978237" lon="7.08303707602324"><ele>353.0</ele><time>2026-03-29T14:35:25.999Z</time></trkpt><trkpt lat="47.81922731350987" lon="7.083131412531749"><ele>351.75</ele><time>2026-03-29T14:35:26.999Z</time></trkpt><trkpt lat="47.81911225465087" lon="7.083235001559689"><ele>350.5</ele><time>2026-03-29T14:35:27.999Z</time></trkpt><trkpt lat="47.8189982364099" lon="7.083339335588609"><ele>349.25</ele><time>2026-03-29T14:35:28.999Z</time></trkpt><trkpt lat="47.818897392593584" lon="7.083435355868456"><ele>348.0</ele><time>2026-03-29T14:35:29.999Z</time></trkpt><trkpt lat="47.81880148953824" lon="7.08353032412611"><ele>348.0</ele><time>2026-03-29T14:35:30.999Z</time></trkpt><trkpt lat="47.818709162342664" lon="7.08362119201918"><ele>348.0</ele><time>2026-03-29T14:35:31.999Z</time></trkpt><trkpt lat="47.81862200709115" lon="7.083705618620994"><ele>348.0</ele><time>2026-03-29T14:35:32.999Z</time></trkpt><trkpt lat="47.81853893114196" lon="7.0837909520142865"><ele>348.0</ele><time>2026-03-29T14:35:33.999Z</time></trkpt><trkpt lat="47.81845300308825" lon="7.083877218661011"><ele>348.0</ele><time>2026-03-29T14:35:34.999Z</time></trkpt><trkpt lat="47.81837408329762" lon="7.083958859201951"><ele>348.2</ele><time>2026-03-29T14:35:35.999Z</time></trkpt><trkpt lat="47.818273363352105" lon="7.084054401845239"><ele>348.4</ele><time>2026-03-29T14:35:36.999Z</time></trkpt><trkpt lat="47.81818494152424" lon="7.084144111384577"><ele>348.59999999999997</ele><time>2026-03-29T14:35:37.999Z</time></trkpt><trkpt lat="47.81809726316873" lon="7.08423553642514"><ele>348.79999999999995</ele><time>2026-03-29T14:35:38.999Z</time></trkpt><trkpt lat="47.81800332350909" lon="7.08432967651167"><ele>349.0</ele><time>2026-03-29T14:35:39.999Z</time></trkpt><trkpt lat="47.81791311576203" lon="7.084422960992569"><ele>349.0</ele><time>2026-03-29T14:35:40.999Z</time></trkpt><trkpt lat="47.81781695338996" lon="7.08451847031515"><ele>349.0</ele><time>2026-03-29T14:35:41.999Z</time></trkpt><trkpt lat="47.81772812624176" lon="7.0846087195230645"><ele>349.0</ele><time>2026-03-29T14:35:42.999Z</time></trkpt><trkpt lat="47.81764729506821" lon="7.084694961121146"><ele>349.0</ele><time>2026-03-29T14:35:43.999Z</time></trkpt><trkpt lat="47.81756406737721" lon="7.0847802265148125"><ele>349.0</ele><time>2026-03-29T14:35:44.999Z</time></trkpt><trkpt lat="47.817473246985706" lon="7.084881297502702"><ele>349.0</ele><time>2026-03-29T14:35:45.999Z</time></trkpt><trkpt lat="47.81737901363476" lon="7.084983773188301"><ele>349.0</ele><time>2026-03-29T14:35:46.999Z</time></trkpt><trkpt lat="47.81728342601985" lon="7.085074403759003"><ele>349.0</ele><time>2026-03-29T14:35:47.999Z</time></trkpt><trkpt lat="47.81719190277239" lon="7.085158193218529"><ele>349.0</ele><time>2026-03-29T14:35:48.999Z</time></trkpt><trkpt lat="47.81710106660917" lon="7.085249117855626"><ele>349.0</ele><time>2026-03-29T14:35:49.999Z</time></trkpt><trkpt lat="47.81701045280958" lon="7.085347230353214"><ele>349.0</ele><time>2026-03-29T14:35:50.999Z</time></trkpt><trkpt lat="47.816912300851506" lon="7.0854530895188805"><ele>349.0</ele><time>2026-03-29T14:35:51.999Z</time></trkpt><trkpt lat="47.81681355538305" lon="7.0855653590991245"><ele>349.0</ele><time>2026-03-29T14:35:52.999Z</time></trkpt><trkpt lat="47.81672330672882" lon="7.085672624472243"><ele>349.0</ele><time>2026-03-29T14:35:53.999Z</time></trkpt><trkpt lat="47.81663768073984" lon="7.085772259765769"><ele>348.4</ele><time>2026-03-29T14:35:54.999Z</time></trkpt><trkpt lat="47.8165573530309" lon="7.085866150809446"><ele>347.79999999999995</ele><time>2026-03-29T14:35:55.999Z</time></trkpt><trkpt lat="47.816479184396805" lon="7.085968783909474"><ele>347.20000000000005</ele><time>2026-03-29T14:35:56.999Z</time></trkpt><trkpt lat="47.81639988975945" lon="7.086079333453903"><ele>346.6</ele><time>2026-03-29T14:35:57.999Z</time></trkpt><trkpt lat="47.816326808913495" lon="7.086207915658782"><ele>346.0</ele><time>2026-03-29T14:35:58.999Z</time></trkpt><trkpt lat="47.81625942514493" lon="7.086348880733806"><ele>346.0</ele><time>2026-03-29T14:36:00Z</time></trkpt><trkpt lat="47.81618622989592" lon="7.08652642196189"><ele>346.0</ele><time>2026-03-29T14:36:01Z</time></trkpt><trkpt lat="47.81609462415993" lon="7.0867268985545495"><ele>346.0</ele><time>2026-03-29T14:36:02Z</time></trkpt><trkpt lat="47.815995974746706" lon="7.086874654552021"><ele>346.0</ele><time>2026-03-29T14:36:03Z</time></trkpt><trkpt lat="47.8159006533232" lon="7.086994629214972"><ele>346.8</ele><time>2026-03-29T14:36:04Z</time></trkpt><trkpt lat="47.81581232555229" lon="7.087090931941315"><ele>347.6</ele><time>2026-03-29T14:36:05Z</time></trkpt><trkpt lat="47.815718165959126" lon="7.087162200349253"><ele>348.4</ele><time>2026-03-29T14:36:06Z</time></trkpt><trkpt lat="47.815610737512316" lon="7.087207127230292"><ele>349.2</ele><time>2026-03-29T14:36:07Z</time></trkpt><trkpt lat="47.81550696432185" lon="7.0872684373869985"><ele>350.0</ele><time>2026-03-29T14:36:08Z</time></trkpt><trkpt lat="47.81543826970768" lon="7.087391090402928"><ele>348.8</ele><time>2026-03-29T14:36:09Z</time></trkpt><trkpt lat="47.81537730937275" lon="7.087515238578076"><ele>347.6</ele><time>2026-03-29T14:36:10Z</time></trkpt><trkpt lat="47.815285219736786" lon="7.087579901623998"><ele>346.4</ele><time>2026-03-29T14:36:11Z</time></trkpt><trkpt lat="47.815200248266734" lon="7.087646921873346"><ele>345.2</ele><time>2026-03-29T14:36:12Z</time></trkpt><trkpt lat="47.81511080693101" lon="7.087715939166043"><ele>344.0</ele><time>2026-03-29T14:36:13Z</time></trkpt><trkpt lat="47.81501213318362" lon="7.087781319259322"><ele>344.0</ele><time>2026-03-29T14:36:14Z</time></trkpt><trkpt lat="47.814905534079564" lon="7.0878542038005"><ele>344.0</ele><time>2026-03-29T14:36:15Z</time></trkpt><trkpt lat="47.814799801031924" lon="7.087922546039237"><ele>344.0</ele><time>2026-03-29T14:36:16Z</time></trkpt><trkpt lat="47.81469038374776" lon="7.088002218985594"><ele>344.0</ele><time>2026-03-29T14:36:17Z</time></trkpt><trkpt lat="47.81458334367488" lon="7.088091699615499"><ele>344.0</ele><time>2026-03-29T14:36:18Z</time></trkpt><trkpt lat="47.81447196767641" lon="7.088209355945895"><ele>344.0</ele><time>2026-03-29T14:36:19Z</time></trkpt><trkpt lat="47.814347118105744" lon="7.088380443566559"><ele>344.0</ele><time>2026-03-29T14:36:20Z</time></trkpt><trkpt lat="47.814178194325564" lon="7.0885939115953995"><ele>344.0</ele><time>2026-03-29T14:36:21Z</time></trkpt><trkpt lat="47.814011254942116" lon="7.088875514034033"><ele>344.0</ele><time>2026-03-29T14:36:22Z</time></trkpt><trkpt lat="47.81386786687725" lon="7.089142391839817"><ele>344.0</ele><time>2026-03-29T14:36:23Z</time></trkpt><trkpt lat="47.81377126852338" lon="7.089409028027212"><ele>344.0</ele><time>2026-03-29T14:36:24Z</time></trkpt><trkpt lat="47.813703143702625" lon="7.0896614941762675"><ele>344.0</ele><time>2026-03-29T14:36:25Z</time></trkpt><trkpt lat="47.81365461911581" lon="7.089947902986676"><ele>344.0</ele><time>2026-03-29T14:36:26Z</time></trkpt><trkpt lat="47.813597007630726" lon="7.090306654726168"><ele>344.0</ele><time>2026-03-29T14:36:27Z</time></trkpt><trkpt lat="47.81355228435262" lon="7.0906307986609685"><ele>344.6666666666667</ele><time>2026-03-29T14:36:28Z</time></trkpt><trkpt lat="47.81353744877473" lon="7.090919775198487"><ele>345.3333333333333</ele><time>2026-03-29T14:36:29Z</time></trkpt><trkpt lat="47.813541657320755" lon="7.091170901298786"><ele>346.0</ele><time>2026-03-29T14:36:30Z</time></trkpt><trkpt lat="47.81357213306148" lon="7.091403449003424"><ele>345.75</ele><time>2026-03-29T14:36:31Z</time></trkpt><trkpt lat="47.81356640510996" lon="7.091651437209924"><ele>345.5</ele><time>2026-03-29T14:36:32Z</time></trkpt><trkpt lat="47.81358713065177" lon="7.091863267828222"><ele>345.25</ele><time>2026-03-29T14:36:33Z</time></trkpt><trkpt lat="47.813597939521344" lon="7.092063826830549"><ele>345.0</ele><time>2026-03-29T14:36:34Z</time></trkpt><trkpt lat="47.813598276302535" lon="7.092260399571959"><ele>345.0</ele><time>2026-03-29T14:36:35Z</time></trkpt><trkpt lat="47.813600798780435" lon="7.092454082204891"><ele>345.0</ele><time>2026-03-29T14:36:36Z</time></trkpt><trkpt lat="47.81360274236809" lon="7.09264081688619"><ele>345.0</ele><time>2026-03-29T14:36:37Z</time></trkpt><trkpt lat="47.813596170364555" lon="7.092813873647477"><ele>345.0</ele><time>2026-03-29T14:36:38Z</time></trkpt><trkpt lat="47.8135826807525" lon="7.0929952264661"><ele>345.0</ele><time>2026-03-29T14:36:39Z</time></trkpt><trkpt lat="47.81354574408109" lon="7.093182539562283"><ele>345.0</ele><time>2026-03-29T14:36:40Z</time></trkpt><trkpt lat="47.81350201564612" lon="7.093370811581405"><ele>345.0</ele><time>2026-03-29T14:36:41Z</time></trkpt><trkpt lat="47.81345387408432" lon="7.093536560427904"><ele>345.0</ele><time>2026-03-29T14:36:42Z</time></trkpt><trkpt lat="47.813405967440566" lon="7.0937031485698085"><ele>343.6666666666667</ele><time>2026-03-29T14:36:43Z</time></trkpt><trkpt lat="47.813351447791604" lon="7.09386580184764"><ele>342.33333333333337</ele><time>2026-03-29T14:36:44Z</time></trkpt><trkpt lat="47.81329935028687" lon="7.094060048416158"><ele>341.0</ele><time>2026-03-29T14:36:44.999Z</time></trkpt><trkpt lat="47.81318770643286" lon="7.094292252563632"><ele>340.6666666666667</ele><time>2026-03-29T14:36:45.999Z</time></trkpt><trkpt lat="47.813055245076164" lon="7.094572491460001"><ele>340.3333333333333</ele><time>2026-03-29T14:36:46.999Z</time></trkpt><trkpt lat="47.81295167973089" lon="7.0948107385482455"><ele>340.0</ele><time>2026-03-29T14:36:47.999Z</time></trkpt><trkpt lat="47.812846414797185" lon="7.094995903888806"><ele>340.4</ele><time>2026-03-29T14:36:48.999Z</time></trkpt><trkpt lat="47.8127639047696" lon="7.0951739693217855"><ele>340.8</ele><time>2026-03-29T14:36:49.999Z</time></trkpt><trkpt lat="47.812696380436215" lon="7.095327785275637"><ele>341.20000000000005</ele><time>2026-03-29T14:36:50.999Z</time></trkpt><trkpt lat="47.812645240601036" lon="7.095448137602871"><ele>341.6</ele><time>2026-03-29T14:36:51.999Z</time></trkpt><trkpt lat="47.812601031305114" lon="7.095548025954604"><ele>342.0</ele><time>2026-03-29T14:36:52.999Z</time></trkpt><trkpt lat="47.81254053987977" lon="7.095637442755057"><ele>341.75</ele><time>2026-03-29T14:36:57.999Z</time></trkpt><trkpt lat="47.81249459986962" lon="7.095754472018829"><ele>341.5</ele><time>2026-03-29T14:37:14.999Z</time></trkpt><trkpt lat="47.81244502017852" lon="7.095855582044141"><ele>341.25</ele><time>2026-03-29T14:37:15.999Z</time></trkpt><trkpt lat="47.81236369341739" lon="7.096039579693229"><ele>341.0</ele><time>2026-03-29T14:37:16.999Z</time></trkpt><trkpt lat="47.81225220745005" lon="7.096301875117145"><ele>341.5</ele><time>2026-03-29T14:37:17.999Z</time></trkpt><trkpt lat="47.81212250072221" lon="7.096596298703094"><ele>342.0</ele><time>2026-03-29T14:37:18.999Z</time></trkpt><trkpt lat="47.811980506834985" lon="7.0969258735394005"><ele>347.5</ele><time>2026-03-29T14:37:19.999Z</time></trkpt><trkpt lat="47.811820895468195" lon="7.097301364703605"><ele>353.0</ele><time>2026-03-29T14:37:20.999Z</time></trkpt><trkpt lat="47.8116557122207" lon="7.097687588652282"><ele>353.0</ele><time>2026-03-29T14:37:21.999Z</time></trkpt><trkpt lat="47.81148745990845" lon="7.098080778981513"><ele>353.0</ele><time>2026-03-29T14:37:22.999Z</time></trkpt><trkpt lat="47.81133375021096" lon="7.098436037761934"><ele>349.5</ele><time>2026-03-29T14:37:23.999Z</time></trkpt><trkpt lat="47.81119983728827" lon="7.098743034225309"><ele>346.0</ele><time>2026-03-29T14:37:24.999Z</time></trkpt><trkpt lat="47.811074417142514" lon="7.099016319248045"><ele>349.3333333333333</ele><time>2026-03-29T14:37:25.999Z</time></trkpt><trkpt lat="47.8109641705667" lon="7.099236654120275"><ele>352.6666666666667</ele><time>2026-03-29T14:37:26.999Z</time></trkpt><trkpt lat="47.81087000231474" lon="7.099423925305155"><ele>356.0</ele><time>2026-03-29T14:37:27.999Z</time></trkpt><trkpt lat="47.810787532583156" lon="7.099597005481696"><ele>356.0</ele><time>2026-03-29T14:37:28.999Z</time></trkpt><trkpt lat="47.81071053299398" lon="7.099755863568822"><ele>356.0</ele><time>2026-03-29T14:37:29.999Z</time></trkpt><trkpt lat="47.81063880088025" lon="7.099899124239361"><ele>356.0</ele><time>2026-03-29T14:37:30.999Z</time></trkpt><trkpt lat="47.810563186139746" lon="7.1000547474438"><ele>356.0</ele><time>2026-03-29T14:37:31.999Z</time></trkpt><trkpt lat="47.81048288471847" lon="7.100221042073384"><ele>353.75</ele><time>2026-03-29T14:37:32.999Z</time></trkpt><trkpt lat="47.810405358222184" lon="7.100386287949617"><ele>351.5</ele><time>2026-03-29T14:37:33.999Z</time></trkpt><trkpt lat="47.810326249760735" lon="7.100555895772866"><ele>349.25</ele><time>2026-03-29T14:37:34.999Z</time></trkpt><trkpt lat="47.81024751314383" lon="7.1007190934096895"><ele>347.0</ele><time>2026-03-29T14:37:35.999Z</time></trkpt><trkpt lat="47.81017054020244" lon="7.1008736877754535"><ele>346.5</ele><time>2026-03-29T14:37:36.999Z</time></trkpt><trkpt lat="47.810099425350124" lon="7.101025216762314"><ele>346.0</ele><time>2026-03-29T14:37:37.999Z</time></trkpt><trkpt lat="47.810028396913246" lon="7.101176355856818"><ele>345.5</ele><time>2026-03-29T14:37:38.999Z</time></trkpt><trkpt lat="47.80996652108893" lon="7.101315107072065"><ele>345.0</ele><time>2026-03-29T14:37:39.999Z</time></trkpt><trkpt lat="47.80991402223788" lon="7.1014439581662465"><ele>345.0</ele><time>2026-03-29T14:37:40.999Z</time></trkpt><trkpt lat="47.80986898442338" lon="7.101563831767715"><ele>345.0</ele><time>2026-03-29T14:37:41.999Z</time></trkpt><trkpt lat="47.80982777829972" lon="7.101679260466813"><ele>345.0</ele><time>2026-03-29T14:37:42.999Z</time></trkpt><trkpt lat="47.80978702940655" lon="7.101782983891525"><ele>345.0</ele><time>2026-03-29T14:37:43.999Z</time></trkpt><trkpt lat="47.809732525065726" lon="7.101915276502031"><ele>345.0</ele><time>2026-03-29T14:37:45.999Z</time></trkpt><trkpt lat="47.80967444848027" lon="7.102089844674958"><ele>344.3333333333333</ele><time>2026-03-29T14:37:47.999Z</time></trkpt><trkpt lat="47.80964322797213" lon="7.10219271261475"><ele>343.6666666666667</ele><time>2026-03-29T14:37:48.999Z</time></trkpt><trkpt lat="47.80961677952246" lon="7.102285325496522"><ele>343.0</ele><time>2026-03-29T14:37:49.999Z</time></trkpt><trkpt lat="47.80959578330584" lon="7.102384346142141"><ele>342.33333333333337</ele><time>2026-03-29T14:37:50.999Z</time></trkpt><trkpt lat="47.80956899046548" lon="7.102496329889151"><ele>341.6666666666667</ele><time>2026-03-29T14:37:51.999Z</time></trkpt><trkpt lat="47.80953996761481" lon="7.102610655953065"><ele>341.0</ele><time>2026-03-29T14:37:52.999Z</time></trkpt><trkpt lat="47.809513989209954" lon="7.1027192619821635"><ele>340.4</ele><time>2026-03-29T14:37:53.999Z</time></trkpt><trkpt lat="47.809492062495195" lon="7.102825102747541"><ele>339.8</ele><time>2026-03-29T14:37:54.999Z</time></trkpt><trkpt lat="47.80946962749803" lon="7.102952415818462"><ele>339.2</ele><time>2026-03-29T14:37:55.999Z</time></trkpt><trkpt lat="47.809447061400725" lon="7.103086966926784"><ele>338.59999999999997</ele><time>2026-03-29T14:37:56.999Z</time></trkpt><trkpt lat="47.80942163931055" lon="7.1032290480489895"><ele>338.0</ele><time>2026-03-29T14:37:57.999Z</time></trkpt><trkpt lat="47.809393801327786" lon="7.103382187651301"><ele>338.2</ele><time>2026-03-29T14:37:58.999Z</time></trkpt><trkpt lat="47.80937144425055" lon="7.103518261336261"><ele>338.4</ele><time>2026-03-29T14:37:59.999Z</time></trkpt><trkpt lat="47.80934835490256" lon="7.103646936795615"><ele>338.59999999999997</ele><time>2026-03-29T14:38:00.999Z</time></trkpt><trkpt lat="47.80932212922642" lon="7.10379510257562"><ele>338.79999999999995</ele><time>2026-03-29T14:38:01.999Z</time></trkpt><trkpt lat="47.80928913767041" lon="7.103942189858953"><ele>339.0</ele><time>2026-03-29T14:38:02.999Z</time></trkpt><trkpt lat="47.80924043996657" lon="7.104121383856915"><ele>338.25</ele><time>2026-03-29T14:38:03.999Z</time></trkpt><trkpt lat="47.80918437274184" lon="7.1042957331662695"><ele>337.5</ele><time>2026-03-29T14:38:04.999Z</time></trkpt><trkpt lat="47.80911834693441" lon="7.1044559181782425"><ele>336.75</ele><time>2026-03-29T14:38:05.999Z</time></trkpt><trkpt lat="47.8090461515981" lon="7.104601190510703"><ele>336.0</ele><time>2026-03-29T14:38:06.999Z</time></trkpt><trkpt lat="47.80897234811446" lon="7.104743233560024"><ele>336.0</ele><time>2026-03-29T14:38:07.999Z</time></trkpt><trkpt lat="47.80890253623932" lon="7.104900749091409"><ele>336.0</ele><time>2026-03-29T14:38:08.999Z</time></trkpt><trkpt lat="47.80884521929692" lon="7.105048041941654"><ele>336.0</ele><time>2026-03-29T14:38:09.999Z</time></trkpt><trkpt lat="47.80879374423874" lon="7.10520894622799"><ele>336.0</ele><time>2026-03-29T14:38:10.999Z</time></trkpt><trkpt lat="47.80874350873834" lon="7.105400929943524"><ele>335.6666666666667</ele><time>2026-03-29T14:38:11.999Z</time></trkpt><trkpt lat="47.80869573425973" lon="7.105666620217492"><ele>335.33333333333337</ele><time>2026-03-29T14:38:12.999Z</time></trkpt><trkpt lat="47.808680670675976" lon="7.105909029493768"><ele>335.0</ele><time>2026-03-29T14:38:13.999Z</time></trkpt><trkpt lat="47.80866960574358" lon="7.106188564517979"><ele>334.33333333333337</ele><time>2026-03-29T14:38:14.999Z</time></trkpt><trkpt lat="47.8086445977075" lon="7.10646720928183"><ele>333.6666666666667</ele><time>2026-03-29T14:38:15.999Z</time></trkpt><trkpt lat="47.808597976100806" lon="7.106685026456389"><ele>333.0</ele><time>2026-03-29T14:38:16.999Z</time></trkpt><trkpt lat="47.808550332111196" lon="7.106857166545299"><ele>333.0</ele><time>2026-03-29T14:38:17.999Z</time></trkpt><trkpt lat="47.80852791966319" lon="7.106947321114145"><ele>333.0</ele><time>2026-03-29T14:38:18.999Z</time></trkpt><trkpt lat="47.80849982515468" lon="7.107070723183298"><ele>333.0</ele><time>2026-03-29T14:38:25.999Z</time></trkpt><trkpt lat="47.80846259139105" lon="7.1072334952613385"><ele>333.0</ele><time>2026-03-29T14:38:27.999Z</time></trkpt><trkpt lat="47.80844139891133" lon="7.107339479088102"><ele>333.0</ele><time>2026-03-29T14:38:28.999Z</time></trkpt><trkpt lat="47.808417497519514" lon="7.107466586484046"><ele>333.0</ele><time>2026-03-29T14:38:29.999Z</time></trkpt><trkpt lat="47.808389023525955" lon="7.107593387215174"><ele>333.0</ele><time>2026-03-29T14:38:30.999Z</time></trkpt><trkpt lat="47.80835214514377" lon="7.10772833000438"><ele>333.0</ele><time>2026-03-29T14:38:31.999Z</time></trkpt><trkpt lat="47.80831848859793" lon="7.107860704961406"><ele>333.0</ele><time>2026-03-29T14:38:32.999Z</time></trkpt><trkpt lat="47.80829221081458" lon="7.107994464916736"><ele>333.0</ele><time>2026-03-29T14:38:33.999Z</time></trkpt><trkpt lat="47.808259844031895" lon="7.1081454663154275"><ele>333.0</ele><time>2026-03-29T14:38:34.999Z</time></trkpt><trkpt lat="47.80821797990219" lon="7.108300586678587"><ele>333.0</ele><time>2026-03-29T14:38:35.999Z</time></trkpt><trkpt lat="47.80816484046086" lon="7.108432190824394"><ele>333.0</ele><time>2026-03-29T14:38:36.999Z</time></trkpt><trkpt lat="47.80809004583862" lon="7.108559449828123"><ele>333.0</ele><time>2026-03-29T14:38:37.999Z</time></trkpt><trkpt lat="47.80801769649219" lon="7.108700384736135"><ele>333.0</ele><time>2026-03-29T14:38:38.999Z</time></trkpt><trkpt lat="47.80793810795074" lon="7.108858877495204"><ele>333.0</ele><time>2026-03-29T14:38:39.999Z</time></trkpt><trkpt lat="47.807869033848554" lon="7.108996318404764"><ele>333.0</ele><time>2026-03-29T14:38:40.999Z</time></trkpt><trkpt lat="47.80779902772398" lon="7.109135322318284"><ele>333.0</ele><time>2026-03-29T14:38:41.999Z</time></trkpt><trkpt lat="47.807722879126956" lon="7.109276194330762"><ele>333.0</ele><time>2026-03-29T14:38:42.999Z</time></trkpt><trkpt lat="47.80763647095181" lon="7.109411199227345"><ele>333.0</ele><time>2026-03-29T14:38:43.999Z</time></trkpt><trkpt lat="47.80753589280439" lon="7.109524907150988"><ele>333.0</ele><time>2026-03-29T14:38:44.999Z</time></trkpt><trkpt lat="47.8074323652227" lon="7.109639239429562"><ele>333.0</ele><time>2026-03-29T14:38:45.999Z</time></trkpt><trkpt lat="47.80733226520036" lon="7.109763993844508"><ele>333.0</ele><time>2026-03-29T14:38:46.999Z</time></trkpt><trkpt lat="47.80723501829273" lon="7.109907081765605"><ele>333.0</ele><time>2026-03-29T14:38:47.999Z</time></trkpt><trkpt lat="47.8071501846103" lon="7.110068578372615"><ele>333.0</ele><time>2026-03-29T14:38:48.999Z</time></trkpt><trkpt lat="47.807091468002504" lon="7.1102475906004585"><ele>333.0</ele><time>2026-03-29T14:38:49.999Z</time></trkpt><trkpt lat="47.807040950376724" lon="7.110413684873621"><ele>333.0</ele><time>2026-03-29T14:38:50.999Z</time></trkpt><trkpt lat="47.8069887862417" lon="7.1105585911566545"><ele>333.0</ele><time>2026-03-29T14:38:51.999Z</time></trkpt><trkpt lat="47.806937367005965" lon="7.11070177167541"><ele>333.0</ele><time>2026-03-29T14:38:52.999Z</time></trkpt><trkpt lat="47.80688232500514" lon="7.110841892758305"><ele>333.0</ele><time>2026-03-29T14:38:53.999Z</time></trkpt><trkpt lat="47.80682671331568" lon="7.110984412652326"><ele>333.0</ele><time>2026-03-29T14:38:54.999Z</time></trkpt><trkpt lat="47.80676966115134" lon="7.11112567344182"><ele>333.0</ele><time>2026-03-29T14:38:55.999Z</time></trkpt><trkpt lat="47.80671138341013" lon="7.111249433001972"><ele>333.3333333333333</ele><time>2026-03-29T14:38:56.999Z</time></trkpt><trkpt lat="47.80664485920693" lon="7.111366941647581"><ele>333.6666666666667</ele><time>2026-03-29T14:38:57.999Z</time></trkpt><trkpt lat="47.806591219937815" lon="7.111472394594456"><ele>334.0</ele><time>2026-03-29T14:38:58.999Z</time></trkpt><trkpt lat="47.80654559560174" lon="7.111558128855174"><ele>334.33333333333337</ele><time>2026-03-29T14:38:59.999Z</time></trkpt><trkpt lat="47.806489061078615" lon="7.11166556659464"><ele>334.6666666666667</ele><time>2026-03-29T14:39:01.999Z</time></trkpt><trkpt lat="47.80644625864506" lon="7.111741676129857"><ele>335.0</ele><time>2026-03-29T14:39:04.999Z</time></trkpt><trkpt lat="47.80638296228306" lon="7.111860569604716"><ele>334.33333333333337</ele><time>2026-03-29T14:39:08.999Z</time></trkpt><trkpt lat="47.80634368306923" lon="7.11193396124639"><ele>333.6666666666667</ele><time>2026-03-29T14:39:09.999Z</time></trkpt><trkpt lat="47.80629561342158" lon="7.112033469305906"><ele>333.0</ele><time>2026-03-29T14:39:10.999Z</time></trkpt><trkpt lat="47.806248723221294" lon="7.11212515879614"><ele>332.3333333333333</ele><time>2026-03-29T14:39:11.999Z</time></trkpt><trkpt lat="47.80619908433896" lon="7.1122277159600555"><ele>331.66666666666663</ele><time>2026-03-29T14:39:12.999Z</time></trkpt><trkpt lat="47.80614491016715" lon="7.112333316071077"><ele>331.0</ele><time>2026-03-29T14:39:14Z</time></trkpt><trkpt lat="47.80610449382" lon="7.112486839579022"><ele>331.0</ele><time>2026-03-29T14:39:15Z</time></trkpt><trkpt lat="47.806067242358985" lon="7.1126556341987035"><ele>331.0</ele><time>2026-03-29T14:39:16Z</time></trkpt><trkpt lat="47.80603345941544" lon="7.1128211278498075"><ele>331.0</ele><time>2026-03-29T14:39:17Z</time></trkpt><trkpt lat="47.806003467816474" lon="7.112991730289328"><ele>331.0</ele><time>2026-03-29T14:39:18Z</time></trkpt><trkpt lat="47.805972707287374" lon="7.113153675102842"><ele>331.0</ele><time>2026-03-29T14:39:19Z</time></trkpt><trkpt lat="47.805936460398755" lon="7.113322284752059"><ele>331.0</ele><time>2026-03-29T14:39:20Z</time></trkpt><trkpt lat="47.805901533079194" lon="7.1134854903175215"><ele>331.0</ele><time>2026-03-29T14:39:21Z</time></trkpt><trkpt lat="47.80587300409664" lon="7.11363114942785"><ele>331.0</ele><time>2026-03-29T14:39:22Z</time></trkpt><trkpt lat="47.805843782182215" lon="7.1137654564637876"><ele>331.0</ele><time>2026-03-29T14:39:23Z</time></trkpt><trkpt lat="47.80581750533578" lon="7.113924824496658"><ele>331.25</ele><time>2026-03-29T14:39:24Z</time></trkpt><trkpt lat="47.80578284916019" lon="7.114089474712206"><ele>331.5</ele><time>2026-03-29T14:39:25Z</time></trkpt><trkpt lat="47.80574880365661" lon="7.1142475585906215"><ele>331.75</ele><time>2026-03-29T14:39:26Z</time></trkpt><trkpt lat="47.805710998415776" lon="7.114416829665354"><ele>332.0</ele><time>2026-03-29T14:39:27Z</time></trkpt><trkpt lat="47.805677258130906" lon="7.1145855894532914"><ele>332.0</ele><time>2026-03-29T14:39:28Z</time></trkpt><trkpt lat="47.80564292215125" lon="7.114760001758753"><ele>332.0</ele><time>2026-03-29T14:39:29Z</time></trkpt><trkpt lat="47.80560745182854" lon="7.114945789155781"><ele>332.0</ele><time>2026-03-29T14:39:30Z</time></trkpt><trkpt lat="47.80556744027997" lon="7.115143023249793"><ele>332.0</ele><time>2026-03-29T14:39:31Z</time></trkpt><trkpt lat="47.80552735845744" lon="7.115334146376231"><ele>332.0</ele><time>2026-03-29T14:39:32Z</time></trkpt><trkpt lat="47.805489886235996" lon="7.115510756947123"><ele>332.0</ele><time>2026-03-29T14:39:33Z</time></trkpt><trkpt lat="47.805450075491" lon="7.115683397008062"><ele>332.0</ele><time>2026-03-29T14:39:34Z</time></trkpt><trkpt lat="47.80540980612186" lon="7.115870694724554"><ele>332.0</ele><time>2026-03-29T14:39:35Z</time></trkpt><trkpt lat="47.8053768638675" lon="7.116064333428917"><ele>332.5</ele><time>2026-03-29T14:39:36Z</time></trkpt><trkpt lat="47.80533918208254" lon="7.116246909449616"><ele>333.0</ele><time>2026-03-29T14:39:37Z</time></trkpt><trkpt lat="47.80530853025628" lon="7.116423995290368"><ele>333.5</ele><time>2026-03-29T14:39:38Z</time></trkpt><trkpt lat="47.80527530072531" lon="7.1166171098531334"><ele>334.0</ele><time>2026-03-29T14:39:39Z</time></trkpt><trkpt lat="47.80523631123425" lon="7.116817562148249"><ele>334.25</ele><time>2026-03-29T14:39:40Z</time></trkpt><trkpt lat="47.805195579403595" lon="7.116999368320588"><ele>334.5</ele><time>2026-03-29T14:39:41Z</time></trkpt><trkpt lat="47.80515573724692" lon="7.11715657977959"><ele>334.75</ele><time>2026-03-29T14:39:42Z</time></trkpt><trkpt lat="47.80512019629422" lon="7.117350245781765"><ele>335.0</ele><time>2026-03-29T14:39:43Z</time></trkpt><trkpt lat="47.80508152661423" lon="7.1175430688377155"><ele>334.0</ele><time>2026-03-29T14:39:44Z</time></trkpt><trkpt lat="47.805038418287076" lon="7.117721366160942"><ele>333.0</ele><time>2026-03-29T14:39:45Z</time></trkpt><trkpt lat="47.80499661257347" lon="7.117902121733844"><ele>332.0</ele><time>2026-03-29T14:39:46Z</time></trkpt><trkpt lat="47.804960193639246" lon="7.1180951971568165"><ele>331.0</ele><time>2026-03-29T14:39:47Z</time></trkpt><trkpt lat="47.80491985766161" lon="7.1182783993352"><ele>330.5</ele><time>2026-03-29T14:39:48Z</time></trkpt><trkpt lat="47.8048800902051" lon="7.118463308410896"><ele>330.0</ele><time>2026-03-29T14:39:49Z</time></trkpt><trkpt lat="47.80484384178672" lon="7.118635499308396"><ele>329.5</ele><time>2026-03-29T14:39:50Z</time></trkpt><trkpt lat="47.80480405227395" lon="7.118803935898295"><ele>329.0</ele><time>2026-03-29T14:39:51Z</time></trkpt><trkpt lat="47.80476552062744" lon="7.118978817432745"><ele>328.75</ele><time>2026-03-29T14:39:52Z</time></trkpt><trkpt lat="47.804729302910424" lon="7.119152780647345"><ele>328.5</ele><time>2026-03-29T14:39:53Z</time></trkpt><trkpt lat="47.804687887834596" lon="7.119325250286578"><ele>328.25</ele><time>2026-03-29T14:39:54Z</time></trkpt><trkpt lat="47.804658027296384" lon="7.119464401754361"><ele>328.0</ele><time>2026-03-29T14:39:55Z</time></trkpt><trkpt lat="47.8046245357962" lon="7.119638409426981"><ele>328.0</ele><time>2026-03-29T14:39:56Z</time></trkpt><trkpt lat="47.80458443982894" lon="7.119814696459718"><ele>328.0</ele><time>2026-03-29T14:39:57Z</time></trkpt><trkpt lat="47.80454718941266" lon="7.119982408874577"><ele>328.0</ele><time>2026-03-29T14:39:58Z</time></trkpt><trkpt lat="47.80451310467837" lon="7.120140278811156"><ele>328.0</ele><time>2026-03-29T14:39:59Z</time></trkpt><trkpt lat="47.80447773578436" lon="7.120296920040531"><ele>328.0</ele><time>2026-03-29T14:40:00Z</time></trkpt><trkpt lat="47.80444357396853" lon="7.120458389678145"><ele>328.0</ele><time>2026-03-29T14:40:01Z</time></trkpt><trkpt lat="47.80441035118073" lon="7.120623026202309"><ele>328.0</ele><time>2026-03-29T14:40:02Z</time></trkpt><trkpt lat="47.80437890380275" lon="7.120780930232287"><ele>328.0</ele><time>2026-03-29T14:40:03Z</time></trkpt><trkpt lat="47.8043463569441" lon="7.120941131896287"><ele>328.0</ele><time>2026-03-29T14:40:04Z</time></trkpt><trkpt lat="47.80431200718006" lon="7.121096537157901"><ele>328.0</ele><time>2026-03-29T14:40:05Z</time></trkpt><trkpt lat="47.80428017768163" lon="7.121251223577681"><ele>328.0</ele><time>2026-03-29T14:40:06Z</time></trkpt><trkpt lat="47.80424768245116" lon="7.121407273144368"><ele>328.0</ele><time>2026-03-29T14:40:07Z</time></trkpt><trkpt lat="47.80421110431064" lon="7.12157276801318"><ele>328.0</ele><time>2026-03-29T14:40:08Z</time></trkpt><trkpt lat="47.804174863952106" lon="7.121739283013167"><ele>327.5</ele><time>2026-03-29T14:40:09Z</time></trkpt><trkpt lat="47.804141900700806" lon="7.1218898198724485"><ele>327.0</ele><time>2026-03-29T14:40:10Z</time></trkpt><trkpt lat="47.80410750186608" lon="7.122060264961986"><ele>326.5</ele><time>2026-03-29T14:40:11Z</time></trkpt><trkpt lat="47.80407362947957" lon="7.122219539176737"><ele>326.0</ele><time>2026-03-29T14:40:12Z</time></trkpt><trkpt lat="47.8040368771996" lon="7.122378747336272"><ele>325.75</ele><time>2026-03-29T14:40:13Z</time></trkpt><trkpt lat="47.80400165096546" lon="7.122548718067433"><ele>325.5</ele><time>2026-03-29T14:40:14Z</time></trkpt><trkpt lat="47.80396390764412" lon="7.122715189525029"><ele>325.25</ele><time>2026-03-29T14:40:15Z</time></trkpt><trkpt lat="47.80392792097994" lon="7.122875423391001"><ele>325.0</ele><time>2026-03-29T14:40:16Z</time></trkpt><trkpt lat="47.803893915441456" lon="7.123036941413304"><ele>325.0</ele><time>2026-03-29T14:40:17Z</time></trkpt><trkpt lat="47.80385919588448" lon="7.123184580462733"><ele>325.0</ele><time>2026-03-29T14:40:18Z</time></trkpt><trkpt lat="47.803828212914496" lon="7.123331707316502"><ele>325.0</ele><time>2026-03-29T14:40:19Z</time></trkpt><trkpt lat="47.80379782417292" lon="7.123470884661527"><ele>325.0</ele><time>2026-03-29T14:40:20Z</time></trkpt><trkpt lat="47.80377810326513" lon="7.123585766288648"><ele>325.0</ele><time>2026-03-29T14:40:21Z</time></trkpt><trkpt lat="47.80374801494372" lon="7.123705975074327"><ele>325.0</ele><time>2026-03-29T14:40:22Z</time></trkpt><trkpt lat="47.8037129558454" lon="7.123866019820125"><ele>325.0</ele><time>2026-03-29T14:40:24Z</time></trkpt><trkpt lat="47.803690994695785" lon="7.123975302318189"><ele>325.0</ele><time>2026-03-29T14:40:26Z</time></trkpt><trkpt lat="47.80367339275856" lon="7.124065881671328"><ele>325.0</ele><time>2026-03-29T14:40:32Z</time></trkpt><trkpt lat="47.803638519164686" lon="7.124223830157452"><ele>325.0</ele><time>2026-03-29T14:40:37Z</time></trkpt><trkpt lat="47.803618742601785" lon="7.124316122289727"><ele>325.0</ele><time>2026-03-29T14:40:38Z</time></trkpt><trkpt lat="47.80358133024884" lon="7.124494623089895"><ele>325.0</ele><time>2026-03-29T14:40:40Z</time></trkpt><trkpt lat="47.80355946081911" lon="7.124606739932"><ele>325.0</ele><time>2026-03-29T14:40:41Z</time></trkpt><trkpt lat="47.80353655743429" lon="7.124716135258825"><ele>325.0</ele><time>2026-03-29T14:40:42Z</time></trkpt><trkpt lat="47.80351092329873" lon="7.1248341507222275"><ele>325.0</ele><time>2026-03-29T14:40:43Z</time></trkpt><trkpt lat="47.803486190787666" lon="7.124963272494837"><ele>325.0</ele><time>2026-03-29T14:40:44Z</time></trkpt><trkpt lat="47.80345705162917" lon="7.12510619368254"><ele>325.0</ele><time>2026-03-29T14:40:45Z</time></trkpt><trkpt lat="47.803426579423544" lon="7.125248752834469"><ele>325.25</ele><time>2026-03-29T14:40:46Z</time></trkpt><trkpt lat="47.80339444085842" lon="7.125399450726322"><ele>325.5</ele><time>2026-03-29T14:40:47Z</time></trkpt><trkpt lat="47.80336267286229" lon="7.125555312113732"><ele>325.75</ele><time>2026-03-29T14:40:48Z</time></trkpt><trkpt lat="47.80332825051019" lon="7.125727412870764"><ele>326.0</ele><time>2026-03-29T14:40:49Z</time></trkpt><trkpt lat="47.803288124159494" lon="7.125914150216984"><ele>325.5</ele><time>2026-03-29T14:40:50Z</time></trkpt><trkpt lat="47.80325024057607" lon="7.12608922532088"><ele>325.0</ele><time>2026-03-29T14:40:51Z</time></trkpt><trkpt lat="47.803217578621755" lon="7.126249727858156"><ele>324.5</ele><time>2026-03-29T14:40:52Z</time></trkpt><trkpt lat="47.803182547577855" lon="7.1264176548768425"><ele>324.0</ele><time>2026-03-29T14:40:53Z</time></trkpt><trkpt lat="47.80314526554548" lon="7.126590474783232"><ele>324.0</ele><time>2026-03-29T14:40:54Z</time></trkpt><trkpt lat="47.803109391743554" lon="7.126759327816851"><ele>324.0</ele><time>2026-03-29T14:40:55Z</time></trkpt><trkpt lat="47.80307308003316" lon="7.126927932611264"><ele>324.0</ele><time>2026-03-29T14:40:56Z</time></trkpt><trkpt lat="47.80304047979109" lon="7.127092070379393"><ele>324.0</ele><time>2026-03-29T14:40:57Z</time></trkpt><trkpt lat="47.80300291438613" lon="7.127261889996205"><ele>324.0</ele><time>2026-03-29T14:40:58Z</time></trkpt><trkpt lat="47.80296725693825" lon="7.1274345192895225"><ele>324.0</ele><time>2026-03-29T14:40:59Z</time></trkpt><trkpt lat="47.80293207510467" lon="7.12759499919516"><ele>324.0</ele><time>2026-03-29T14:41:00Z</time></trkpt><trkpt lat="47.80289891482257" lon="7.127755588772126"><ele>324.0</ele><time>2026-03-29T14:41:01Z</time></trkpt><trkpt lat="47.80286434035093" lon="7.127915421478375"><ele>324.0</ele><time>2026-03-29T14:41:02Z</time></trkpt><trkpt lat="47.80282931100674" lon="7.128076974718372"><ele>324.0</ele><time>2026-03-29T14:41:03Z</time></trkpt><trkpt lat="47.80279560574601" lon="7.128236007271935"><ele>324.0</ele><time>2026-03-29T14:41:04Z</time></trkpt><trkpt lat="47.802759129351614" lon="7.128399124484721"><ele>324.0</ele><time>2026-03-29T14:41:05Z</time></trkpt><trkpt lat="47.8027273187812" lon="7.128557522876032"><ele>324.0</ele><time>2026-03-29T14:41:06Z</time></trkpt><trkpt lat="47.80269432106222" lon="7.128712749190675"><ele>324.0</ele><time>2026-03-29T14:41:07Z</time></trkpt><trkpt lat="47.80266180250024" lon="7.128859807316124"><ele>324.0</ele><time>2026-03-29T14:41:08Z</time></trkpt><trkpt lat="47.80263007271173" lon="7.128999542805673"><ele>324.0</ele><time>2026-03-29T14:41:09Z</time></trkpt><trkpt lat="47.802597955818996" lon="7.129149471409672"><ele>324.0</ele><time>2026-03-29T14:41:10Z</time></trkpt><trkpt lat="47.802560322252496" lon="7.129304010932485"><ele>323.5</ele><time>2026-03-29T14:41:11Z</time></trkpt><trkpt lat="47.802520344229194" lon="7.12946652676857"><ele>323.0</ele><time>2026-03-29T14:41:12Z</time></trkpt><trkpt lat="47.80248323382917" lon="7.1296263058040035"><ele>322.5</ele><time>2026-03-29T14:41:13Z</time></trkpt><trkpt lat="47.80244637873497" lon="7.1297841049927"><ele>322.0</ele><time>2026-03-29T14:41:14Z</time></trkpt><trkpt lat="47.802408691431175" lon="7.129945893204306"><ele>322.0</ele><time>2026-03-29T14:41:15Z</time></trkpt><trkpt lat="47.80237292366984" lon="7.130109484581309"><ele>322.0</ele><time>2026-03-29T14:41:16Z</time></trkpt><trkpt lat="47.80233766357521" lon="7.130277778336957"><ele>322.0</ele><time>2026-03-29T14:41:17Z</time></trkpt><trkpt lat="47.80230121976551" lon="7.130438247647114"><ele>322.0</ele><time>2026-03-29T14:41:18Z</time></trkpt><trkpt lat="47.802265891397894" lon="7.130597610407977"><ele>322.20000000000005</ele><time>2026-03-29T14:41:19Z</time></trkpt><trkpt lat="47.802230018249944" lon="7.130744650689158"><ele>322.4</ele><time>2026-03-29T14:41:20Z</time></trkpt><trkpt lat="47.80219381056151" lon="7.130901802700694"><ele>322.6</ele><time>2026-03-29T14:41:21Z</time></trkpt><trkpt lat="47.80215218661914" lon="7.131060010454345"><ele>322.79999999999995</ele><time>2026-03-29T14:41:22Z</time></trkpt><trkpt lat="47.80210992186297" lon="7.131215798077824"><ele>323.0</ele><time>2026-03-29T14:41:23Z</time></trkpt><trkpt lat="47.802064593677784" lon="7.131362622362603"><ele>323.0</ele><time>2026-03-29T14:41:24Z</time></trkpt><trkpt lat="47.80201718586092" lon="7.131492626207761"><ele>323.0</ele><time>2026-03-29T14:41:25Z</time></trkpt><trkpt lat="47.80196117337259" lon="7.131612052027572"><ele>323.0</ele><time>2026-03-29T14:41:26Z</time></trkpt><trkpt lat="47.801911221025364" lon="7.1317233834217"><ele>323.0</ele><time>2026-03-29T14:41:27Z</time></trkpt><trkpt lat="47.801862128844846" lon="7.131840357395576"><ele>323.0</ele><time>2026-03-29T14:41:28Z</time></trkpt><trkpt lat="47.801796496201575" lon="7.131956547070766"><ele>322.5</ele><time>2026-03-29T14:41:29Z</time></trkpt><trkpt lat="47.8016972334197" lon="7.132093452240964"><ele>322.0</ele><time>2026-03-29T14:41:30Z</time></trkpt><trkpt lat="47.80158558846649" lon="7.132190717049412"><ele>321.5</ele><time>2026-03-29T14:41:31Z</time></trkpt><trkpt lat="47.801529346184914" lon="7.1323254283447435"><ele>321.0</ele><time>2026-03-29T14:41:32Z</time></trkpt><trkpt lat="47.80154535780832" lon="7.132547720077962"><ele>321.0</ele><time>2026-03-29T14:41:33Z</time></trkpt><trkpt lat="47.80158295769719" lon="7.132791310444495"><ele>321.0</ele><time>2026-03-29T14:41:34Z</time></trkpt><trkpt lat="47.80156625403982" lon="7.133015573188456"><ele>321.0</ele><time>2026-03-29T14:41:35Z</time></trkpt><trkpt lat="47.80149978649715" lon="7.133244710182537"><ele>321.0</ele><time>2026-03-29T14:41:36Z</time></trkpt><trkpt lat="47.80144972590827" lon="7.133468992627302"><ele>321.0</ele><time>2026-03-29T14:41:37Z</time></trkpt><trkpt lat="47.80139478688109" lon="7.133731248864971"><ele>321.0</ele><time>2026-03-29T14:41:38Z</time></trkpt><trkpt lat="47.80135055937096" lon="7.13406019155726"><ele>320.0</ele><time>2026-03-29T14:41:39Z</time></trkpt><trkpt lat="47.80126546003734" lon="7.1344257170971375"><ele>319.0</ele><time>2026-03-29T14:41:40Z</time></trkpt><trkpt lat="47.80117805852069" lon="7.134835404128473"><ele>318.5</ele><time>2026-03-29T14:41:41Z</time></trkpt><trkpt lat="47.80108717948088" lon="7.1352514623504435"><ele>318.0</ele><time>2026-03-29T14:41:42Z</time></trkpt><trkpt lat="47.80100421885883" lon="7.135625081571912"><ele>318.5</ele><time>2026-03-29T14:41:43Z</time></trkpt><trkpt lat="47.80090886985672" lon="7.136003820588363"><ele>319.0</ele><time>2026-03-29T14:41:44Z</time></trkpt><trkpt lat="47.800799237867245" lon="7.136394334931997"><ele>318.5</ele><time>2026-03-29T14:41:45Z</time></trkpt><trkpt lat="47.800678830157565" lon="7.136776149972855"><ele>318.0</ele><time>2026-03-29T14:41:46Z</time></trkpt><trkpt lat="47.800541994646686" lon="7.13717622769373"><ele>318.0</ele><time>2026-03-29T14:41:47Z</time></trkpt><trkpt lat="47.80040941431159" lon="7.137547625305165"><ele>318.0</ele><time>2026-03-29T14:41:48Z</time></trkpt><trkpt lat="47.80027191907891" lon="7.137924964092371"><ele>317.5</ele><time>2026-03-29T14:41:49Z</time></trkpt><trkpt lat="47.80013809263117" lon="7.138314767162623"><ele>317.0</ele><time>2026-03-29T14:41:50Z</time></trkpt><trkpt lat="47.80000461412151" lon="7.1387026054820275"><ele>316.0</ele><time>2026-03-29T14:41:51Z</time></trkpt><trkpt lat="47.799870350917494" lon="7.139086623615753"><ele>315.0</ele><time>2026-03-29T14:41:52Z</time></trkpt><trkpt lat="47.799737267197436" lon="7.1394762242647944"><ele>315.5</ele><time>2026-03-29T14:41:53Z</time></trkpt><trkpt lat="47.799618174133286" lon="7.139894376418848"><ele>316.0</ele><time>2026-03-29T14:41:54Z</time></trkpt><trkpt lat="47.79952377021217" lon="7.140337094688468"><ele>316.0</ele><time>2026-03-29T14:41:55Z</time></trkpt><trkpt lat="47.7994394942877" lon="7.140764053437458"><ele>316.0</ele><time>2026-03-29T14:41:56Z</time></trkpt><trkpt lat="47.79934515417216" lon="7.141175221776743"><ele>316.5</ele><time>2026-03-29T14:41:57Z</time></trkpt><trkpt lat="47.79924677824409" lon="7.1415879486238145"><ele>317.0</ele><time>2026-03-29T14:41:58Z</time></trkpt><trkpt lat="47.7991396720776" lon="7.142038820179486"><ele>317.0</ele><time>2026-03-29T14:41:59Z</time></trkpt><trkpt lat="47.799031386856" lon="7.142491322276572"><ele>317.0</ele><time>2026-03-29T14:42:00Z</time></trkpt><trkpt lat="47.79893419819216" lon="7.142888217938409"><ele>317.0</ele><time>2026-03-29T14:42:01Z</time></trkpt><trkpt lat="47.79883788632575" lon="7.14331078180211"><ele>317.0</ele><time>2026-03-29T14:42:02Z</time></trkpt><trkpt lat="47.79873661302141" lon="7.143726163360079"><ele>316.0</ele><time>2026-03-29T14:42:03Z</time></trkpt><trkpt lat="47.798628779404275" lon="7.144133813916526"><ele>315.0</ele><time>2026-03-29T14:42:04Z</time></trkpt><trkpt lat="47.79851435823403" lon="7.144556879358688"><ele>316.0</ele><time>2026-03-29T14:42:05Z</time></trkpt><trkpt lat="47.798404295072125" lon="7.144995816839685"><ele>317.0</ele><time>2026-03-29T14:42:06Z</time></trkpt><trkpt lat="47.798304618817" lon="7.145420978898786"><ele>316.5</ele><time>2026-03-29T14:42:07Z</time></trkpt><trkpt lat="47.79820624393963" lon="7.145837895247038"><ele>316.0</ele><time>2026-03-29T14:42:08Z</time></trkpt><trkpt lat="47.79810939006109" lon="7.146248504889732"><ele>315.5</ele><time>2026-03-29T14:42:09Z</time></trkpt><trkpt lat="47.79801110186738" lon="7.146665997584825"><ele>315.0</ele><time>2026-03-29T14:42:10Z</time></trkpt><trkpt lat="47.79791272383006" lon="7.147086324143228"><ele>314.5</ele><time>2026-03-29T14:42:11Z</time></trkpt><trkpt lat="47.79781055522025" lon="7.147513455373806"><ele>314.0</ele><time>2026-03-29T14:42:12Z</time></trkpt><trkpt lat="47.79771158958479" lon="7.147936246551943"><ele>313.5</ele><time>2026-03-29T14:42:13Z</time></trkpt><trkpt lat="47.797614368023744" lon="7.148350216832406"><ele>313.0</ele><time>2026-03-29T14:42:14Z</time></trkpt><trkpt lat="47.7975181179097" lon="7.1487591554226135"><ele>313.0</ele><time>2026-03-29T14:42:15Z</time></trkpt><trkpt lat="47.79742201286345" lon="7.149163524141303"><ele>313.0</ele><time>2026-03-29T14:42:16Z</time></trkpt><trkpt lat="47.797322807293234" lon="7.149578962641497"><ele>313.0</ele><time>2026-03-29T14:42:17Z</time></trkpt><trkpt lat="47.79722704985302" lon="7.149991664789078"><ele>313.0</ele><time>2026-03-29T14:42:18Z</time></trkpt><trkpt lat="47.79713728829195" lon="7.150429246199267"><ele>312.5</ele><time>2026-03-29T14:42:19Z</time></trkpt><trkpt lat="47.79704936715001" lon="7.150868678875659"><ele>312.0</ele><time>2026-03-29T14:42:20Z</time></trkpt><trkpt lat="47.79695399990765" lon="7.151298555865641"><ele>312.0</ele><time>2026-03-29T14:42:21Z</time></trkpt><trkpt lat="47.79684840604888" lon="7.151725891398518"><ele>312.0</ele><time>2026-03-29T14:42:22Z</time></trkpt><trkpt lat="47.796747468503625" lon="7.152146151740285"><ele>311.0</ele><time>2026-03-29T14:42:23Z</time></trkpt><trkpt lat="47.79664960120488" lon="7.152561176828978"><ele>310.0</ele><time>2026-03-29T14:42:24Z</time></trkpt><trkpt lat="47.796550779036785" lon="7.152966911674906"><ele>310.5</ele><time>2026-03-29T14:42:25Z</time></trkpt><trkpt lat="47.79645286917204" lon="7.15337186047377"><ele>311.0</ele><time>2026-03-29T14:42:26Z</time></trkpt><trkpt lat="47.79635142233507" lon="7.1537775605813705"><ele>310.0</ele><time>2026-03-29T14:42:27Z</time></trkpt><trkpt lat="47.79625381755723" lon="7.1541749618233785"><ele>309.0</ele><time>2026-03-29T14:42:28Z</time></trkpt><trkpt lat="47.79616284498514" lon="7.154566518870465"><ele>309.0</ele><time>2026-03-29T14:42:29Z</time></trkpt><trkpt lat="47.796068753949356" lon="7.154964978030447"><ele>309.0</ele><time>2026-03-29T14:42:30Z</time></trkpt><trkpt lat="47.79597285375044" lon="7.155352323598596"><ele>308.0</ele><time>2026-03-29T14:42:31Z</time></trkpt><trkpt lat="47.79588866033672" lon="7.15571643208679"><ele>307.0</ele><time>2026-03-29T14:42:32Z</time></trkpt><trkpt lat="47.795806957320046" lon="7.156053067884126"><ele>307.0</ele><time>2026-03-29T14:42:33Z</time></trkpt><trkpt lat="47.795729484800056" lon="7.156372655065284"><ele>307.0</ele><time>2026-03-29T14:42:34Z</time></trkpt><trkpt lat="47.79565392799923" lon="7.156662743077857"><ele>307.0</ele><time>2026-03-29T14:42:35Z</time></trkpt><trkpt lat="47.795571227614786" lon="7.156937897758332"><ele>307.0</ele><time>2026-03-29T14:42:36Z</time></trkpt><trkpt lat="47.79550345324361" lon="7.157193382941194"><ele>307.0</ele><time>2026-03-29T14:42:37Z</time></trkpt><trkpt lat="47.795451082254395" lon="7.157431849305589"><ele>307.0</ele><time>2026-03-29T14:42:38Z</time></trkpt><trkpt lat="47.79539857647077" lon="7.157630250408088"><ele>306.75</ele><time>2026-03-29T14:42:39Z</time></trkpt><trkpt lat="47.79533596390411" lon="7.157798142025336"><ele>306.5</ele><time>2026-03-29T14:42:40Z</time></trkpt><trkpt lat="47.79526722605577" lon="7.157942383432059"><ele>306.25</ele><time>2026-03-29T14:42:41Z</time></trkpt><trkpt lat="47.79518125982878" lon="7.158063972033645"><ele>306.0</ele><time>2026-03-29T14:42:42Z</time></trkpt><trkpt lat="47.79511881874972" lon="7.158203885411926"><ele>306.0</ele><time>2026-03-29T14:42:43Z</time></trkpt><trkpt lat="47.79511630731879" lon="7.158388835909924"><ele>306.0</ele><time>2026-03-29T14:42:44Z</time></trkpt><trkpt lat="47.795153925838" lon="7.158589435822436"><ele>306.0</ele><time>2026-03-29T14:42:45Z</time></trkpt><trkpt lat="47.79515137225721" lon="7.158810320938762"><ele>306.0</ele><time>2026-03-29T14:42:46Z</time></trkpt><trkpt lat="47.79509326288273" lon="7.159064311185263"><ele>306.0</ele><time>2026-03-29T14:42:47Z</time></trkpt><trkpt lat="47.795023235425816" lon="7.159350306982033"><ele>306.0</ele><time>2026-03-29T14:42:48Z</time></trkpt><trkpt lat="47.7949422175858" lon="7.159662994547984"><ele>306.0</ele><time>2026-03-29T14:42:49Z</time></trkpt><trkpt lat="47.794858593495505" lon="7.160001400204645"><ele>306.5</ele><time>2026-03-29T14:42:50Z</time></trkpt><trkpt lat="47.79477242261427" lon="7.160342757134492"><ele>307.0</ele><time>2026-03-29T14:42:51Z</time></trkpt><trkpt lat="47.79467347915867" lon="7.160680611158875"><ele>307.0</ele><time>2026-03-29T14:42:52Z</time></trkpt><trkpt lat="47.794570768360316" lon="7.161042974311433"><ele>307.0</ele><time>2026-03-29T14:42:53Z</time></trkpt><trkpt lat="47.79448317518695" lon="7.161398933685755"><ele>307.0</ele><time>2026-03-29T14:42:54Z</time></trkpt><trkpt lat="47.794395545594725" lon="7.161771911139182"><ele>307.0</ele><time>2026-03-29T14:42:55Z</time></trkpt><trkpt lat="47.794309068354224" lon="7.162144150952088"><ele>306.0</ele><time>2026-03-29T14:42:56Z</time></trkpt><trkpt lat="47.7942185246535" lon="7.162514536219148"><ele>305.0</ele><time>2026-03-29T14:42:57Z</time></trkpt><trkpt lat="47.79413553288469" lon="7.162864390261066"><ele>305.5</ele><time>2026-03-29T14:42:58Z</time></trkpt><trkpt lat="47.79405048184576" lon="7.163215843097893"><ele>306.0</ele><time>2026-03-29T14:42:59Z</time></trkpt><trkpt lat="47.79396834927443" lon="7.163557657123039"><ele>306.0</ele><time>2026-03-29T14:43:00Z</time></trkpt><trkpt lat="47.79388818438385" lon="7.163898654346506"><ele>306.0</ele><time>2026-03-29T14:43:01Z</time></trkpt><trkpt lat="47.79380286357145" lon="7.164250232657319"><ele>305.0</ele><time>2026-03-29T14:43:02Z</time></trkpt><trkpt lat="47.79371844226433" lon="7.1645994270835605"><ele>304.0</ele><time>2026-03-29T14:43:03Z</time></trkpt><trkpt lat="47.793637046258915" lon="7.164934847245527"><ele>303.5</ele><time>2026-03-29T14:43:04Z</time></trkpt><trkpt lat="47.79355209738699" lon="7.165275822264494"><ele>303.0</ele><time>2026-03-29T14:43:05Z</time></trkpt><trkpt lat="47.79346537549679" lon="7.165630310614093"><ele>302.5</ele><time>2026-03-29T14:43:06Z</time></trkpt><trkpt lat="47.793383134925215" lon="7.165982636031666"><ele>302.0</ele><time>2026-03-29T14:43:07Z</time></trkpt><trkpt lat="47.79330179652111" lon="7.16632925343356"><ele>302.0</ele><time>2026-03-29T14:43:08Z</time></trkpt><trkpt lat="47.79321763702549" lon="7.166679001273687"><ele>302.0</ele><time>2026-03-29T14:43:09Z</time></trkpt><trkpt lat="47.79314098590861" lon="7.167011009100531"><ele>302.0</ele><time>2026-03-29T14:43:10Z</time></trkpt><trkpt lat="47.79306341557656" lon="7.16733976128368"><ele>302.0</ele><time>2026-03-29T14:43:11Z</time></trkpt><trkpt lat="47.79298610985118" lon="7.167658520513671"><ele>302.0</ele><time>2026-03-29T14:43:12Z</time></trkpt><trkpt lat="47.79290448239198" lon="7.167983747620658"><ele>302.0</ele><time>2026-03-29T14:43:13Z</time></trkpt><trkpt lat="47.79282939544201" lon="7.168294986023912"><ele>302.0</ele><time>2026-03-29T14:43:14Z</time></trkpt><trkpt lat="47.792749732778944" lon="7.168595695386655"><ele>302.0</ele><time>2026-03-29T14:43:15Z</time></trkpt><trkpt lat="47.79267848546488" lon="7.168882490703543"><ele>302.0</ele><time>2026-03-29T14:43:16Z</time></trkpt><trkpt lat="47.79259906179951" lon="7.169167015968526"><ele>301.33333333333337</ele><time>2026-03-29T14:43:17Z</time></trkpt><trkpt lat="47.79251748785241" lon="7.16945575874782"><ele>300.6666666666667</ele><time>2026-03-29T14:43:18Z</time></trkpt><trkpt lat="47.7924371371521" lon="7.169718660616723"><ele>300.0</ele><time>2026-03-29T14:43:19Z</time></trkpt><trkpt lat="47.7923627048829" lon="7.169950384277726"><ele>300.0</ele><time>2026-03-29T14:43:20Z</time></trkpt><trkpt lat="47.79228237474481" lon="7.170154190569368"><ele>300.0</ele><time>2026-03-29T14:43:21Z</time></trkpt><trkpt lat="47.79219968297768" lon="7.170323333551821"><ele>300.0</ele><time>2026-03-29T14:43:22Z</time></trkpt><trkpt lat="47.792108774840656" lon="7.170472801403897"><ele>300.0</ele><time>2026-03-29T14:43:23Z</time></trkpt><trkpt lat="47.79200643106201" lon="7.170596610314766"><ele>301.0</ele><time>2026-03-29T14:43:24Z</time></trkpt><trkpt lat="47.79191913089323" lon="7.170744272632021"><ele>302.0</ele><time>2026-03-29T14:43:25Z</time></trkpt><trkpt lat="47.79188736368506" lon="7.1709594727422505"><ele>303.0</ele><time>2026-03-29T14:43:26Z</time></trkpt><trkpt lat="47.791883631311" lon="7.171212150012042"><ele>302.0</ele><time>2026-03-29T14:43:27Z</time></trkpt><trkpt lat="47.79181721040472" lon="7.171441098602751"><ele>301.0</ele><time>2026-03-29T14:43:28Z</time></trkpt><trkpt lat="47.79170566526241" lon="7.171655101802792"><ele>300.0</ele><time>2026-03-29T14:43:29Z</time></trkpt><trkpt lat="47.79160073654307" lon="7.171879659817922"><ele>300.0</ele><time>2026-03-29T14:43:30Z</time></trkpt><trkpt lat="47.7915095727812" lon="7.1721020372363435"><ele>300.0</ele><time>2026-03-29T14:43:31Z</time></trkpt><trkpt lat="47.7914166452505" lon="7.172340759621287"><ele>300.0</ele><time>2026-03-29T14:43:32Z</time></trkpt><trkpt lat="47.79131373595175" lon="7.172592895244886"><ele>299.5</ele><time>2026-03-29T14:43:33Z</time></trkpt><trkpt lat="47.791203352966505" lon="7.17288179815696"><ele>299.0</ele><time>2026-03-29T14:43:34Z</time></trkpt><trkpt lat="47.79109033983351" lon="7.1732265150069665"><ele>297.5</ele><time>2026-03-29T14:43:35Z</time></trkpt><trkpt lat="47.790940864924394" lon="7.173590186122821"><ele>296.0</ele><time>2026-03-29T14:43:36Z</time></trkpt><trkpt lat="47.790754164835704" lon="7.173960937311892"><ele>297.0</ele><time>2026-03-29T14:43:37Z</time></trkpt><trkpt lat="47.79056920325129" lon="7.174368416823042"><ele>298.0</ele><time>2026-03-29T14:43:38Z</time></trkpt><trkpt lat="47.79041284814781" lon="7.174761613797242"><ele>297.5</ele><time>2026-03-29T14:43:39Z</time></trkpt><trkpt lat="47.79027225017422" lon="7.175111113655764"><ele>297.0</ele><time>2026-03-29T14:43:40Z</time></trkpt><trkpt lat="47.79013550252084" lon="7.1754364455186375"><ele>294.5</ele><time>2026-03-29T14:43:41Z</time></trkpt><trkpt lat="47.789999969236675" lon="7.175750515190794"><ele>292.0</ele><time>2026-03-29T14:43:42Z</time></trkpt><trkpt lat="47.78986325490542" lon="7.176053436303198"><ele>292.0</ele><time>2026-03-29T14:43:43Z</time></trkpt><trkpt lat="47.78972728327397" lon="7.176345066752412"><ele>292.0</ele><time>2026-03-29T14:43:44Z</time></trkpt><trkpt lat="47.78959916657911" lon="7.1766204782647645"><ele>292.0</ele><time>2026-03-29T14:43:45Z</time></trkpt><trkpt lat="47.78947172871419" lon="7.176885460136762"><ele>292.0</ele><time>2026-03-29T14:43:46Z</time></trkpt><trkpt lat="47.78936580737084" lon="7.177165268995777"><ele>292.0</ele><time>2026-03-29T14:43:47Z</time></trkpt><trkpt lat="47.789205552329996" lon="7.177385466790793"><ele>292.3333333333333</ele><time>2026-03-29T14:43:48Z</time></trkpt><trkpt lat="47.78908546928157" lon="7.17764301998068"><ele>292.6666666666667</ele><time>2026-03-29T14:43:49Z</time></trkpt><trkpt lat="47.788991308193246" lon="7.177915661320376"><ele>293.0</ele><time>2026-03-29T14:43:50Z</time></trkpt><trkpt lat="47.788906449978526" lon="7.178197634581251"><ele>293.0</ele><time>2026-03-29T14:43:51Z</time></trkpt><trkpt lat="47.78882156773399" lon="7.178454506422806"><ele>293.0</ele><time>2026-03-29T14:43:52Z</time></trkpt><trkpt lat="47.7887246901712" lon="7.178714954909517"><ele>293.0</ele><time>2026-03-29T14:43:53Z</time></trkpt><trkpt lat="47.78861685408896" lon="7.178964089298525"><ele>293.6666666666667</ele><time>2026-03-29T14:43:54Z</time></trkpt><trkpt lat="47.788523754527716" lon="7.179185104611714"><ele>294.3333333333333</ele><time>2026-03-29T14:43:55Z</time></trkpt><trkpt lat="47.78842769919533" lon="7.179369492205325"><ele>295.0</ele><time>2026-03-29T14:43:56Z</time></trkpt><trkpt lat="47.7883184580973" lon="7.179528570588959"><ele>295.0</ele><time>2026-03-29T14:43:57Z</time></trkpt><trkpt lat="47.788167273052245" lon="7.179642239521397"><ele>295.0</ele><time>2026-03-29T14:43:58Z</time></trkpt><trkpt lat="47.78799583838309" lon="7.179676774546577"><ele>295.0</ele><time>2026-03-29T14:43:59Z</time></trkpt><trkpt lat="47.787829561463596" lon="7.179615351558776"><ele>295.0</ele><time>2026-03-29T14:44:00Z</time></trkpt><trkpt lat="47.78770629063519" lon="7.179414615909221"><ele>295.0</ele><time>2026-03-29T14:44:01Z</time></trkpt><trkpt lat="47.787629099283514" lon="7.1791717246332345"><ele>295.0</ele><time>2026-03-29T14:44:02Z</time></trkpt><trkpt lat="47.78763188698079" lon="7.1789161350259265"><ele>295.66666666666663</ele><time>2026-03-29T14:44:03Z</time></trkpt><trkpt lat="47.78772376754858" lon="7.1786765809719775"><ele>296.3333333333333</ele><time>2026-03-29T14:44:04Z</time></trkpt><trkpt lat="47.78785070988436" lon="7.178530473713698"><ele>297.0</ele><time>2026-03-29T14:44:05Z</time></trkpt><trkpt lat="47.78798360808509" lon="7.178491956026005"><ele>297.0</ele><time>2026-03-29T14:44:06Z</time></trkpt><trkpt lat="47.78809126038124" lon="7.178491811260309"><ele>297.0</ele><time>2026-03-29T14:44:07Z</time></trkpt><trkpt lat="47.78818702470159" lon="7.178510267578267"><ele>297.0</ele><time>2026-03-29T14:44:08Z</time></trkpt><trkpt lat="47.78828590937484" lon="7.178560478540634"><ele>297.0</ele><time>2026-03-29T14:44:09Z</time></trkpt><trkpt lat="47.78839612275104" lon="7.178653209486555"><ele>297.0</ele><time>2026-03-29T14:44:10Z</time></trkpt><trkpt lat="47.78850690276607" lon="7.178764031338729"><ele>296.5</ele><time>2026-03-29T14:44:11Z</time></trkpt><trkpt lat="47.78861435897252" lon="7.1788925197922335"><ele>296.0</ele><time>2026-03-29T14:44:12Z</time></trkpt><trkpt lat="47.788718862897" lon="7.17901880572982"><ele>295.5</ele><time>2026-03-29T14:44:13Z</time></trkpt><trkpt lat="47.78883112061567" lon="7.179160486311059"><ele>295.0</ele><time>2026-03-29T14:44:14Z</time></trkpt><trkpt lat="47.78895462013491" lon="7.17930290250287"><ele>295.0</ele><time>2026-03-29T14:44:15Z</time></trkpt><trkpt lat="47.78906905099907" lon="7.179433106379625"><ele>295.0</ele><time>2026-03-29T14:44:16Z</time></trkpt><trkpt lat="47.7891761685893" lon="7.179555272935116"><ele>295.0</ele><time>2026-03-29T14:44:17Z</time></trkpt><trkpt lat="47.78929426286307" lon="7.179700138455643"><ele>295.0</ele><time>2026-03-29T14:44:18Z</time></trkpt><trkpt lat="47.78942066555804" lon="7.179846898604435"><ele>295.3333333333333</ele><time>2026-03-29T14:44:19Z</time></trkpt><trkpt lat="47.78955280747391" lon="7.180003462082378"><ele>295.6666666666667</ele><time>2026-03-29T14:44:20Z</time></trkpt><trkpt lat="47.789687306190174" lon="7.180162809904664"><ele>296.0</ele><time>2026-03-29T14:44:21Z</time></trkpt><trkpt lat="47.78982220422705" lon="7.180325566552322"><ele>296.0</ele><time>2026-03-29T14:44:22Z</time></trkpt><trkpt lat="47.78996404550023" lon="7.180494785927637"><ele>296.0</ele><time>2026-03-29T14:44:23Z</time></trkpt><trkpt lat="47.790107000425884" lon="7.180658783603462"><ele>296.0</ele><time>2026-03-29T14:44:24Z</time></trkpt><trkpt lat="47.79024660128189" lon="7.180826879393171"><ele>295.6666666666667</ele><time>2026-03-29T14:44:25Z</time></trkpt><trkpt lat="47.79039145743829" lon="7.181003041131569"><ele>295.3333333333333</ele><time>2026-03-29T14:44:26Z</time></trkpt><trkpt lat="47.79054101364138" lon="7.181183595263313"><ele>295.0</ele><time>2026-03-29T14:44:27Z</time></trkpt><trkpt lat="47.790693980466365" lon="7.181370729816601"><ele>295.0</ele><time>2026-03-29T14:44:28Z</time></trkpt><trkpt lat="47.7908498972987" lon="7.181571342650101"><ele>295.0</ele><time>2026-03-29T14:44:29Z</time></trkpt><trkpt lat="47.79100718359918" lon="7.18178082445267"><ele>295.0</ele><time>2026-03-29T14:44:30Z</time></trkpt><trkpt lat="47.79117589870401" lon="7.182006710443703"><ele>294.0</ele><time>2026-03-29T14:44:31Z</time></trkpt><trkpt lat="47.79140493434028" lon="7.182189592128749"><ele>293.0</ele><time>2026-03-29T14:44:32Z</time></trkpt><trkpt lat="47.79163921544682" lon="7.182442091061898"><ele>292.0</ele><time>2026-03-29T14:44:33Z</time></trkpt><trkpt lat="47.79190350342313" lon="7.182691867130129"><ele>291.0</ele><time>2026-03-29T14:44:34Z</time></trkpt><trkpt lat="47.79220515405316" lon="7.18289069140279"><ele>291.0</ele><time>2026-03-29T14:44:35Z</time></trkpt><trkpt lat="47.792514738610436" lon="7.183108718084533"><ele>291.0</ele><time>2026-03-29T14:44:36Z</time></trkpt><trkpt lat="47.79274827055622" lon="7.183663081815647"><ele>291.0</ele><time>2026-03-29T14:44:37Z</time></trkpt><trkpt lat="47.7930583566694" lon="7.184029593928893"><ele>291.0</ele><time>2026-03-29T14:44:38Z</time></trkpt><trkpt lat="47.79333497725022" lon="7.184355593118873"><ele>291.0</ele><time>2026-03-29T14:44:39Z</time></trkpt><trkpt lat="47.793595940662314" lon="7.184666566692558"><ele>291.0</ele><time>2026-03-29T14:44:40Z</time></trkpt><trkpt lat="47.793856682735374" lon="7.184972857573545"><ele>291.5</ele><time>2026-03-29T14:44:41Z</time></trkpt><trkpt lat="47.79414057433237" lon="7.185314162707204"><ele>292.0</ele><time>2026-03-29T14:44:42Z</time></trkpt><trkpt lat="47.79443067883901" lon="7.185665515762943"><ele>291.5</ele><time>2026-03-29T14:44:43Z</time></trkpt><trkpt lat="47.79473061641714" lon="7.186021689414629"><ele>291.0</ele><time>2026-03-29T14:44:44Z</time></trkpt><trkpt lat="47.79503660187442" lon="7.186384572163815"><ele>290.5</ele><time>2026-03-29T14:44:45Z</time></trkpt><trkpt lat="47.795350120480045" lon="7.186753116728668"><ele>290.0</ele><time>2026-03-29T14:44:46Z</time></trkpt><trkpt lat="47.79567309415173" lon="7.187118383764908"><ele>290.0</ele><time>2026-03-29T14:44:47Z</time></trkpt><trkpt lat="47.79598034914354" lon="7.187450129374231"><ele>290.0</ele><time>2026-03-29T14:44:48Z</time></trkpt><trkpt lat="47.7962735182815" lon="7.187732104154341"><ele>290.0</ele><time>2026-03-29T14:44:49Z</time></trkpt><trkpt lat="47.79655185369819" lon="7.187988035896408"><ele>290.0</ele><time>2026-03-29T14:44:50Z</time></trkpt><trkpt lat="47.7968192825491" lon="7.188225255868799"><ele>290.0</ele><time>2026-03-29T14:44:51Z</time></trkpt><trkpt lat="47.79707898186479" lon="7.188447156517725"><ele>290.0</ele><time>2026-03-29T14:44:52Z</time></trkpt><trkpt lat="47.797340467558584" lon="7.188659577186722"><ele>290.0</ele><time>2026-03-29T14:44:53Z</time></trkpt><trkpt lat="47.79760042928347" lon="7.188863383304561"><ele>290.0</ele><time>2026-03-29T14:44:54Z</time></trkpt><trkpt lat="47.797856209032425" lon="7.1890600653529955"><ele>289.5</ele><time>2026-03-29T14:44:55Z</time></trkpt><trkpt lat="47.79804852150832" lon="7.189165592366842"><ele>289.0</ele><time>2026-03-29T14:44:56Z</time></trkpt><trkpt lat="47.798294565882024" lon="7.189323930820629"><ele>288.5</ele><time>2026-03-29T14:44:57Z</time></trkpt><trkpt lat="47.79855310600431" lon="7.189504553188365"><ele>288.0</ele><time>2026-03-29T14:44:58Z</time></trkpt><trkpt lat="47.79879740829693" lon="7.189668524142779"><ele>288.0</ele><time>2026-03-29T14:44:59Z</time></trkpt><trkpt lat="47.79903548573683" lon="7.189781218340824"><ele>288.0</ele><time>2026-03-29T14:45:00Z</time></trkpt><trkpt lat="47.79927006384814" lon="7.189883138999956"><ele>287.5</ele><time>2026-03-29T14:45:01Z</time></trkpt><trkpt lat="47.799513973044924" lon="7.189987106727659"><ele>287.0</ele><time>2026-03-29T14:45:02Z</time></trkpt><trkpt lat="47.79976275200506" lon="7.190101274815047"><ele>287.0</ele><time>2026-03-29T14:45:03Z</time></trkpt><trkpt lat="47.800012812802684" lon="7.190211435051182"><ele>287.0</ele><time>2026-03-29T14:45:04Z</time></trkpt><trkpt lat="47.80025906577787" lon="7.190316896813856"><ele>287.5</ele><time>2026-03-29T14:45:05Z</time></trkpt><trkpt lat="47.800509380301094" lon="7.1904342086760735"><ele>288.0</ele><time>2026-03-29T14:45:06Z</time></trkpt><trkpt lat="47.80076100410422" lon="7.190524116443718"><ele>288.0</ele><time>2026-03-29T14:45:07Z</time></trkpt><trkpt lat="47.801002893618886" lon="7.190689874938208"><ele>288.0</ele><time>2026-03-29T14:45:08Z</time></trkpt><trkpt lat="47.80124362291678" lon="7.190808598781639"><ele>288.0</ele><time>2026-03-29T14:45:09Z</time></trkpt><trkpt lat="47.80145884293233" lon="7.1909131486458975"><ele>288.0</ele><time>2026-03-29T14:45:10Z</time></trkpt><trkpt lat="47.801659196193356" lon="7.191003688081374"><ele>288.0</ele><time>2026-03-29T14:45:11Z</time></trkpt><trkpt lat="47.801835180984746" lon="7.191108362496527"><ele>288.3333333333333</ele><time>2026-03-29T14:45:12Z</time></trkpt><trkpt lat="47.801981562881764" lon="7.191240449627029"><ele>288.66666666666663</ele><time>2026-03-29T14:45:13Z</time></trkpt><trkpt lat="47.802102746887726" lon="7.191385240101067"><ele>289.0</ele><time>2026-03-29T14:45:14Z</time></trkpt><trkpt lat="47.80220792027178" lon="7.191510462429263"><ele>289.0</ele><time>2026-03-29T14:45:15Z</time></trkpt><trkpt lat="47.80230403599358" lon="7.191613000409921"><ele>289.0</ele><time>2026-03-29T14:45:16Z</time></trkpt><trkpt lat="47.80239145990805" lon="7.191708111986779"><ele>289.0</ele><time>2026-03-29T14:45:17Z</time></trkpt><trkpt lat="47.80245526881588" lon="7.1918069305379735"><ele>289.0</ele><time>2026-03-29T14:45:18Z</time></trkpt><trkpt lat="47.80249941065342" lon="7.191904157457012"><ele>289.0</ele><time>2026-03-29T14:45:19Z</time></trkpt><trkpt lat="47.8025366879572" lon="7.1920350545171035"><ele>289.0</ele><time>2026-03-29T14:45:20Z</time></trkpt><trkpt lat="47.80261320699414" lon="7.192180994760728"><ele>289.0</ele><time>2026-03-29T14:45:21Z</time></trkpt><trkpt lat="47.80262549494634" lon="7.192441609707113"><ele>289.0</ele><time>2026-03-29T14:45:22Z</time></trkpt><trkpt lat="47.802665243854506" lon="7.192716162243693"><ele>288.3333333333333</ele><time>2026-03-29T14:45:23Z</time></trkpt><trkpt lat="47.80270601409315" lon="7.192994511979206"><ele>287.6666666666667</ele><time>2026-03-29T14:45:24Z</time></trkpt><trkpt lat="47.80274896386504" lon="7.193251010870633"><ele>287.0</ele><time>2026-03-29T14:45:25Z</time></trkpt><trkpt lat="47.802787083546285" lon="7.193501484563763"><ele>287.0</ele><time>2026-03-29T14:45:26Z</time></trkpt><trkpt lat="47.8028261173387" lon="7.193751408352914"><ele>287.0</ele><time>2026-03-29T14:45:27Z</time></trkpt><trkpt lat="47.802867106498205" lon="7.194014222297354"><ele>287.0</ele><time>2026-03-29T14:45:28Z</time></trkpt><trkpt lat="47.802909304560416" lon="7.194265114800584"><ele>287.6666666666667</ele><time>2026-03-29T14:45:29Z</time></trkpt><trkpt lat="47.80295016662344" lon="7.194501697068929"><ele>288.3333333333333</ele><time>2026-03-29T14:45:30Z</time></trkpt><trkpt lat="47.80298547011778" lon="7.194730702968092"><ele>289.0</ele><time>2026-03-29T14:45:31Z</time></trkpt><trkpt lat="47.803015592395155" lon="7.194948474344809"><ele>289.3333333333333</ele><time>2026-03-29T14:45:32Z</time></trkpt><trkpt lat="47.80304903769508" lon="7.195171037345738"><ele>289.6666666666667</ele><time>2026-03-29T14:45:33Z</time></trkpt><trkpt lat="47.80308748059941" lon="7.195391951442661"><ele>290.0</ele><time>2026-03-29T14:45:34Z</time></trkpt><trkpt lat="47.80312277838564" lon="7.195621190034169"><ele>289.5</ele><time>2026-03-29T14:45:35Z</time></trkpt><trkpt lat="47.80316099076221" lon="7.1958411998427"><ele>289.0</ele><time>2026-03-29T14:45:36Z</time></trkpt><trkpt lat="47.80319548675142" lon="7.196052646558677"><ele>288.5</ele><time>2026-03-29T14:45:37Z</time></trkpt><trkpt lat="47.80322989187676" lon="7.1962646549703395"><ele>288.0</ele><time>2026-03-29T14:45:38Z</time></trkpt><trkpt lat="47.803269828884524" lon="7.196468540933428"><ele>288.0</ele><time>2026-03-29T14:45:39Z</time></trkpt><trkpt lat="47.80331174125859" lon="7.196684206834963"><ele>288.0</ele><time>2026-03-29T14:45:40Z</time></trkpt><trkpt lat="47.80334454427153" lon="7.196898819725334"><ele>288.0</ele><time>2026-03-29T14:45:41Z</time></trkpt><trkpt lat="47.80337772763424" lon="7.197119692178359"><ele>288.0</ele><time>2026-03-29T14:45:42Z</time></trkpt><trkpt lat="47.803411394506846" lon="7.197325817640281"><ele>288.0</ele><time>2026-03-29T14:45:43Z</time></trkpt><trkpt lat="47.80344354596236" lon="7.197521907957319"><ele>288.0</ele><time>2026-03-29T14:45:44Z</time></trkpt><trkpt lat="47.80347270823795" lon="7.197713022312709"><ele>288.0</ele><time>2026-03-29T14:45:45Z</time></trkpt><trkpt lat="47.80350036972132" lon="7.197888352080678"><ele>287.8333333333333</ele><time>2026-03-29T14:45:46Z</time></trkpt><trkpt lat="47.80352320513579" lon="7.198032912141223"><ele>287.6666666666667</ele><time>2026-03-29T14:45:47Z</time></trkpt><trkpt lat="47.80354141513482" lon="7.198150353728439"><ele>287.5</ele><time>2026-03-29T14:45:48Z</time></trkpt><trkpt lat="47.803543787872975" lon="7.19826508694375"><ele>287.33333333333337</ele><time>2026-03-29T14:45:49Z</time></trkpt><trkpt lat="47.803529234304314" lon="7.198375381564404"><ele>287.1666666666667</ele><time>2026-03-29T14:45:50Z</time></trkpt><trkpt lat="47.803496647454885" lon="7.198487662462356"><ele>287.0</ele><time>2026-03-29T14:45:51Z</time></trkpt><trkpt lat="47.80348043358527" lon="7.1986085433088505"><ele>286.8</ele><time>2026-03-29T14:45:52Z</time></trkpt><trkpt lat="47.80351558052401" lon="7.198734907889683"><ele>286.6</ele><time>2026-03-29T14:45:53Z</time></trkpt><trkpt lat="47.803589483330455" lon="7.198839832429484"><ele>286.40000000000003</ele><time>2026-03-29T14:45:54Z</time></trkpt><trkpt lat="47.80366103104515" lon="7.198941540304042"><ele>286.2</ele><time>2026-03-29T14:45:55Z</time></trkpt><trkpt lat="47.80369883521655" lon="7.1990917072574385"><ele>286.0</ele><time>2026-03-29T14:45:56Z</time></trkpt><trkpt lat="47.80373183429373" lon="7.19927968330858"><ele>286.0</ele><time>2026-03-29T14:45:57Z</time></trkpt><trkpt lat="47.80376193750508" lon="7.199473737877314"><ele>286.0</ele><time>2026-03-29T14:45:58Z</time></trkpt><trkpt lat="47.80378981782856" lon="7.199664484342795"><ele>286.0</ele><time>2026-03-29T14:45:59Z</time></trkpt><trkpt lat="47.80382169941571" lon="7.19986158577966"><ele>286.0</ele><time>2026-03-29T14:46:00Z</time></trkpt><trkpt lat="47.8038577101211" lon="7.200068289400433"><ele>286.0</ele><time>2026-03-29T14:46:01Z</time></trkpt><trkpt lat="47.803891965727104" lon="7.200275104577653"><ele>286.0</ele><time>2026-03-29T14:46:02Z</time></trkpt><trkpt lat="47.80392629612732" lon="7.200484240879749"><ele>286.0</ele><time>2026-03-29T14:46:03Z</time></trkpt><trkpt lat="47.8039634951159" lon="7.200707914922527"><ele>286.0</ele><time>2026-03-29T14:46:04Z</time></trkpt><trkpt lat="47.8040019305187" lon="7.200935111275309"><ele>286.0</ele><time>2026-03-29T14:46:05Z</time></trkpt><trkpt lat="47.8040407301828" lon="7.201179602603551"><ele>286.0</ele><time>2026-03-29T14:46:06Z</time></trkpt><trkpt lat="47.80408105131399" lon="7.201429456561553"><ele>286.0</ele><time>2026-03-29T14:46:07Z</time></trkpt><trkpt lat="47.80412395502611" lon="7.201687100685593"><ele>285.3333333333333</ele><time>2026-03-29T14:46:08Z</time></trkpt><trkpt lat="47.80416711076057" lon="7.201953001906573"><ele>284.6666666666667</ele><time>2026-03-29T14:46:09Z</time></trkpt><trkpt lat="47.80420966327813" lon="7.202223650827046"><ele>284.0</ele><time>2026-03-29T14:46:10Z</time></trkpt><trkpt lat="47.80425249276807" lon="7.202486329106376"><ele>284.33333333333337</ele><time>2026-03-29T14:46:11Z</time></trkpt><trkpt lat="47.804295238730575" lon="7.202759534655631"><ele>284.6666666666667</ele><time>2026-03-29T14:46:12Z</time></trkpt><trkpt lat="47.804342646123025" lon="7.203032118670361"><ele>285.0</ele><time>2026-03-29T14:46:13Z</time></trkpt><trkpt lat="47.8043896782873" lon="7.203313571992997"><ele>285.0</ele><time>2026-03-29T14:46:14Z</time></trkpt><trkpt lat="47.80443663769589" lon="7.203587251610794"><ele>285.0</ele><time>2026-03-29T14:46:15Z</time></trkpt><trkpt lat="47.8044790048993" lon="7.203863928484577"><ele>285.0</ele><time>2026-03-29T14:46:16Z</time></trkpt><trkpt lat="47.80452763792311" lon="7.204141118291044"><ele>284.0</ele><time>2026-03-29T14:46:17Z</time></trkpt><trkpt lat="47.804573995238435" lon="7.2044209996227995"><ele>283.0</ele><time>2026-03-29T14:46:18Z</time></trkpt><trkpt lat="47.80461723385675" lon="7.204703053812227"><ele>282.0</ele><time>2026-03-29T14:46:19Z</time></trkpt><trkpt lat="47.80466520214003" lon="7.204990357844292"><ele>282.0</ele><time>2026-03-29T14:46:20Z</time></trkpt><trkpt lat="47.80471130850702" lon="7.205281338371255"><ele>282.0</ele><time>2026-03-29T14:46:21Z</time></trkpt><trkpt lat="47.80475666126305" lon="7.2055621902109985"><ele>282.0</ele><time>2026-03-29T14:46:22Z</time></trkpt><trkpt lat="47.80479912987744" lon="7.2058327042606685"><ele>281.6666666666667</ele><time>2026-03-29T14:46:23Z</time></trkpt><trkpt lat="47.80484208470772" lon="7.206104797733062"><ele>281.33333333333337</ele><time>2026-03-29T14:46:24Z</time></trkpt><trkpt lat="47.80489093769813" lon="7.206386512439301"><ele>281.0</ele><time>2026-03-29T14:46:25Z</time></trkpt><trkpt lat="47.80493680067025" lon="7.206668639039352"><ele>280.33333333333337</ele><time>2026-03-29T14:46:26Z</time></trkpt><trkpt lat="47.80498152860179" lon="7.206942583852622"><ele>279.6666666666667</ele><time>2026-03-29T14:46:27Z</time></trkpt><trkpt lat="47.80502982052303" lon="7.207226144064213"><ele>279.0</ele><time>2026-03-29T14:46:28Z</time></trkpt><trkpt lat="47.80507780007191" lon="7.207505355009122"><ele>278.3333333333333</ele><time>2026-03-29T14:46:29Z</time></trkpt><trkpt lat="47.80513241479751" lon="7.207782118176689"><ele>277.66666666666663</ele><time>2026-03-29T14:46:30Z</time></trkpt><trkpt lat="47.80518903451041" lon="7.20807258839852"><ele>277.0</ele><time>2026-03-29T14:46:31Z</time></trkpt><trkpt lat="47.80525048214332" lon="7.208370774474562"><ele>276.66666666666663</ele><time>2026-03-29T14:46:32Z</time></trkpt><trkpt lat="47.80532130694743" lon="7.208689937072905"><ele>276.3333333333333</ele><time>2026-03-29T14:46:33Z</time></trkpt><trkpt lat="47.80538627554764" lon="7.208991616088063"><ele>276.0</ele><time>2026-03-29T14:46:34Z</time></trkpt><trkpt lat="47.80546121951877" lon="7.209297233728834"><ele>276.3333333333333</ele><time>2026-03-29T14:46:35Z</time></trkpt><trkpt lat="47.80552895296965" lon="7.209602903988082"><ele>276.66666666666663</ele><time>2026-03-29T14:46:36Z</time></trkpt><trkpt lat="47.80560241958316" lon="7.209922342401061"><ele>277.0</ele><time>2026-03-29T14:46:37Z</time></trkpt><trkpt lat="47.80567550048454" lon="7.210235547020063"><ele>277.0</ele><time>2026-03-29T14:46:38Z</time></trkpt><trkpt lat="47.80574129450836" lon="7.210552237933257"><ele>277.0</ele><time>2026-03-29T14:46:39Z</time></trkpt><trkpt lat="47.805803479365466" lon="7.210865541371356"><ele>277.0</ele><time>2026-03-29T14:46:40Z</time></trkpt><trkpt lat="47.80586111350814" lon="7.2111639512342185"><ele>276.5</ele><time>2026-03-29T14:46:41Z</time></trkpt><trkpt lat="47.80591336553878" lon="7.211478630669823"><ele>276.0</ele><time>2026-03-29T14:46:42Z</time></trkpt><trkpt lat="47.805973839552024" lon="7.211815972385959"><ele>276.0</ele><time>2026-03-29T14:46:43Z</time></trkpt><trkpt lat="47.806041544461245" lon="7.212170207942878"><ele>276.0</ele><time>2026-03-29T14:46:44Z</time></trkpt><trkpt lat="47.80610532250259" lon="7.212521740568502"><ele>275.5</ele><time>2026-03-29T14:46:45Z</time></trkpt><trkpt lat="47.806176818034906" lon="7.212898293842176"><ele>275.0</ele><time>2026-03-29T14:46:46Z</time></trkpt><trkpt lat="47.806249233852554" lon="7.213330046326578"><ele>275.0</ele><time>2026-03-29T14:46:47Z</time></trkpt><trkpt lat="47.80633585913251" lon="7.213794466421698"><ele>275.0</ele><time>2026-03-29T14:46:48Z</time></trkpt><trkpt lat="47.80643482453128" lon="7.214281136065228"><ele>273.0</ele><time>2026-03-29T14:46:49Z</time></trkpt><trkpt lat="47.806520889950775" lon="7.214794280634337"><ele>271.0</ele><time>2026-03-29T14:46:50Z</time></trkpt><trkpt lat="47.806613031352825" lon="7.215310373002912"><ele>270.0</ele><time>2026-03-29T14:46:51Z</time></trkpt><trkpt lat="47.806710879760104" lon="7.215810799068778"><ele>269.0</ele><time>2026-03-29T14:46:52Z</time></trkpt><trkpt lat="47.80679692948527" lon="7.21625425616796"><ele>268.5</ele><time>2026-03-29T14:46:53Z</time></trkpt><trkpt lat="47.80687323179373" lon="7.216667352833837"><ele>268.0</ele><time>2026-03-29T14:46:54Z</time></trkpt><trkpt lat="47.806946675157604" lon="7.217044949772877"><ele>268.0</ele><time>2026-03-29T14:46:55Z</time></trkpt><trkpt lat="47.80702265296441" lon="7.217429752944915"><ele>268.0</ele><time>2026-03-29T14:46:56Z</time></trkpt><trkpt lat="47.8070961745427" lon="7.217810114166752"><ele>268.0</ele><time>2026-03-29T14:46:57Z</time></trkpt><trkpt lat="47.8071682710999" lon="7.218191516633151"><ele>268.0</ele><time>2026-03-29T14:46:58Z</time></trkpt><trkpt lat="47.80724039228569" lon="7.21856619924883"><ele>268.0</ele><time>2026-03-29T14:46:59Z</time></trkpt><trkpt lat="47.807316529552814" lon="7.21893646688691"><ele>268.0</ele><time>2026-03-29T14:47:00Z</time></trkpt><trkpt lat="47.80739417445389" lon="7.219307379133235"><ele>267.5</ele><time>2026-03-29T14:47:01Z</time></trkpt><trkpt lat="47.80746796553667" lon="7.219685443116051"><ele>267.0</ele><time>2026-03-29T14:47:02Z</time></trkpt><trkpt lat="47.80752307884141" lon="7.220062471864037"><ele>267.0</ele><time>2026-03-29T14:47:03Z</time></trkpt><trkpt lat="47.80756429269595" lon="7.220439413983708"><ele>267.0</ele><time>2026-03-29T14:47:04Z</time></trkpt><trkpt lat="47.80760098091269" lon="7.2207950712115005"><ele>266.5</ele><time>2026-03-29T14:47:05Z</time></trkpt><trkpt lat="47.80763873063352" lon="7.221140876145634"><ele>266.0</ele><time>2026-03-29T14:47:06Z</time></trkpt><trkpt lat="47.80767900968877" lon="7.221489236760034"><ele>265.0</ele><time>2026-03-29T14:47:07Z</time></trkpt><trkpt lat="47.80771806538621" lon="7.221828970419927"><ele>264.0</ele><time>2026-03-29T14:47:08Z</time></trkpt><trkpt lat="47.80775499144364" lon="7.22217148321415"><ele>264.5</ele><time>2026-03-29T14:47:09Z</time></trkpt><trkpt lat="47.807791774175506" lon="7.222520050475931"><ele>265.0</ele><time>2026-03-29T14:47:10Z</time></trkpt><trkpt lat="47.80782995597931" lon="7.22285608326485"><ele>265.0</ele><time>2026-03-29T14:47:11Z</time></trkpt><trkpt lat="47.807869268240935" lon="7.223146746688634"><ele>265.0</ele><time>2026-03-29T14:47:12Z</time></trkpt><trkpt lat="47.80790428305704" lon="7.223402670963036"><ele>265.0</ele><time>2026-03-29T14:47:13Z</time></trkpt><trkpt lat="47.80792687575787" lon="7.223625766811643"><ele>265.25</ele><time>2026-03-29T14:47:14Z</time></trkpt><trkpt lat="47.807941284961906" lon="7.223804710598795"><ele>265.5</ele><time>2026-03-29T14:47:15Z</time></trkpt><trkpt lat="47.80794605394251" lon="7.223978342024552"><ele>265.75</ele><time>2026-03-29T14:47:16Z</time></trkpt><trkpt lat="47.80791776024772" lon="7.224133269925148"><ele>266.0</ele><time>2026-03-29T14:47:17Z</time></trkpt><trkpt lat="47.80786576095403" lon="7.224278159585588"><ele>266.25</ele><time>2026-03-29T14:47:18Z</time></trkpt><trkpt lat="47.807867862219354" lon="7.224421944005278"><ele>266.5</ele><time>2026-03-29T14:47:19Z</time></trkpt><trkpt lat="47.80793908758428" lon="7.224533449358353"><ele>266.75</ele><time>2026-03-29T14:47:20Z</time></trkpt><trkpt lat="47.80807289071212" lon="7.224586173184107"><ele>267.0</ele><time>2026-03-29T14:47:21Z</time></trkpt><trkpt lat="47.808246822455715" lon="7.224684776008534"><ele>266.3333333333333</ele><time>2026-03-29T14:47:22Z</time></trkpt><trkpt lat="47.808342372319224" lon="7.2248836209642535"><ele>265.66666666666663</ele><time>2026-03-29T14:47:23Z</time></trkpt><trkpt lat="47.808431772138306" lon="7.225131894684209"><ele>265.0</ele><time>2026-03-29T14:47:24Z</time></trkpt><trkpt lat="47.80854907515952" lon="7.225360522271197"><ele>264.5</ele><time>2026-03-29T14:47:25Z</time></trkpt><trkpt lat="47.80868363424287" lon="7.225597988232236"><ele>264.0</ele><time>2026-03-29T14:47:26Z</time></trkpt><trkpt lat="47.80884944490568" lon="7.225882670718866"><ele>263.5</ele><time>2026-03-29T14:47:27Z</time></trkpt><trkpt lat="47.80903792108465" lon="7.22621343745432"><ele>263.0</ele><time>2026-03-29T14:47:28Z</time></trkpt><trkpt lat="47.80923230939184" lon="7.226573991889932"><ele>262.5</ele><time>2026-03-29T14:47:29Z</time></trkpt><trkpt lat="47.80943732544367" lon="7.226960274443061"><ele>262.0</ele><time>2026-03-29T14:47:30Z</time></trkpt><trkpt lat="47.80965398493141" lon="7.227357098462536"><ele>261.5</ele><time>2026-03-29T14:47:31Z</time></trkpt><trkpt lat="47.80988213836894" lon="7.227771945103182"><ele>261.0</ele><time>2026-03-29T14:47:32Z</time></trkpt><trkpt lat="47.810113814367966" lon="7.228194243146841"><ele>261.0</ele><time>2026-03-29T14:47:33Z</time></trkpt><trkpt lat="47.81035497243388" lon="7.228641289702099"><ele>261.0</ele><time>2026-03-29T14:47:34Z</time></trkpt><trkpt lat="47.81060733493192" lon="7.22909754906515"><ele>261.0</ele><time>2026-03-29T14:47:35Z</time></trkpt><trkpt lat="47.81086073150966" lon="7.229551726492458"><ele>261.0</ele><time>2026-03-29T14:47:36Z</time></trkpt><trkpt lat="47.81111245162332" lon="7.230020388123243"><ele>260.0</ele><time>2026-03-29T14:47:37Z</time></trkpt><trkpt lat="47.8113707389822" lon="7.230491076449039"><ele>259.0</ele><time>2026-03-29T14:47:38Z</time></trkpt><trkpt lat="47.81163014071112" lon="7.230958851361655"><ele>259.5</ele><time>2026-03-29T14:47:39Z</time></trkpt><trkpt lat="47.811896486502924" lon="7.2314319202753445"><ele>260.0</ele><time>2026-03-29T14:47:40Z</time></trkpt><trkpt lat="47.81216502157198" lon="7.231914195918164"><ele>259.0</ele><time>2026-03-29T14:47:41Z</time></trkpt><trkpt lat="47.8124321782555" lon="7.2324086023916045"><ele>258.0</ele><time>2026-03-29T14:47:42Z</time></trkpt><trkpt lat="47.812699733475604" lon="7.23290182970079"><ele>257.0</ele><time>2026-03-29T14:47:43Z</time></trkpt><trkpt lat="47.8129748134928" lon="7.233403318941746"><ele>256.0</ele><time>2026-03-29T14:47:44Z</time></trkpt><trkpt lat="47.81325600420375" lon="7.233908009181652"><ele>256.0</ele><time>2026-03-29T14:47:45Z</time></trkpt><trkpt lat="47.81353807769203" lon="7.234409894230437"><ele>256.0</ele><time>2026-03-29T14:47:46Z</time></trkpt><trkpt lat="47.813801491660094" lon="7.234890846037924"><ele>256.0</ele><time>2026-03-29T14:47:47Z</time></trkpt><trkpt lat="47.814027324083014" lon="7.2353868090988716"><ele>256.0</ele><time>2026-03-29T14:47:48Z</time></trkpt><trkpt lat="47.814253164498055" lon="7.235863509574313"><ele>255.0</ele><time>2026-03-29T14:47:49Z</time></trkpt><trkpt lat="47.81444230673549" lon="7.23640083345771"><ele>254.0</ele><time>2026-03-29T14:47:50Z</time></trkpt><trkpt lat="47.81461346320948" lon="7.236958211093567"><ele>253.5</ele><time>2026-03-29T14:47:51Z</time></trkpt><trkpt lat="47.81475803856857" lon="7.237534416378535"><ele>253.0</ele><time>2026-03-29T14:47:52Z</time></trkpt><trkpt lat="47.81486788630411" lon="7.238132362738734"><ele>253.0</ele><time>2026-03-29T14:47:53Z</time></trkpt><trkpt lat="47.81498884756184" lon="7.238732997221306"><ele>253.0</ele><time>2026-03-29T14:47:54Z</time></trkpt><trkpt lat="47.81503926039892" lon="7.2393352746838335"><ele>252.5</ele><time>2026-03-29T14:47:55Z</time></trkpt><trkpt lat="47.81506466693119" lon="7.23985446160697"><ele>252.0</ele><time>2026-03-29T14:47:56Z</time></trkpt><trkpt lat="47.815095693173205" lon="7.240287852757619"><ele>252.0</ele><time>2026-03-29T14:47:57Z</time></trkpt><trkpt lat="47.815118438598866" lon="7.240628262476001"><ele>252.0</ele><time>2026-03-29T14:47:58Z</time></trkpt><trkpt lat="47.81513160156761" lon="7.240885052125718"><ele>252.0</ele><time>2026-03-29T14:47:59Z</time></trkpt><trkpt lat="47.81514008628962" lon="7.241117258102174"><ele>252.0</ele><time>2026-03-29T14:48:00Z</time></trkpt><trkpt lat="47.815110472241685" lon="7.241304841588104"><ele>252.0</ele><time>2026-03-29T14:48:01Z</time></trkpt><trkpt lat="47.81503402166047" lon="7.241454340764792"><ele>252.0</ele><time>2026-03-29T14:48:02Z</time></trkpt><trkpt lat="47.814974536413935" lon="7.241637362182138"><ele>252.0</ele><time>2026-03-29T14:48:03Z</time></trkpt><trkpt lat="47.815017357672666" lon="7.241828313384925"><ele>251.66666666666669</ele><time>2026-03-29T14:48:04Z</time></trkpt><trkpt lat="47.81513652670442" lon="7.24198245404506"><ele>251.33333333333334</ele><time>2026-03-29T14:48:05Z</time></trkpt><trkpt lat="47.815245806983675" lon="7.242209996884106"><ele>251.0</ele><time>2026-03-29T14:48:06Z</time></trkpt><trkpt lat="47.815262460076" lon="7.242557760200587"><ele>250.66666666666669</ele><time>2026-03-29T14:48:07Z</time></trkpt><trkpt lat="47.81525440830053" lon="7.242883686515273"><ele>250.33333333333331</ele><time>2026-03-29T14:48:08Z</time></trkpt><trkpt lat="47.815261280720144" lon="7.243149950375813"><ele>250.0</ele><time>2026-03-29T14:48:09Z</time></trkpt><trkpt lat="47.815265046377775" lon="7.243397629031104"><ele>250.0</ele><time>2026-03-29T14:48:10Z</time></trkpt><trkpt lat="47.81526981505428" lon="7.243646568001156"><ele>250.0</ele><time>2026-03-29T14:48:11Z</time></trkpt><trkpt lat="47.815272711764564" lon="7.243903670466045"><ele>250.0</ele><time>2026-03-29T14:48:12Z</time></trkpt><trkpt lat="47.81528051061326" lon="7.244164821443238"><ele>250.33333333333331</ele><time>2026-03-29T14:48:13Z</time></trkpt><trkpt lat="47.815290024158" lon="7.244448294804689"><ele>250.66666666666669</ele><time>2026-03-29T14:48:14Z</time></trkpt><trkpt lat="47.81530135779184" lon="7.244746790000093"><ele>251.0</ele><time>2026-03-29T14:48:15Z</time></trkpt><trkpt lat="47.815310021553856" lon="7.245033668954067"><ele>251.0</ele><time>2026-03-29T14:48:16Z</time></trkpt><trkpt lat="47.815319409820596" lon="7.245330585219646"><ele>251.0</ele><time>2026-03-29T14:48:17Z</time></trkpt><trkpt lat="47.81532473496673" lon="7.245592514178868"><ele>251.0</ele><time>2026-03-29T14:48:18Z</time></trkpt><trkpt lat="47.815336504730446" lon="7.2458393334603075"><ele>251.0</ele><time>2026-03-29T14:48:19Z</time></trkpt><trkpt lat="47.81534405492565" lon="7.246063996580856"><ele>251.0</ele><time>2026-03-29T14:48:20Z</time></trkpt><trkpt lat="47.81534251714661" lon="7.246296784568195"><ele>251.0</ele><time>2026-03-29T14:48:21Z</time></trkpt><trkpt lat="47.815351597620904" lon="7.246518107010804"><ele>250.66666666666669</ele><time>2026-03-29T14:48:22Z</time></trkpt><trkpt lat="47.815362981869804" lon="7.246739488367386"><ele>250.33333333333331</ele><time>2026-03-29T14:48:23Z</time></trkpt><trkpt lat="47.81536714690166" lon="7.246992104043185"><ele>250.0</ele><time>2026-03-29T14:48:24Z</time></trkpt><trkpt lat="47.81537305217799" lon="7.247242144352378"><ele>250.0</ele><time>2026-03-29T14:48:25Z</time></trkpt><trkpt lat="47.8153606995421" lon="7.247449376712006"><ele>250.0</ele><time>2026-03-29T14:48:26Z</time></trkpt><trkpt lat="47.81535471293074" lon="7.247630591827"><ele>250.0</ele><time>2026-03-29T14:48:27Z</time></trkpt><trkpt lat="47.815360357648544" lon="7.247763764453692"><ele>250.0</ele><time>2026-03-29T14:48:28Z</time></trkpt><trkpt lat="47.81536826329887" lon="7.247881186338559"><ele>250.0</ele><time>2026-03-29T14:48:29Z</time></trkpt><trkpt lat="47.81537286138409" lon="7.248009637812684"><ele>249.66666666666666</ele><time>2026-03-29T14:48:30Z</time></trkpt><trkpt lat="47.815377307271035" lon="7.2481346938454765"><ele>249.33333333333331</ele><time>2026-03-29T14:48:31Z</time></trkpt><trkpt lat="47.81537940963019" lon="7.2482354549794366"><ele>249.0</ele><time>2026-03-29T14:48:32Z</time></trkpt><trkpt lat="47.81538816301711" lon="7.248405568784218"><ele>248.66666666666669</ele><time>2026-03-29T14:48:34Z</time></trkpt><trkpt lat="47.81539377124097" lon="7.248518724063019"><ele>248.33333333333334</ele><time>2026-03-29T14:48:36Z</time></trkpt><trkpt lat="47.81540771313041" lon="7.248637186897309"><ele>248.0</ele><time>2026-03-29T14:48:39Z</time></trkpt><trkpt lat="47.8154295085438" lon="7.24876166362961"><ele>248.0</ele><time>2026-03-29T14:48:40Z</time></trkpt><trkpt lat="47.815446755735636" lon="7.248920498907033"><ele>248.0</ele><time>2026-03-29T14:48:41Z</time></trkpt><trkpt lat="47.81544948626755" lon="7.249099635747334"><ele>248.0</ele><time>2026-03-29T14:48:42Z</time></trkpt><trkpt lat="47.81545103456703" lon="7.249303831894539"><ele>248.0</ele><time>2026-03-29T14:48:43Z</time></trkpt><trkpt lat="47.81545510473192" lon="7.249520779847985"><ele>248.33333333333334</ele><time>2026-03-29T14:48:44Z</time></trkpt><trkpt lat="47.8154626671526" lon="7.249751129362251"><ele>248.66666666666669</ele><time>2026-03-29T14:48:45Z</time></trkpt><trkpt lat="47.81547149359823" lon="7.249987110323969"><ele>249.0</ele><time>2026-03-29T14:48:46Z</time></trkpt><trkpt lat="47.81547417823189" lon="7.250243656625208"><ele>249.0</ele><time>2026-03-29T14:48:47Z</time></trkpt><trkpt lat="47.815472231981474" lon="7.250512475373327"><ele>249.0</ele><time>2026-03-29T14:48:48Z</time></trkpt><trkpt lat="47.815461085975606" lon="7.250780077998259"><ele>249.0</ele><time>2026-03-29T14:48:49Z</time></trkpt><trkpt lat="47.815431154414384" lon="7.251035766620459"><ele>248.66666666666669</ele><time>2026-03-29T14:48:50Z</time></trkpt><trkpt lat="47.81538676262646" lon="7.2512908529035975"><ele>248.33333333333334</ele><time>2026-03-29T14:48:51Z</time></trkpt><trkpt lat="47.815324356506245" lon="7.251547462259175"><ele>248.0</ele><time>2026-03-29T14:48:52Z</time></trkpt><trkpt lat="47.815247334131875" lon="7.251795280913403"><ele>248.0</ele><time>2026-03-29T14:48:53Z</time></trkpt><trkpt lat="47.81515895599098" lon="7.2520319598550556"><ele>248.0</ele><time>2026-03-29T14:48:54Z</time></trkpt><trkpt lat="47.81505809282294" lon="7.252264028513386"><ele>248.0</ele><time>2026-03-29T14:48:55Z</time></trkpt><trkpt lat="47.8149405864329" lon="7.252479304873397"><ele>247.66666666666669</ele><time>2026-03-29T14:48:56Z</time></trkpt><trkpt lat="47.81480818124471" lon="7.252679366114523"><ele>247.33333333333331</ele><time>2026-03-29T14:48:57Z</time></trkpt><trkpt lat="47.81466763378793" lon="7.252868635384834"><ele>247.0</ele><time>2026-03-29T14:48:58Z</time></trkpt><trkpt lat="47.81452089060092" lon="7.253053352761605"><ele>247.0</ele><time>2026-03-29T14:48:59Z</time></trkpt><trkpt lat="47.81437705194976" lon="7.253224537104409"><ele>247.0</ele><time>2026-03-29T14:49:00Z</time></trkpt><trkpt lat="47.81423501267352" lon="7.253395755751027"><ele>247.0</ele><time>2026-03-29T14:49:01Z</time></trkpt><trkpt lat="47.81409858978032" lon="7.2535673362770074"><ele>247.33333333333331</ele><time>2026-03-29T14:49:02Z</time></trkpt><trkpt lat="47.813962528626675" lon="7.25373651816538"><ele>247.66666666666669</ele><time>2026-03-29T14:49:03Z</time></trkpt><trkpt lat="47.81383901325027" lon="7.253893356577228"><ele>248.0</ele><time>2026-03-29T14:49:04Z</time></trkpt><trkpt lat="47.813719148087465" lon="7.254043256248628"><ele>248.0</ele><time>2026-03-29T14:49:05Z</time></trkpt><trkpt lat="47.813614651472996" lon="7.254176797168477"><ele>248.0</ele><time>2026-03-29T14:49:06Z</time></trkpt><trkpt lat="47.81352969273662" lon="7.254283020190011"><ele>248.0</ele><time>2026-03-29T14:49:07Z</time></trkpt><trkpt lat="47.81345820494336" lon="7.254364010344477"><ele>248.0</ele><time>2026-03-29T14:49:08Z</time></trkpt><trkpt lat="47.813395821386806" lon="7.254414517742529"><ele>248.0</ele><time>2026-03-29T14:49:09Z</time></trkpt><trkpt lat="47.813323594068585" lon="7.254421318075853"><ele>248.0</ele><time>2026-03-29T14:49:11Z</time></trkpt><trkpt lat="47.81325985182296" lon="7.2544134505126845"><ele>248.0</ele><time>2026-03-29T14:49:12Z</time></trkpt><trkpt lat="47.813145442154024" lon="7.254383267126364"><ele>248.0</ele><time>2026-03-29T14:49:13Z</time></trkpt><trkpt lat="47.813006286091706" lon="7.254389184054368"><ele>248.0</ele><time>2026-03-29T14:49:14Z</time></trkpt><trkpt lat="47.81288564947377" lon="7.254504881625252"><ele>248.0</ele><time>2026-03-29T14:49:15Z</time></trkpt><trkpt lat="47.81282847481609" lon="7.254691540228943"><ele>248.0</ele><time>2026-03-29T14:49:16Z</time></trkpt><trkpt lat="47.8128263717059" lon="7.254907471612858"><ele>248.0</ele><time>2026-03-29T14:49:17Z</time></trkpt><trkpt lat="47.812895933696495" lon="7.2551184765944665"><ele>248.0</ele><time>2026-03-29T14:49:18Z</time></trkpt><trkpt lat="47.81300792215751" lon="7.255250582249138"><ele>247.66666666666669</ele><time>2026-03-29T14:49:19Z</time></trkpt><trkpt lat="47.81314532085809" lon="7.255293028420959"><ele>247.33333333333331</ele><time>2026-03-29T14:49:20Z</time></trkpt><trkpt lat="47.81330868070077" lon="7.255233597072354"><ele>247.0</ele><time>2026-03-29T14:49:21Z</time></trkpt><trkpt lat="47.81348013702949" lon="7.255245186970846"><ele>247.0</ele><time>2026-03-29T14:49:22Z</time></trkpt><trkpt lat="47.813633354612634" lon="7.2553583557770285"><ele>247.0</ele><time>2026-03-29T14:49:23Z</time></trkpt><trkpt lat="47.8137308392506" lon="7.255561826497509"><ele>247.0</ele><time>2026-03-29T14:49:24Z</time></trkpt><trkpt lat="47.81380423551676" lon="7.255713541148645"><ele>247.0</ele><time>2026-03-29T14:49:25Z</time></trkpt><trkpt lat="47.81387861874546" lon="7.255890192494614"><ele>247.0</ele><time>2026-03-29T14:49:28Z</time></trkpt><trkpt lat="47.81394061711864" lon="7.256011174577129"><ele>247.0</ele><time>2026-03-29T14:49:29Z</time></trkpt><trkpt lat="47.81402967433316" lon="7.256225603598934"><ele>247.0</ele><time>2026-03-29T14:49:30Z</time></trkpt><trkpt lat="47.814111911267474" lon="7.25642919296438"><ele>247.0</ele><time>2026-03-29T14:49:31Z</time></trkpt><trkpt lat="47.814199162249025" lon="7.256633733820207"><ele>247.0</ele><time>2026-03-29T14:49:32Z</time></trkpt><trkpt lat="47.81428826059224" lon="7.256830176194869"><ele>247.0</ele><time>2026-03-29T14:49:33Z</time></trkpt><trkpt lat="47.81437008848548" lon="7.257026531777644"><ele>247.0</ele><time>2026-03-29T14:49:34Z</time></trkpt><trkpt lat="47.814451492100524" lon="7.257229294550583"><ele>247.0</ele><time>2026-03-29T14:49:35Z</time></trkpt><trkpt lat="47.81453561820954" lon="7.257417486178484"><ele>247.0</ele><time>2026-03-29T14:49:36Z</time></trkpt><trkpt lat="47.814609435867695" lon="7.257592936995945"><ele>247.0</ele><time>2026-03-29T14:49:37Z</time></trkpt><trkpt lat="47.81468526805831" lon="7.2577789742910115"><ele>247.0</ele><time>2026-03-29T14:49:38Z</time></trkpt><trkpt lat="47.81476194917045" lon="7.257954984914746"><ele>247.0</ele><time>2026-03-29T14:49:39Z</time></trkpt><trkpt lat="47.814822103383975" lon="7.258108953087345"><ele>247.0</ele><time>2026-03-29T14:49:40Z</time></trkpt><trkpt lat="47.81487821912393" lon="7.258251673105649"><ele>247.0</ele><time>2026-03-29T14:49:41Z</time></trkpt><trkpt lat="47.81493653586694" lon="7.258379259697836"><ele>247.0</ele><time>2026-03-29T14:49:42Z</time></trkpt><trkpt lat="47.81499336161277" lon="7.258519402081869"><ele>247.0</ele><time>2026-03-29T14:49:43Z</time></trkpt><trkpt lat="47.81503711418731" lon="7.258640539888039"><ele>247.0</ele><time>2026-03-29T14:49:44Z</time></trkpt><trkpt lat="47.81509304506894" lon="7.258781129861306"><ele>247.0</ele><time>2026-03-29T14:49:45Z</time></trkpt><trkpt lat="47.81515431574108" lon="7.258909624505468"><ele>247.0</ele><time>2026-03-29T14:49:46Z</time></trkpt><trkpt lat="47.81521590340058" lon="7.2590436181933224"><ele>247.0</ele><time>2026-03-29T14:49:47Z</time></trkpt><trkpt lat="47.81526717144617" lon="7.2591678099387025"><ele>247.0</ele><time>2026-03-29T14:49:48Z</time></trkpt><trkpt lat="47.81532243308839" lon="7.259298791638038"><ele>247.0</ele><time>2026-03-29T14:49:49Z</time></trkpt><trkpt lat="47.815380741688514" lon="7.25942789254449"><ele>247.0</ele><time>2026-03-29T14:49:50Z</time></trkpt><trkpt lat="47.81544675330073" lon="7.259578581163572"><ele>247.0</ele><time>2026-03-29T14:49:51Z</time></trkpt><trkpt lat="47.81551050249414" lon="7.259729783419825"><ele>247.2</ele><time>2026-03-29T14:49:52Z</time></trkpt><trkpt lat="47.815571227318635" lon="7.259877581568304"><ele>247.39999999999998</ele><time>2026-03-29T14:49:53Z</time></trkpt><trkpt lat="47.815627409012464" lon="7.260004809833124"><ele>247.60000000000002</ele><time>2026-03-29T14:49:54Z</time></trkpt><trkpt lat="47.81568785538556" lon="7.260145289671879"><ele>247.8</ele><time>2026-03-29T14:49:55Z</time></trkpt><trkpt lat="47.815742563338475" lon="7.260265131500114"><ele>248.0</ele><time>2026-03-29T14:49:56Z</time></trkpt><trkpt lat="47.81579421275283" lon="7.260381439287334"><ele>248.0</ele><time>2026-03-29T14:49:57Z</time></trkpt><trkpt lat="47.815834697486785" lon="7.260484985591333"><ele>248.0</ele><time>2026-03-29T14:49:58Z</time></trkpt><trkpt lat="47.8158958785839" lon="7.2605998049355716"><ele>248.0</ele><time>2026-03-29T14:50:00Z</time></trkpt><trkpt lat="47.816008025624896" lon="7.26050235336585"><ele>248.0</ele><time>2026-03-29T14:50:02Z</time></trkpt><trkpt lat="47.81608084162694" lon="7.260459592195718"><ele>248.0</ele><time>2026-03-29T14:50:03Z</time></trkpt><trkpt lat="47.81615064779737" lon="7.260372238050991"><ele>246.0</ele><time>2026-03-29T14:50:04Z</time></trkpt><trkpt lat="47.81621923893686" lon="7.260307802661703"><ele>246.0</ele><time>2026-03-29T14:50:05Z</time></trkpt><trkpt lat="47.81628301359866" lon="7.260272172638541"><ele>246.0</ele><time>2026-03-29T14:50:06Z</time></trkpt><trkpt lat="47.81634959025606" lon="7.260210454047036"><ele>246.0</ele><time>2026-03-29T14:50:08Z</time></trkpt><trkpt lat="47.81625457740775" lon="7.260035494407412"><ele>246.0</ele><time>2026-03-29T14:50:12Z</time></trkpt></trkseg></trk></gpx>